<?xml version="1.0" encoding="UTF-8" standalone="no" ?>
<gpx xmlns="http://www.topografix.com/GPX/1/1" xmlns:xsi="http://www.w3.org/2001/XMLSchema-instance" xsi:schemaLocation="http://www.topografix.com/GPX/1/1 http://www.topografix.com/GPX/1/1/gpx.xsd" version="1.1" creator="VisuGPX - https://www.visugpx.com">
  <metadata>
    <name>Jour 5</name>
  </metadata>
  <trk>
    <name><![CDATA[J5]]></name>
    <extensions>
      <line xmlns="http://www.topografix.com/GPX/gpx_style/0/2">
        <color>0000FF</color>
        <width>4</width>
      </line>
    </extensions>
    <trkseg>
      <trkpt lat="42.32742" lon="-0.25969">
        <ele>976.21</ele>
        <time>2021-08-03T09:23:44Z</time>
      </trkpt>
      <trkpt lat="42.32742" lon="-0.25969">
        <ele>976.21</ele>
        <time>2021-08-03T09:23:44Z</time>
      </trkpt>
      <trkpt lat="42.32742" lon="-0.25969">
        <ele>976.12</ele>
        <time>2021-08-03T09:23:45Z</time>
      </trkpt>
      <trkpt lat="42.32743" lon="-0.25969">
        <ele>976.15</ele>
        <time>2021-08-03T09:23:48Z</time>
      </trkpt>
      <trkpt lat="42.32736" lon="-0.25999">
        <ele>976.48</ele>
        <time>2021-08-03T09:23:54Z</time>
      </trkpt>
      <trkpt lat="42.32728" lon="-0.26051">
        <ele>977.61</ele>
        <time>2021-08-03T09:23:59Z</time>
      </trkpt>
      <trkpt lat="42.32689" lon="-0.26104">
        <ele>981.06</ele>
        <time>2021-08-03T09:24:08Z</time>
      </trkpt>
      <trkpt lat="42.32683" lon="-0.26103">
        <ele>981.53</ele>
        <time>2021-08-03T09:24:09Z</time>
      </trkpt>
      <trkpt lat="42.32651" lon="-0.26115">
        <ele>985.06</ele>
        <time>2021-08-03T09:24:15Z</time>
      </trkpt>
      <trkpt lat="42.32627" lon="-0.26139">
        <ele>986.94</ele>
        <time>2021-08-03T09:24:19Z</time>
      </trkpt>
      <trkpt lat="42.32582" lon="-0.26189">
        <ele>990.72</ele>
        <time>2021-08-03T09:24:25Z</time>
      </trkpt>
      <trkpt lat="42.32566" lon="-0.26211">
        <ele>992.15</ele>
        <time>2021-08-03T09:24:27Z</time>
      </trkpt>
      <trkpt lat="42.32534" lon="-0.26292">
        <ele>995.94</ele>
        <time>2021-08-03T09:24:32Z</time>
      </trkpt>
      <trkpt lat="42.32522" lon="-0.2637">
        <ele>1000.02</ele>
        <time>2021-08-03T09:24:36Z</time>
      </trkpt>
      <trkpt lat="42.3252" lon="-0.26391">
        <ele>1001.18</ele>
        <time>2021-08-03T09:24:37Z</time>
      </trkpt>
      <trkpt lat="42.32518" lon="-0.26446">
        <ele>1004.57</ele>
        <time>2021-08-03T09:24:40Z</time>
      </trkpt>
      <trkpt lat="42.32481" lon="-0.26482">
        <ele>1009.35</ele>
        <time>2021-08-03T09:24:45Z</time>
      </trkpt>
      <trkpt lat="42.32469" lon="-0.26481">
        <ele>1010.18</ele>
        <time>2021-08-03T09:24:46Z</time>
      </trkpt>
      <trkpt lat="42.32447" lon="-0.2648">
        <ele>1011.96</ele>
        <time>2021-08-03T09:24:48Z</time>
      </trkpt>
      <trkpt lat="42.32416" lon="-0.26513">
        <ele>1015.26</ele>
        <time>2021-08-03T09:24:53Z</time>
      </trkpt>
      <trkpt lat="42.32396" lon="-0.26544">
        <ele>1017.39</ele>
        <time>2021-08-03T09:24:56Z</time>
      </trkpt>
      <trkpt lat="42.32404" lon="-0.26598">
        <ele>1021.17</ele>
        <time>2021-08-03T09:25:01Z</time>
      </trkpt>
      <trkpt lat="42.32412" lon="-0.26607">
        <ele>1021.82</ele>
        <time>2021-08-03T09:25:02Z</time>
      </trkpt>
      <trkpt lat="42.32433" lon="-0.26668">
        <ele>1025.59</ele>
        <time>2021-08-03T09:25:07Z</time>
      </trkpt>
      <trkpt lat="42.32428" lon="-0.26698">
        <ele>1027.15</ele>
        <time>2021-08-03T09:25:09Z</time>
      </trkpt>
      <trkpt lat="42.32397" lon="-0.26753">
        <ele>1031.18</ele>
        <time>2021-08-03T09:25:14Z</time>
      </trkpt>
      <trkpt lat="42.32395" lon="-0.26764">
        <ele>1031.86</ele>
        <time>2021-08-03T09:25:15Z</time>
      </trkpt>
      <trkpt lat="42.32367" lon="-0.26797">
        <ele>1035.33</ele>
        <time>2021-08-03T09:25:20Z</time>
      </trkpt>
      <trkpt lat="42.32327" lon="-0.26828">
        <ele>1038.76</ele>
        <time>2021-08-03T09:25:25Z</time>
      </trkpt>
      <trkpt lat="42.32265" lon="-0.26832">
        <ele>1041.91</ele>
        <time>2021-08-03T09:25:32Z</time>
      </trkpt>
      <trkpt lat="42.32224" lon="-0.26799">
        <ele>1042.97</ele>
        <time>2021-08-03T09:25:38Z</time>
      </trkpt>
      <trkpt lat="42.32193" lon="-0.26743">
        <ele>1044.34</ele>
        <time>2021-08-03T09:25:44Z</time>
      </trkpt>
      <trkpt lat="42.32155" lon="-0.26722">
        <ele>1045.77</ele>
        <time>2021-08-03T09:25:49Z</time>
      </trkpt>
      <trkpt lat="42.32141" lon="-0.26734">
        <ele>1046.36</ele>
        <time>2021-08-03T09:25:51Z</time>
      </trkpt>
      <trkpt lat="42.32101" lon="-0.26749">
        <ele>1049.23</ele>
        <time>2021-08-03T09:25:57Z</time>
      </trkpt>
      <trkpt lat="42.3202" lon="-0.26738">
        <ele>1053.09</ele>
        <time>2021-08-03T09:26:05Z</time>
      </trkpt>
      <trkpt lat="42.31985" lon="-0.26705">
        <ele>1055.36</ele>
        <time>2021-08-03T09:26:09Z</time>
      </trkpt>
      <trkpt lat="42.31938" lon="-0.2668">
        <ele>1059.09</ele>
        <time>2021-08-03T09:26:15Z</time>
      </trkpt>
      <trkpt lat="42.31882" lon="-0.26689">
        <ele>1062.91</ele>
        <time>2021-08-03T09:26:21Z</time>
      </trkpt>
      <trkpt lat="42.31856" lon="-0.26696">
        <ele>1065.2</ele>
        <time>2021-08-03T09:26:24Z</time>
      </trkpt>
      <trkpt lat="42.31827" lon="-0.26721">
        <ele>1068.4</ele>
        <time>2021-08-03T09:26:28Z</time>
      </trkpt>
      <trkpt lat="42.31784" lon="-0.26766">
        <ele>1072.15</ele>
        <time>2021-08-03T09:26:33Z</time>
      </trkpt>
      <trkpt lat="42.3173" lon="-0.26831">
        <ele>1075.79</ele>
        <time>2021-08-03T09:26:39Z</time>
      </trkpt>
      <trkpt lat="42.31708" lon="-0.26922">
        <ele>1079.5</ele>
        <time>2021-08-03T09:26:45Z</time>
      </trkpt>
      <trkpt lat="42.31708" lon="-0.26956">
        <ele>1080.78</ele>
        <time>2021-08-03T09:26:47Z</time>
      </trkpt>
      <trkpt lat="42.31724" lon="-0.27033">
        <ele>1083.74</ele>
        <time>2021-08-03T09:26:52Z</time>
      </trkpt>
      <trkpt lat="42.31759" lon="-0.27141">
        <ele>1086.69</ele>
        <time>2021-08-03T09:26:59Z</time>
      </trkpt>
      <trkpt lat="42.3181" lon="-0.27205">
        <ele>1088.9</ele>
        <time>2021-08-03T09:27:05Z</time>
      </trkpt>
      <trkpt lat="42.31855" lon="-0.27253">
        <ele>1090.98</ele>
        <time>2021-08-03T09:27:11Z</time>
      </trkpt>
      <trkpt lat="42.31829" lon="-0.27292">
        <ele>1092.32</ele>
        <time>2021-08-03T09:27:15Z</time>
      </trkpt>
      <trkpt lat="42.31786" lon="-0.27326">
        <ele>1093.84</ele>
        <time>2021-08-03T09:27:19Z</time>
      </trkpt>
      <trkpt lat="42.31768" lon="-0.2735">
        <ele>1094.85</ele>
        <time>2021-08-03T09:27:21Z</time>
      </trkpt>
      <trkpt lat="42.31727" lon="-0.27383">
        <ele>1097.24</ele>
        <time>2021-08-03T09:27:25Z</time>
      </trkpt>
      <trkpt lat="42.31689" lon="-0.27459">
        <ele>1101.21</ele>
        <time>2021-08-03T09:27:31Z</time>
      </trkpt>
      <trkpt lat="42.31687" lon="-0.27506">
        <ele>1103.81</ele>
        <time>2021-08-03T09:27:34Z</time>
      </trkpt>
      <trkpt lat="42.31688" lon="-0.27592">
        <ele>1107.93</ele>
        <time>2021-08-03T09:27:39Z</time>
      </trkpt>
      <trkpt lat="42.3169" lon="-0.27664">
        <ele>1111.73</ele>
        <time>2021-08-03T09:27:43Z</time>
      </trkpt>
      <trkpt lat="42.31689" lon="-0.27707">
        <ele>1113.87</ele>
        <time>2021-08-03T09:27:46Z</time>
      </trkpt>
      <trkpt lat="42.31695" lon="-0.27752">
        <ele>1116.33</ele>
        <time>2021-08-03T09:27:50Z</time>
      </trkpt>
      <trkpt lat="42.31671" lon="-0.27782">
        <ele>1119.74</ele>
        <time>2021-08-03T09:27:56Z</time>
      </trkpt>
      <trkpt lat="42.31644" lon="-0.2775">
        <ele>1121.91</ele>
        <time>2021-08-03T09:28:00Z</time>
      </trkpt>
      <trkpt lat="42.31623" lon="-0.27739">
        <ele>1124.6</ele>
        <time>2021-08-03T09:28:06Z</time>
      </trkpt>
      <trkpt lat="42.31642" lon="-0.27779">
        <ele>1126.57</ele>
        <time>2021-08-03T09:28:11Z</time>
      </trkpt>
      <trkpt lat="42.31663" lon="-0.27868">
        <ele>1129.37</ele>
        <time>2021-08-03T09:28:17Z</time>
      </trkpt>
      <trkpt lat="42.31693" lon="-0.27879">
        <ele>1132.99</ele>
        <time>2021-08-03T09:28:23Z</time>
      </trkpt>
      <trkpt lat="42.31731" lon="-0.27891">
        <ele>1136.51</ele>
        <time>2021-08-03T09:28:29Z</time>
      </trkpt>
      <trkpt lat="42.31732" lon="-0.279">
        <ele>1137.03</ele>
        <time>2021-08-03T09:28:30Z</time>
      </trkpt>
      <trkpt lat="42.31757" lon="-0.27915">
        <ele>1140.59</ele>
        <time>2021-08-03T09:28:37Z</time>
      </trkpt>
      <trkpt lat="42.31796" lon="-0.27923">
        <ele>1143.03</ele>
        <time>2021-08-03T09:28:42Z</time>
      </trkpt>
      <trkpt lat="42.31812" lon="-0.27991">
        <ele>1145.86</ele>
        <time>2021-08-03T09:28:47Z</time>
      </trkpt>
      <trkpt lat="42.31814" lon="-0.28098">
        <ele>1150.08</ele>
        <time>2021-08-03T09:28:53Z</time>
      </trkpt>
      <trkpt lat="42.31816" lon="-0.28113">
        <ele>1150.84</ele>
        <time>2021-08-03T09:28:54Z</time>
      </trkpt>
      <trkpt lat="42.31794" lon="-0.28168">
        <ele>1154.95</ele>
        <time>2021-08-03T09:28:59Z</time>
      </trkpt>
      <trkpt lat="42.31759" lon="-0.28201">
        <ele>1157.13</ele>
        <time>2021-08-03T09:29:03Z</time>
      </trkpt>
      <trkpt lat="42.31742" lon="-0.2823">
        <ele>1159.09</ele>
        <time>2021-08-03T09:29:06Z</time>
      </trkpt>
      <trkpt lat="42.317" lon="-0.28278">
        <ele>1163.21</ele>
        <time>2021-08-03T09:29:11Z</time>
      </trkpt>
      <trkpt lat="42.31689" lon="-0.28305">
        <ele>1164.06</ele>
        <time>2021-08-03T09:29:13Z</time>
      </trkpt>
      <trkpt lat="42.31659" lon="-0.28438">
        <ele>1166.32</ele>
        <time>2021-08-03T09:29:22Z</time>
      </trkpt>
      <trkpt lat="42.31631" lon="-0.28614">
        <ele>1164.9</ele>
        <time>2021-08-03T09:29:32Z</time>
      </trkpt>
      <trkpt lat="42.31641" lon="-0.28723">
        <ele>1160.99</ele>
        <time>2021-08-03T09:29:38Z</time>
      </trkpt>
      <trkpt lat="42.31656" lon="-0.2879">
        <ele>1157.17</ele>
        <time>2021-08-03T09:29:42Z</time>
      </trkpt>
      <trkpt lat="42.31665" lon="-0.28822">
        <ele>1155.15</ele>
        <time>2021-08-03T09:29:44Z</time>
      </trkpt>
      <trkpt lat="42.31662" lon="-0.28904">
        <ele>1150.57</ele>
        <time>2021-08-03T09:29:49Z</time>
      </trkpt>
      <trkpt lat="42.31639" lon="-0.28984">
        <ele>1145.84</ele>
        <time>2021-08-03T09:29:54Z</time>
      </trkpt>
      <trkpt lat="42.31626" lon="-0.29013">
        <ele>1143.89</ele>
        <time>2021-08-03T09:29:56Z</time>
      </trkpt>
      <trkpt lat="42.31597" lon="-0.29047">
        <ele>1139.69</ele>
        <time>2021-08-03T09:30:00Z</time>
      </trkpt>
      <trkpt lat="42.31576" lon="-0.29052">
        <ele>1137.54</ele>
        <time>2021-08-03T09:30:02Z</time>
      </trkpt>
      <trkpt lat="42.31533" lon="-0.2907">
        <ele>1133.95</ele>
        <time>2021-08-03T09:30:06Z</time>
      </trkpt>
      <trkpt lat="42.31492" lon="-0.29077">
        <ele>1130.55</ele>
        <time>2021-08-03T09:30:10Z</time>
      </trkpt>
      <trkpt lat="42.31476" lon="-0.29135">
        <ele>1126.98</ele>
        <time>2021-08-03T09:30:16Z</time>
      </trkpt>
      <trkpt lat="42.31458" lon="-0.29174">
        <ele>1124.37</ele>
        <time>2021-08-03T09:30:21Z</time>
      </trkpt>
      <trkpt lat="42.31402" lon="-0.29192">
        <ele>1121.1</ele>
        <time>2021-08-03T09:30:26Z</time>
      </trkpt>
      <trkpt lat="42.31375" lon="-0.29209">
        <ele>1119.16</ele>
        <time>2021-08-03T09:30:29Z</time>
      </trkpt>
      <trkpt lat="42.31354" lon="-0.29232">
        <ele>1114.85</ele>
        <time>2021-08-03T09:30:35Z</time>
      </trkpt>
      <trkpt lat="42.31373" lon="-0.29229">
        <ele>1113.23</ele>
        <time>2021-08-03T09:30:38Z</time>
      </trkpt>
      <trkpt lat="42.31419" lon="-0.29203">
        <ele>1110.9</ele>
        <time>2021-08-03T09:30:43Z</time>
      </trkpt>
      <trkpt lat="42.3143" lon="-0.29217">
        <ele>1107.88</ele>
        <time>2021-08-03T09:30:48Z</time>
      </trkpt>
      <trkpt lat="42.31415" lon="-0.29227">
        <ele>1106.2</ele>
        <time>2021-08-03T09:30:50Z</time>
      </trkpt>
      <trkpt lat="42.31397" lon="-0.29236">
        <ele>1105.18</ele>
        <time>2021-08-03T09:30:52Z</time>
      </trkpt>
      <trkpt lat="42.31391" lon="-0.29277">
        <ele>1101.78</ele>
        <time>2021-08-03T09:30:58Z</time>
      </trkpt>
      <trkpt lat="42.31427" lon="-0.29288">
        <ele>1099.96</ele>
        <time>2021-08-03T09:31:02Z</time>
      </trkpt>
      <trkpt lat="42.31445" lon="-0.29292">
        <ele>1099.03</ele>
        <time>2021-08-03T09:31:04Z</time>
      </trkpt>
      <trkpt lat="42.31475" lon="-0.29339">
        <ele>1095.14</ele>
        <time>2021-08-03T09:31:11Z</time>
      </trkpt>
      <trkpt lat="42.31473" lon="-0.29407">
        <ele>1092.19</ele>
        <time>2021-08-03T09:31:17Z</time>
      </trkpt>
      <trkpt lat="42.31468" lon="-0.29419">
        <ele>1091.75</ele>
        <time>2021-08-03T09:31:18Z</time>
      </trkpt>
      <trkpt lat="42.31455" lon="-0.29459">
        <ele>1090.59</ele>
        <time>2021-08-03T09:31:21Z</time>
      </trkpt>
      <trkpt lat="42.31464" lon="-0.29525">
        <ele>1087.88</ele>
        <time>2021-08-03T09:31:26Z</time>
      </trkpt>
      <trkpt lat="42.31463" lon="-0.29572">
        <ele>1085.73</ele>
        <time>2021-08-03T09:31:30Z</time>
      </trkpt>
      <trkpt lat="42.31454" lon="-0.29659">
        <ele>1081.75</ele>
        <time>2021-08-03T09:31:36Z</time>
      </trkpt>
      <trkpt lat="42.31454" lon="-0.29693">
        <ele>1079.31</ele>
        <time>2021-08-03T09:31:39Z</time>
      </trkpt>
      <trkpt lat="42.31481" lon="-0.29734">
        <ele>1075.12</ele>
        <time>2021-08-03T09:31:44Z</time>
      </trkpt>
      <trkpt lat="42.315" lon="-0.29741">
        <ele>1073.63</ele>
        <time>2021-08-03T09:31:46Z</time>
      </trkpt>
      <trkpt lat="42.31569" lon="-0.2976">
        <ele>1069.56</ele>
        <time>2021-08-03T09:31:52Z</time>
      </trkpt>
      <trkpt lat="42.31625" lon="-0.29784">
        <ele>1066.01</ele>
        <time>2021-08-03T09:31:57Z</time>
      </trkpt>
      <trkpt lat="42.31645" lon="-0.29795">
        <ele>1064.38</ele>
        <time>2021-08-03T09:31:59Z</time>
      </trkpt>
      <trkpt lat="42.3168" lon="-0.29845">
        <ele>1060.22</ele>
        <time>2021-08-03T09:32:04Z</time>
      </trkpt>
      <trkpt lat="42.31729" lon="-0.29936">
        <ele>1054.9</ele>
        <time>2021-08-03T09:32:11Z</time>
      </trkpt>
      <trkpt lat="42.31738" lon="-0.29948">
        <ele>1054.23</ele>
        <time>2021-08-03T09:32:12Z</time>
      </trkpt>
      <trkpt lat="42.31786" lon="-0.29997">
        <ele>1049.92</ele>
        <time>2021-08-03T09:32:18Z</time>
      </trkpt>
      <trkpt lat="42.31824" lon="-0.30034">
        <ele>1046.41</ele>
        <time>2021-08-03T09:32:23Z</time>
      </trkpt>
      <trkpt lat="42.31829" lon="-0.30041">
        <ele>1045.74</ele>
        <time>2021-08-03T09:32:24Z</time>
      </trkpt>
      <trkpt lat="42.31874" lon="-0.3006">
        <ele>1041.69</ele>
        <time>2021-08-03T09:32:29Z</time>
      </trkpt>
      <trkpt lat="42.31902" lon="-0.30062">
        <ele>1041.07</ele>
        <time>2021-08-03T09:32:33Z</time>
      </trkpt>
      <trkpt lat="42.31892" lon="-0.30099">
        <ele>1042.59</ele>
        <time>2021-08-03T09:32:40Z</time>
      </trkpt>
      <trkpt lat="42.31883" lon="-0.30105">
        <ele>1043.02</ele>
        <time>2021-08-03T09:32:41Z</time>
      </trkpt>
      <trkpt lat="42.31824" lon="-0.30159">
        <ele>1046.37</ele>
        <time>2021-08-03T09:32:47Z</time>
      </trkpt>
      <trkpt lat="42.31813" lon="-0.30217">
        <ele>1049.86</ele>
        <time>2021-08-03T09:32:53Z</time>
      </trkpt>
      <trkpt lat="42.31811" lon="-0.30305">
        <ele>1053.99</ele>
        <time>2021-08-03T09:33:01Z</time>
      </trkpt>
      <trkpt lat="42.31816" lon="-0.30315">
        <ele>1054.44</ele>
        <time>2021-08-03T09:33:02Z</time>
      </trkpt>
      <trkpt lat="42.31832" lon="-0.30344">
        <ele>1055.88</ele>
        <time>2021-08-03T09:33:05Z</time>
      </trkpt>
      <trkpt lat="42.31822" lon="-0.30406">
        <ele>1058.26</ele>
        <time>2021-08-03T09:33:11Z</time>
      </trkpt>
      <trkpt lat="42.318" lon="-0.30428">
        <ele>1059.6</ele>
        <time>2021-08-03T09:33:14Z</time>
      </trkpt>
      <trkpt lat="42.31806" lon="-0.30492">
        <ele>1061.99</ele>
        <time>2021-08-03T09:33:20Z</time>
      </trkpt>
      <trkpt lat="42.31804" lon="-0.30579">
        <ele>1063.06</ele>
        <time>2021-08-03T09:33:27Z</time>
      </trkpt>
      <trkpt lat="42.31791" lon="-0.30598">
        <ele>1062.82</ele>
        <time>2021-08-03T09:33:29Z</time>
      </trkpt>
      <trkpt lat="42.31778" lon="-0.30615">
        <ele>1062.19</ele>
        <time>2021-08-03T09:33:31Z</time>
      </trkpt>
      <trkpt lat="42.31723" lon="-0.30648">
        <ele>1059.12</ele>
        <time>2021-08-03T09:33:38Z</time>
      </trkpt>
      <trkpt lat="42.3172" lon="-0.30695">
        <ele>1055.16</ele>
        <time>2021-08-03T09:33:45Z</time>
      </trkpt>
      <trkpt lat="42.3173" lon="-0.30733">
        <ele>1052.04</ele>
        <time>2021-08-03T09:33:54Z</time>
      </trkpt>
      <trkpt lat="42.31733" lon="-0.30765">
        <ele>1050.03</ele>
        <time>2021-08-03T09:34:18Z</time>
      </trkpt>
      <trkpt lat="42.31726" lon="-0.30807">
        <ele>1049.74</ele>
        <time>2021-08-03T09:34:22Z</time>
      </trkpt>
      <trkpt lat="42.31715" lon="-0.30849">
        <ele>1048.74</ele>
        <time>2021-08-03T09:34:27Z</time>
      </trkpt>
      <trkpt lat="42.31697" lon="-0.30876">
        <ele>1047.92</ele>
        <time>2021-08-03T09:34:31Z</time>
      </trkpt>
      <trkpt lat="42.31665" lon="-0.30894">
        <ele>1047.6</ele>
        <time>2021-08-03T09:34:35Z</time>
      </trkpt>
      <trkpt lat="42.31628" lon="-0.30926">
        <ele>1047.01</ele>
        <time>2021-08-03T09:34:40Z</time>
      </trkpt>
      <trkpt lat="42.31612" lon="-0.3096">
        <ele>1046.54</ele>
        <time>2021-08-03T09:34:43Z</time>
      </trkpt>
      <trkpt lat="42.31606" lon="-0.31054">
        <ele>1045.4</ele>
        <time>2021-08-03T09:34:50Z</time>
      </trkpt>
      <trkpt lat="42.31611" lon="-0.31066">
        <ele>1045.2</ele>
        <time>2021-08-03T09:34:51Z</time>
      </trkpt>
      <trkpt lat="42.31633" lon="-0.31119">
        <ele>1044.69</ele>
        <time>2021-08-03T09:34:55Z</time>
      </trkpt>
      <trkpt lat="42.31632" lon="-0.31193">
        <ele>1042.8</ele>
        <time>2021-08-03T09:35:00Z</time>
      </trkpt>
      <trkpt lat="42.31626" lon="-0.31219">
        <ele>1041.9</ele>
        <time>2021-08-03T09:35:02Z</time>
      </trkpt>
      <trkpt lat="42.31593" lon="-0.31257">
        <ele>1040.25</ele>
        <time>2021-08-03T09:35:07Z</time>
      </trkpt>
      <trkpt lat="42.3158" lon="-0.31268">
        <ele>1039.61</ele>
        <time>2021-08-03T09:35:09Z</time>
      </trkpt>
      <trkpt lat="42.31538" lon="-0.31336">
        <ele>1037.19</ele>
        <time>2021-08-03T09:35:16Z</time>
      </trkpt>
      <trkpt lat="42.31532" lon="-0.31388">
        <ele>1035.8</ele>
        <time>2021-08-03T09:35:20Z</time>
      </trkpt>
      <trkpt lat="42.31522" lon="-0.31442">
        <ele>1033.71</ele>
        <time>2021-08-03T09:35:24Z</time>
      </trkpt>
      <trkpt lat="42.3151" lon="-0.31472">
        <ele>1032.33</ele>
        <time>2021-08-03T09:35:27Z</time>
      </trkpt>
      <trkpt lat="42.3153" lon="-0.31547">
        <ele>1030.23</ele>
        <time>2021-08-03T09:35:33Z</time>
      </trkpt>
      <trkpt lat="42.3157" lon="-0.31579">
        <ele>1027.55</ele>
        <time>2021-08-03T09:35:38Z</time>
      </trkpt>
      <trkpt lat="42.31636" lon="-0.31601">
        <ele>1023.09</ele>
        <time>2021-08-03T09:35:44Z</time>
      </trkpt>
      <trkpt lat="42.31672" lon="-0.31613">
        <ele>1020.18</ele>
        <time>2021-08-03T09:35:47Z</time>
      </trkpt>
      <trkpt lat="42.31728" lon="-0.31652">
        <ele>1016.37</ele>
        <time>2021-08-03T09:35:52Z</time>
      </trkpt>
      <trkpt lat="42.31739" lon="-0.3166">
        <ele>1015.56</ele>
        <time>2021-08-03T09:35:53Z</time>
      </trkpt>
      <trkpt lat="42.31797" lon="-0.31674">
        <ele>1011.66</ele>
        <time>2021-08-03T09:35:58Z</time>
      </trkpt>
      <trkpt lat="42.31834" lon="-0.31653">
        <ele>1008.24</ele>
        <time>2021-08-03T09:36:02Z</time>
      </trkpt>
      <trkpt lat="42.31842" lon="-0.31664">
        <ele>1004.98</ele>
        <time>2021-08-03T09:36:06Z</time>
      </trkpt>
      <trkpt lat="42.31826" lon="-0.31677">
        <ele>1003.64</ele>
        <time>2021-08-03T09:36:08Z</time>
      </trkpt>
      <trkpt lat="42.31781" lon="-0.31716">
        <ele>1000.2</ele>
        <time>2021-08-03T09:36:13Z</time>
      </trkpt>
      <trkpt lat="42.31731" lon="-0.31708">
        <ele>996.12</ele>
        <time>2021-08-03T09:36:19Z</time>
      </trkpt>
      <trkpt lat="42.3171" lon="-0.31701">
        <ele>994.86</ele>
        <time>2021-08-03T09:36:21Z</time>
      </trkpt>
      <trkpt lat="42.31656" lon="-0.31693">
        <ele>990.44</ele>
        <time>2021-08-03T09:36:27Z</time>
      </trkpt>
      <trkpt lat="42.31613" lon="-0.31697">
        <ele>987.24</ele>
        <time>2021-08-03T09:36:32Z</time>
      </trkpt>
      <trkpt lat="42.31591" lon="-0.31695">
        <ele>985.73</ele>
        <time>2021-08-03T09:36:35Z</time>
      </trkpt>
      <trkpt lat="42.31585" lon="-0.31716">
        <ele>982.82</ele>
        <time>2021-08-03T09:36:41Z</time>
      </trkpt>
      <trkpt lat="42.316" lon="-0.31719">
        <ele>981.99</ele>
        <time>2021-08-03T09:36:43Z</time>
      </trkpt>
      <trkpt lat="42.31621" lon="-0.31721">
        <ele>981.51</ele>
        <time>2021-08-03T09:36:45Z</time>
      </trkpt>
      <trkpt lat="42.31665" lon="-0.31736">
        <ele>980.15</ele>
        <time>2021-08-03T09:36:49Z</time>
      </trkpt>
      <trkpt lat="42.31664" lon="-0.31769">
        <ele>976.81</ele>
        <time>2021-08-03T09:36:55Z</time>
      </trkpt>
      <trkpt lat="42.31653" lon="-0.3177">
        <ele>976.23</ele>
        <time>2021-08-03T09:36:56Z</time>
      </trkpt>
      <trkpt lat="42.31597" lon="-0.31777">
        <ele>973.32</ele>
        <time>2021-08-03T09:37:01Z</time>
      </trkpt>
      <trkpt lat="42.31588" lon="-0.31808">
        <ele>970.17</ele>
        <time>2021-08-03T09:37:06Z</time>
      </trkpt>
      <trkpt lat="42.31597" lon="-0.31811">
        <ele>969.51</ele>
        <time>2021-08-03T09:37:07Z</time>
      </trkpt>
      <trkpt lat="42.31652" lon="-0.31831">
        <ele>967.14</ele>
        <time>2021-08-03T09:37:12Z</time>
      </trkpt>
      <trkpt lat="42.31681" lon="-0.31834">
        <ele>965.77</ele>
        <time>2021-08-03T09:37:15Z</time>
      </trkpt>
      <trkpt lat="42.31693" lon="-0.31866">
        <ele>962.44</ele>
        <time>2021-08-03T09:37:21Z</time>
      </trkpt>
      <trkpt lat="42.31686" lon="-0.31873">
        <ele>961.84</ele>
        <time>2021-08-03T09:37:22Z</time>
      </trkpt>
      <trkpt lat="42.31604" lon="-0.31971">
        <ele>958.28</ele>
        <time>2021-08-03T09:37:32Z</time>
      </trkpt>
      <trkpt lat="42.31557" lon="-0.32082">
        <ele>955.07</ele>
        <time>2021-08-03T09:37:40Z</time>
      </trkpt>
      <trkpt lat="42.3153" lon="-0.32171">
        <ele>951.85</ele>
        <time>2021-08-03T09:37:46Z</time>
      </trkpt>
      <trkpt lat="42.31509" lon="-0.32217">
        <ele>950.2</ele>
        <time>2021-08-03T09:37:50Z</time>
      </trkpt>
      <trkpt lat="42.31504" lon="-0.3227">
        <ele>948.34</ele>
        <time>2021-08-03T09:37:54Z</time>
      </trkpt>
      <trkpt lat="42.31504" lon="-0.32312">
        <ele>947.01</ele>
        <time>2021-08-03T09:37:57Z</time>
      </trkpt>
      <trkpt lat="42.3152" lon="-0.32388">
        <ele>945.18</ele>
        <time>2021-08-03T09:38:02Z</time>
      </trkpt>
      <trkpt lat="42.31535" lon="-0.32478">
        <ele>942.35</ele>
        <time>2021-08-03T09:38:08Z</time>
      </trkpt>
      <trkpt lat="42.31571" lon="-0.32489">
        <ele>938.94</ele>
        <time>2021-08-03T09:38:14Z</time>
      </trkpt>
      <trkpt lat="42.31616" lon="-0.3246">
        <ele>936.42</ele>
        <time>2021-08-03T09:38:19Z</time>
      </trkpt>
      <trkpt lat="42.31644" lon="-0.32436">
        <ele>933.91</ele>
        <time>2021-08-03T09:38:23Z</time>
      </trkpt>
      <trkpt lat="42.3168" lon="-0.32477">
        <ele>930.8</ele>
        <time>2021-08-03T09:38:29Z</time>
      </trkpt>
      <trkpt lat="42.31682" lon="-0.32492">
        <ele>930.56</ele>
        <time>2021-08-03T09:38:30Z</time>
      </trkpt>
      <trkpt lat="42.31706" lon="-0.32663">
        <ele>930.1</ele>
        <time>2021-08-03T09:38:40Z</time>
      </trkpt>
      <trkpt lat="42.31721" lon="-0.3285">
        <ele>928.98</ele>
        <time>2021-08-03T09:38:50Z</time>
      </trkpt>
      <trkpt lat="42.3171" lon="-0.33002">
        <ele>927.51</ele>
        <time>2021-08-03T09:38:58Z</time>
      </trkpt>
      <trkpt lat="42.31706" lon="-0.33174">
        <ele>924.72</ele>
        <time>2021-08-03T09:39:07Z</time>
      </trkpt>
      <trkpt lat="42.31705" lon="-0.33261">
        <ele>923</ele>
        <time>2021-08-03T09:39:12Z</time>
      </trkpt>
      <trkpt lat="42.31672" lon="-0.3337">
        <ele>921.54</ele>
        <time>2021-08-03T09:39:19Z</time>
      </trkpt>
      <trkpt lat="42.3165" lon="-0.33382">
        <ele>920.99</ele>
        <time>2021-08-03T09:39:21Z</time>
      </trkpt>
      <trkpt lat="42.31632" lon="-0.3339">
        <ele>920.75</ele>
        <time>2021-08-03T09:39:23Z</time>
      </trkpt>
      <trkpt lat="42.31623" lon="-0.33398">
        <ele>920.68</ele>
        <time>2021-08-03T09:39:24Z</time>
      </trkpt>
      <trkpt lat="42.31617" lon="-0.33409">
        <ele>920.63</ele>
        <time>2021-08-03T09:39:25Z</time>
      </trkpt>
      <trkpt lat="42.31612" lon="-0.33421">
        <ele>920.58</ele>
        <time>2021-08-03T09:39:26Z</time>
      </trkpt>
      <trkpt lat="42.31621" lon="-0.33484">
        <ele>920.38</ele>
        <time>2021-08-03T09:39:32Z</time>
      </trkpt>
      <trkpt lat="42.31638" lon="-0.33492">
        <ele>920.54</ele>
        <time>2021-08-03T09:39:34Z</time>
      </trkpt>
      <trkpt lat="42.31661" lon="-0.33499">
        <ele>920.81</ele>
        <time>2021-08-03T09:39:37Z</time>
      </trkpt>
      <trkpt lat="42.31666" lon="-0.3353">
        <ele>920.52</ele>
        <time>2021-08-03T09:39:42Z</time>
      </trkpt>
      <trkpt lat="42.31644" lon="-0.3354">
        <ele>920.03</ele>
        <time>2021-08-03T09:39:46Z</time>
      </trkpt>
      <trkpt lat="42.31625" lon="-0.33559">
        <ele>919.51</ele>
        <time>2021-08-03T09:39:57Z</time>
      </trkpt>
      <trkpt lat="42.31593" lon="-0.33612">
        <ele>919.74</ele>
        <time>2021-08-03T09:40:06Z</time>
      </trkpt>
      <trkpt lat="42.31575" lon="-0.33671">
        <ele>920.02</ele>
        <time>2021-08-03T09:40:11Z</time>
      </trkpt>
      <trkpt lat="42.31547" lon="-0.33708">
        <ele>919.95</ele>
        <time>2021-08-03T09:40:15Z</time>
      </trkpt>
      <trkpt lat="42.31528" lon="-0.3372">
        <ele>919.86</ele>
        <time>2021-08-03T09:40:17Z</time>
      </trkpt>
      <trkpt lat="42.31488" lon="-0.33816">
        <ele>918.84</ele>
        <time>2021-08-03T09:40:25Z</time>
      </trkpt>
      <trkpt lat="42.31458" lon="-0.33938">
        <ele>915.41</ele>
        <time>2021-08-03T09:40:32Z</time>
      </trkpt>
      <trkpt lat="42.3144" lon="-0.34003">
        <ele>912.15</ele>
        <time>2021-08-03T09:40:36Z</time>
      </trkpt>
      <trkpt lat="42.31434" lon="-0.34017">
        <ele>911.34</ele>
        <time>2021-08-03T09:40:37Z</time>
      </trkpt>
      <trkpt lat="42.31396" lon="-0.34083">
        <ele>906.81</ele>
        <time>2021-08-03T09:40:42Z</time>
      </trkpt>
      <trkpt lat="42.3139" lon="-0.34095">
        <ele>905.94</ele>
        <time>2021-08-03T09:40:43Z</time>
      </trkpt>
      <trkpt lat="42.31383" lon="-0.34181">
        <ele>901.48</ele>
        <time>2021-08-03T09:40:49Z</time>
      </trkpt>
      <trkpt lat="42.31401" lon="-0.34227">
        <ele>900.13</ele>
        <time>2021-08-03T09:40:52Z</time>
      </trkpt>
      <trkpt lat="42.31423" lon="-0.34268">
        <ele>899.17</ele>
        <time>2021-08-03T09:40:55Z</time>
      </trkpt>
      <trkpt lat="42.31437" lon="-0.3438">
        <ele>898.17</ele>
        <time>2021-08-03T09:41:02Z</time>
      </trkpt>
      <trkpt lat="42.31434" lon="-0.34397">
        <ele>898.12</ele>
        <time>2021-08-03T09:41:03Z</time>
      </trkpt>
      <trkpt lat="42.31392" lon="-0.34554">
        <ele>898.6</ele>
        <time>2021-08-03T09:41:14Z</time>
      </trkpt>
      <trkpt lat="42.31387" lon="-0.3457">
        <ele>898.76</ele>
        <time>2021-08-03T09:41:15Z</time>
      </trkpt>
      <trkpt lat="42.31381" lon="-0.34704">
        <ele>899.63</ele>
        <time>2021-08-03T09:41:23Z</time>
      </trkpt>
      <trkpt lat="42.31377" lon="-0.34738">
        <ele>899.46</ele>
        <time>2021-08-03T09:41:26Z</time>
      </trkpt>
      <trkpt lat="42.31344" lon="-0.34805">
        <ele>897.97</ele>
        <time>2021-08-03T09:41:35Z</time>
      </trkpt>
      <trkpt lat="42.31302" lon="-0.34878">
        <ele>897.9</ele>
        <time>2021-08-03T09:41:43Z</time>
      </trkpt>
      <trkpt lat="42.31282" lon="-0.34913">
        <ele>898.59</ele>
        <time>2021-08-03T09:41:46Z</time>
      </trkpt>
      <trkpt lat="42.31234" lon="-0.34919">
        <ele>900.86</ele>
        <time>2021-08-03T09:41:52Z</time>
      </trkpt>
      <trkpt lat="42.31207" lon="-0.349">
        <ele>902.02</ele>
        <time>2021-08-03T09:41:55Z</time>
      </trkpt>
      <trkpt lat="42.31165" lon="-0.34847">
        <ele>904.72</ele>
        <time>2021-08-03T09:42:01Z</time>
      </trkpt>
      <trkpt lat="42.3115" lon="-0.34812">
        <ele>906.3</ele>
        <time>2021-08-03T09:42:04Z</time>
      </trkpt>
      <trkpt lat="42.3112" lon="-0.34801">
        <ele>908.46</ele>
        <time>2021-08-03T09:42:09Z</time>
      </trkpt>
      <trkpt lat="42.31115" lon="-0.34824">
        <ele>909.53</ele>
        <time>2021-08-03T09:42:11Z</time>
      </trkpt>
      <trkpt lat="42.31092" lon="-0.34953">
        <ele>914.19</ele>
        <time>2021-08-03T09:42:19Z</time>
      </trkpt>
      <trkpt lat="42.31089" lon="-0.34971">
        <ele>915.94</ele>
        <time>2021-08-03T09:42:20Z</time>
      </trkpt>
      <trkpt lat="42.31076" lon="-0.35024">
        <ele>918.86</ele>
        <time>2021-08-03T09:42:23Z</time>
      </trkpt>
      <trkpt lat="42.3109" lon="-0.35104">
        <ele>923.49</ele>
        <time>2021-08-03T09:42:28Z</time>
      </trkpt>
      <trkpt lat="42.31098" lon="-0.35172">
        <ele>928.49</ele>
        <time>2021-08-03T09:42:34Z</time>
      </trkpt>
      <trkpt lat="42.31057" lon="-0.35204">
        <ele>932.3</ele>
        <time>2021-08-03T09:42:38Z</time>
      </trkpt>
      <trkpt lat="42.31038" lon="-0.35231">
        <ele>934.17</ele>
        <time>2021-08-03T09:42:40Z</time>
      </trkpt>
      <trkpt lat="42.31019" lon="-0.3532">
        <ele>939.53</ele>
        <time>2021-08-03T09:42:46Z</time>
      </trkpt>
      <trkpt lat="42.31034" lon="-0.35437">
        <ele>942.81</ele>
        <time>2021-08-03T09:42:54Z</time>
      </trkpt>
      <trkpt lat="42.31074" lon="-0.35544">
        <ele>942.38</ele>
        <time>2021-08-03T09:43:02Z</time>
      </trkpt>
      <trkpt lat="42.31092" lon="-0.35613">
        <ele>941.61</ele>
        <time>2021-08-03T09:43:06Z</time>
      </trkpt>
      <trkpt lat="42.31081" lon="-0.35746">
        <ele>939.19</ele>
        <time>2021-08-03T09:43:13Z</time>
      </trkpt>
      <trkpt lat="42.31025" lon="-0.35911">
        <ele>939.47</ele>
        <time>2021-08-03T09:43:24Z</time>
      </trkpt>
      <trkpt lat="42.30974" lon="-0.35945">
        <ele>939.59</ele>
        <time>2021-08-03T09:43:30Z</time>
      </trkpt>
      <trkpt lat="42.30958" lon="-0.36006">
        <ele>940.28</ele>
        <time>2021-08-03T09:43:35Z</time>
      </trkpt>
      <trkpt lat="42.30949" lon="-0.36135">
        <ele>941.77</ele>
        <time>2021-08-03T09:43:43Z</time>
      </trkpt>
      <trkpt lat="42.30946" lon="-0.3615">
        <ele>941.77</ele>
        <time>2021-08-03T09:43:44Z</time>
      </trkpt>
      <trkpt lat="42.30925" lon="-0.36207">
        <ele>941.37</ele>
        <time>2021-08-03T09:43:49Z</time>
      </trkpt>
      <trkpt lat="42.30895" lon="-0.36236">
        <ele>940.83</ele>
        <time>2021-08-03T09:43:53Z</time>
      </trkpt>
      <trkpt lat="42.30878" lon="-0.36247">
        <ele>940.67</ele>
        <time>2021-08-03T09:43:55Z</time>
      </trkpt>
      <trkpt lat="42.3085" lon="-0.36333">
        <ele>941.2</ele>
        <time>2021-08-03T09:44:02Z</time>
      </trkpt>
      <trkpt lat="42.3085" lon="-0.36349">
        <ele>941.46</ele>
        <time>2021-08-03T09:44:03Z</time>
      </trkpt>
      <trkpt lat="42.30849" lon="-0.36411">
        <ele>942.54</ele>
        <time>2021-08-03T09:44:07Z</time>
      </trkpt>
      <trkpt lat="42.30863" lon="-0.36492">
        <ele>944.21</ele>
        <time>2021-08-03T09:44:12Z</time>
      </trkpt>
      <trkpt lat="42.30864" lon="-0.36558">
        <ele>945.4</ele>
        <time>2021-08-03T09:44:16Z</time>
      </trkpt>
      <trkpt lat="42.30852" lon="-0.36704">
        <ele>949.2</ele>
        <time>2021-08-03T09:44:25Z</time>
      </trkpt>
      <trkpt lat="42.3085" lon="-0.3672">
        <ele>949.68</ele>
        <time>2021-08-03T09:44:26Z</time>
      </trkpt>
      <trkpt lat="42.30842" lon="-0.36768">
        <ele>950.63</ele>
        <time>2021-08-03T09:44:29Z</time>
      </trkpt>
      <trkpt lat="42.30841" lon="-0.36915">
        <ele>952.85</ele>
        <time>2021-08-03T09:44:37Z</time>
      </trkpt>
      <trkpt lat="42.30844" lon="-0.37008">
        <ele>952.83</ele>
        <time>2021-08-03T09:44:42Z</time>
      </trkpt>
      <trkpt lat="42.30811" lon="-0.37126">
        <ele>952.87</ele>
        <time>2021-08-03T09:44:49Z</time>
      </trkpt>
      <trkpt lat="42.30771" lon="-0.37245">
        <ele>954.75</ele>
        <time>2021-08-03T09:44:56Z</time>
      </trkpt>
      <trkpt lat="42.3071" lon="-0.37365">
        <ele>957.11</ele>
        <time>2021-08-03T09:45:04Z</time>
      </trkpt>
      <trkpt lat="42.30719" lon="-0.3745">
        <ele>958.13</ele>
        <time>2021-08-03T09:45:10Z</time>
      </trkpt>
      <trkpt lat="42.30753" lon="-0.37475">
        <ele>957.88</ele>
        <time>2021-08-03T09:45:13Z</time>
      </trkpt>
      <trkpt lat="42.30776" lon="-0.37486">
        <ele>957.34</ele>
        <time>2021-08-03T09:45:15Z</time>
      </trkpt>
      <trkpt lat="42.30841" lon="-0.37576">
        <ele>954.27</ele>
        <time>2021-08-03T09:45:22Z</time>
      </trkpt>
      <trkpt lat="42.30867" lon="-0.37617">
        <ele>953.24</ele>
        <time>2021-08-03T09:45:25Z</time>
      </trkpt>
      <trkpt lat="42.30891" lon="-0.37696">
        <ele>951.79</ele>
        <time>2021-08-03T09:45:30Z</time>
      </trkpt>
      <trkpt lat="42.30948" lon="-0.37807">
        <ele>950.39</ele>
        <time>2021-08-03T09:45:38Z</time>
      </trkpt>
      <trkpt lat="42.30967" lon="-0.37871">
        <ele>949.74</ele>
        <time>2021-08-03T09:45:42Z</time>
      </trkpt>
      <trkpt lat="42.30995" lon="-0.38069">
        <ele>950.08</ele>
        <time>2021-08-03T09:45:54Z</time>
      </trkpt>
      <trkpt lat="42.31002" lon="-0.38095">
        <ele>950.12</ele>
        <time>2021-08-03T09:45:56Z</time>
      </trkpt>
      <trkpt lat="42.31053" lon="-0.38133">
        <ele>950.02</ele>
        <time>2021-08-03T09:46:02Z</time>
      </trkpt>
      <trkpt lat="42.3109" lon="-0.38137">
        <ele>949.25</ele>
        <time>2021-08-03T09:46:06Z</time>
      </trkpt>
      <trkpt lat="42.31107" lon="-0.38172">
        <ele>948.18</ele>
        <time>2021-08-03T09:46:10Z</time>
      </trkpt>
      <trkpt lat="42.31118" lon="-0.38196">
        <ele>947.27</ele>
        <time>2021-08-03T09:46:15Z</time>
      </trkpt>
      <trkpt lat="42.31156" lon="-0.38238">
        <ele>947.73</ele>
        <time>2021-08-03T09:46:23Z</time>
      </trkpt>
      <trkpt lat="42.3119" lon="-0.38225">
        <ele>949.12</ele>
        <time>2021-08-03T09:46:29Z</time>
      </trkpt>
      <trkpt lat="42.31176" lon="-0.38165">
        <ele>951.7</ele>
        <time>2021-08-03T09:46:35Z</time>
      </trkpt>
      <trkpt lat="42.31205" lon="-0.38129">
        <ele>954.64</ele>
        <time>2021-08-03T09:46:40Z</time>
      </trkpt>
      <trkpt lat="42.31225" lon="-0.38117">
        <ele>956.41</ele>
        <time>2021-08-03T09:46:42Z</time>
      </trkpt>
      <trkpt lat="42.31643" lon="-0.44734">
        <ele>1081.95</ele>
        <time>2021-08-03T09:58:35Z</time>
      </trkpt>
      <trkpt lat="42.31639" lon="-0.44753">
        <ele>1081.95</ele>
        <time>2021-08-03T09:58:36Z</time>
      </trkpt>
      <trkpt lat="42.31597" lon="-0.44805">
        <ele>1081.13</ele>
        <time>2021-08-03T09:58:41Z</time>
      </trkpt>
      <trkpt lat="42.31557" lon="-0.4487">
        <ele>1081.41</ele>
        <time>2021-08-03T09:58:47Z</time>
      </trkpt>
      <trkpt lat="42.31546" lon="-0.44921">
        <ele>1081.87</ele>
        <time>2021-08-03T09:58:50Z</time>
      </trkpt>
      <trkpt lat="42.31544" lon="-0.44953">
        <ele>1082.63</ele>
        <time>2021-08-03T09:58:52Z</time>
      </trkpt>
      <trkpt lat="42.31546" lon="-0.4497">
        <ele>1083.14</ele>
        <time>2021-08-03T09:58:53Z</time>
      </trkpt>
      <trkpt lat="42.31549" lon="-0.44986">
        <ele>1083.54</ele>
        <time>2021-08-03T09:58:54Z</time>
      </trkpt>
      <trkpt lat="42.31596" lon="-0.45173">
        <ele>1085.82</ele>
        <time>2021-08-03T09:59:05Z</time>
      </trkpt>
      <trkpt lat="42.31591" lon="-0.45226">
        <ele>1084.01</ele>
        <time>2021-08-03T09:59:09Z</time>
      </trkpt>
      <trkpt lat="42.31604" lon="-0.45303">
        <ele>1080.37</ele>
        <time>2021-08-03T09:59:16Z</time>
      </trkpt>
      <trkpt lat="42.31619" lon="-0.45392">
        <ele>1078.61</ele>
        <time>2021-08-03T09:59:23Z</time>
      </trkpt>
      <trkpt lat="42.31612" lon="-0.45463">
        <ele>1078.5</ele>
        <time>2021-08-03T09:59:27Z</time>
      </trkpt>
      <trkpt lat="42.31596" lon="-0.45556">
        <ele>1080.15</ele>
        <time>2021-08-03T09:59:33Z</time>
      </trkpt>
      <trkpt lat="42.31611" lon="-0.45635">
        <ele>1083.49</ele>
        <time>2021-08-03T09:59:39Z</time>
      </trkpt>
      <trkpt lat="42.31614" lon="-0.45667">
        <ele>1084.58</ele>
        <time>2021-08-03T09:59:41Z</time>
      </trkpt>
      <trkpt lat="42.316" lon="-0.45745">
        <ele>1088.4</ele>
        <time>2021-08-03T09:59:47Z</time>
      </trkpt>
      <trkpt lat="42.31574" lon="-0.45775">
        <ele>1089.9</ele>
        <time>2021-08-03T09:59:50Z</time>
      </trkpt>
      <trkpt lat="42.31553" lon="-0.45809">
        <ele>1092.11</ele>
        <time>2021-08-03T09:59:53Z</time>
      </trkpt>
      <trkpt lat="42.31544" lon="-0.45879">
        <ele>1096.87</ele>
        <time>2021-08-03T09:59:58Z</time>
      </trkpt>
      <trkpt lat="42.31576" lon="-0.4595">
        <ele>1100.79</ele>
        <time>2021-08-03T10:00:05Z</time>
      </trkpt>
      <trkpt lat="42.31558" lon="-0.46007">
        <ele>1102.46</ele>
        <time>2021-08-03T10:00:10Z</time>
      </trkpt>
      <trkpt lat="42.31559" lon="-0.4607">
        <ele>1103.97</ele>
        <time>2021-08-03T10:00:15Z</time>
      </trkpt>
      <trkpt lat="42.31535" lon="-0.46121">
        <ele>1104.27</ele>
        <time>2021-08-03T10:00:21Z</time>
      </trkpt>
      <trkpt lat="42.31537" lon="-0.46172">
        <ele>1104.82</ele>
        <time>2021-08-03T10:00:26Z</time>
      </trkpt>
      <trkpt lat="42.31541" lon="-0.46221">
        <ele>1106.07</ele>
        <time>2021-08-03T10:00:31Z</time>
      </trkpt>
      <trkpt lat="42.3154" lon="-0.46235">
        <ele>1106.21</ele>
        <time>2021-08-03T10:00:32Z</time>
      </trkpt>
      <trkpt lat="42.31538" lon="-0.46354">
        <ele>1106.61</ele>
        <time>2021-08-03T10:00:41Z</time>
      </trkpt>
      <trkpt lat="42.31561" lon="-0.46437">
        <ele>1106.44</ele>
        <time>2021-08-03T10:00:47Z</time>
      </trkpt>
      <trkpt lat="42.31582" lon="-0.46477">
        <ele>1106.36</ele>
        <time>2021-08-03T10:00:50Z</time>
      </trkpt>
      <trkpt lat="42.31594" lon="-0.46539">
        <ele>1105.89</ele>
        <time>2021-08-03T10:00:54Z</time>
      </trkpt>
      <trkpt lat="42.31593" lon="-0.46651">
        <ele>1105.27</ele>
        <time>2021-08-03T10:01:01Z</time>
      </trkpt>
      <trkpt lat="42.31631" lon="-0.46734">
        <ele>1105.92</ele>
        <time>2021-08-03T10:01:08Z</time>
      </trkpt>
      <trkpt lat="42.31647" lon="-0.46811">
        <ele>1107.87</ele>
        <time>2021-08-03T10:01:13Z</time>
      </trkpt>
      <trkpt lat="42.31664" lon="-0.46871">
        <ele>1108.76</ele>
        <time>2021-08-03T10:01:18Z</time>
      </trkpt>
      <trkpt lat="42.31701" lon="-0.46923">
        <ele>1111.63</ele>
        <time>2021-08-03T10:01:23Z</time>
      </trkpt>
      <trkpt lat="42.31762" lon="-0.4696">
        <ele>1114.77</ele>
        <time>2021-08-03T10:01:30Z</time>
      </trkpt>
      <trkpt lat="42.31781" lon="-0.46979">
        <ele>1115.71</ele>
        <time>2021-08-03T10:01:32Z</time>
      </trkpt>
      <trkpt lat="42.31847" lon="-0.47084">
        <ele>1115.45</ele>
        <time>2021-08-03T10:01:40Z</time>
      </trkpt>
      <trkpt lat="42.31886" lon="-0.47193">
        <ele>1115.03</ele>
        <time>2021-08-03T10:01:48Z</time>
      </trkpt>
      <trkpt lat="42.3189" lon="-0.47206">
        <ele>1115.2</ele>
        <time>2021-08-03T10:01:49Z</time>
      </trkpt>
      <trkpt lat="42.31915" lon="-0.47253">
        <ele>1116.21</ele>
        <time>2021-08-03T10:01:53Z</time>
      </trkpt>
      <trkpt lat="42.31942" lon="-0.47319">
        <ele>1118.2</ele>
        <time>2021-08-03T10:01:58Z</time>
      </trkpt>
      <trkpt lat="42.31949" lon="-0.47372">
        <ele>1119.32</ele>
        <time>2021-08-03T10:02:02Z</time>
      </trkpt>
      <trkpt lat="42.31982" lon="-0.4741">
        <ele>1119.77</ele>
        <time>2021-08-03T10:02:07Z</time>
      </trkpt>
      <trkpt lat="42.32082" lon="-0.47474">
        <ele>1120.68</ele>
        <time>2021-08-03T10:02:16Z</time>
      </trkpt>
      <trkpt lat="42.32187" lon="-0.47496">
        <ele>1120.72</ele>
        <time>2021-08-03T10:02:25Z</time>
      </trkpt>
      <trkpt lat="42.32252" lon="-0.47522">
        <ele>1118.33</ele>
        <time>2021-08-03T10:02:30Z</time>
      </trkpt>
      <trkpt lat="42.3232" lon="-0.47564">
        <ele>1113.69</ele>
        <time>2021-08-03T10:02:35Z</time>
      </trkpt>
      <trkpt lat="42.32377" lon="-0.47598">
        <ele>1109.94</ele>
        <time>2021-08-03T10:02:39Z</time>
      </trkpt>
      <trkpt lat="42.32402" lon="-0.47618">
        <ele>1108.01</ele>
        <time>2021-08-03T10:02:41Z</time>
      </trkpt>
      <trkpt lat="42.32448" lon="-0.47689">
        <ele>1104.08</ele>
        <time>2021-08-03T10:02:46Z</time>
      </trkpt>
      <trkpt lat="42.32496" lon="-0.47728">
        <ele>1100.19</ele>
        <time>2021-08-03T10:02:51Z</time>
      </trkpt>
      <trkpt lat="42.32509" lon="-0.47749">
        <ele>1098.76</ele>
        <time>2021-08-03T10:02:53Z</time>
      </trkpt>
      <trkpt lat="42.32585" lon="-0.4787">
        <ele>1094.97</ele>
        <time>2021-08-03T10:03:03Z</time>
      </trkpt>
      <trkpt lat="42.32698" lon="-0.4798">
        <ele>1091.4</ele>
        <time>2021-08-03T10:03:13Z</time>
      </trkpt>
      <trkpt lat="42.32745" lon="-0.48028">
        <ele>1088.1</ele>
        <time>2021-08-03T10:03:17Z</time>
      </trkpt>
      <trkpt lat="42.32792" lon="-0.48072">
        <ele>1084.39</ele>
        <time>2021-08-03T10:03:21Z</time>
      </trkpt>
      <trkpt lat="42.32841" lon="-0.48118">
        <ele>1080.94</ele>
        <time>2021-08-03T10:03:25Z</time>
      </trkpt>
      <trkpt lat="42.32889" lon="-0.48163">
        <ele>1077.2</ele>
        <time>2021-08-03T10:03:29Z</time>
      </trkpt>
      <trkpt lat="42.32945" lon="-0.48193">
        <ele>1073.59</ele>
        <time>2021-08-03T10:03:33Z</time>
      </trkpt>
      <trkpt lat="42.32958" lon="-0.48199">
        <ele>1072.8</ele>
        <time>2021-08-03T10:03:34Z</time>
      </trkpt>
      <trkpt lat="42.33014" lon="-0.48247">
        <ele>1068.68</ele>
        <time>2021-08-03T10:03:39Z</time>
      </trkpt>
      <trkpt lat="42.33075" lon="-0.48329">
        <ele>1064.74</ele>
        <time>2021-08-03T10:03:45Z</time>
      </trkpt>
      <trkpt lat="42.33151" lon="-0.48425">
        <ele>1061.51</ele>
        <time>2021-08-03T10:03:52Z</time>
      </trkpt>
      <trkpt lat="42.3317" lon="-0.48447">
        <ele>1060.14</ele>
        <time>2021-08-03T10:03:54Z</time>
      </trkpt>
      <trkpt lat="42.33182" lon="-0.48484">
        <ele>1056.47</ele>
        <time>2021-08-03T10:03:58Z</time>
      </trkpt>
      <trkpt lat="42.33136" lon="-0.48512">
        <ele>1051.67</ele>
        <time>2021-08-03T10:04:03Z</time>
      </trkpt>
      <trkpt lat="42.33092" lon="-0.48528">
        <ele>1049.64</ele>
        <time>2021-08-03T10:04:07Z</time>
      </trkpt>
      <trkpt lat="42.33073" lon="-0.48573">
        <ele>1046.2</ele>
        <time>2021-08-03T10:04:12Z</time>
      </trkpt>
      <trkpt lat="42.33095" lon="-0.48624">
        <ele>1042.74</ele>
        <time>2021-08-03T10:04:16Z</time>
      </trkpt>
      <trkpt lat="42.33114" lon="-0.48646">
        <ele>1041.04</ele>
        <time>2021-08-03T10:04:18Z</time>
      </trkpt>
      <trkpt lat="42.33155" lon="-0.48697">
        <ele>1037.82</ele>
        <time>2021-08-03T10:04:22Z</time>
      </trkpt>
      <trkpt lat="42.33196" lon="-0.48711">
        <ele>1033.01</ele>
        <time>2021-08-03T10:04:27Z</time>
      </trkpt>
      <trkpt lat="42.33198" lon="-0.48671">
        <ele>1029.73</ele>
        <time>2021-08-03T10:04:31Z</time>
      </trkpt>
      <trkpt lat="42.33194" lon="-0.48629">
        <ele>1026.15</ele>
        <time>2021-08-03T10:04:36Z</time>
      </trkpt>
      <trkpt lat="42.33219" lon="-0.48631">
        <ele>1023.78</ele>
        <time>2021-08-03T10:04:39Z</time>
      </trkpt>
      <trkpt lat="42.33249" lon="-0.48642">
        <ele>1022.03</ele>
        <time>2021-08-03T10:04:42Z</time>
      </trkpt>
      <trkpt lat="42.33265" lon="-0.48683">
        <ele>1017.99</ele>
        <time>2021-08-03T10:04:47Z</time>
      </trkpt>
      <trkpt lat="42.33273" lon="-0.48745">
        <ele>1013.99</ele>
        <time>2021-08-03T10:04:52Z</time>
      </trkpt>
      <trkpt lat="42.33298" lon="-0.48797">
        <ele>1011.01</ele>
        <time>2021-08-03T10:04:56Z</time>
      </trkpt>
      <trkpt lat="42.33335" lon="-0.48831">
        <ele>1007.38</ele>
        <time>2021-08-03T10:05:00Z</time>
      </trkpt>
      <trkpt lat="42.33385" lon="-0.48879">
        <ele>1003.1</ele>
        <time>2021-08-03T10:05:05Z</time>
      </trkpt>
      <trkpt lat="42.33396" lon="-0.48886">
        <ele>1002.37</ele>
        <time>2021-08-03T10:05:06Z</time>
      </trkpt>
      <trkpt lat="42.33438" lon="-0.48915">
        <ele>999.16</ele>
        <time>2021-08-03T10:05:10Z</time>
      </trkpt>
      <trkpt lat="42.33447" lon="-0.48923">
        <ele>998.3</ele>
        <time>2021-08-03T10:05:11Z</time>
      </trkpt>
      <trkpt lat="42.33477" lon="-0.48965">
        <ele>995.38</ele>
        <time>2021-08-03T10:05:15Z</time>
      </trkpt>
      <trkpt lat="42.33561" lon="-0.49059">
        <ele>992.46</ele>
        <time>2021-08-03T10:05:24Z</time>
      </trkpt>
      <trkpt lat="42.33679" lon="-0.49196">
        <ele>989.58</ele>
        <time>2021-08-03T10:05:36Z</time>
      </trkpt>
      <trkpt lat="42.33706" lon="-0.49216">
        <ele>988.47</ele>
        <time>2021-08-03T10:05:39Z</time>
      </trkpt>
      <trkpt lat="42.33712" lon="-0.49227">
        <ele>988.12</ele>
        <time>2021-08-03T10:05:40Z</time>
      </trkpt>
      <trkpt lat="42.33751" lon="-0.49317">
        <ele>985.78</ele>
        <time>2021-08-03T10:05:46Z</time>
      </trkpt>
      <trkpt lat="42.33791" lon="-0.49404">
        <ele>982.5</ele>
        <time>2021-08-03T10:05:52Z</time>
      </trkpt>
      <trkpt lat="42.33843" lon="-0.49481">
        <ele>978.8</ele>
        <time>2021-08-03T10:05:59Z</time>
      </trkpt>
      <trkpt lat="42.33851" lon="-0.4956">
        <ele>978.15</ele>
        <time>2021-08-03T10:06:05Z</time>
      </trkpt>
      <trkpt lat="42.33853" lon="-0.49642">
        <ele>977.84</ele>
        <time>2021-08-03T10:06:11Z</time>
      </trkpt>
      <trkpt lat="42.33851" lon="-0.49655">
        <ele>977.71</ele>
        <time>2021-08-03T10:06:12Z</time>
      </trkpt>
      <trkpt lat="42.33868" lon="-0.49733">
        <ele>976.59</ele>
        <time>2021-08-03T10:06:19Z</time>
      </trkpt>
      <trkpt lat="42.33885" lon="-0.49746">
        <ele>976.62</ele>
        <time>2021-08-03T10:06:21Z</time>
      </trkpt>
      <trkpt lat="42.33906" lon="-0.49812">
        <ele>977.8</ele>
        <time>2021-08-03T10:06:27Z</time>
      </trkpt>
      <trkpt lat="42.33894" lon="-0.49852">
        <ele>978.66</ele>
        <time>2021-08-03T10:06:31Z</time>
      </trkpt>
      <trkpt lat="42.33856" lon="-0.49926">
        <ele>979.93</ele>
        <time>2021-08-03T10:06:37Z</time>
      </trkpt>
      <trkpt lat="42.33836" lon="-0.49959">
        <ele>980.7</ele>
        <time>2021-08-03T10:06:40Z</time>
      </trkpt>
      <trkpt lat="42.33846" lon="-0.50002">
        <ele>981.17</ele>
        <time>2021-08-03T10:06:46Z</time>
      </trkpt>
      <trkpt lat="42.33854" lon="-0.50008">
        <ele>981.27</ele>
        <time>2021-08-03T10:06:47Z</time>
      </trkpt>
      <trkpt lat="42.33933" lon="-0.5008">
        <ele>984.44</ele>
        <time>2021-08-03T10:06:55Z</time>
      </trkpt>
      <trkpt lat="42.33975" lon="-0.5014">
        <ele>987.73</ele>
        <time>2021-08-03T10:06:59Z</time>
      </trkpt>
      <trkpt lat="42.34012" lon="-0.50203">
        <ele>991.35</ele>
        <time>2021-08-03T10:07:03Z</time>
      </trkpt>
      <trkpt lat="42.3405" lon="-0.50291">
        <ele>994.91</ele>
        <time>2021-08-03T10:07:08Z</time>
      </trkpt>
      <trkpt lat="42.34078" lon="-0.5036">
        <ele>998.31</ele>
        <time>2021-08-03T10:07:12Z</time>
      </trkpt>
      <trkpt lat="42.34092" lon="-0.50445">
        <ele>1002.45</ele>
        <time>2021-08-03T10:07:17Z</time>
      </trkpt>
      <trkpt lat="42.34109" lon="-0.5048">
        <ele>1004.25</ele>
        <time>2021-08-03T10:07:20Z</time>
      </trkpt>
      <trkpt lat="42.3413" lon="-0.50567">
        <ele>1006.99</ele>
        <time>2021-08-03T10:07:27Z</time>
      </trkpt>
      <trkpt lat="42.34097" lon="-0.50613">
        <ele>1008.28</ele>
        <time>2021-08-03T10:07:32Z</time>
      </trkpt>
      <trkpt lat="42.34077" lon="-0.50624">
        <ele>1008.64</ele>
        <time>2021-08-03T10:07:34Z</time>
      </trkpt>
      <trkpt lat="42.34028" lon="-0.50716">
        <ele>1011.03</ele>
        <time>2021-08-03T10:07:41Z</time>
      </trkpt>
      <trkpt lat="42.34019" lon="-0.50766">
        <ele>1012.52</ele>
        <time>2021-08-03T10:07:44Z</time>
      </trkpt>
      <trkpt lat="42.34018" lon="-0.50798">
        <ele>1013.21</ele>
        <time>2021-08-03T10:07:46Z</time>
      </trkpt>
      <trkpt lat="42.34046" lon="-0.50875">
        <ele>1013.63</ele>
        <time>2021-08-03T10:07:51Z</time>
      </trkpt>
      <trkpt lat="42.3405" lon="-0.50924">
        <ele>1013.12</ele>
        <time>2021-08-03T10:07:54Z</time>
      </trkpt>
      <trkpt lat="42.34022" lon="-0.51065">
        <ele>1009.76</ele>
        <time>2021-08-03T10:08:02Z</time>
      </trkpt>
      <trkpt lat="42.33993" lon="-0.51172">
        <ele>1006.22</ele>
        <time>2021-08-03T10:08:08Z</time>
      </trkpt>
      <trkpt lat="42.3399" lon="-0.5119">
        <ele>1005.37</ele>
        <time>2021-08-03T10:08:09Z</time>
      </trkpt>
      <trkpt lat="42.3399" lon="-0.51261">
        <ele>1001.44</ele>
        <time>2021-08-03T10:08:13Z</time>
      </trkpt>
      <trkpt lat="42.34009" lon="-0.51312">
        <ele>997.95</ele>
        <time>2021-08-03T10:08:17Z</time>
      </trkpt>
      <trkpt lat="42.34026" lon="-0.51331">
        <ele>996.1</ele>
        <time>2021-08-03T10:08:19Z</time>
      </trkpt>
      <trkpt lat="42.34046" lon="-0.5135">
        <ele>994.39</ele>
        <time>2021-08-03T10:08:21Z</time>
      </trkpt>
      <trkpt lat="42.3406" lon="-0.5143">
        <ele>990.53</ele>
        <time>2021-08-03T10:08:26Z</time>
      </trkpt>
      <trkpt lat="42.34057" lon="-0.51446">
        <ele>989.75</ele>
        <time>2021-08-03T10:08:27Z</time>
      </trkpt>
      <trkpt lat="42.34035" lon="-0.51523">
        <ele>985.44</ele>
        <time>2021-08-03T10:08:33Z</time>
      </trkpt>
      <trkpt lat="42.34032" lon="-0.51537">
        <ele>984.8</ele>
        <time>2021-08-03T10:08:34Z</time>
      </trkpt>
      <trkpt lat="42.34041" lon="-0.51598">
        <ele>981</ele>
        <time>2021-08-03T10:08:40Z</time>
      </trkpt>
      <trkpt lat="42.34085" lon="-0.51628">
        <ele>978.45</ele>
        <time>2021-08-03T10:08:44Z</time>
      </trkpt>
      <trkpt lat="42.34095" lon="-0.51641">
        <ele>977.92</ele>
        <time>2021-08-03T10:08:45Z</time>
      </trkpt>
      <trkpt lat="42.34125" lon="-0.51696">
        <ele>975.32</ele>
        <time>2021-08-03T10:08:49Z</time>
      </trkpt>
      <trkpt lat="42.34136" lon="-0.5176">
        <ele>972.57</ele>
        <time>2021-08-03T10:08:53Z</time>
      </trkpt>
      <trkpt lat="42.34135" lon="-0.5181">
        <ele>970.46</ele>
        <time>2021-08-03T10:08:56Z</time>
      </trkpt>
      <trkpt lat="42.34161" lon="-0.51867">
        <ele>966.66</ele>
        <time>2021-08-03T10:09:01Z</time>
      </trkpt>
      <trkpt lat="42.3418" lon="-0.51882">
        <ele>965.4</ele>
        <time>2021-08-03T10:09:03Z</time>
      </trkpt>
      <trkpt lat="42.34226" lon="-0.51958">
        <ele>962.24</ele>
        <time>2021-08-03T10:09:09Z</time>
      </trkpt>
      <trkpt lat="42.34234" lon="-0.52067">
        <ele>958.83</ele>
        <time>2021-08-03T10:09:16Z</time>
      </trkpt>
      <trkpt lat="42.34254" lon="-0.52128">
        <ele>957.12</ele>
        <time>2021-08-03T10:09:20Z</time>
      </trkpt>
      <trkpt lat="42.34342" lon="-0.52275">
        <ele>953.59</ele>
        <time>2021-08-03T10:09:30Z</time>
      </trkpt>
      <trkpt lat="42.34447" lon="-0.52441">
        <ele>950.62</ele>
        <time>2021-08-03T10:09:41Z</time>
      </trkpt>
      <trkpt lat="42.34464" lon="-0.52512">
        <ele>950.01</ele>
        <time>2021-08-03T10:09:45Z</time>
      </trkpt>
      <trkpt lat="42.34467" lon="-0.5255">
        <ele>949.63</ele>
        <time>2021-08-03T10:09:47Z</time>
      </trkpt>
      <trkpt lat="42.34487" lon="-0.52618">
        <ele>948.63</ele>
        <time>2021-08-03T10:09:51Z</time>
      </trkpt>
      <trkpt lat="42.3456" lon="-0.52762">
        <ele>945.04</ele>
        <time>2021-08-03T10:10:00Z</time>
      </trkpt>
      <trkpt lat="42.34616" lon="-0.52894">
        <ele>941.67</ele>
        <time>2021-08-03T10:10:07Z</time>
      </trkpt>
      <trkpt lat="42.34662" lon="-0.53024">
        <ele>938.42</ele>
        <time>2021-08-03T10:10:14Z</time>
      </trkpt>
      <trkpt lat="42.34704" lon="-0.53109">
        <ele>936.12</ele>
        <time>2021-08-03T10:10:19Z</time>
      </trkpt>
      <trkpt lat="42.34721" lon="-0.53162">
        <ele>934.74</ele>
        <time>2021-08-03T10:10:22Z</time>
      </trkpt>
      <trkpt lat="42.34755" lon="-0.53225">
        <ele>932.68</ele>
        <time>2021-08-03T10:10:26Z</time>
      </trkpt>
      <trkpt lat="42.34842" lon="-0.53311">
        <ele>928.86</ele>
        <time>2021-08-03T10:10:33Z</time>
      </trkpt>
      <trkpt lat="42.34892" lon="-0.53362">
        <ele>925.85</ele>
        <time>2021-08-03T10:10:37Z</time>
      </trkpt>
      <trkpt lat="42.34941" lon="-0.5342">
        <ele>922.82</ele>
        <time>2021-08-03T10:10:41Z</time>
      </trkpt>
      <trkpt lat="42.34982" lon="-0.53489">
        <ele>919.43</ele>
        <time>2021-08-03T10:10:45Z</time>
      </trkpt>
      <trkpt lat="42.35002" lon="-0.53525">
        <ele>917.7</ele>
        <time>2021-08-03T10:10:47Z</time>
      </trkpt>
      <trkpt lat="42.35036" lon="-0.53632">
        <ele>912.85</ele>
        <time>2021-08-03T10:10:52Z</time>
      </trkpt>
      <trkpt lat="42.35044" lon="-0.53722">
        <ele>908.94</ele>
        <time>2021-08-03T10:10:56Z</time>
      </trkpt>
      <trkpt lat="42.35044" lon="-0.5379">
        <ele>905.9</ele>
        <time>2021-08-03T10:10:59Z</time>
      </trkpt>
      <trkpt lat="42.35044" lon="-0.53853">
        <ele>902.77</ele>
        <time>2021-08-03T10:11:02Z</time>
      </trkpt>
      <trkpt lat="42.35051" lon="-0.53917">
        <ele>899.52</ele>
        <time>2021-08-03T10:11:05Z</time>
      </trkpt>
      <trkpt lat="42.35078" lon="-0.53988">
        <ele>895.24</ele>
        <time>2021-08-03T10:11:09Z</time>
      </trkpt>
      <trkpt lat="42.35088" lon="-0.54004">
        <ele>894.16</ele>
        <time>2021-08-03T10:11:10Z</time>
      </trkpt>
      <trkpt lat="42.35121" lon="-0.54046">
        <ele>891.16</ele>
        <time>2021-08-03T10:11:13Z</time>
      </trkpt>
      <trkpt lat="42.35166" lon="-0.54084">
        <ele>886.86</ele>
        <time>2021-08-03T10:11:17Z</time>
      </trkpt>
      <trkpt lat="42.35182" lon="-0.54116">
        <ele>883.67</ele>
        <time>2021-08-03T10:11:19Z</time>
      </trkpt>
      <trkpt lat="42.35227" lon="-0.54195">
        <ele>878.84</ele>
        <time>2021-08-03T10:11:24Z</time>
      </trkpt>
      <trkpt lat="42.35277" lon="-0.5424">
        <ele>874.5</ele>
        <time>2021-08-03T10:11:28Z</time>
      </trkpt>
      <trkpt lat="42.3529" lon="-0.54251">
        <ele>873.31</ele>
        <time>2021-08-03T10:11:29Z</time>
      </trkpt>
      <trkpt lat="42.35312" lon="-0.54279">
        <ele>870.82</ele>
        <time>2021-08-03T10:11:31Z</time>
      </trkpt>
      <trkpt lat="42.35353" lon="-0.54325">
        <ele>865.71</ele>
        <time>2021-08-03T10:11:35Z</time>
      </trkpt>
      <trkpt lat="42.3536" lon="-0.5434">
        <ele>864.39</ele>
        <time>2021-08-03T10:11:36Z</time>
      </trkpt>
      <trkpt lat="42.35385" lon="-0.54391">
        <ele>859.27</ele>
        <time>2021-08-03T10:11:40Z</time>
      </trkpt>
      <trkpt lat="42.354" lon="-0.54433">
        <ele>855.82</ele>
        <time>2021-08-03T10:11:43Z</time>
      </trkpt>
      <trkpt lat="42.3544" lon="-0.54503">
        <ele>850.87</ele>
        <time>2021-08-03T10:11:48Z</time>
      </trkpt>
      <trkpt lat="42.35468" lon="-0.54551">
        <ele>847.73</ele>
        <time>2021-08-03T10:11:51Z</time>
      </trkpt>
      <trkpt lat="42.35495" lon="-0.54602">
        <ele>844.27</ele>
        <time>2021-08-03T10:11:54Z</time>
      </trkpt>
      <trkpt lat="42.35503" lon="-0.5462">
        <ele>843.16</ele>
        <time>2021-08-03T10:11:55Z</time>
      </trkpt>
      <trkpt lat="42.35518" lon="-0.54693">
        <ele>838.27</ele>
        <time>2021-08-03T10:11:59Z</time>
      </trkpt>
      <trkpt lat="42.35514" lon="-0.54729">
        <ele>835.86</ele>
        <time>2021-08-03T10:12:01Z</time>
      </trkpt>
      <trkpt lat="42.35504" lon="-0.54767">
        <ele>832.72</ele>
        <time>2021-08-03T10:12:04Z</time>
      </trkpt>
      <trkpt lat="42.35528" lon="-0.5485">
        <ele>829.54</ele>
        <time>2021-08-03T10:12:11Z</time>
      </trkpt>
      <trkpt lat="42.35552" lon="-0.54865">
        <ele>829.37</ele>
        <time>2021-08-03T10:12:13Z</time>
      </trkpt>
      <trkpt lat="42.35591" lon="-0.54892">
        <ele>829.39</ele>
        <time>2021-08-03T10:12:16Z</time>
      </trkpt>
      <trkpt lat="42.35673" lon="-0.55042">
        <ele>831.45</ele>
        <time>2021-08-03T10:12:25Z</time>
      </trkpt>
      <trkpt lat="42.35719" lon="-0.55092">
        <ele>833.81</ele>
        <time>2021-08-03T10:12:29Z</time>
      </trkpt>
      <trkpt lat="42.35759" lon="-0.55121">
        <ele>836.17</ele>
        <time>2021-08-03T10:12:32Z</time>
      </trkpt>
      <trkpt lat="42.35832" lon="-0.55139">
        <ele>840.29</ele>
        <time>2021-08-03T10:12:37Z</time>
      </trkpt>
      <trkpt lat="42.35868" lon="-0.55175">
        <ele>841.96</ele>
        <time>2021-08-03T10:12:40Z</time>
      </trkpt>
      <trkpt lat="42.35956" lon="-0.5529">
        <ele>839.37</ele>
        <time>2021-08-03T10:12:48Z</time>
      </trkpt>
      <trkpt lat="42.36023" lon="-0.55344">
        <ele>834.94</ele>
        <time>2021-08-03T10:12:53Z</time>
      </trkpt>
      <trkpt lat="42.36057" lon="-0.55385">
        <ele>832.07</ele>
        <time>2021-08-03T10:12:56Z</time>
      </trkpt>
      <trkpt lat="42.36086" lon="-0.55406">
        <ele>827.61</ele>
        <time>2021-08-03T10:12:59Z</time>
      </trkpt>
      <trkpt lat="42.36119" lon="-0.55375">
        <ele>823.85</ele>
        <time>2021-08-03T10:13:03Z</time>
      </trkpt>
      <trkpt lat="42.36162" lon="-0.55373">
        <ele>822.08</ele>
        <time>2021-08-03T10:13:08Z</time>
      </trkpt>
      <trkpt lat="42.36178" lon="-0.55398">
        <ele>821.98</ele>
        <time>2021-08-03T10:13:10Z</time>
      </trkpt>
      <trkpt lat="42.36217" lon="-0.55478">
        <ele>823.31</ele>
        <time>2021-08-03T10:13:15Z</time>
      </trkpt>
      <trkpt lat="42.36326" lon="-0.556">
        <ele>826.16</ele>
        <time>2021-08-03T10:13:25Z</time>
      </trkpt>
      <trkpt lat="42.36337" lon="-0.5561">
        <ele>826.06</ele>
        <time>2021-08-03T10:13:26Z</time>
      </trkpt>
      <trkpt lat="42.36457" lon="-0.55648">
        <ele>824.34</ele>
        <time>2021-08-03T10:13:35Z</time>
      </trkpt>
      <trkpt lat="42.36499" lon="-0.55658">
        <ele>822.76</ele>
        <time>2021-08-03T10:13:38Z</time>
      </trkpt>
      <trkpt lat="42.36556" lon="-0.55715">
        <ele>819.04</ele>
        <time>2021-08-03T10:13:43Z</time>
      </trkpt>
      <trkpt lat="42.36578" lon="-0.55785">
        <ele>815.56</ele>
        <time>2021-08-03T10:13:47Z</time>
      </trkpt>
      <trkpt lat="42.3661" lon="-0.55853">
        <ele>811.69</ele>
        <time>2021-08-03T10:13:52Z</time>
      </trkpt>
      <trkpt lat="42.36657" lon="-0.5589">
        <ele>810.23</ele>
        <time>2021-08-03T10:13:56Z</time>
      </trkpt>
      <trkpt lat="42.36683" lon="-0.55965">
        <ele>808.07</ele>
        <time>2021-08-03T10:14:01Z</time>
      </trkpt>
      <trkpt lat="42.36673" lon="-0.56088">
        <ele>803.96</ele>
        <time>2021-08-03T10:14:07Z</time>
      </trkpt>
      <trkpt lat="42.3667" lon="-0.56123">
        <ele>802.34</ele>
        <time>2021-08-03T10:14:09Z</time>
      </trkpt>
      <trkpt lat="42.36693" lon="-0.56178">
        <ele>797.86</ele>
        <time>2021-08-03T10:14:14Z</time>
      </trkpt>
      <trkpt lat="42.36716" lon="-0.56175">
        <ele>796.21</ele>
        <time>2021-08-03T10:14:16Z</time>
      </trkpt>
      <trkpt lat="42.36799" lon="-0.56186">
        <ele>791.69</ele>
        <time>2021-08-03T10:14:23Z</time>
      </trkpt>
      <trkpt lat="42.36838" lon="-0.56231">
        <ele>789.55</ele>
        <time>2021-08-03T10:14:27Z</time>
      </trkpt>
      <trkpt lat="42.36869" lon="-0.56288">
        <ele>788.22</ele>
        <time>2021-08-03T10:14:31Z</time>
      </trkpt>
      <trkpt lat="42.36889" lon="-0.56359">
        <ele>787.25</ele>
        <time>2021-08-03T10:14:35Z</time>
      </trkpt>
      <trkpt lat="42.36921" lon="-0.5643">
        <ele>784.88</ele>
        <time>2021-08-03T10:14:40Z</time>
      </trkpt>
      <trkpt lat="42.36961" lon="-0.56484">
        <ele>782.62</ele>
        <time>2021-08-03T10:14:44Z</time>
      </trkpt>
      <trkpt lat="42.36984" lon="-0.56558">
        <ele>779.64</ele>
        <time>2021-08-03T10:14:48Z</time>
      </trkpt>
      <trkpt lat="42.37013" lon="-0.56651">
        <ele>774.92</ele>
        <time>2021-08-03T10:14:53Z</time>
      </trkpt>
      <trkpt lat="42.37042" lon="-0.56679">
        <ele>771.87</ele>
        <time>2021-08-03T10:14:56Z</time>
      </trkpt>
      <trkpt lat="42.3708" lon="-0.56682">
        <ele>768.68</ele>
        <time>2021-08-03T10:14:59Z</time>
      </trkpt>
      <trkpt lat="42.37105" lon="-0.56676">
        <ele>767.04</ele>
        <time>2021-08-03T10:15:01Z</time>
      </trkpt>
      <trkpt lat="42.3715" lon="-0.56698">
        <ele>762.58</ele>
        <time>2021-08-03T10:15:06Z</time>
      </trkpt>
      <trkpt lat="42.37158" lon="-0.56707">
        <ele>761.8</ele>
        <time>2021-08-03T10:15:07Z</time>
      </trkpt>
      <trkpt lat="42.37211" lon="-0.56785">
        <ele>757.58</ele>
        <time>2021-08-03T10:15:13Z</time>
      </trkpt>
      <trkpt lat="42.37251" lon="-0.56843">
        <ele>754.47</ele>
        <time>2021-08-03T10:15:17Z</time>
      </trkpt>
      <trkpt lat="42.37291" lon="-0.56899">
        <ele>751.01</ele>
        <time>2021-08-03T10:15:21Z</time>
      </trkpt>
      <trkpt lat="42.37301" lon="-0.56913">
        <ele>750.25</ele>
        <time>2021-08-03T10:15:22Z</time>
      </trkpt>
      <trkpt lat="42.37312" lon="-0.56993">
        <ele>745.87</ele>
        <time>2021-08-03T10:15:27Z</time>
      </trkpt>
      <trkpt lat="42.37293" lon="-0.57056">
        <ele>742.55</ele>
        <time>2021-08-03T10:15:31Z</time>
      </trkpt>
      <trkpt lat="42.3729" lon="-0.57123">
        <ele>739.51</ele>
        <time>2021-08-03T10:15:36Z</time>
      </trkpt>
      <trkpt lat="42.37281" lon="-0.57134">
        <ele>739.1</ele>
        <time>2021-08-03T10:15:37Z</time>
      </trkpt>
      <trkpt lat="42.37247" lon="-0.57195">
        <ele>738.16</ele>
        <time>2021-08-03T10:15:42Z</time>
      </trkpt>
      <trkpt lat="42.37244" lon="-0.57258">
        <ele>738.92</ele>
        <time>2021-08-03T10:15:46Z</time>
      </trkpt>
      <trkpt lat="42.37264" lon="-0.57506">
        <ele>741.42</ele>
        <time>2021-08-03T10:15:58Z</time>
      </trkpt>
      <trkpt lat="42.3727" lon="-0.57567">
        <ele>740.96</ele>
        <time>2021-08-03T10:16:01Z</time>
      </trkpt>
      <trkpt lat="42.37301" lon="-0.57645">
        <ele>739.29</ele>
        <time>2021-08-03T10:16:06Z</time>
      </trkpt>
      <trkpt lat="42.37376" lon="-0.57733">
        <ele>735.23</ele>
        <time>2021-08-03T10:16:13Z</time>
      </trkpt>
      <trkpt lat="42.37385" lon="-0.57741">
        <ele>734.33</ele>
        <time>2021-08-03T10:16:14Z</time>
      </trkpt>
      <trkpt lat="42.37396" lon="-0.57746">
        <ele>732.4</ele>
        <time>2021-08-03T10:16:15Z</time>
      </trkpt>
      <trkpt lat="42.37407" lon="-0.57748">
        <ele>731.41</ele>
        <time>2021-08-03T10:16:16Z</time>
      </trkpt>
      <trkpt lat="42.3742" lon="-0.57748">
        <ele>730.41</ele>
        <time>2021-08-03T10:16:17Z</time>
      </trkpt>
      <trkpt lat="42.37433" lon="-0.57747">
        <ele>729.47</ele>
        <time>2021-08-03T10:16:18Z</time>
      </trkpt>
      <trkpt lat="42.37483" lon="-0.57753">
        <ele>725.84</ele>
        <time>2021-08-03T10:16:22Z</time>
      </trkpt>
      <trkpt lat="42.37526" lon="-0.57791">
        <ele>722.55</ele>
        <time>2021-08-03T10:16:26Z</time>
      </trkpt>
      <trkpt lat="42.37564" lon="-0.57867">
        <ele>718.02</ele>
        <time>2021-08-03T10:16:31Z</time>
      </trkpt>
      <trkpt lat="42.37575" lon="-0.5792">
        <ele>714.81</ele>
        <time>2021-08-03T10:16:35Z</time>
      </trkpt>
      <trkpt lat="42.3756" lon="-0.58023">
        <ele>711.58</ele>
        <time>2021-08-03T10:16:42Z</time>
      </trkpt>
      <trkpt lat="42.37553" lon="-0.58037">
        <ele>711.29</ele>
        <time>2021-08-03T10:16:43Z</time>
      </trkpt>
      <trkpt lat="42.37502" lon="-0.58133">
        <ele>709.3</ele>
        <time>2021-08-03T10:16:52Z</time>
      </trkpt>
      <trkpt lat="42.37497" lon="-0.58147">
        <ele>709</ele>
        <time>2021-08-03T10:16:54Z</time>
      </trkpt>
      <trkpt lat="42.37483" lon="-0.58197">
        <ele>707.87</ele>
        <time>2021-08-03T10:17:01Z</time>
      </trkpt>
      <trkpt lat="42.3749" lon="-0.5824">
        <ele>707.53</ele>
        <time>2021-08-03T10:17:06Z</time>
      </trkpt>
      <trkpt lat="42.37549" lon="-0.58313">
        <ele>707.27</ele>
        <time>2021-08-03T10:17:18Z</time>
      </trkpt>
      <trkpt lat="42.37572" lon="-0.58332">
        <ele>707.07</ele>
        <time>2021-08-03T10:17:22Z</time>
      </trkpt>
      <trkpt lat="42.37576" lon="-0.58338">
        <ele>706.97</ele>
        <time>2021-08-03T10:17:23Z</time>
      </trkpt>
      <trkpt lat="42.3758" lon="-0.58344">
        <ele>706.88</ele>
        <time>2021-08-03T10:17:24Z</time>
      </trkpt>
      <trkpt lat="42.37585" lon="-0.58376">
        <ele>706.53</ele>
        <time>2021-08-03T10:17:30Z</time>
      </trkpt>
      <trkpt lat="42.37586" lon="-0.58426">
        <ele>706.51</ele>
        <time>2021-08-03T10:17:34Z</time>
      </trkpt>
      <trkpt lat="42.37581" lon="-0.58505">
        <ele>704.21</ele>
        <time>2021-08-03T10:17:41Z</time>
      </trkpt>
      <trkpt lat="42.37611" lon="-0.58591">
        <ele>700.36</ele>
        <time>2021-08-03T10:17:48Z</time>
      </trkpt>
      <trkpt lat="42.37652" lon="-0.58674">
        <ele>698.74</ele>
        <time>2021-08-03T10:17:54Z</time>
      </trkpt>
      <trkpt lat="42.37658" lon="-0.58733">
        <ele>698.3</ele>
        <time>2021-08-03T10:17:58Z</time>
      </trkpt>
      <trkpt lat="42.37641" lon="-0.58828">
        <ele>697.87</ele>
        <time>2021-08-03T10:18:04Z</time>
      </trkpt>
      <trkpt lat="42.37649" lon="-0.58889">
        <ele>697.75</ele>
        <time>2021-08-03T10:18:08Z</time>
      </trkpt>
      <trkpt lat="42.37662" lon="-0.58928">
        <ele>697.64</ele>
        <time>2021-08-03T10:18:11Z</time>
      </trkpt>
      <trkpt lat="42.3771" lon="-0.59008">
        <ele>697.04</ele>
        <time>2021-08-03T10:18:18Z</time>
      </trkpt>
      <trkpt lat="42.37717" lon="-0.59052">
        <ele>694.07</ele>
        <time>2021-08-03T10:18:24Z</time>
      </trkpt>
      <trkpt lat="42.37695" lon="-0.59113">
        <ele>692.74</ele>
        <time>2021-08-03T10:18:32Z</time>
      </trkpt>
      <trkpt lat="42.37671" lon="-0.5918">
        <ele>692.63</ele>
        <time>2021-08-03T10:18:38Z</time>
      </trkpt>
      <trkpt lat="42.37615" lon="-0.59279">
        <ele>691.77</ele>
        <time>2021-08-03T10:18:47Z</time>
      </trkpt>
      <trkpt lat="42.37605" lon="-0.59336">
        <ele>691.2</ele>
        <time>2021-08-03T10:18:51Z</time>
      </trkpt>
      <trkpt lat="42.37601" lon="-0.59393">
        <ele>690.96</ele>
        <time>2021-08-03T10:18:55Z</time>
      </trkpt>
      <trkpt lat="42.37577" lon="-0.59443">
        <ele>690.21</ele>
        <time>2021-08-03T10:18:59Z</time>
      </trkpt>
      <trkpt lat="42.37494" lon="-0.59556">
        <ele>688.19</ele>
        <time>2021-08-03T10:19:09Z</time>
      </trkpt>
      <trkpt lat="42.37473" lon="-0.59615">
        <ele>687.17</ele>
        <time>2021-08-03T10:19:13Z</time>
      </trkpt>
      <trkpt lat="42.37423" lon="-0.59806">
        <ele>684.35</ele>
        <time>2021-08-03T10:19:25Z</time>
      </trkpt>
      <trkpt lat="42.37366" lon="-0.59957">
        <ele>682.14</ele>
        <time>2021-08-03T10:19:34Z</time>
      </trkpt>
      <trkpt lat="42.37356" lon="-0.60025">
        <ele>682.01</ele>
        <time>2021-08-03T10:19:38Z</time>
      </trkpt>
      <trkpt lat="42.37355" lon="-0.60078">
        <ele>681.91</ele>
        <time>2021-08-03T10:19:41Z</time>
      </trkpt>
      <trkpt lat="42.37363" lon="-0.60124">
        <ele>681.29</ele>
        <time>2021-08-03T10:19:44Z</time>
      </trkpt>
      <trkpt lat="42.37367" lon="-0.6025">
        <ele>680.02</ele>
        <time>2021-08-03T10:19:51Z</time>
      </trkpt>
      <trkpt lat="42.37364" lon="-0.60299">
        <ele>679.84</ele>
        <time>2021-08-03T10:19:54Z</time>
      </trkpt>
      <trkpt lat="42.37341" lon="-0.6035">
        <ele>679.41</ele>
        <time>2021-08-03T10:19:58Z</time>
      </trkpt>
      <trkpt lat="42.37317" lon="-0.60428">
        <ele>677.84</ele>
        <time>2021-08-03T10:20:03Z</time>
      </trkpt>
      <trkpt lat="42.37263" lon="-0.60519">
        <ele>675.29</ele>
        <time>2021-08-03T10:20:10Z</time>
      </trkpt>
      <trkpt lat="42.37245" lon="-0.60583">
        <ele>674.53</ele>
        <time>2021-08-03T10:20:14Z</time>
      </trkpt>
      <trkpt lat="42.37241" lon="-0.60619">
        <ele>674.15</ele>
        <time>2021-08-03T10:20:16Z</time>
      </trkpt>
      <trkpt lat="42.37242" lon="-0.60684">
        <ele>673.06</ele>
        <time>2021-08-03T10:20:20Z</time>
      </trkpt>
      <trkpt lat="42.37216" lon="-0.60759">
        <ele>671.68</ele>
        <time>2021-08-03T10:20:25Z</time>
      </trkpt>
      <trkpt lat="42.37142" lon="-0.60878">
        <ele>670.83</ele>
        <time>2021-08-03T10:20:34Z</time>
      </trkpt>
      <trkpt lat="42.37146" lon="-0.60956">
        <ele>670.71</ele>
        <time>2021-08-03T10:20:40Z</time>
      </trkpt>
      <trkpt lat="42.37176" lon="-0.60989">
        <ele>670.48</ele>
        <time>2021-08-03T10:20:43Z</time>
      </trkpt>
      <trkpt lat="42.37225" lon="-0.61039">
        <ele>669.57</ele>
        <time>2021-08-03T10:20:49Z</time>
      </trkpt>
      <trkpt lat="42.37265" lon="-0.61132">
        <ele>668.23</ele>
        <time>2021-08-03T10:20:56Z</time>
      </trkpt>
      <trkpt lat="42.37257" lon="-0.61218">
        <ele>666.43</ele>
        <time>2021-08-03T10:21:02Z</time>
      </trkpt>
      <trkpt lat="42.37206" lon="-0.61379">
        <ele>663.37</ele>
        <time>2021-08-03T10:21:12Z</time>
      </trkpt>
      <trkpt lat="42.3719" lon="-0.61456">
        <ele>662.02</ele>
        <time>2021-08-03T10:21:17Z</time>
      </trkpt>
      <trkpt lat="42.37159" lon="-0.61513">
        <ele>661.74</ele>
        <time>2021-08-03T10:21:22Z</time>
      </trkpt>
      <trkpt lat="42.37139" lon="-0.61528">
        <ele>661.7</ele>
        <time>2021-08-03T10:21:24Z</time>
      </trkpt>
      <trkpt lat="42.37112" lon="-0.61574">
        <ele>661.63</ele>
        <time>2021-08-03T10:21:28Z</time>
      </trkpt>
      <trkpt lat="42.37059" lon="-0.61765">
        <ele>662.06</ele>
        <time>2021-08-03T10:21:39Z</time>
      </trkpt>
      <trkpt lat="42.3705" lon="-0.61852">
        <ele>662.01</ele>
        <time>2021-08-03T10:21:44Z</time>
      </trkpt>
      <trkpt lat="42.37045" lon="-0.61887">
        <ele>661.63</ele>
        <time>2021-08-03T10:21:46Z</time>
      </trkpt>
      <trkpt lat="42.37069" lon="-0.61982">
        <ele>659.21</ele>
        <time>2021-08-03T10:21:52Z</time>
      </trkpt>
      <trkpt lat="42.37146" lon="-0.6209">
        <ele>655.42</ele>
        <time>2021-08-03T10:22:00Z</time>
      </trkpt>
      <trkpt lat="42.37252" lon="-0.62209">
        <ele>653.68</ele>
        <time>2021-08-03T10:22:10Z</time>
      </trkpt>
      <trkpt lat="42.3728" lon="-0.62267">
        <ele>653.51</ele>
        <time>2021-08-03T10:22:14Z</time>
      </trkpt>
      <trkpt lat="42.37294" lon="-0.62293">
        <ele>653.49</ele>
        <time>2021-08-03T10:22:16Z</time>
      </trkpt>
      <trkpt lat="42.37297" lon="-0.62382">
        <ele>653.48</ele>
        <time>2021-08-03T10:22:22Z</time>
      </trkpt>
      <trkpt lat="42.37274" lon="-0.62425">
        <ele>653.4</ele>
        <time>2021-08-03T10:22:25Z</time>
      </trkpt>
      <trkpt lat="42.37175" lon="-0.62547">
        <ele>650.89</ele>
        <time>2021-08-03T10:22:36Z</time>
      </trkpt>
      <trkpt lat="42.37165" lon="-0.62556">
        <ele>650.67</ele>
        <time>2021-08-03T10:22:37Z</time>
      </trkpt>
      <trkpt lat="42.37119" lon="-0.62624">
        <ele>648.91</ele>
        <time>2021-08-03T10:22:43Z</time>
      </trkpt>
      <trkpt lat="42.37108" lon="-0.627">
        <ele>647.81</ele>
        <time>2021-08-03T10:22:48Z</time>
      </trkpt>
      <trkpt lat="42.37112" lon="-0.62754">
        <ele>647.7</ele>
        <time>2021-08-03T10:22:51Z</time>
      </trkpt>
      <trkpt lat="42.3713" lon="-0.62825">
        <ele>647.84</ele>
        <time>2021-08-03T10:22:55Z</time>
      </trkpt>
      <trkpt lat="42.37136" lon="-0.62902">
        <ele>647.99</ele>
        <time>2021-08-03T10:22:59Z</time>
      </trkpt>
      <trkpt lat="42.37143" lon="-0.62975">
        <ele>648.35</ele>
        <time>2021-08-03T10:23:03Z</time>
      </trkpt>
      <trkpt lat="42.3712" lon="-0.63115">
        <ele>648.46</ele>
        <time>2021-08-03T10:23:11Z</time>
      </trkpt>
      <trkpt lat="42.37114" lon="-0.63298">
        <ele>646.59</ele>
        <time>2021-08-03T10:23:21Z</time>
      </trkpt>
      <trkpt lat="42.3712" lon="-0.6341">
        <ele>645.22</ele>
        <time>2021-08-03T10:23:27Z</time>
      </trkpt>
      <trkpt lat="42.37135" lon="-0.63469">
        <ele>643.19</ele>
        <time>2021-08-03T10:23:31Z</time>
      </trkpt>
      <trkpt lat="42.3712" lon="-0.63533">
        <ele>639.84</ele>
        <time>2021-08-03T10:23:36Z</time>
      </trkpt>
      <trkpt lat="42.37129" lon="-0.63621">
        <ele>636.94</ele>
        <time>2021-08-03T10:23:42Z</time>
      </trkpt>
      <trkpt lat="42.3719" lon="-0.63797">
        <ele>633.83</ele>
        <time>2021-08-03T10:23:53Z</time>
      </trkpt>
      <trkpt lat="42.37206" lon="-0.63843">
        <ele>633.47</ele>
        <time>2021-08-03T10:23:56Z</time>
      </trkpt>
      <trkpt lat="42.37213" lon="-0.63935">
        <ele>632.49</ele>
        <time>2021-08-03T10:24:01Z</time>
      </trkpt>
      <trkpt lat="42.37222" lon="-0.64155">
        <ele>631.19</ele>
        <time>2021-08-03T10:24:12Z</time>
      </trkpt>
      <trkpt lat="42.37228" lon="-0.64311">
        <ele>629.51</ele>
        <time>2021-08-03T10:24:20Z</time>
      </trkpt>
      <trkpt lat="42.37246" lon="-0.64376">
        <ele>627.95</ele>
        <time>2021-08-03T10:24:24Z</time>
      </trkpt>
      <trkpt lat="42.37287" lon="-0.6443">
        <ele>625.91</ele>
        <time>2021-08-03T10:24:28Z</time>
      </trkpt>
      <trkpt lat="42.37345" lon="-0.64484">
        <ele>623.1</ele>
        <time>2021-08-03T10:24:33Z</time>
      </trkpt>
      <trkpt lat="42.37367" lon="-0.64544">
        <ele>621.92</ele>
        <time>2021-08-03T10:24:37Z</time>
      </trkpt>
      <trkpt lat="42.37393" lon="-0.64787">
        <ele>620.44</ele>
        <time>2021-08-03T10:24:49Z</time>
      </trkpt>
      <trkpt lat="42.37361" lon="-0.64914">
        <ele>621.05</ele>
        <time>2021-08-03T10:24:57Z</time>
      </trkpt>
      <trkpt lat="42.37385" lon="-0.64991">
        <ele>622.46</ele>
        <time>2021-08-03T10:25:03Z</time>
      </trkpt>
      <trkpt lat="42.37455" lon="-0.65051">
        <ele>623.66</ele>
        <time>2021-08-03T10:25:09Z</time>
      </trkpt>
      <trkpt lat="42.37519" lon="-0.6508">
        <ele>623.11</ele>
        <time>2021-08-03T10:25:14Z</time>
      </trkpt>
      <trkpt lat="42.37598" lon="-0.6514">
        <ele>620.69</ele>
        <time>2021-08-03T10:25:20Z</time>
      </trkpt>
      <trkpt lat="42.37713" lon="-0.65192">
        <ele>617.29</ele>
        <time>2021-08-03T10:25:29Z</time>
      </trkpt>
      <trkpt lat="42.37767" lon="-0.65276">
        <ele>615.61</ele>
        <time>2021-08-03T10:25:36Z</time>
      </trkpt>
      <trkpt lat="42.37766" lon="-0.65293">
        <ele>615.4</ele>
        <time>2021-08-03T10:25:37Z</time>
      </trkpt>
      <trkpt lat="42.37761" lon="-0.65342">
        <ele>614.18</ele>
        <time>2021-08-03T10:25:43Z</time>
      </trkpt>
      <trkpt lat="42.37753" lon="-0.65384">
        <ele>612.69</ele>
        <time>2021-08-03T10:25:55Z</time>
      </trkpt>
      <trkpt lat="42.37723" lon="-0.65491">
        <ele>612.74</ele>
        <time>2021-08-03T10:26:03Z</time>
      </trkpt>
      <trkpt lat="42.37708" lon="-0.65549">
        <ele>612.02</ele>
        <time>2021-08-03T10:26:09Z</time>
      </trkpt>
      <trkpt lat="42.37692" lon="-0.65665">
        <ele>610.79</ele>
        <time>2021-08-03T10:26:17Z</time>
      </trkpt>
      <trkpt lat="42.37691" lon="-0.65681">
        <ele>610.73</ele>
        <time>2021-08-03T10:26:18Z</time>
      </trkpt>
      <trkpt lat="42.37702" lon="-0.65763">
        <ele>610.76</ele>
        <time>2021-08-03T10:26:23Z</time>
      </trkpt>
      <trkpt lat="42.37736" lon="-0.65825">
        <ele>611.17</ele>
        <time>2021-08-03T10:26:28Z</time>
      </trkpt>
      <trkpt lat="42.37833" lon="-0.65892">
        <ele>609.72</ele>
        <time>2021-08-03T10:26:36Z</time>
      </trkpt>
      <trkpt lat="42.37894" lon="-0.65944">
        <ele>608.08</ele>
        <time>2021-08-03T10:26:41Z</time>
      </trkpt>
      <trkpt lat="42.38024" lon="-0.66026">
        <ele>606.78</ele>
        <time>2021-08-03T10:26:52Z</time>
      </trkpt>
      <trkpt lat="42.38087" lon="-0.66061">
        <ele>607.79</ele>
        <time>2021-08-03T10:26:57Z</time>
      </trkpt>
      <trkpt lat="42.38116" lon="-0.6611">
        <ele>608.6</ele>
        <time>2021-08-03T10:27:01Z</time>
      </trkpt>
      <trkpt lat="42.38172" lon="-0.66314">
        <ele>609.47</ele>
        <time>2021-08-03T10:27:12Z</time>
      </trkpt>
      <trkpt lat="42.38237" lon="-0.66484">
        <ele>608.95</ele>
        <time>2021-08-03T10:27:22Z</time>
      </trkpt>
      <trkpt lat="42.38259" lon="-0.66567">
        <ele>606.21</ele>
        <time>2021-08-03T10:27:29Z</time>
      </trkpt>
      <trkpt lat="42.383" lon="-0.667">
        <ele>604.15</ele>
        <time>2021-08-03T10:27:37Z</time>
      </trkpt>
      <trkpt lat="42.38358" lon="-0.66825">
        <ele>602.26</ele>
        <time>2021-08-03T10:27:45Z</time>
      </trkpt>
      <trkpt lat="42.384" lon="-0.66878">
        <ele>599.88</ele>
        <time>2021-08-03T10:27:50Z</time>
      </trkpt>
      <trkpt lat="42.38404" lon="-0.66891">
        <ele>596.01</ele>
        <time>2021-08-03T10:27:57Z</time>
      </trkpt>
      <trkpt lat="42.38404" lon="-0.66893">
        <ele>595.32</ele>
        <time>2021-08-03T10:27:59Z</time>
      </trkpt>
      <trkpt lat="42.38407" lon="-0.66926">
        <ele>594.48</ele>
        <time>2021-08-03T10:28:03Z</time>
      </trkpt>
      <trkpt lat="42.38436" lon="-0.67052">
        <ele>593.59</ele>
        <time>2021-08-03T10:28:12Z</time>
      </trkpt>
      <trkpt lat="42.38456" lon="-0.67278">
        <ele>592.48</ele>
        <time>2021-08-03T10:28:24Z</time>
      </trkpt>
      <trkpt lat="42.38472" lon="-0.67462">
        <ele>589.18</ele>
        <time>2021-08-03T10:28:34Z</time>
      </trkpt>
      <trkpt lat="42.38471" lon="-0.67497">
        <ele>588.24</ele>
        <time>2021-08-03T10:28:36Z</time>
      </trkpt>
      <trkpt lat="42.38492" lon="-0.67576">
        <ele>584.51</ele>
        <time>2021-08-03T10:28:42Z</time>
      </trkpt>
      <trkpt lat="42.38533" lon="-0.67599">
        <ele>581.87</ele>
        <time>2021-08-03T10:28:47Z</time>
      </trkpt>
      <trkpt lat="42.38567" lon="-0.67602">
        <ele>580.21</ele>
        <time>2021-08-03T10:28:51Z</time>
      </trkpt>
      <trkpt lat="42.38573" lon="-0.67606">
        <ele>579.91</ele>
        <time>2021-08-03T10:28:52Z</time>
      </trkpt>
      <trkpt lat="42.38577" lon="-0.67612">
        <ele>579.54</ele>
        <time>2021-08-03T10:28:53Z</time>
      </trkpt>
      <trkpt lat="42.38579" lon="-0.67619">
        <ele>579.16</ele>
        <time>2021-08-03T10:28:54Z</time>
      </trkpt>
      <trkpt lat="42.38581" lon="-0.67627">
        <ele>578.83</ele>
        <time>2021-08-03T10:28:55Z</time>
      </trkpt>
      <trkpt lat="42.38581" lon="-0.67635">
        <ele>578.5</ele>
        <time>2021-08-03T10:28:56Z</time>
      </trkpt>
      <trkpt lat="42.38583" lon="-0.67667">
        <ele>576.09</ele>
        <time>2021-08-03T10:29:03Z</time>
      </trkpt>
      <trkpt lat="42.38582" lon="-0.67682">
        <ele>574.97</ele>
        <time>2021-08-03T10:29:10Z</time>
      </trkpt>
      <trkpt lat="42.38582" lon="-0.67706">
        <ele>574.68</ele>
        <time>2021-08-03T10:29:21Z</time>
      </trkpt>
      <trkpt lat="42.38582" lon="-0.67745">
        <ele>574.74</ele>
        <time>2021-08-03T10:29:29Z</time>
      </trkpt>
      <trkpt lat="42.38568" lon="-0.67751">
        <ele>574.83</ele>
        <time>2021-08-03T10:29:32Z</time>
      </trkpt>
      <trkpt lat="42.38478" lon="-0.67768">
        <ele>576.49</ele>
        <time>2021-08-03T10:29:41Z</time>
      </trkpt>
      <trkpt lat="42.38431" lon="-0.6781">
        <ele>578.87</ele>
        <time>2021-08-03T10:29:46Z</time>
      </trkpt>
      <trkpt lat="42.38396" lon="-0.67906">
        <ele>583.2</ele>
        <time>2021-08-03T10:29:53Z</time>
      </trkpt>
      <trkpt lat="42.38396" lon="-0.67961">
        <ele>584.99</ele>
        <time>2021-08-03T10:29:56Z</time>
      </trkpt>
      <trkpt lat="42.38405" lon="-0.68114">
        <ele>588.87</ele>
        <time>2021-08-03T10:30:04Z</time>
      </trkpt>
      <trkpt lat="42.38389" lon="-0.68283">
        <ele>589.63</ele>
        <time>2021-08-03T10:30:12Z</time>
      </trkpt>
      <trkpt lat="42.38343" lon="-0.68492">
        <ele>588.44</ele>
        <time>2021-08-03T10:30:23Z</time>
      </trkpt>
      <trkpt lat="42.3829" lon="-0.68735">
        <ele>588.5</ele>
        <time>2021-08-03T10:30:37Z</time>
      </trkpt>
      <trkpt lat="42.38262" lon="-0.68869">
        <ele>586.43</ele>
        <time>2021-08-03T10:30:46Z</time>
      </trkpt>
      <trkpt lat="42.38233" lon="-0.69001">
        <ele>583.69</ele>
        <time>2021-08-03T10:30:57Z</time>
      </trkpt>
      <trkpt lat="42.38202" lon="-0.6916">
        <ele>580.57</ele>
        <time>2021-08-03T10:31:12Z</time>
      </trkpt>
      <trkpt lat="42.38193" lon="-0.69266">
        <ele>578.65</ele>
        <time>2021-08-03T10:31:23Z</time>
      </trkpt>
      <trkpt lat="42.38188" lon="-0.69398">
        <ele>578.06</ele>
        <time>2021-08-03T10:31:31Z</time>
      </trkpt>
      <trkpt lat="42.38186" lon="-0.69527">
        <ele>576.98</ele>
        <time>2021-08-03T10:31:39Z</time>
      </trkpt>
      <trkpt lat="42.38185" lon="-0.69579">
        <ele>574.85</ele>
        <time>2021-08-03T10:31:45Z</time>
      </trkpt>
      <trkpt lat="42.38183" lon="-0.69667">
        <ele>572.82</ele>
        <time>2021-08-03T10:31:53Z</time>
      </trkpt>
      <trkpt lat="42.38181" lon="-0.69768">
        <ele>570.48</ele>
        <time>2021-08-03T10:32:03Z</time>
      </trkpt>
      <trkpt lat="42.3818" lon="-0.69844">
        <ele>568.8</ele>
        <time>2021-08-03T10:32:13Z</time>
      </trkpt>
      <trkpt lat="42.38187" lon="-0.69869">
        <ele>567.43</ele>
        <time>2021-08-03T10:32:20Z</time>
      </trkpt>
      <trkpt lat="42.38188" lon="-0.69873">
        <ele>567.11</ele>
        <time>2021-08-03T10:32:22Z</time>
      </trkpt>
      <trkpt lat="42.3818" lon="-0.69859">
        <ele>566.36</ele>
        <time>2021-08-03T10:32:29Z</time>
      </trkpt>
      <trkpt lat="42.38179" lon="-0.69806">
        <ele>566.6</ele>
        <time>2021-08-03T10:32:34Z</time>
      </trkpt>
      <trkpt lat="42.38179" lon="-0.69701">
        <ele>568.64</ele>
        <time>2021-08-03T10:32:44Z</time>
      </trkpt>
      <trkpt lat="42.38183" lon="-0.69606">
        <ele>570.57</ele>
        <time>2021-08-03T10:32:54Z</time>
      </trkpt>
      <trkpt lat="42.38159" lon="-0.69584">
        <ele>571.36</ele>
        <time>2021-08-03T10:33:03Z</time>
      </trkpt>
      <trkpt lat="42.38095" lon="-0.69585">
        <ele>570.58</ele>
        <time>2021-08-03T10:33:15Z</time>
      </trkpt>
      <trkpt lat="42.38087" lon="-0.69584">
        <ele>570.35</ele>
        <time>2021-08-03T10:33:17Z</time>
      </trkpt>
      <trkpt lat="42.38061" lon="-0.69585">
        <ele>569.28</ele>
        <time>2021-08-03T10:33:23Z</time>
      </trkpt>
      <trkpt lat="42.3805" lon="-0.69594">
        <ele>568.78</ele>
        <time>2021-08-03T10:33:26Z</time>
      </trkpt>
      <trkpt lat="42.38048" lon="-0.69598">
        <ele>568.62</ele>
        <time>2021-08-03T10:33:27Z</time>
      </trkpt>
      <trkpt lat="42.38047" lon="-0.69604">
        <ele>568.47</ele>
        <time>2021-08-03T10:33:28Z</time>
      </trkpt>
      <trkpt lat="42.38048" lon="-0.6961">
        <ele>568.27</ele>
        <time>2021-08-03T10:33:29Z</time>
      </trkpt>
      <trkpt lat="42.38049" lon="-0.69616">
        <ele>568.1</ele>
        <time>2021-08-03T10:33:30Z</time>
      </trkpt>
      <trkpt lat="42.38059" lon="-0.69702">
        <ele>566.28</ele>
        <time>2021-08-03T10:33:41Z</time>
      </trkpt>
      <trkpt lat="42.38067" lon="-0.69816">
        <ele>565.16</ele>
        <time>2021-08-03T10:33:51Z</time>
      </trkpt>
      <trkpt lat="42.38066" lon="-0.69892">
        <ele>564.57</ele>
        <time>2021-08-03T10:33:59Z</time>
      </trkpt>
      <trkpt lat="42.38064" lon="-0.70001">
        <ele>564.43</ele>
        <time>2021-08-03T10:34:08Z</time>
      </trkpt>
      <trkpt lat="42.38063" lon="-0.70147">
        <ele>564.18</ele>
        <time>2021-08-03T10:34:20Z</time>
      </trkpt>
      <trkpt lat="42.3806" lon="-0.70236">
        <ele>563.81</ele>
        <time>2021-08-03T10:34:30Z</time>
      </trkpt>
      <trkpt lat="42.38056" lon="-0.704">
        <ele>564.28</ele>
        <time>2021-08-03T10:34:40Z</time>
      </trkpt>
      <trkpt lat="42.3805" lon="-0.70649">
        <ele>565.15</ele>
        <time>2021-08-03T10:34:54Z</time>
      </trkpt>
      <trkpt lat="42.38048" lon="-0.70819">
        <ele>564.96</ele>
        <time>2021-08-03T10:35:05Z</time>
      </trkpt>
      <trkpt lat="42.38046" lon="-0.7094">
        <ele>564.14</ele>
        <time>2021-08-03T10:35:15Z</time>
      </trkpt>
      <trkpt lat="42.38046" lon="-0.70976">
        <ele>563.84</ele>
        <time>2021-08-03T10:35:20Z</time>
      </trkpt>
      <trkpt lat="42.3806" lon="-0.71013">
        <ele>563.62</ele>
        <time>2021-08-03T10:35:26Z</time>
      </trkpt>
      <trkpt lat="42.3807" lon="-0.7106">
        <ele>563.82</ele>
        <time>2021-08-03T10:35:34Z</time>
      </trkpt>
      <trkpt lat="42.3812" lon="-0.71149">
        <ele>563.86</ele>
        <time>2021-08-03T10:35:44Z</time>
      </trkpt>
      <trkpt lat="42.3813" lon="-0.71163">
        <ele>563.76</ele>
        <time>2021-08-03T10:35:46Z</time>
      </trkpt>
      <trkpt lat="42.38125" lon="-0.71195">
        <ele>563.34</ele>
        <time>2021-08-03T10:35:52Z</time>
      </trkpt>
      <trkpt lat="42.3809" lon="-0.71206">
        <ele>563.44</ele>
        <time>2021-08-03T10:35:56Z</time>
      </trkpt>
      <trkpt lat="42.38002" lon="-0.71206">
        <ele>567.13</ele>
        <time>2021-08-03T10:36:05Z</time>
      </trkpt>
      <trkpt lat="42.3787" lon="-0.71205">
        <ele>568.78</ele>
        <time>2021-08-03T10:36:17Z</time>
      </trkpt>
      <trkpt lat="42.37854" lon="-0.71206">
        <ele>567.75</ele>
        <time>2021-08-03T10:36:19Z</time>
      </trkpt>
      <trkpt lat="42.37844" lon="-0.71246">
        <ele>565.57</ele>
        <time>2021-08-03T10:36:25Z</time>
      </trkpt>
      <trkpt lat="42.37849" lon="-0.71268">
        <ele>565.23</ele>
        <time>2021-08-03T10:36:27Z</time>
      </trkpt>
      <trkpt lat="42.37848" lon="-0.71291">
        <ele>564.66</ele>
        <time>2021-08-03T10:36:31Z</time>
      </trkpt>
      <trkpt lat="42.37835" lon="-0.71282">
        <ele>564.57</ele>
        <time>2021-08-03T10:36:37Z</time>
      </trkpt>
      <trkpt lat="42.37813" lon="-0.71246">
        <ele>567.15</ele>
        <time>2021-08-03T10:36:45Z</time>
      </trkpt>
      <trkpt lat="42.37807" lon="-0.71222">
        <ele>568.41</ele>
        <time>2021-08-03T10:36:48Z</time>
      </trkpt>
      <trkpt lat="42.37805" lon="-0.71165">
        <ele>570.14</ele>
        <time>2021-08-03T10:36:56Z</time>
      </trkpt>
      <trkpt lat="42.37793" lon="-0.71108">
        <ele>570.77</ele>
        <time>2021-08-03T10:37:05Z</time>
      </trkpt>
      <trkpt lat="42.37772" lon="-0.71063">
        <ele>571.03</ele>
        <time>2021-08-03T10:37:11Z</time>
      </trkpt>
      <trkpt lat="42.37767" lon="-0.71026">
        <ele>570.73</ele>
        <time>2021-08-03T10:37:16Z</time>
      </trkpt>
      <trkpt lat="42.37751" lon="-0.70945">
        <ele>570.82</ele>
        <time>2021-08-03T10:37:28Z</time>
      </trkpt>
      <trkpt lat="42.37745" lon="-0.70931">
        <ele>570.88</ele>
        <time>2021-08-03T10:37:39Z</time>
      </trkpt>
      <trkpt lat="42.37737" lon="-0.70928">
        <ele>570.88</ele>
        <time>2021-08-03T10:37:41Z</time>
      </trkpt>
      <trkpt lat="42.37713" lon="-0.70899">
        <ele>572.4</ele>
        <time>2021-08-03T10:37:47Z</time>
      </trkpt>
      <trkpt lat="42.37694" lon="-0.70856">
        <ele>576.06</ele>
        <time>2021-08-03T10:37:53Z</time>
      </trkpt>
      <trkpt lat="42.37677" lon="-0.70792">
        <ele>579.23</ele>
        <time>2021-08-03T10:37:59Z</time>
      </trkpt>
      <trkpt lat="42.37665" lon="-0.70746">
        <ele>582.32</ele>
        <time>2021-08-03T10:38:06Z</time>
      </trkpt>
      <trkpt lat="42.37645" lon="-0.70673">
        <ele>585.62</ele>
        <time>2021-08-03T10:38:15Z</time>
      </trkpt>
      <trkpt lat="42.37626" lon="-0.70601">
        <ele>588.8</ele>
        <time>2021-08-03T10:38:23Z</time>
      </trkpt>
      <trkpt lat="42.37606" lon="-0.70536">
        <ele>591.97</ele>
        <time>2021-08-03T10:38:30Z</time>
      </trkpt>
      <trkpt lat="42.37593" lon="-0.70479">
        <ele>595.14</ele>
        <time>2021-08-03T10:38:36Z</time>
      </trkpt>
      <trkpt lat="42.37577" lon="-0.70427">
        <ele>598.61</ele>
        <time>2021-08-03T10:38:42Z</time>
      </trkpt>
      <trkpt lat="42.37561" lon="-0.70374">
        <ele>602.02</ele>
        <time>2021-08-03T10:38:48Z</time>
      </trkpt>
      <trkpt lat="42.37542" lon="-0.70315">
        <ele>605.34</ele>
        <time>2021-08-03T10:38:54Z</time>
      </trkpt>
      <trkpt lat="42.37527" lon="-0.70264">
        <ele>608.86</ele>
        <time>2021-08-03T10:38:59Z</time>
      </trkpt>
      <trkpt lat="42.37518" lon="-0.70229">
        <ele>612.09</ele>
        <time>2021-08-03T10:39:03Z</time>
      </trkpt>
      <trkpt lat="42.37508" lon="-0.70199">
        <ele>615.23</ele>
        <time>2021-08-03T10:39:07Z</time>
      </trkpt>
      <trkpt lat="42.37506" lon="-0.70192">
        <ele>615.98</ele>
        <time>2021-08-03T10:39:08Z</time>
      </trkpt>
      <trkpt lat="42.37494" lon="-0.70157">
        <ele>619.95</ele>
        <time>2021-08-03T10:39:13Z</time>
      </trkpt>
      <trkpt lat="42.37481" lon="-0.70119">
        <ele>623.36</ele>
        <time>2021-08-03T10:39:18Z</time>
      </trkpt>
      <trkpt lat="42.3747" lon="-0.7008">
        <ele>626.77</ele>
        <time>2021-08-03T10:39:23Z</time>
      </trkpt>
      <trkpt lat="42.37457" lon="-0.70047">
        <ele>630.42</ele>
        <time>2021-08-03T10:39:27Z</time>
      </trkpt>
      <trkpt lat="42.37441" lon="-0.70013">
        <ele>634.02</ele>
        <time>2021-08-03T10:39:32Z</time>
      </trkpt>
      <trkpt lat="42.37434" lon="-0.69987">
        <ele>637.48</ele>
        <time>2021-08-03T10:39:38Z</time>
      </trkpt>
      <trkpt lat="42.3743" lon="-0.6998">
        <ele>638.2</ele>
        <time>2021-08-03T10:39:40Z</time>
      </trkpt>
      <trkpt lat="42.37425" lon="-0.69972">
        <ele>639.38</ele>
        <time>2021-08-03T10:39:49Z</time>
      </trkpt>
      <trkpt lat="42.37424" lon="-0.69968">
        <ele>639.58</ele>
        <time>2021-08-03T10:39:51Z</time>
      </trkpt>
      <trkpt lat="42.37405" lon="-0.69924">
        <ele>639.82</ele>
        <time>2021-08-03T10:40:02Z</time>
      </trkpt>
      <trkpt lat="42.37402" lon="-0.6991">
        <ele>638.49</ele>
        <time>2021-08-03T10:40:54Z</time>
      </trkpt>
      <trkpt lat="42.37398" lon="-0.69904">
        <ele>639.62</ele>
        <time>2021-08-03T10:41:11Z</time>
      </trkpt>
      <trkpt lat="42.37399" lon="-0.69905">
        <ele>638.57</ele>
        <time>2021-08-03T10:42:05Z</time>
      </trkpt>
      <trkpt lat="42.37396" lon="-0.69903">
        <ele>637.91</ele>
        <time>2021-08-03T10:42:47Z</time>
      </trkpt>
      <trkpt lat="42.37384" lon="-0.69887">
        <ele>637.66</ele>
        <time>2021-08-03T10:47:55Z</time>
      </trkpt>
      <trkpt lat="42.37372" lon="-0.69891">
        <ele>636.81</ele>
        <time>2021-08-03T10:47:57Z</time>
      </trkpt>
      <trkpt lat="42.3734" lon="-0.69884">
        <ele>633.61</ele>
        <time>2021-08-03T10:48:07Z</time>
      </trkpt>
      <trkpt lat="42.37322" lon="-0.69914">
        <ele>632.67</ele>
        <time>2021-08-03T10:48:18Z</time>
      </trkpt>
      <trkpt lat="42.373" lon="-0.6994">
        <ele>634.06</ele>
        <time>2021-08-03T10:48:30Z</time>
      </trkpt>
      <trkpt lat="42.3727" lon="-0.69943">
        <ele>634.87</ele>
        <time>2021-08-03T10:48:40Z</time>
      </trkpt>
      <trkpt lat="42.37256" lon="-0.69941">
        <ele>634.9</ele>
        <time>2021-08-03T10:48:44Z</time>
      </trkpt>
      <trkpt lat="42.37219" lon="-0.6994">
        <ele>635.78</ele>
        <time>2021-08-03T10:48:55Z</time>
      </trkpt>
      <trkpt lat="42.37203" lon="-0.69965">
        <ele>635.07</ele>
        <time>2021-08-03T10:49:05Z</time>
      </trkpt>
      <trkpt lat="42.37184" lon="-0.69983">
        <ele>634.48</ele>
        <time>2021-08-03T10:49:12Z</time>
      </trkpt>
      <trkpt lat="42.37127" lon="-0.70022">
        <ele>634.32</ele>
        <time>2021-08-03T10:49:27Z</time>
      </trkpt>
      <trkpt lat="42.37065" lon="-0.70059">
        <ele>635.83</ele>
        <time>2021-08-03T10:49:40Z</time>
      </trkpt>
      <trkpt lat="42.37052" lon="-0.7007">
        <ele>637.14</ele>
        <time>2021-08-03T10:49:44Z</time>
      </trkpt>
      <trkpt lat="42.3703" lon="-0.70116">
        <ele>640.93</ele>
        <time>2021-08-03T10:49:53Z</time>
      </trkpt>
      <trkpt lat="42.37021" lon="-0.7014">
        <ele>643.93</ele>
        <time>2021-08-03T10:49:59Z</time>
      </trkpt>
      <trkpt lat="42.37012" lon="-0.70162">
        <ele>647.03</ele>
        <time>2021-08-03T10:50:06Z</time>
      </trkpt>
      <trkpt lat="42.37005" lon="-0.70174">
        <ele>648.13</ele>
        <time>2021-08-03T10:50:09Z</time>
      </trkpt>
      <trkpt lat="42.36982" lon="-0.70192">
        <ele>651.62</ele>
        <time>2021-08-03T10:50:18Z</time>
      </trkpt>
      <trkpt lat="42.36965" lon="-0.70214">
        <ele>652.75</ele>
        <time>2021-08-03T10:50:32Z</time>
      </trkpt>
      <trkpt lat="42.3695" lon="-0.70281">
        <ele>652.94</ele>
        <time>2021-08-03T10:50:42Z</time>
      </trkpt>
      <trkpt lat="42.36928" lon="-0.70328">
        <ele>653.63</ele>
        <time>2021-08-03T10:50:48Z</time>
      </trkpt>
      <trkpt lat="42.36906" lon="-0.70349">
        <ele>655.48</ele>
        <time>2021-08-03T10:50:58Z</time>
      </trkpt>
      <trkpt lat="42.36894" lon="-0.70368">
        <ele>655.6</ele>
        <time>2021-08-03T10:51:11Z</time>
      </trkpt>
      <trkpt lat="42.36892" lon="-0.70366">
        <ele>655.21</ele>
        <time>2021-08-03T10:51:27Z</time>
      </trkpt>
      <trkpt lat="42.36891" lon="-0.7036">
        <ele>655.18</ele>
        <time>2021-08-03T10:51:30Z</time>
      </trkpt>
      <trkpt lat="42.36907" lon="-0.70304">
        <ele>655.81</ele>
        <time>2021-08-03T10:51:40Z</time>
      </trkpt>
      <trkpt lat="42.36909" lon="-0.70262">
        <ele>657.55</ele>
        <time>2021-08-03T10:51:45Z</time>
      </trkpt>
      <trkpt lat="42.36906" lon="-0.70204">
        <ele>661.15</ele>
        <time>2021-08-03T10:51:54Z</time>
      </trkpt>
      <trkpt lat="42.36897" lon="-0.70154">
        <ele>660.82</ele>
        <time>2021-08-03T10:52:04Z</time>
      </trkpt>
      <trkpt lat="42.36891" lon="-0.70128">
        <ele>660.64</ele>
        <time>2021-08-03T10:52:49Z</time>
      </trkpt>
      <trkpt lat="42.36889" lon="-0.70098">
        <ele>658.61</ele>
        <time>2021-08-03T10:53:00Z</time>
      </trkpt>
      <trkpt lat="42.36881" lon="-0.70078">
        <ele>658.53</ele>
        <time>2021-08-03T10:53:17Z</time>
      </trkpt>
      <trkpt lat="42.36841" lon="-0.70038">
        <ele>658.83</ele>
        <time>2021-08-03T10:53:25Z</time>
      </trkpt>
      <trkpt lat="42.36822" lon="-0.70001">
        <ele>656.98</ele>
        <time>2021-08-03T10:53:30Z</time>
      </trkpt>
      <trkpt lat="42.36818" lon="-0.69985">
        <ele>656.02</ele>
        <time>2021-08-03T10:53:32Z</time>
      </trkpt>
      <trkpt lat="42.36784" lon="-0.69993">
        <ele>653.48</ele>
        <time>2021-08-03T10:53:38Z</time>
      </trkpt>
      <trkpt lat="42.36762" lon="-0.69987">
        <ele>651.42</ele>
        <time>2021-08-03T10:53:43Z</time>
      </trkpt>
      <trkpt lat="42.36767" lon="-0.69979">
        <ele>651.09</ele>
        <time>2021-08-03T10:53:44Z</time>
      </trkpt>
      <trkpt lat="42.36738" lon="-0.69921">
        <ele>651.51</ele>
        <time>2021-08-03T10:53:53Z</time>
      </trkpt>
      <trkpt lat="42.36683" lon="-0.69869">
        <ele>655.17</ele>
        <time>2021-08-03T10:54:02Z</time>
      </trkpt>
      <trkpt lat="42.36648" lon="-0.69839">
        <ele>658.51</ele>
        <time>2021-08-03T10:54:07Z</time>
      </trkpt>
      <trkpt lat="42.36634" lon="-0.69828">
        <ele>659.87</ele>
        <time>2021-08-03T10:54:09Z</time>
      </trkpt>
      <trkpt lat="42.36585" lon="-0.69829">
        <ele>664.16</ele>
        <time>2021-08-03T10:54:16Z</time>
      </trkpt>
      <trkpt lat="42.36567" lon="-0.69851">
        <ele>665.96</ele>
        <time>2021-08-03T10:54:19Z</time>
      </trkpt>
      <trkpt lat="42.3656" lon="-0.69864">
        <ele>667.15</ele>
        <time>2021-08-03T10:54:21Z</time>
      </trkpt>
      <trkpt lat="42.36546" lon="-0.69866">
        <ele>670.19</ele>
        <time>2021-08-03T10:54:29Z</time>
      </trkpt>
      <trkpt lat="42.36538" lon="-0.69851">
        <ele>671.02</ele>
        <time>2021-08-03T10:54:32Z</time>
      </trkpt>
      <trkpt lat="42.36511" lon="-0.69795">
        <ele>672.37</ele>
        <time>2021-08-03T10:54:38Z</time>
      </trkpt>
      <trkpt lat="42.36486" lon="-0.69761">
        <ele>673.34</ele>
        <time>2021-08-03T10:54:42Z</time>
      </trkpt>
      <trkpt lat="42.36473" lon="-0.69748">
        <ele>674.02</ele>
        <time>2021-08-03T10:54:44Z</time>
      </trkpt>
      <trkpt lat="42.36393" lon="-0.6971">
        <ele>677.84</ele>
        <time>2021-08-03T10:54:53Z</time>
      </trkpt>
      <trkpt lat="42.36376" lon="-0.69703">
        <ele>678.85</ele>
        <time>2021-08-03T10:54:55Z</time>
      </trkpt>
      <trkpt lat="42.36332" lon="-0.69677">
        <ele>681.99</ele>
        <time>2021-08-03T10:55:01Z</time>
      </trkpt>
      <trkpt lat="42.36307" lon="-0.69646">
        <ele>685.99</ele>
        <time>2021-08-03T10:55:07Z</time>
      </trkpt>
      <trkpt lat="42.36293" lon="-0.69632">
        <ele>688</ele>
        <time>2021-08-03T10:55:10Z</time>
      </trkpt>
      <trkpt lat="42.36283" lon="-0.6962">
        <ele>689.43</ele>
        <time>2021-08-03T10:55:12Z</time>
      </trkpt>
      <trkpt lat="42.36276" lon="-0.69587">
        <ele>693.13</ele>
        <time>2021-08-03T10:55:17Z</time>
      </trkpt>
      <trkpt lat="42.36268" lon="-0.69581">
        <ele>695.7</ele>
        <time>2021-08-03T10:55:20Z</time>
      </trkpt>
      <trkpt lat="42.36251" lon="-0.69587">
        <ele>698.09</ele>
        <time>2021-08-03T10:55:24Z</time>
      </trkpt>
      <trkpt lat="42.36239" lon="-0.69592">
        <ele>699.74</ele>
        <time>2021-08-03T10:55:27Z</time>
      </trkpt>
      <trkpt lat="42.3621" lon="-0.69601">
        <ele>701.97</ele>
        <time>2021-08-03T10:55:33Z</time>
      </trkpt>
      <trkpt lat="42.36187" lon="-0.69624">
        <ele>704.39</ele>
        <time>2021-08-03T10:55:38Z</time>
      </trkpt>
      <trkpt lat="42.36161" lon="-0.69643">
        <ele>706.43</ele>
        <time>2021-08-03T10:55:42Z</time>
      </trkpt>
      <trkpt lat="42.36127" lon="-0.69669">
        <ele>709.88</ele>
        <time>2021-08-03T10:55:50Z</time>
      </trkpt>
      <trkpt lat="42.3612" lon="-0.69652">
        <ele>711.01</ele>
        <time>2021-08-03T10:55:54Z</time>
      </trkpt>
      <trkpt lat="42.3611" lon="-0.69593">
        <ele>713.8</ele>
        <time>2021-08-03T10:56:01Z</time>
      </trkpt>
      <trkpt lat="42.36097" lon="-0.6954">
        <ele>717.96</ele>
        <time>2021-08-03T10:56:08Z</time>
      </trkpt>
      <trkpt lat="42.36112" lon="-0.69509">
        <ele>721.68</ele>
        <time>2021-08-03T10:56:13Z</time>
      </trkpt>
      <trkpt lat="42.36098" lon="-0.69482">
        <ele>725.29</ele>
        <time>2021-08-03T10:56:18Z</time>
      </trkpt>
      <trkpt lat="42.3609" lon="-0.69479">
        <ele>725.9</ele>
        <time>2021-08-03T10:56:19Z</time>
      </trkpt>
      <trkpt lat="42.36072" lon="-0.69472">
        <ele>726.83</ele>
        <time>2021-08-03T10:56:21Z</time>
      </trkpt>
      <trkpt lat="42.36059" lon="-0.69462">
        <ele>727.4</ele>
        <time>2021-08-03T10:56:25Z</time>
      </trkpt>
      <trkpt lat="42.36047" lon="-0.6945">
        <ele>727.4</ele>
        <time>2021-08-03T10:56:28Z</time>
      </trkpt>
      <trkpt lat="42.36039" lon="-0.69438">
        <ele>727.31</ele>
        <time>2021-08-03T10:56:30Z</time>
      </trkpt>
      <trkpt lat="42.36011" lon="-0.69423">
        <ele>727.04</ele>
        <time>2021-08-03T10:56:35Z</time>
      </trkpt>
      <trkpt lat="42.35981" lon="-0.69414">
        <ele>725.17</ele>
        <time>2021-08-03T10:56:44Z</time>
      </trkpt>
      <trkpt lat="42.35978" lon="-0.69398">
        <ele>724.59</ele>
        <time>2021-08-03T10:56:48Z</time>
      </trkpt>
      <trkpt lat="42.35953" lon="-0.69335">
        <ele>726.05</ele>
        <time>2021-08-03T10:56:58Z</time>
      </trkpt>
      <trkpt lat="42.35947" lon="-0.69332">
        <ele>726.41</ele>
        <time>2021-08-03T10:56:59Z</time>
      </trkpt>
      <trkpt lat="42.3592" lon="-0.69294">
        <ele>728.57</ele>
        <time>2021-08-03T10:57:06Z</time>
      </trkpt>
      <trkpt lat="42.35903" lon="-0.69224">
        <ele>730.85</ele>
        <time>2021-08-03T10:57:16Z</time>
      </trkpt>
      <trkpt lat="42.35847" lon="-0.69153">
        <ele>733.75</ele>
        <time>2021-08-03T10:57:27Z</time>
      </trkpt>
      <trkpt lat="42.35816" lon="-0.69127">
        <ele>735.23</ele>
        <time>2021-08-03T10:57:36Z</time>
      </trkpt>
      <trkpt lat="42.35814" lon="-0.69122">
        <ele>735.26</ele>
        <time>2021-08-03T10:57:37Z</time>
      </trkpt>
      <trkpt lat="42.35822" lon="-0.6909">
        <ele>735.81</ele>
        <time>2021-08-03T10:57:44Z</time>
      </trkpt>
      <trkpt lat="42.3581" lon="-0.69057">
        <ele>737.01</ele>
        <time>2021-08-03T10:57:50Z</time>
      </trkpt>
      <trkpt lat="42.35793" lon="-0.69045">
        <ele>739</ele>
        <time>2021-08-03T10:57:56Z</time>
      </trkpt>
      <trkpt lat="42.35787" lon="-0.68993">
        <ele>742.63</ele>
        <time>2021-08-03T10:58:06Z</time>
      </trkpt>
      <trkpt lat="42.3577" lon="-0.68956">
        <ele>744.8</ele>
        <time>2021-08-03T10:58:10Z</time>
      </trkpt>
      <trkpt lat="42.35749" lon="-0.68916">
        <ele>748.22</ele>
        <time>2021-08-03T10:58:16Z</time>
      </trkpt>
      <trkpt lat="42.35698" lon="-0.68893">
        <ele>751.8</ele>
        <time>2021-08-03T10:58:24Z</time>
      </trkpt>
      <trkpt lat="42.35676" lon="-0.68896">
        <ele>753.23</ele>
        <time>2021-08-03T10:58:27Z</time>
      </trkpt>
      <trkpt lat="42.35639" lon="-0.68857">
        <ele>756.68</ele>
        <time>2021-08-03T10:58:34Z</time>
      </trkpt>
      <trkpt lat="42.35618" lon="-0.68853">
        <ele>760.24</ele>
        <time>2021-08-03T10:58:40Z</time>
      </trkpt>
      <trkpt lat="42.35624" lon="-0.68865">
        <ele>761.3</ele>
        <time>2021-08-03T10:58:42Z</time>
      </trkpt>
      <trkpt lat="42.3563" lon="-0.68874">
        <ele>762.38</ele>
        <time>2021-08-03T10:58:44Z</time>
      </trkpt>
      <trkpt lat="42.35636" lon="-0.68884">
        <ele>763.27</ele>
        <time>2021-08-03T10:58:46Z</time>
      </trkpt>
      <trkpt lat="42.35658" lon="-0.68928">
        <ele>764.73</ele>
        <time>2021-08-03T10:58:52Z</time>
      </trkpt>
      <trkpt lat="42.35683" lon="-0.68956">
        <ele>765.76</ele>
        <time>2021-08-03T10:58:56Z</time>
      </trkpt>
      <trkpt lat="42.35673" lon="-0.68975">
        <ele>768.27</ele>
        <time>2021-08-03T10:59:03Z</time>
      </trkpt>
      <trkpt lat="42.35668" lon="-0.6897">
        <ele>768.77</ele>
        <time>2021-08-03T10:59:04Z</time>
      </trkpt>
      <trkpt lat="42.3563" lon="-0.68928">
        <ele>772.72</ele>
        <time>2021-08-03T10:59:11Z</time>
      </trkpt>
      <trkpt lat="42.35581" lon="-0.68893">
        <ele>776.5</ele>
        <time>2021-08-03T10:59:18Z</time>
      </trkpt>
      <trkpt lat="42.35546" lon="-0.68874">
        <ele>779.03</ele>
        <time>2021-08-03T10:59:23Z</time>
      </trkpt>
      <trkpt lat="42.35517" lon="-0.68849">
        <ele>782.07</ele>
        <time>2021-08-03T10:59:28Z</time>
      </trkpt>
      <trkpt lat="42.35493" lon="-0.68839">
        <ele>784.72</ele>
        <time>2021-08-03T10:59:32Z</time>
      </trkpt>
      <trkpt lat="42.35468" lon="-0.68824">
        <ele>788.05</ele>
        <time>2021-08-03T10:59:37Z</time>
      </trkpt>
      <trkpt lat="42.35433" lon="-0.6881">
        <ele>791.61</ele>
        <time>2021-08-03T10:59:43Z</time>
      </trkpt>
      <trkpt lat="42.35426" lon="-0.688">
        <ele>793.15</ele>
        <time>2021-08-03T10:59:45Z</time>
      </trkpt>
      <trkpt lat="42.35415" lon="-0.68779">
        <ele>797.32</ele>
        <time>2021-08-03T10:59:51Z</time>
      </trkpt>
      <trkpt lat="42.35413" lon="-0.68774">
        <ele>798.08</ele>
        <time>2021-08-03T10:59:52Z</time>
      </trkpt>
      <trkpt lat="42.35388" lon="-0.6875">
        <ele>801.21</ele>
        <time>2021-08-03T10:59:58Z</time>
      </trkpt>
      <trkpt lat="42.35365" lon="-0.68741">
        <ele>802.2</ele>
        <time>2021-08-03T11:00:01Z</time>
      </trkpt>
      <trkpt lat="42.35338" lon="-0.68716">
        <ele>802.46</ele>
        <time>2021-08-03T11:00:05Z</time>
      </trkpt>
      <trkpt lat="42.35299" lon="-0.68697">
        <ele>802.1</ele>
        <time>2021-08-03T11:00:12Z</time>
      </trkpt>
      <trkpt lat="42.35272" lon="-0.68693">
        <ele>801.57</ele>
        <time>2021-08-03T11:00:16Z</time>
      </trkpt>
      <trkpt lat="42.35243" lon="-0.68696">
        <ele>800.87</ele>
        <time>2021-08-03T11:00:20Z</time>
      </trkpt>
      <trkpt lat="42.35195" lon="-0.68682">
        <ele>798.29</ele>
        <time>2021-08-03T11:00:28Z</time>
      </trkpt>
      <trkpt lat="42.35162" lon="-0.6866">
        <ele>796.62</ele>
        <time>2021-08-03T11:00:37Z</time>
      </trkpt>
      <trkpt lat="42.35138" lon="-0.68624">
        <ele>796.79</ele>
        <time>2021-08-03T11:00:43Z</time>
      </trkpt>
      <trkpt lat="42.35134" lon="-0.68608">
        <ele>796.94</ele>
        <time>2021-08-03T11:00:46Z</time>
      </trkpt>
      <trkpt lat="42.35122" lon="-0.686">
        <ele>797.2</ele>
        <time>2021-08-03T11:00:49Z</time>
      </trkpt>
      <trkpt lat="42.35116" lon="-0.68567">
        <ele>797.47</ele>
        <time>2021-08-03T11:00:55Z</time>
      </trkpt>
      <trkpt lat="42.35122" lon="-0.68545">
        <ele>797.82</ele>
        <time>2021-08-03T11:00:58Z</time>
      </trkpt>
      <trkpt lat="42.35106" lon="-0.68519">
        <ele>799.02</ele>
        <time>2021-08-03T11:01:06Z</time>
      </trkpt>
      <trkpt lat="42.35044" lon="-0.68508">
        <ele>802.42</ele>
        <time>2021-08-03T11:01:16Z</time>
      </trkpt>
      <trkpt lat="42.35001" lon="-0.68504">
        <ele>805.72</ele>
        <time>2021-08-03T11:01:23Z</time>
      </trkpt>
      <trkpt lat="42.34952" lon="-0.68492">
        <ele>809.15</ele>
        <time>2021-08-03T11:01:30Z</time>
      </trkpt>
      <trkpt lat="42.34925" lon="-0.68479">
        <ele>811.48</ele>
        <time>2021-08-03T11:01:34Z</time>
      </trkpt>
      <trkpt lat="42.34909" lon="-0.68476">
        <ele>813.31</ele>
        <time>2021-08-03T11:01:37Z</time>
      </trkpt>
      <trkpt lat="42.34868" lon="-0.68473">
        <ele>817.5</ele>
        <time>2021-08-03T11:01:45Z</time>
      </trkpt>
      <trkpt lat="42.34819" lon="-0.68488">
        <ele>821.79</ele>
        <time>2021-08-03T11:01:52Z</time>
      </trkpt>
      <trkpt lat="42.34786" lon="-0.68493">
        <ele>825.28</ele>
        <time>2021-08-03T11:01:57Z</time>
      </trkpt>
      <trkpt lat="42.34759" lon="-0.68482">
        <ele>829.32</ele>
        <time>2021-08-03T11:02:02Z</time>
      </trkpt>
      <trkpt lat="42.34728" lon="-0.68472">
        <ele>833.59</ele>
        <time>2021-08-03T11:02:08Z</time>
      </trkpt>
      <trkpt lat="42.34708" lon="-0.68462">
        <ele>836.86</ele>
        <time>2021-08-03T11:02:12Z</time>
      </trkpt>
      <trkpt lat="42.34703" lon="-0.68459">
        <ele>837.7</ele>
        <time>2021-08-03T11:02:13Z</time>
      </trkpt>
      <trkpt lat="42.3468" lon="-0.68438">
        <ele>842.29</ele>
        <time>2021-08-03T11:02:19Z</time>
      </trkpt>
      <trkpt lat="42.34668" lon="-0.68424">
        <ele>844.21</ele>
        <time>2021-08-03T11:02:22Z</time>
      </trkpt>
      <trkpt lat="42.34655" lon="-0.68401">
        <ele>847.31</ele>
        <time>2021-08-03T11:02:26Z</time>
      </trkpt>
      <trkpt lat="42.34644" lon="-0.68377">
        <ele>849.19</ele>
        <time>2021-08-03T11:02:29Z</time>
      </trkpt>
      <trkpt lat="42.34611" lon="-0.68357">
        <ele>851.73</ele>
        <time>2021-08-03T11:02:34Z</time>
      </trkpt>
      <trkpt lat="42.34566" lon="-0.68351">
        <ele>855.68</ele>
        <time>2021-08-03T11:02:41Z</time>
      </trkpt>
      <trkpt lat="42.3456" lon="-0.6835">
        <ele>856.22</ele>
        <time>2021-08-03T11:02:42Z</time>
      </trkpt>
      <trkpt lat="42.34519" lon="-0.68382">
        <ele>860.14</ele>
        <time>2021-08-03T11:02:51Z</time>
      </trkpt>
      <trkpt lat="42.34512" lon="-0.68402">
        <ele>860.7</ele>
        <time>2021-08-03T11:02:53Z</time>
      </trkpt>
      <trkpt lat="42.34493" lon="-0.68443">
        <ele>862.01</ele>
        <time>2021-08-03T11:02:57Z</time>
      </trkpt>
      <trkpt lat="42.34483" lon="-0.68504">
        <ele>864.29</ele>
        <time>2021-08-03T11:03:03Z</time>
      </trkpt>
      <trkpt lat="42.34454" lon="-0.68574">
        <ele>868.62</ele>
        <time>2021-08-03T11:03:11Z</time>
      </trkpt>
      <trkpt lat="42.34442" lon="-0.68592">
        <ele>870.06</ele>
        <time>2021-08-03T11:03:14Z</time>
      </trkpt>
      <trkpt lat="42.34406" lon="-0.68612">
        <ele>872.1</ele>
        <time>2021-08-03T11:03:19Z</time>
      </trkpt>
      <trkpt lat="42.34383" lon="-0.68618">
        <ele>873.86</ele>
        <time>2021-08-03T11:03:27Z</time>
      </trkpt>
      <trkpt lat="42.34382" lon="-0.68618">
        <ele>873.98</ele>
        <time>2021-08-03T11:03:28Z</time>
      </trkpt>
      <trkpt lat="42.3439" lon="-0.68634">
        <ele>874.85</ele>
        <time>2021-08-03T11:03:35Z</time>
      </trkpt>
      <trkpt lat="42.34429" lon="-0.68644">
        <ele>875.06</ele>
        <time>2021-08-03T11:03:40Z</time>
      </trkpt>
      <trkpt lat="42.34471" lon="-0.68647">
        <ele>876.13</ele>
        <time>2021-08-03T11:03:45Z</time>
      </trkpt>
      <trkpt lat="42.345" lon="-0.6864">
        <ele>877.42</ele>
        <time>2021-08-03T11:03:49Z</time>
      </trkpt>
      <trkpt lat="42.34531" lon="-0.68618">
        <ele>879.13</ele>
        <time>2021-08-03T11:03:54Z</time>
      </trkpt>
      <trkpt lat="42.34579" lon="-0.6863">
        <ele>882.45</ele>
        <time>2021-08-03T11:04:01Z</time>
      </trkpt>
      <trkpt lat="42.34623" lon="-0.68648">
        <ele>885.57</ele>
        <time>2021-08-03T11:04:07Z</time>
      </trkpt>
      <trkpt lat="42.34658" lon="-0.68669">
        <ele>888.6</ele>
        <time>2021-08-03T11:04:13Z</time>
      </trkpt>
      <trkpt lat="42.34662" lon="-0.68671">
        <ele>888.92</ele>
        <time>2021-08-03T11:04:14Z</time>
      </trkpt>
      <trkpt lat="42.34696" lon="-0.68697">
        <ele>890.96</ele>
        <time>2021-08-03T11:04:22Z</time>
      </trkpt>
      <trkpt lat="42.3473" lon="-0.68693">
        <ele>891.28</ele>
        <time>2021-08-03T11:04:28Z</time>
      </trkpt>
      <trkpt lat="42.34753" lon="-0.68716">
        <ele>891.37</ele>
        <time>2021-08-03T11:04:33Z</time>
      </trkpt>
      <trkpt lat="42.34769" lon="-0.68751">
        <ele>891.96</ele>
        <time>2021-08-03T11:04:37Z</time>
      </trkpt>
      <trkpt lat="42.34781" lon="-0.68793">
        <ele>893.77</ele>
        <time>2021-08-03T11:04:42Z</time>
      </trkpt>
      <trkpt lat="42.34786" lon="-0.68841">
        <ele>896.52</ele>
        <time>2021-08-03T11:04:48Z</time>
      </trkpt>
      <trkpt lat="42.34783" lon="-0.68861">
        <ele>898.23</ele>
        <time>2021-08-03T11:04:51Z</time>
      </trkpt>
      <trkpt lat="42.34803" lon="-0.68883">
        <ele>900.99</ele>
        <time>2021-08-03T11:04:57Z</time>
      </trkpt>
      <trkpt lat="42.34819" lon="-0.68877">
        <ele>901.69</ele>
        <time>2021-08-03T11:04:59Z</time>
      </trkpt>
      <trkpt lat="42.34864" lon="-0.68867">
        <ele>904.3</ele>
        <time>2021-08-03T11:05:07Z</time>
      </trkpt>
      <trkpt lat="42.34881" lon="-0.68881">
        <ele>905.8</ele>
        <time>2021-08-03T11:05:12Z</time>
      </trkpt>
      <trkpt lat="42.3487" lon="-0.68898">
        <ele>907.14</ele>
        <time>2021-08-03T11:05:16Z</time>
      </trkpt>
      <trkpt lat="42.34845" lon="-0.68931">
        <ele>908.99</ele>
        <time>2021-08-03T11:05:21Z</time>
      </trkpt>
      <trkpt lat="42.34873" lon="-0.68962">
        <ele>910.97</ele>
        <time>2021-08-03T11:05:29Z</time>
      </trkpt>
      <trkpt lat="42.34905" lon="-0.68954">
        <ele>911.9</ele>
        <time>2021-08-03T11:05:33Z</time>
      </trkpt>
      <trkpt lat="42.34922" lon="-0.68982">
        <ele>913.69</ele>
        <time>2021-08-03T11:05:39Z</time>
      </trkpt>
      <trkpt lat="42.34892" lon="-0.69005">
        <ele>916.31</ele>
        <time>2021-08-03T11:05:44Z</time>
      </trkpt>
      <trkpt lat="42.34862" lon="-0.69013">
        <ele>918.24</ele>
        <time>2021-08-03T11:05:48Z</time>
      </trkpt>
      <trkpt lat="42.34831" lon="-0.69007">
        <ele>920.24</ele>
        <time>2021-08-03T11:05:52Z</time>
      </trkpt>
      <trkpt lat="42.34796" lon="-0.68988">
        <ele>923.04</ele>
        <time>2021-08-03T11:05:57Z</time>
      </trkpt>
      <trkpt lat="42.34775" lon="-0.68969">
        <ele>925.53</ele>
        <time>2021-08-03T11:06:01Z</time>
      </trkpt>
      <trkpt lat="42.34766" lon="-0.68957">
        <ele>926.4</ele>
        <time>2021-08-03T11:06:03Z</time>
      </trkpt>
      <trkpt lat="42.34738" lon="-0.68944">
        <ele>928.19</ele>
        <time>2021-08-03T11:06:08Z</time>
      </trkpt>
      <trkpt lat="42.34711" lon="-0.68906">
        <ele>931.16</ele>
        <time>2021-08-03T11:06:17Z</time>
      </trkpt>
      <trkpt lat="42.34678" lon="-0.68862">
        <ele>934.4</ele>
        <time>2021-08-03T11:06:27Z</time>
      </trkpt>
      <trkpt lat="42.34653" lon="-0.6886">
        <ele>935.17</ele>
        <time>2021-08-03T11:06:31Z</time>
      </trkpt>
      <trkpt lat="42.34575" lon="-0.68871">
        <ele>936.86</ele>
        <time>2021-08-03T11:06:43Z</time>
      </trkpt>
      <trkpt lat="42.34562" lon="-0.68868">
        <ele>937.32</ele>
        <time>2021-08-03T11:06:45Z</time>
      </trkpt>
      <trkpt lat="42.34517" lon="-0.68865">
        <ele>941.04</ele>
        <time>2021-08-03T11:06:54Z</time>
      </trkpt>
      <trkpt lat="42.34506" lon="-0.68864">
        <ele>942.06</ele>
        <time>2021-08-03T11:06:56Z</time>
      </trkpt>
      <trkpt lat="42.34487" lon="-0.68857">
        <ele>944.66</ele>
        <time>2021-08-03T11:07:00Z</time>
      </trkpt>
      <trkpt lat="42.34467" lon="-0.68843">
        <ele>948.07</ele>
        <time>2021-08-03T11:07:10Z</time>
      </trkpt>
      <trkpt lat="42.34458" lon="-0.68839">
        <ele>948.94</ele>
        <time>2021-08-03T11:07:13Z</time>
      </trkpt>
      <trkpt lat="42.34415" lon="-0.68851">
        <ele>951.66</ele>
        <time>2021-08-03T11:07:23Z</time>
      </trkpt>
      <trkpt lat="42.34398" lon="-0.68851">
        <ele>952.01</ele>
        <time>2021-08-03T11:07:26Z</time>
      </trkpt>
      <trkpt lat="42.34364" lon="-0.68849">
        <ele>952.98</ele>
        <time>2021-08-03T11:07:32Z</time>
      </trkpt>
      <trkpt lat="42.34329" lon="-0.68865">
        <ele>954.42</ele>
        <time>2021-08-03T11:07:38Z</time>
      </trkpt>
      <trkpt lat="42.34272" lon="-0.68865">
        <ele>956.89</ele>
        <time>2021-08-03T11:07:48Z</time>
      </trkpt>
      <trkpt lat="42.34232" lon="-0.68871">
        <ele>956.46</ele>
        <time>2021-08-03T11:07:57Z</time>
      </trkpt>
      <trkpt lat="42.34186" lon="-0.689">
        <ele>958.47</ele>
        <time>2021-08-03T11:08:07Z</time>
      </trkpt>
      <trkpt lat="42.34172" lon="-0.68922">
        <ele>960.01</ele>
        <time>2021-08-03T11:08:11Z</time>
      </trkpt>
      <trkpt lat="42.34146" lon="-0.68956">
        <ele>963.36</ele>
        <time>2021-08-03T11:08:18Z</time>
      </trkpt>
      <trkpt lat="42.34088" lon="-0.69019">
        <ele>966.11</ele>
        <time>2021-08-03T11:08:30Z</time>
      </trkpt>
      <trkpt lat="42.34073" lon="-0.69041">
        <ele>966.44</ele>
        <time>2021-08-03T11:08:33Z</time>
      </trkpt>
      <trkpt lat="42.34037" lon="-0.69055">
        <ele>968.78</ele>
        <time>2021-08-03T11:08:40Z</time>
      </trkpt>
      <trkpt lat="42.34021" lon="-0.69064">
        <ele>972.27</ele>
        <time>2021-08-03T11:08:48Z</time>
      </trkpt>
      <trkpt lat="42.34012" lon="-0.69073">
        <ele>974.75</ele>
        <time>2021-08-03T11:08:58Z</time>
      </trkpt>
      <trkpt lat="42.3399" lon="-0.69093">
        <ele>975.99</ele>
        <time>2021-08-03T11:09:07Z</time>
      </trkpt>
      <trkpt lat="42.3395" lon="-0.6915">
        <ele>975.89</ele>
        <time>2021-08-03T11:09:17Z</time>
      </trkpt>
      <trkpt lat="42.33915" lon="-0.69196">
        <ele>972.86</ele>
        <time>2021-08-03T11:09:26Z</time>
      </trkpt>
      <trkpt lat="42.33872" lon="-0.6924">
        <ele>970.2</ele>
        <time>2021-08-03T11:09:40Z</time>
      </trkpt>
      <trkpt lat="42.3387" lon="-0.69244">
        <ele>970.1</ele>
        <time>2021-08-03T11:09:41Z</time>
      </trkpt>
      <trkpt lat="42.33859" lon="-0.6927">
        <ele>969.62</ele>
        <time>2021-08-03T11:09:45Z</time>
      </trkpt>
      <trkpt lat="42.33846" lon="-0.69288">
        <ele>969.17</ele>
        <time>2021-08-03T11:09:49Z</time>
      </trkpt>
      <trkpt lat="42.33818" lon="-0.69307">
        <ele>968.71</ele>
        <time>2021-08-03T11:09:58Z</time>
      </trkpt>
      <trkpt lat="42.33805" lon="-0.6931">
        <ele>968.76</ele>
        <time>2021-08-03T11:10:01Z</time>
      </trkpt>
      <trkpt lat="42.33752" lon="-0.69303">
        <ele>969.84</ele>
        <time>2021-08-03T11:10:11Z</time>
      </trkpt>
      <trkpt lat="42.33685" lon="-0.69311">
        <ele>970.14</ele>
        <time>2021-08-03T11:10:22Z</time>
      </trkpt>
      <trkpt lat="42.33678" lon="-0.69316">
        <ele>969.19</ele>
        <time>2021-08-03T11:10:31Z</time>
      </trkpt>
      <trkpt lat="42.33664" lon="-0.69321">
        <ele>968.52</ele>
        <time>2021-08-03T11:12:45Z</time>
      </trkpt>
      <trkpt lat="42.33627" lon="-0.69326">
        <ele>968.28</ele>
        <time>2021-08-03T11:12:55Z</time>
      </trkpt>
      <trkpt lat="42.33602" lon="-0.69337">
        <ele>967.11</ele>
        <time>2021-08-03T11:13:05Z</time>
      </trkpt>
      <trkpt lat="42.33578" lon="-0.69344">
        <ele>964.8</ele>
        <time>2021-08-03T11:13:13Z</time>
      </trkpt>
      <trkpt lat="42.33568" lon="-0.69345">
        <ele>964.28</ele>
        <time>2021-08-03T11:13:15Z</time>
      </trkpt>
      <trkpt lat="42.33518" lon="-0.69328">
        <ele>962.62</ele>
        <time>2021-08-03T11:13:23Z</time>
      </trkpt>
      <trkpt lat="42.33488" lon="-0.69305">
        <ele>962.66</ele>
        <time>2021-08-03T11:13:27Z</time>
      </trkpt>
      <trkpt lat="42.33463" lon="-0.69313">
        <ele>964.16</ele>
        <time>2021-08-03T11:13:33Z</time>
      </trkpt>
      <trkpt lat="42.3346" lon="-0.69329">
        <ele>964.88</ele>
        <time>2021-08-03T11:13:35Z</time>
      </trkpt>
      <trkpt lat="42.33457" lon="-0.69349">
        <ele>965.9</ele>
        <time>2021-08-03T11:13:37Z</time>
      </trkpt>
      <trkpt lat="42.33445" lon="-0.6938">
        <ele>967.63</ele>
        <time>2021-08-03T11:13:41Z</time>
      </trkpt>
      <trkpt lat="42.33437" lon="-0.69395">
        <ele>968.89</ele>
        <time>2021-08-03T11:13:44Z</time>
      </trkpt>
      <trkpt lat="42.33437" lon="-0.69395">
        <ele>970.19</ele>
        <time>2021-08-03T11:13:56Z</time>
      </trkpt>
      <trkpt lat="42.33425" lon="-0.69425">
        <ele>970.51</ele>
        <time>2021-08-03T11:14:48Z</time>
      </trkpt>
      <trkpt lat="42.33422" lon="-0.69435">
        <ele>970.68</ele>
        <time>2021-08-03T11:14:50Z</time>
      </trkpt>
      <trkpt lat="42.33418" lon="-0.69439">
        <ele>971.47</ele>
        <time>2021-08-03T11:15:01Z</time>
      </trkpt>
      <trkpt lat="42.33419" lon="-0.69438">
        <ele>971.51</ele>
        <time>2021-08-03T11:25:04Z</time>
      </trkpt>
      <trkpt lat="42.33419" lon="-0.69438">
        <ele>971.51</ele>
        <time>2021-08-03T11:27:59Z</time>
      </trkpt>
      <trkpt lat="42.33408" lon="-0.69436">
        <ele>971.51</ele>
        <time>2021-08-03T11:29:35Z</time>
      </trkpt>
      <trkpt lat="42.33392" lon="-0.6943">
        <ele>974.08</ele>
        <time>2021-08-03T11:29:40Z</time>
      </trkpt>
      <trkpt lat="42.33351" lon="-0.69424">
        <ele>975.58</ele>
        <time>2021-08-03T11:29:51Z</time>
      </trkpt>
      <trkpt lat="42.33315" lon="-0.6944">
        <ele>977.04</ele>
        <time>2021-08-03T11:30:01Z</time>
      </trkpt>
      <trkpt lat="42.33249" lon="-0.69472">
        <ele>980.13</ele>
        <time>2021-08-03T11:30:12Z</time>
      </trkpt>
      <trkpt lat="42.33193" lon="-0.69464">
        <ele>981.84</ele>
        <time>2021-08-03T11:30:21Z</time>
      </trkpt>
      <trkpt lat="42.33163" lon="-0.69448">
        <ele>982.26</ele>
        <time>2021-08-03T11:30:26Z</time>
      </trkpt>
      <trkpt lat="42.33082" lon="-0.69396">
        <ele>984.42</ele>
        <time>2021-08-03T11:30:38Z</time>
      </trkpt>
      <trkpt lat="42.32991" lon="-0.69302">
        <ele>987.3</ele>
        <time>2021-08-03T11:30:52Z</time>
      </trkpt>
      <trkpt lat="42.32945" lon="-0.69269">
        <ele>990</ele>
        <time>2021-08-03T11:30:59Z</time>
      </trkpt>
      <trkpt lat="42.3291" lon="-0.6926">
        <ele>993.64</ele>
        <time>2021-08-03T11:31:07Z</time>
      </trkpt>
      <trkpt lat="42.32888" lon="-0.69273">
        <ele>996.75</ele>
        <time>2021-08-03T11:31:14Z</time>
      </trkpt>
      <trkpt lat="42.32884" lon="-0.69272">
        <ele>997.11</ele>
        <time>2021-08-03T11:31:15Z</time>
      </trkpt>
      <trkpt lat="42.3288" lon="-0.69269">
        <ele>997.48</ele>
        <time>2021-08-03T11:31:16Z</time>
      </trkpt>
      <trkpt lat="42.32877" lon="-0.69266">
        <ele>997.86</ele>
        <time>2021-08-03T11:31:17Z</time>
      </trkpt>
      <trkpt lat="42.32874" lon="-0.69262">
        <ele>998.18</ele>
        <time>2021-08-03T11:31:18Z</time>
      </trkpt>
      <trkpt lat="42.3286" lon="-0.69254">
        <ele>999.68</ele>
        <time>2021-08-03T11:31:26Z</time>
      </trkpt>
      <trkpt lat="42.3286" lon="-0.69265">
        <ele>1000.1</ele>
        <time>2021-08-03T11:31:34Z</time>
      </trkpt>
    </trkseg>
  </trk>
  <trk>
    <name><![CDATA[Jour 5_2]]></name>
    <trkseg>
      <trkpt lat="42.32855" lon="-0.69247">
        <ele>1002.07</ele>
        <time>2021-08-03T12:34:17Z</time>
      </trkpt>
      <trkpt lat="42.32816" lon="-0.69191">
        <ele>1003.22</ele>
        <time>2021-08-03T12:34:30Z</time>
      </trkpt>
      <trkpt lat="42.3279" lon="-0.6913">
        <ele>1003.36</ele>
        <time>2021-08-03T12:34:43Z</time>
      </trkpt>
      <trkpt lat="42.32773" lon="-0.69076">
        <ele>1004.93</ele>
        <time>2021-08-03T12:34:54Z</time>
      </trkpt>
      <trkpt lat="42.32761" lon="-0.69038">
        <ele>1005.35</ele>
        <time>2021-08-03T12:35:06Z</time>
      </trkpt>
      <trkpt lat="42.32757" lon="-0.69038">
        <ele>1005.27</ele>
        <time>2021-08-03T12:35:09Z</time>
      </trkpt>
      <trkpt lat="42.32746" lon="-0.69041">
        <ele>1005.05</ele>
        <time>2021-08-03T12:35:15Z</time>
      </trkpt>
      <trkpt lat="42.3274" lon="-0.69039">
        <ele>1004.92</ele>
        <time>2021-08-03T12:35:18Z</time>
      </trkpt>
      <trkpt lat="42.32709" lon="-0.69075">
        <ele>1004.79</ele>
        <time>2021-08-03T12:35:26Z</time>
      </trkpt>
      <trkpt lat="42.32695" lon="-0.69075">
        <ele>1004.61</ele>
        <time>2021-08-03T12:35:28Z</time>
      </trkpt>
      <trkpt lat="42.32648" lon="-0.69075">
        <ele>1002.1</ele>
        <time>2021-08-03T12:35:36Z</time>
      </trkpt>
      <trkpt lat="42.32642" lon="-0.69077">
        <ele>1001.81</ele>
        <time>2021-08-03T12:35:37Z</time>
      </trkpt>
      <trkpt lat="42.32637" lon="-0.6908">
        <ele>1001.48</ele>
        <time>2021-08-03T12:35:38Z</time>
      </trkpt>
      <trkpt lat="42.32632" lon="-0.69084">
        <ele>1001.16</ele>
        <time>2021-08-03T12:35:39Z</time>
      </trkpt>
      <trkpt lat="42.32629" lon="-0.69087">
        <ele>1000.88</ele>
        <time>2021-08-03T12:35:40Z</time>
      </trkpt>
      <trkpt lat="42.32602" lon="-0.6909">
        <ele>1000.27</ele>
        <time>2021-08-03T12:35:48Z</time>
      </trkpt>
      <trkpt lat="42.32585" lon="-0.69101">
        <ele>1002.05</ele>
        <time>2021-08-03T12:35:57Z</time>
      </trkpt>
      <trkpt lat="42.32593" lon="-0.69101">
        <ele>1003.15</ele>
        <time>2021-08-03T12:36:12Z</time>
      </trkpt>
      <trkpt lat="42.32592" lon="-0.69095">
        <ele>1002.94</ele>
        <time>2021-08-03T12:36:18Z</time>
      </trkpt>
      <trkpt lat="42.3259" lon="-0.69094">
        <ele>1002.92</ele>
        <time>2021-08-03T12:36:19Z</time>
      </trkpt>
      <trkpt lat="42.32589" lon="-0.69092">
        <ele>1002.89</ele>
        <time>2021-08-03T12:36:20Z</time>
      </trkpt>
      <trkpt lat="42.32586" lon="-0.69092">
        <ele>1002.88</ele>
        <time>2021-08-03T12:36:21Z</time>
      </trkpt>
      <trkpt lat="42.32583" lon="-0.69093">
        <ele>1002.87</ele>
        <time>2021-08-03T12:36:22Z</time>
      </trkpt>
      <trkpt lat="42.3258" lon="-0.69094">
        <ele>1002.87</ele>
        <time>2021-08-03T12:36:23Z</time>
      </trkpt>
      <trkpt lat="42.32576" lon="-0.69096">
        <ele>1002.84</ele>
        <time>2021-08-03T12:36:24Z</time>
      </trkpt>
      <trkpt lat="42.32571" lon="-0.69098">
        <ele>1002.84</ele>
        <time>2021-08-03T12:36:25Z</time>
      </trkpt>
      <trkpt lat="42.32533" lon="-0.69109">
        <ele>1003.22</ele>
        <time>2021-08-03T12:36:31Z</time>
      </trkpt>
      <trkpt lat="42.32528" lon="-0.69112">
        <ele>1003.33</ele>
        <time>2021-08-03T12:36:32Z</time>
      </trkpt>
      <trkpt lat="42.32524" lon="-0.69115">
        <ele>1003.48</ele>
        <time>2021-08-03T12:36:33Z</time>
      </trkpt>
      <trkpt lat="42.32512" lon="-0.69125">
        <ele>1004.39</ele>
        <time>2021-08-03T12:36:36Z</time>
      </trkpt>
      <trkpt lat="42.32484" lon="-0.6914">
        <ele>1007.29</ele>
        <time>2021-08-03T12:36:45Z</time>
      </trkpt>
      <trkpt lat="42.32483" lon="-0.69159">
        <ele>1008.39</ele>
        <time>2021-08-03T12:36:55Z</time>
      </trkpt>
      <trkpt lat="42.32481" lon="-0.6917">
        <ele>1009.2</ele>
        <time>2021-08-03T12:38:24Z</time>
      </trkpt>
      <trkpt lat="42.3248" lon="-0.69185">
        <ele>1009.19</ele>
        <time>2021-08-03T12:38:33Z</time>
      </trkpt>
      <trkpt lat="42.32479" lon="-0.69186">
        <ele>1009.22</ele>
        <time>2021-08-03T12:38:34Z</time>
      </trkpt>
      <trkpt lat="42.32481" lon="-0.69185">
        <ele>1008.94</ele>
        <time>2021-08-03T12:38:47Z</time>
      </trkpt>
      <trkpt lat="42.3248" lon="-0.69187">
        <ele>1008.55</ele>
        <time>2021-08-03T12:39:15Z</time>
      </trkpt>
      <trkpt lat="42.32485" lon="-0.69181">
        <ele>1008.53</ele>
        <time>2021-08-03T12:39:36Z</time>
      </trkpt>
      <trkpt lat="42.32483" lon="-0.69174">
        <ele>1008.5</ele>
        <time>2021-08-03T12:39:54Z</time>
      </trkpt>
      <trkpt lat="42.32484" lon="-0.69164">
        <ele>1008.5</ele>
        <time>2021-08-03T12:40:04Z</time>
      </trkpt>
      <trkpt lat="42.32484" lon="-0.69156">
        <ele>1008.89</ele>
        <time>2021-08-03T12:40:19Z</time>
      </trkpt>
      <trkpt lat="42.32484" lon="-0.69156">
        <ele>1009</ele>
        <time>2021-08-03T12:40:41Z</time>
      </trkpt>
      <trkpt lat="42.32483" lon="-0.69155">
        <ele>1009.66</ele>
        <time>2021-08-03T12:43:35Z</time>
      </trkpt>
      <trkpt lat="42.32484" lon="-0.69163">
        <ele>1007.78</ele>
        <time>2021-08-03T12:43:49Z</time>
      </trkpt>
      <trkpt lat="42.32487" lon="-0.69164">
        <ele>1008.79</ele>
        <time>2021-08-03T12:44:15Z</time>
      </trkpt>
      <trkpt lat="42.32488" lon="-0.69162">
        <ele>1009.17</ele>
        <time>2021-08-03T12:44:26Z</time>
      </trkpt>
      <trkpt lat="42.32485" lon="-0.69139">
        <ele>1010.98</ele>
        <time>2021-08-03T12:48:09Z</time>
      </trkpt>
      <trkpt lat="42.32487" lon="-0.69133">
        <ele>1009.48</ele>
        <time>2021-08-03T12:48:13Z</time>
      </trkpt>
      <trkpt lat="42.32488" lon="-0.69133">
        <ele>1009.72</ele>
        <time>2021-08-03T12:48:14Z</time>
      </trkpt>
      <trkpt lat="42.32489" lon="-0.69132">
        <ele>1009.58</ele>
        <time>2021-08-03T12:48:15Z</time>
      </trkpt>
      <trkpt lat="42.32517" lon="-0.69122">
        <ele>1007.06</ele>
        <time>2021-08-03T12:48:25Z</time>
      </trkpt>
      <trkpt lat="42.32529" lon="-0.69111">
        <ele>1005.99</ele>
        <time>2021-08-03T12:48:35Z</time>
      </trkpt>
      <trkpt lat="42.32548" lon="-0.69103">
        <ele>1003.41</ele>
        <time>2021-08-03T12:48:48Z</time>
      </trkpt>
      <trkpt lat="42.32551" lon="-0.69103">
        <ele>1002.8</ele>
        <time>2021-08-03T12:48:52Z</time>
      </trkpt>
      <trkpt lat="42.32554" lon="-0.69102">
        <ele>1002.75</ele>
        <time>2021-08-03T12:48:53Z</time>
      </trkpt>
      <trkpt lat="42.32558" lon="-0.69101">
        <ele>1002.72</ele>
        <time>2021-08-03T12:48:54Z</time>
      </trkpt>
      <trkpt lat="42.32581" lon="-0.69103">
        <ele>1002.52</ele>
        <time>2021-08-03T12:49:02Z</time>
      </trkpt>
      <trkpt lat="42.32583" lon="-0.69106">
        <ele>1002.59</ele>
        <time>2021-08-03T12:49:03Z</time>
      </trkpt>
      <trkpt lat="42.32582" lon="-0.69113">
        <ele>1002.72</ele>
        <time>2021-08-03T12:49:05Z</time>
      </trkpt>
      <trkpt lat="42.32581" lon="-0.69116">
        <ele>1002.79</ele>
        <time>2021-08-03T12:49:06Z</time>
      </trkpt>
      <trkpt lat="42.32565" lon="-0.69132">
        <ele>1004.32</ele>
        <time>2021-08-03T12:49:17Z</time>
      </trkpt>
      <trkpt lat="42.32568" lon="-0.69131">
        <ele>1006.13</ele>
        <time>2021-08-03T12:50:15Z</time>
      </trkpt>
      <trkpt lat="42.32566" lon="-0.69129">
        <ele>1006.14</ele>
        <time>2021-08-03T12:50:16Z</time>
      </trkpt>
      <trkpt lat="42.32565" lon="-0.69127">
        <ele>1006.18</ele>
        <time>2021-08-03T12:50:17Z</time>
      </trkpt>
      <trkpt lat="42.32564" lon="-0.69125">
        <ele>1006.23</ele>
        <time>2021-08-03T12:50:18Z</time>
      </trkpt>
      <trkpt lat="42.32564" lon="-0.69124">
        <ele>1006.87</ele>
        <time>2021-08-03T12:50:25Z</time>
      </trkpt>
      <trkpt lat="42.32566" lon="-0.69127">
        <ele>1006.96</ele>
        <time>2021-08-03T12:50:37Z</time>
      </trkpt>
      <trkpt lat="42.32566" lon="-0.69125">
        <ele>1006.94</ele>
        <time>2021-08-03T12:50:42Z</time>
      </trkpt>
      <trkpt lat="42.32569" lon="-0.6913">
        <ele>1006.82</ele>
        <time>2021-08-03T12:50:51Z</time>
      </trkpt>
      <trkpt lat="42.32588" lon="-0.69111">
        <ele>1006.3</ele>
        <time>2021-08-03T12:51:01Z</time>
      </trkpt>
      <trkpt lat="42.32606" lon="-0.69089">
        <ele>1004.38</ele>
        <time>2021-08-03T12:51:14Z</time>
      </trkpt>
      <trkpt lat="42.32619" lon="-0.6909">
        <ele>1003.74</ele>
        <time>2021-08-03T12:51:18Z</time>
      </trkpt>
      <trkpt lat="42.32625" lon="-0.6909">
        <ele>1003.6</ele>
        <time>2021-08-03T12:51:19Z</time>
      </trkpt>
      <trkpt lat="42.32631" lon="-0.69086">
        <ele>1003.45</ele>
        <time>2021-08-03T12:51:20Z</time>
      </trkpt>
      <trkpt lat="42.32652" lon="-0.69073">
        <ele>1002.62</ele>
        <time>2021-08-03T12:51:23Z</time>
      </trkpt>
      <trkpt lat="42.32659" lon="-0.69072">
        <ele>1002.35</ele>
        <time>2021-08-03T12:51:24Z</time>
      </trkpt>
      <trkpt lat="42.32665" lon="-0.69073">
        <ele>1002.17</ele>
        <time>2021-08-03T12:51:25Z</time>
      </trkpt>
      <trkpt lat="42.32703" lon="-0.69073">
        <ele>1001.8</ele>
        <time>2021-08-03T12:51:31Z</time>
      </trkpt>
      <trkpt lat="42.3273" lon="-0.69055">
        <ele>1002.47</ele>
        <time>2021-08-03T12:51:35Z</time>
      </trkpt>
      <trkpt lat="42.32766" lon="-0.69016">
        <ele>1004.75</ele>
        <time>2021-08-03T12:51:41Z</time>
      </trkpt>
      <trkpt lat="42.32778" lon="-0.69">
        <ele>1005.6</ele>
        <time>2021-08-03T12:51:48Z</time>
      </trkpt>
      <trkpt lat="42.32785" lon="-0.68996">
        <ele>1006.08</ele>
        <time>2021-08-03T12:52:19Z</time>
      </trkpt>
      <trkpt lat="42.32816" lon="-0.68938">
        <ele>1005.99</ele>
        <time>2021-08-03T12:52:25Z</time>
      </trkpt>
      <trkpt lat="42.32819" lon="-0.68923">
        <ele>1005.9</ele>
        <time>2021-08-03T12:52:26Z</time>
      </trkpt>
      <trkpt lat="42.32834" lon="-0.68866">
        <ele>1005.17</ele>
        <time>2021-08-03T12:52:30Z</time>
      </trkpt>
      <trkpt lat="42.32839" lon="-0.68805">
        <ele>1003.99</ele>
        <time>2021-08-03T12:52:35Z</time>
      </trkpt>
      <trkpt lat="42.32849" lon="-0.68766">
        <ele>1003.46</ele>
        <time>2021-08-03T12:52:39Z</time>
      </trkpt>
      <trkpt lat="42.32836" lon="-0.68725">
        <ele>1003.09</ele>
        <time>2021-08-03T12:52:45Z</time>
      </trkpt>
      <trkpt lat="42.32829" lon="-0.68724">
        <ele>1003.04</ele>
        <time>2021-08-03T12:52:46Z</time>
      </trkpt>
      <trkpt lat="42.32806" lon="-0.68721">
        <ele>1002.62</ele>
        <time>2021-08-03T12:52:49Z</time>
      </trkpt>
      <trkpt lat="42.32744" lon="-0.68741">
        <ele>1001.82</ele>
        <time>2021-08-03T12:52:57Z</time>
      </trkpt>
      <trkpt lat="42.32723" lon="-0.6873">
        <ele>1001.55</ele>
        <time>2021-08-03T12:53:00Z</time>
      </trkpt>
      <trkpt lat="42.32634" lon="-0.68676">
        <ele>1000.04</ele>
        <time>2021-08-03T12:53:12Z</time>
      </trkpt>
      <trkpt lat="42.3258" lon="-0.6867">
        <ele>997.93</ele>
        <time>2021-08-03T12:53:19Z</time>
      </trkpt>
      <trkpt lat="42.32561" lon="-0.68674">
        <ele>996.52</ele>
        <time>2021-08-03T12:53:22Z</time>
      </trkpt>
      <trkpt lat="42.32549" lon="-0.68677">
        <ele>995.75</ele>
        <time>2021-08-03T12:53:24Z</time>
      </trkpt>
      <trkpt lat="42.32526" lon="-0.68673">
        <ele>994.33</ele>
        <time>2021-08-03T12:53:28Z</time>
      </trkpt>
      <trkpt lat="42.32495" lon="-0.68655">
        <ele>992.89</ele>
        <time>2021-08-03T12:53:33Z</time>
      </trkpt>
      <trkpt lat="42.32486" lon="-0.68614">
        <ele>990.89</ele>
        <time>2021-08-03T12:53:40Z</time>
      </trkpt>
      <trkpt lat="42.3249" lon="-0.68608">
        <ele>990.63</ele>
        <time>2021-08-03T12:53:41Z</time>
      </trkpt>
      <trkpt lat="42.32521" lon="-0.68549">
        <ele>990.1</ele>
        <time>2021-08-03T12:53:48Z</time>
      </trkpt>
      <trkpt lat="42.32533" lon="-0.68502">
        <ele>990.04</ele>
        <time>2021-08-03T12:53:52Z</time>
      </trkpt>
      <trkpt lat="42.32547" lon="-0.68426">
        <ele>989.64</ele>
        <time>2021-08-03T12:53:59Z</time>
      </trkpt>
      <trkpt lat="42.32568" lon="-0.68394">
        <ele>989.29</ele>
        <time>2021-08-03T12:54:04Z</time>
      </trkpt>
      <trkpt lat="42.32568" lon="-0.6833">
        <ele>989.02</ele>
        <time>2021-08-03T12:54:11Z</time>
      </trkpt>
      <trkpt lat="42.3255" lon="-0.6832">
        <ele>988.76</ele>
        <time>2021-08-03T12:54:14Z</time>
      </trkpt>
      <trkpt lat="42.32536" lon="-0.68314">
        <ele>988.63</ele>
        <time>2021-08-03T12:54:16Z</time>
      </trkpt>
      <trkpt lat="42.32502" lon="-0.68252">
        <ele>987.24</ele>
        <time>2021-08-03T12:54:23Z</time>
      </trkpt>
      <trkpt lat="42.32462" lon="-0.68183">
        <ele>983.66</ele>
        <time>2021-08-03T12:54:30Z</time>
      </trkpt>
      <trkpt lat="42.32433" lon="-0.68146">
        <ele>980.87</ele>
        <time>2021-08-03T12:54:35Z</time>
      </trkpt>
      <trkpt lat="42.32419" lon="-0.68112">
        <ele>978.45</ele>
        <time>2021-08-03T12:54:39Z</time>
      </trkpt>
      <trkpt lat="42.32398" lon="-0.68046">
        <ele>975.99</ele>
        <time>2021-08-03T12:54:46Z</time>
      </trkpt>
      <trkpt lat="42.32393" lon="-0.67993">
        <ele>975.92</ele>
        <time>2021-08-03T12:54:50Z</time>
      </trkpt>
      <trkpt lat="42.32378" lon="-0.67939">
        <ele>976.91</ele>
        <time>2021-08-03T12:54:54Z</time>
      </trkpt>
      <trkpt lat="42.32349" lon="-0.67885">
        <ele>978.83</ele>
        <time>2021-08-03T12:54:59Z</time>
      </trkpt>
      <trkpt lat="42.32329" lon="-0.6779">
        <ele>982.73</ele>
        <time>2021-08-03T12:55:07Z</time>
      </trkpt>
      <trkpt lat="42.32319" lon="-0.67755">
        <ele>984.32</ele>
        <time>2021-08-03T12:55:10Z</time>
      </trkpt>
      <trkpt lat="42.32318" lon="-0.67695">
        <ele>987</ele>
        <time>2021-08-03T12:55:15Z</time>
      </trkpt>
      <trkpt lat="42.32327" lon="-0.67652">
        <ele>988.18</ele>
        <time>2021-08-03T12:55:18Z</time>
      </trkpt>
      <trkpt lat="42.32367" lon="-0.67595">
        <ele>990.21</ele>
        <time>2021-08-03T12:55:24Z</time>
      </trkpt>
      <trkpt lat="42.32393" lon="-0.67565">
        <ele>990.91</ele>
        <time>2021-08-03T12:55:27Z</time>
      </trkpt>
      <trkpt lat="42.324" lon="-0.6747">
        <ele>992.55</ele>
        <time>2021-08-03T12:55:33Z</time>
      </trkpt>
      <trkpt lat="42.32359" lon="-0.67307">
        <ele>995.76</ele>
        <time>2021-08-03T12:55:43Z</time>
      </trkpt>
      <trkpt lat="42.32339" lon="-0.67198">
        <ele>998.56</ele>
        <time>2021-08-03T12:55:50Z</time>
      </trkpt>
      <trkpt lat="42.32353" lon="-0.67129">
        <ele>999.69</ele>
        <time>2021-08-03T12:55:55Z</time>
      </trkpt>
      <trkpt lat="42.32378" lon="-0.67071">
        <ele>999.81</ele>
        <time>2021-08-03T12:56:00Z</time>
      </trkpt>
      <trkpt lat="42.32401" lon="-0.6704">
        <ele>1000.06</ele>
        <time>2021-08-03T12:56:03Z</time>
      </trkpt>
      <trkpt lat="42.32423" lon="-0.66987">
        <ele>1000.58</ele>
        <time>2021-08-03T12:56:09Z</time>
      </trkpt>
      <trkpt lat="42.32425" lon="-0.66974">
        <ele>1000.76</ele>
        <time>2021-08-03T12:56:19Z</time>
      </trkpt>
      <trkpt lat="42.32425" lon="-0.66972">
        <ele>1000.79</ele>
        <time>2021-08-03T12:56:20Z</time>
      </trkpt>
      <trkpt lat="42.32426" lon="-0.66953">
        <ele>1000.85</ele>
        <time>2021-08-03T12:56:25Z</time>
      </trkpt>
      <trkpt lat="42.32417" lon="-0.66907">
        <ele>1001.32</ele>
        <time>2021-08-03T12:56:30Z</time>
      </trkpt>
      <trkpt lat="42.32379" lon="-0.66793">
        <ele>1004.78</ele>
        <time>2021-08-03T12:56:42Z</time>
      </trkpt>
      <trkpt lat="42.32377" lon="-0.66784">
        <ele>1005.17</ele>
        <time>2021-08-03T12:56:43Z</time>
      </trkpt>
      <trkpt lat="42.32376" lon="-0.66766">
        <ele>1005.92</ele>
        <time>2021-08-03T12:56:45Z</time>
      </trkpt>
      <trkpt lat="42.3238" lon="-0.66732">
        <ele>1007.63</ele>
        <time>2021-08-03T12:56:49Z</time>
      </trkpt>
      <trkpt lat="42.32387" lon="-0.66714">
        <ele>1008.3</ele>
        <time>2021-08-03T12:56:51Z</time>
      </trkpt>
      <trkpt lat="42.32384" lon="-0.66657">
        <ele>1010.3</ele>
        <time>2021-08-03T12:56:56Z</time>
      </trkpt>
      <trkpt lat="42.32389" lon="-0.66572">
        <ele>1012.96</ele>
        <time>2021-08-03T12:57:04Z</time>
      </trkpt>
      <trkpt lat="42.32388" lon="-0.66562">
        <ele>1013.18</ele>
        <time>2021-08-03T12:57:05Z</time>
      </trkpt>
      <trkpt lat="42.32409" lon="-0.66492">
        <ele>1014.83</ele>
        <time>2021-08-03T12:57:12Z</time>
      </trkpt>
      <trkpt lat="42.32431" lon="-0.66458">
        <ele>1015.99</ele>
        <time>2021-08-03T12:57:16Z</time>
      </trkpt>
      <trkpt lat="42.32437" lon="-0.66411">
        <ele>1017.65</ele>
        <time>2021-08-03T12:57:21Z</time>
      </trkpt>
      <trkpt lat="42.32433" lon="-0.6639">
        <ele>1018.23</ele>
        <time>2021-08-03T12:57:23Z</time>
      </trkpt>
      <trkpt lat="42.32457" lon="-0.66297">
        <ele>1021.62</ele>
        <time>2021-08-03T12:57:31Z</time>
      </trkpt>
      <trkpt lat="42.3247" lon="-0.66279">
        <ele>1022.43</ele>
        <time>2021-08-03T12:57:33Z</time>
      </trkpt>
      <trkpt lat="42.32482" lon="-0.66198">
        <ele>1026.04</ele>
        <time>2021-08-03T12:57:41Z</time>
      </trkpt>
      <trkpt lat="42.32463" lon="-0.66162">
        <ele>1027.64</ele>
        <time>2021-08-03T12:57:45Z</time>
      </trkpt>
      <trkpt lat="42.32444" lon="-0.66136">
        <ele>1028.71</ele>
        <time>2021-08-03T12:57:48Z</time>
      </trkpt>
      <trkpt lat="42.32422" lon="-0.66042">
        <ele>1031.97</ele>
        <time>2021-08-03T12:57:57Z</time>
      </trkpt>
      <trkpt lat="42.3242" lon="-0.66034">
        <ele>1032.26</ele>
        <time>2021-08-03T12:57:58Z</time>
      </trkpt>
      <trkpt lat="42.32426" lon="-0.65995">
        <ele>1033.66</ele>
        <time>2021-08-03T12:58:02Z</time>
      </trkpt>
      <trkpt lat="42.32434" lon="-0.65977">
        <ele>1034.42</ele>
        <time>2021-08-03T12:58:04Z</time>
      </trkpt>
      <trkpt lat="42.32443" lon="-0.65936">
        <ele>1035.94</ele>
        <time>2021-08-03T12:58:08Z</time>
      </trkpt>
      <trkpt lat="42.32444" lon="-0.65916">
        <ele>1036.46</ele>
        <time>2021-08-03T12:58:10Z</time>
      </trkpt>
      <trkpt lat="42.32452" lon="-0.65876">
        <ele>1037.44</ele>
        <time>2021-08-03T12:58:14Z</time>
      </trkpt>
      <trkpt lat="42.3246" lon="-0.65855">
        <ele>1037.71</ele>
        <time>2021-08-03T12:58:16Z</time>
      </trkpt>
      <trkpt lat="42.32504" lon="-0.65826">
        <ele>1039.98</ele>
        <time>2021-08-03T12:58:23Z</time>
      </trkpt>
      <trkpt lat="42.32553" lon="-0.65839">
        <ele>1043.35</ele>
        <time>2021-08-03T12:58:33Z</time>
      </trkpt>
      <trkpt lat="42.3261" lon="-0.6585">
        <ele>1044.98</ele>
        <time>2021-08-03T12:58:40Z</time>
      </trkpt>
      <trkpt lat="42.32724" lon="-0.65864">
        <ele>1046.64</ele>
        <time>2021-08-03T12:58:51Z</time>
      </trkpt>
      <trkpt lat="42.32743" lon="-0.65867">
        <ele>1046.67</ele>
        <time>2021-08-03T12:58:53Z</time>
      </trkpt>
      <trkpt lat="42.32798" lon="-0.65827">
        <ele>1045.73</ele>
        <time>2021-08-03T12:59:00Z</time>
      </trkpt>
      <trkpt lat="42.32805" lon="-0.65794">
        <ele>1044.97</ele>
        <time>2021-08-03T12:59:03Z</time>
      </trkpt>
      <trkpt lat="42.32849" lon="-0.65743">
        <ele>1043.13</ele>
        <time>2021-08-03T12:59:11Z</time>
      </trkpt>
      <trkpt lat="42.32868" lon="-0.65735">
        <ele>1042.94</ele>
        <time>2021-08-03T12:59:13Z</time>
      </trkpt>
      <trkpt lat="42.32909" lon="-0.65699">
        <ele>1042.46</ele>
        <time>2021-08-03T12:59:18Z</time>
      </trkpt>
      <trkpt lat="42.32938" lon="-0.65665">
        <ele>1042.41</ele>
        <time>2021-08-03T12:59:22Z</time>
      </trkpt>
      <trkpt lat="42.32972" lon="-0.65653">
        <ele>1042.32</ele>
        <time>2021-08-03T12:59:26Z</time>
      </trkpt>
      <trkpt lat="42.33052" lon="-0.65657">
        <ele>1042.35</ele>
        <time>2021-08-03T12:59:35Z</time>
      </trkpt>
      <trkpt lat="42.33104" lon="-0.65658">
        <ele>1043.04</ele>
        <time>2021-08-03T12:59:42Z</time>
      </trkpt>
      <trkpt lat="42.33127" lon="-0.65605">
        <ele>1044.51</ele>
        <time>2021-08-03T12:59:49Z</time>
      </trkpt>
      <trkpt lat="42.33093" lon="-0.65535">
        <ele>1046.95</ele>
        <time>2021-08-03T12:59:56Z</time>
      </trkpt>
      <trkpt lat="42.33068" lon="-0.65487">
        <ele>1050.02</ele>
        <time>2021-08-03T13:00:01Z</time>
      </trkpt>
      <trkpt lat="42.33054" lon="-0.65425">
        <ele>1052.24</ele>
        <time>2021-08-03T13:00:06Z</time>
      </trkpt>
      <trkpt lat="42.33062" lon="-0.65349">
        <ele>1054.52</ele>
        <time>2021-08-03T13:00:12Z</time>
      </trkpt>
      <trkpt lat="42.33081" lon="-0.65273">
        <ele>1056.81</ele>
        <time>2021-08-03T13:00:18Z</time>
      </trkpt>
      <trkpt lat="42.33038" lon="-0.65222">
        <ele>1058.38</ele>
        <time>2021-08-03T13:00:24Z</time>
      </trkpt>
      <trkpt lat="42.33013" lon="-0.65174">
        <ele>1060.4</ele>
        <time>2021-08-03T13:00:30Z</time>
      </trkpt>
      <trkpt lat="42.33025" lon="-0.65143">
        <ele>1061.49</ele>
        <time>2021-08-03T13:00:33Z</time>
      </trkpt>
      <trkpt lat="42.33048" lon="-0.65099">
        <ele>1061.59</ele>
        <time>2021-08-03T13:00:37Z</time>
      </trkpt>
      <trkpt lat="42.3308" lon="-0.6506">
        <ele>1060.67</ele>
        <time>2021-08-03T13:00:41Z</time>
      </trkpt>
      <trkpt lat="42.331" lon="-0.65011">
        <ele>1059.28</ele>
        <time>2021-08-03T13:00:45Z</time>
      </trkpt>
      <trkpt lat="42.33106" lon="-0.64987">
        <ele>1058.47</ele>
        <time>2021-08-03T13:00:47Z</time>
      </trkpt>
      <trkpt lat="42.33156" lon="-0.64949">
        <ele>1054.51</ele>
        <time>2021-08-03T13:00:54Z</time>
      </trkpt>
      <trkpt lat="42.33183" lon="-0.64933">
        <ele>1052.96</ele>
        <time>2021-08-03T13:00:57Z</time>
      </trkpt>
      <trkpt lat="42.33225" lon="-0.64908">
        <ele>1050.25</ele>
        <time>2021-08-03T13:01:05Z</time>
      </trkpt>
      <trkpt lat="42.33239" lon="-0.64891">
        <ele>1049.98</ele>
        <time>2021-08-03T13:01:08Z</time>
      </trkpt>
      <trkpt lat="42.33255" lon="-0.64862">
        <ele>1049.95</ele>
        <time>2021-08-03T13:01:11Z</time>
      </trkpt>
      <trkpt lat="42.33311" lon="-0.6484">
        <ele>1050.39</ele>
        <time>2021-08-03T13:01:18Z</time>
      </trkpt>
      <trkpt lat="42.3334" lon="-0.64847">
        <ele>1050.98</ele>
        <time>2021-08-03T13:01:21Z</time>
      </trkpt>
      <trkpt lat="42.33387" lon="-0.64818">
        <ele>1052.8</ele>
        <time>2021-08-03T13:01:27Z</time>
      </trkpt>
      <trkpt lat="42.33406" lon="-0.64786">
        <ele>1053.9</ele>
        <time>2021-08-03T13:01:30Z</time>
      </trkpt>
      <trkpt lat="42.33412" lon="-0.64713">
        <ele>1055.25</ele>
        <time>2021-08-03T13:01:36Z</time>
      </trkpt>
      <trkpt lat="42.33423" lon="-0.64667">
        <ele>1056.09</ele>
        <time>2021-08-03T13:01:42Z</time>
      </trkpt>
      <trkpt lat="42.33466" lon="-0.64667">
        <ele>1055.72</ele>
        <time>2021-08-03T13:01:46Z</time>
      </trkpt>
      <trkpt lat="42.33488" lon="-0.64671">
        <ele>1055.41</ele>
        <time>2021-08-03T13:01:48Z</time>
      </trkpt>
      <trkpt lat="42.3352" lon="-0.64617">
        <ele>1053.74</ele>
        <time>2021-08-03T13:01:54Z</time>
      </trkpt>
      <trkpt lat="42.3353" lon="-0.64588">
        <ele>1053.18</ele>
        <time>2021-08-03T13:01:56Z</time>
      </trkpt>
      <trkpt lat="42.33594" lon="-0.64465">
        <ele>1050.65</ele>
        <time>2021-08-03T13:02:04Z</time>
      </trkpt>
      <trkpt lat="42.33642" lon="-0.64426">
        <ele>1048.39</ele>
        <time>2021-08-03T13:02:10Z</time>
      </trkpt>
      <trkpt lat="42.33659" lon="-0.64431">
        <ele>1047.71</ele>
        <time>2021-08-03T13:02:12Z</time>
      </trkpt>
      <trkpt lat="42.33682" lon="-0.64395">
        <ele>1044.28</ele>
        <time>2021-08-03T13:02:20Z</time>
      </trkpt>
      <trkpt lat="42.33681" lon="-0.64372">
        <ele>1043.7</ele>
        <time>2021-08-03T13:02:22Z</time>
      </trkpt>
      <trkpt lat="42.33646" lon="-0.64307">
        <ele>1041.4</ele>
        <time>2021-08-03T13:02:28Z</time>
      </trkpt>
      <trkpt lat="42.33623" lon="-0.64268">
        <ele>1039.14</ele>
        <time>2021-08-03T13:02:33Z</time>
      </trkpt>
      <trkpt lat="42.33608" lon="-0.64223">
        <ele>1037.11</ele>
        <time>2021-08-03T13:02:37Z</time>
      </trkpt>
      <trkpt lat="42.33608" lon="-0.64179">
        <ele>1035.26</ele>
        <time>2021-08-03T13:02:41Z</time>
      </trkpt>
      <trkpt lat="42.33605" lon="-0.64084">
        <ele>1032.95</ele>
        <time>2021-08-03T13:02:48Z</time>
      </trkpt>
      <trkpt lat="42.33597" lon="-0.6406">
        <ele>1032.4</ele>
        <time>2021-08-03T13:02:50Z</time>
      </trkpt>
      <trkpt lat="42.33567" lon="-0.64057">
        <ele>1030.65</ele>
        <time>2021-08-03T13:02:55Z</time>
      </trkpt>
      <trkpt lat="42.33494" lon="-0.6409">
        <ele>1028.06</ele>
        <time>2021-08-03T13:03:03Z</time>
      </trkpt>
      <trkpt lat="42.33423" lon="-0.64085">
        <ele>1025.81</ele>
        <time>2021-08-03T13:03:09Z</time>
      </trkpt>
      <trkpt lat="42.33376" lon="-0.64065">
        <ele>1023.27</ele>
        <time>2021-08-03T13:03:14Z</time>
      </trkpt>
      <trkpt lat="42.33297" lon="-0.64009">
        <ele>1019.97</ele>
        <time>2021-08-03T13:03:22Z</time>
      </trkpt>
      <trkpt lat="42.33253" lon="-0.63978">
        <ele>1018.52</ele>
        <time>2021-08-03T13:03:27Z</time>
      </trkpt>
      <trkpt lat="42.33199" lon="-0.63967">
        <ele>1018.32</ele>
        <time>2021-08-03T13:03:32Z</time>
      </trkpt>
      <trkpt lat="42.33136" lon="-0.63914">
        <ele>1018.51</ele>
        <time>2021-08-03T13:03:40Z</time>
      </trkpt>
      <trkpt lat="42.33116" lon="-0.63893">
        <ele>1018.59</ele>
        <time>2021-08-03T13:03:42Z</time>
      </trkpt>
      <trkpt lat="42.33091" lon="-0.6387">
        <ele>1018.84</ele>
        <time>2021-08-03T13:03:45Z</time>
      </trkpt>
      <trkpt lat="42.33087" lon="-0.63825">
        <ele>1019.02</ele>
        <time>2021-08-03T13:03:49Z</time>
      </trkpt>
      <trkpt lat="42.3304" lon="-0.63792">
        <ele>1019.65</ele>
        <time>2021-08-03T13:03:55Z</time>
      </trkpt>
      <trkpt lat="42.33029" lon="-0.63798">
        <ele>1019.88</ele>
        <time>2021-08-03T13:03:56Z</time>
      </trkpt>
      <trkpt lat="42.32997" lon="-0.63812">
        <ele>1020.68</ele>
        <time>2021-08-03T13:03:59Z</time>
      </trkpt>
      <trkpt lat="42.32959" lon="-0.63776">
        <ele>1022.42</ele>
        <time>2021-08-03T13:04:05Z</time>
      </trkpt>
      <trkpt lat="42.32951" lon="-0.6375">
        <ele>1022.82</ele>
        <time>2021-08-03T13:04:07Z</time>
      </trkpt>
      <trkpt lat="42.32969" lon="-0.63676">
        <ele>1024.89</ele>
        <time>2021-08-03T13:04:14Z</time>
      </trkpt>
      <trkpt lat="42.33008" lon="-0.63603">
        <ele>1027.21</ele>
        <time>2021-08-03T13:04:21Z</time>
      </trkpt>
      <trkpt lat="42.33008" lon="-0.6356">
        <ele>1028.43</ele>
        <time>2021-08-03T13:04:24Z</time>
      </trkpt>
      <trkpt lat="42.33032" lon="-0.63446">
        <ele>1030.5</ele>
        <time>2021-08-03T13:04:32Z</time>
      </trkpt>
      <trkpt lat="42.33041" lon="-0.63423">
        <ele>1030.9</ele>
        <time>2021-08-03T13:04:34Z</time>
      </trkpt>
      <trkpt lat="42.33053" lon="-0.63398">
        <ele>1031.25</ele>
        <time>2021-08-03T13:04:36Z</time>
      </trkpt>
      <trkpt lat="42.33065" lon="-0.63338">
        <ele>1032.06</ele>
        <time>2021-08-03T13:04:40Z</time>
      </trkpt>
      <trkpt lat="42.33062" lon="-0.63281">
        <ele>1033.03</ele>
        <time>2021-08-03T13:04:44Z</time>
      </trkpt>
      <trkpt lat="42.3304" lon="-0.63139">
        <ele>1035.77</ele>
        <time>2021-08-03T13:04:52Z</time>
      </trkpt>
      <trkpt lat="42.33031" lon="-0.63068">
        <ele>1036.68</ele>
        <time>2021-08-03T13:04:56Z</time>
      </trkpt>
      <trkpt lat="42.33003" lon="-0.63013">
        <ele>1036.59</ele>
        <time>2021-08-03T13:05:00Z</time>
      </trkpt>
      <trkpt lat="42.32985" lon="-0.62991">
        <ele>1036.21</ele>
        <time>2021-08-03T13:05:02Z</time>
      </trkpt>
      <trkpt lat="42.3294" lon="-0.62963">
        <ele>1033.93</ele>
        <time>2021-08-03T13:05:07Z</time>
      </trkpt>
      <trkpt lat="42.32924" lon="-0.62905">
        <ele>1030.77</ele>
        <time>2021-08-03T13:05:13Z</time>
      </trkpt>
      <trkpt lat="42.32955" lon="-0.62839">
        <ele>1027.94</ele>
        <time>2021-08-03T13:05:19Z</time>
      </trkpt>
      <trkpt lat="42.32994" lon="-0.62812">
        <ele>1026.71</ele>
        <time>2021-08-03T13:05:23Z</time>
      </trkpt>
      <trkpt lat="42.33015" lon="-0.62802">
        <ele>1025.96</ele>
        <time>2021-08-03T13:05:25Z</time>
      </trkpt>
      <trkpt lat="42.33043" lon="-0.62782">
        <ele>1025.1</ele>
        <time>2021-08-03T13:05:28Z</time>
      </trkpt>
      <trkpt lat="42.33063" lon="-0.62715">
        <ele>1023.67</ele>
        <time>2021-08-03T13:05:34Z</time>
      </trkpt>
      <trkpt lat="42.33032" lon="-0.62701">
        <ele>1022.61</ele>
        <time>2021-08-03T13:05:38Z</time>
      </trkpt>
      <trkpt lat="42.32952" lon="-0.62685">
        <ele>1018.71</ele>
        <time>2021-08-03T13:05:47Z</time>
      </trkpt>
      <trkpt lat="42.32919" lon="-0.62665">
        <ele>1016.34</ele>
        <time>2021-08-03T13:05:51Z</time>
      </trkpt>
      <trkpt lat="42.32891" lon="-0.62623">
        <ele>1013.38</ele>
        <time>2021-08-03T13:05:56Z</time>
      </trkpt>
      <trkpt lat="42.32882" lon="-0.62604">
        <ele>1012.51</ele>
        <time>2021-08-03T13:05:58Z</time>
      </trkpt>
      <trkpt lat="42.32857" lon="-0.62552">
        <ele>1009.17</ele>
        <time>2021-08-03T13:06:04Z</time>
      </trkpt>
      <trkpt lat="42.32816" lon="-0.62497">
        <ele>1005.58</ele>
        <time>2021-08-03T13:06:11Z</time>
      </trkpt>
      <trkpt lat="42.32772" lon="-0.62433">
        <ele>1002.52</ele>
        <time>2021-08-03T13:06:18Z</time>
      </trkpt>
      <trkpt lat="42.32722" lon="-0.62337">
        <ele>999.37</ele>
        <time>2021-08-03T13:06:26Z</time>
      </trkpt>
      <trkpt lat="42.32699" lon="-0.62291">
        <ele>997.65</ele>
        <time>2021-08-03T13:06:30Z</time>
      </trkpt>
      <trkpt lat="42.32688" lon="-0.62253">
        <ele>996.15</ele>
        <time>2021-08-03T13:06:33Z</time>
      </trkpt>
      <trkpt lat="42.32687" lon="-0.62239">
        <ele>994.97</ele>
        <time>2021-08-03T13:06:34Z</time>
      </trkpt>
      <trkpt lat="42.32682" lon="-0.62196">
        <ele>992.91</ele>
        <time>2021-08-03T13:06:37Z</time>
      </trkpt>
      <trkpt lat="42.32681" lon="-0.62158">
        <ele>990.77</ele>
        <time>2021-08-03T13:06:40Z</time>
      </trkpt>
      <trkpt lat="42.32652" lon="-0.62115">
        <ele>987.3</ele>
        <time>2021-08-03T13:06:45Z</time>
      </trkpt>
      <trkpt lat="42.32626" lon="-0.62099">
        <ele>985.95</ele>
        <time>2021-08-03T13:06:48Z</time>
      </trkpt>
      <trkpt lat="42.32569" lon="-0.62014">
        <ele>983.61</ele>
        <time>2021-08-03T13:06:56Z</time>
      </trkpt>
      <trkpt lat="42.32495" lon="-0.61887">
        <ele>981.53</ele>
        <time>2021-08-03T13:07:07Z</time>
      </trkpt>
      <trkpt lat="42.3247" lon="-0.61853">
        <ele>981.43</ele>
        <time>2021-08-03T13:07:12Z</time>
      </trkpt>
      <trkpt lat="42.3247" lon="-0.61856">
        <ele>981.73</ele>
        <time>2021-08-03T13:07:15Z</time>
      </trkpt>
      <trkpt lat="42.32478" lon="-0.6187">
        <ele>982.7</ele>
        <time>2021-08-03T13:07:25Z</time>
      </trkpt>
      <trkpt lat="42.32476" lon="-0.61867">
        <ele>982.63</ele>
        <time>2021-08-03T13:07:26Z</time>
      </trkpt>
      <trkpt lat="42.32465" lon="-0.61849">
        <ele>982.52</ele>
        <time>2021-08-03T13:07:31Z</time>
      </trkpt>
      <trkpt lat="42.32472" lon="-0.61836">
        <ele>983.34</ele>
        <time>2021-08-03T13:07:35Z</time>
      </trkpt>
      <trkpt lat="42.32488" lon="-0.61755">
        <ele>986.23</ele>
        <time>2021-08-03T13:07:43Z</time>
      </trkpt>
      <trkpt lat="42.32472" lon="-0.61678">
        <ele>990.15</ele>
        <time>2021-08-03T13:07:48Z</time>
      </trkpt>
      <trkpt lat="42.32458" lon="-0.61607">
        <ele>994.27</ele>
        <time>2021-08-03T13:07:52Z</time>
      </trkpt>
      <trkpt lat="42.32454" lon="-0.6158">
        <ele>996.56</ele>
        <time>2021-08-03T13:07:54Z</time>
      </trkpt>
      <trkpt lat="42.32473" lon="-0.61557">
        <ele>1000.89</ele>
        <time>2021-08-03T13:07:58Z</time>
      </trkpt>
      <trkpt lat="42.32495" lon="-0.61579">
        <ele>1004</ele>
        <time>2021-08-03T13:08:01Z</time>
      </trkpt>
      <trkpt lat="42.32501" lon="-0.61594">
        <ele>1004.92</ele>
        <time>2021-08-03T13:08:02Z</time>
      </trkpt>
      <trkpt lat="42.32533" lon="-0.61663">
        <ele>1009.72</ele>
        <time>2021-08-03T13:08:07Z</time>
      </trkpt>
      <trkpt lat="42.32573" lon="-0.61719">
        <ele>1013.76</ele>
        <time>2021-08-03T13:08:11Z</time>
      </trkpt>
      <trkpt lat="42.32612" lon="-0.61754">
        <ele>1018.54</ele>
        <time>2021-08-03T13:08:14Z</time>
      </trkpt>
      <trkpt lat="42.32657" lon="-0.61815">
        <ele>1024.37</ele>
        <time>2021-08-03T13:08:18Z</time>
      </trkpt>
      <trkpt lat="42.32705" lon="-0.61861">
        <ele>1031.55</ele>
        <time>2021-08-03T13:08:23Z</time>
      </trkpt>
      <trkpt lat="42.32729" lon="-0.61826">
        <ele>1035.45</ele>
        <time>2021-08-03T13:08:26Z</time>
      </trkpt>
      <trkpt lat="42.3274" lon="-0.61775">
        <ele>1039.29</ele>
        <time>2021-08-03T13:08:29Z</time>
      </trkpt>
      <trkpt lat="42.3275" lon="-0.61698">
        <ele>1044.58</ele>
        <time>2021-08-03T13:08:33Z</time>
      </trkpt>
      <trkpt lat="42.32751" lon="-0.61644">
        <ele>1048.64</ele>
        <time>2021-08-03T13:08:36Z</time>
      </trkpt>
      <trkpt lat="42.32756" lon="-0.61601">
        <ele>1053.07</ele>
        <time>2021-08-03T13:08:39Z</time>
      </trkpt>
      <trkpt lat="42.32762" lon="-0.61561">
        <ele>1057.12</ele>
        <time>2021-08-03T13:08:42Z</time>
      </trkpt>
      <trkpt lat="42.32765" lon="-0.61515">
        <ele>1060.37</ele>
        <time>2021-08-03T13:08:45Z</time>
      </trkpt>
      <trkpt lat="42.32766" lon="-0.61502">
        <ele>1061.53</ele>
        <time>2021-08-03T13:08:46Z</time>
      </trkpt>
      <trkpt lat="42.32783" lon="-0.61463">
        <ele>1065.97</ele>
        <time>2021-08-03T13:08:50Z</time>
      </trkpt>
      <trkpt lat="42.32804" lon="-0.61458">
        <ele>1069.43</ele>
        <time>2021-08-03T13:08:54Z</time>
      </trkpt>
      <trkpt lat="42.32808" lon="-0.61461">
        <ele>1073.17</ele>
        <time>2021-08-03T13:09:00Z</time>
      </trkpt>
      <trkpt lat="42.32813" lon="-0.61461">
        <ele>1074.01</ele>
        <time>2021-08-03T13:09:03Z</time>
      </trkpt>
      <trkpt lat="42.32816" lon="-0.6147">
        <ele>1075.94</ele>
        <time>2021-08-03T13:09:10Z</time>
      </trkpt>
      <trkpt lat="42.32813" lon="-0.61469">
        <ele>1076.55</ele>
        <time>2021-08-03T13:09:27Z</time>
      </trkpt>
      <trkpt lat="42.32801" lon="-0.6147">
        <ele>1076.85</ele>
        <time>2021-08-03T13:09:31Z</time>
      </trkpt>
      <trkpt lat="42.32766" lon="-0.61516">
        <ele>1075.6</ele>
        <time>2021-08-03T13:09:40Z</time>
      </trkpt>
      <trkpt lat="42.32766" lon="-0.61527">
        <ele>1075.21</ele>
        <time>2021-08-03T13:09:41Z</time>
      </trkpt>
      <trkpt lat="42.32764" lon="-0.6155">
        <ele>1074.31</ele>
        <time>2021-08-03T13:09:43Z</time>
      </trkpt>
      <trkpt lat="42.32753" lon="-0.6158">
        <ele>1070.46</ele>
        <time>2021-08-03T13:09:50Z</time>
      </trkpt>
      <trkpt lat="42.32753" lon="-0.61581">
        <ele>1067.36</ele>
        <time>2021-08-03T13:09:56Z</time>
      </trkpt>
      <trkpt lat="42.32753" lon="-0.61584">
        <ele>1067.02</ele>
        <time>2021-08-03T13:10:51Z</time>
      </trkpt>
      <trkpt lat="42.32751" lon="-0.61619">
        <ele>1067</ele>
        <time>2021-08-03T13:10:56Z</time>
      </trkpt>
      <trkpt lat="42.32737" lon="-0.61749">
        <ele>1066.25</ele>
        <time>2021-08-03T13:11:03Z</time>
      </trkpt>
      <trkpt lat="42.32718" lon="-0.6183">
        <ele>1064.42</ele>
        <time>2021-08-03T13:11:07Z</time>
      </trkpt>
      <trkpt lat="42.32675" lon="-0.61868">
        <ele>1059.84</ele>
        <time>2021-08-03T13:11:12Z</time>
      </trkpt>
      <trkpt lat="42.3265" lon="-0.6183">
        <ele>1055.77</ele>
        <time>2021-08-03T13:11:15Z</time>
      </trkpt>
      <trkpt lat="42.32597" lon="-0.61756">
        <ele>1048.89</ele>
        <time>2021-08-03T13:11:20Z</time>
      </trkpt>
      <trkpt lat="42.32549" lon="-0.61704">
        <ele>1043.72</ele>
        <time>2021-08-03T13:11:24Z</time>
      </trkpt>
      <trkpt lat="42.32519" lon="-0.61662">
        <ele>1039.38</ele>
        <time>2021-08-03T13:11:27Z</time>
      </trkpt>
      <trkpt lat="42.32511" lon="-0.61647">
        <ele>1037.77</ele>
        <time>2021-08-03T13:11:28Z</time>
      </trkpt>
      <trkpt lat="42.32499" lon="-0.61618">
        <ele>1034.68</ele>
        <time>2021-08-03T13:11:30Z</time>
      </trkpt>
      <trkpt lat="42.32492" lon="-0.61593">
        <ele>1029.87</ele>
        <time>2021-08-03T13:11:32Z</time>
      </trkpt>
      <trkpt lat="42.3249" lon="-0.61583">
        <ele>1028.3</ele>
        <time>2021-08-03T13:11:33Z</time>
      </trkpt>
      <trkpt lat="42.32471" lon="-0.61559">
        <ele>1022.48</ele>
        <time>2021-08-03T13:11:37Z</time>
      </trkpt>
      <trkpt lat="42.32455" lon="-0.61574">
        <ele>1018.96</ele>
        <time>2021-08-03T13:11:40Z</time>
      </trkpt>
      <trkpt lat="42.32459" lon="-0.6163">
        <ele>1015.2</ele>
        <time>2021-08-03T13:11:44Z</time>
      </trkpt>
      <trkpt lat="42.32485" lon="-0.61753">
        <ele>1010.75</ele>
        <time>2021-08-03T13:11:50Z</time>
      </trkpt>
      <trkpt lat="42.3249" lon="-0.61786">
        <ele>1008.87</ele>
        <time>2021-08-03T13:11:52Z</time>
      </trkpt>
      <trkpt lat="42.32482" lon="-0.61838">
        <ele>1004.01</ele>
        <time>2021-08-03T13:11:56Z</time>
      </trkpt>
      <trkpt lat="42.32454" lon="-0.61856">
        <ele>999.95</ele>
        <time>2021-08-03T13:11:59Z</time>
      </trkpt>
      <trkpt lat="42.32426" lon="-0.6184">
        <ele>996.33</ele>
        <time>2021-08-03T13:12:02Z</time>
      </trkpt>
      <trkpt lat="42.32418" lon="-0.61826">
        <ele>995.23</ele>
        <time>2021-08-03T13:12:03Z</time>
      </trkpt>
      <trkpt lat="42.32401" lon="-0.61806">
        <ele>992.93</ele>
        <time>2021-08-03T13:12:05Z</time>
      </trkpt>
      <trkpt lat="42.3236" lon="-0.61779">
        <ele>988.26</ele>
        <time>2021-08-03T13:12:09Z</time>
      </trkpt>
      <trkpt lat="42.32326" lon="-0.61788">
        <ele>984.44</ele>
        <time>2021-08-03T13:12:12Z</time>
      </trkpt>
      <trkpt lat="42.32315" lon="-0.61795">
        <ele>983.25</ele>
        <time>2021-08-03T13:12:13Z</time>
      </trkpt>
      <trkpt lat="42.3226" lon="-0.61801">
        <ele>977.58</ele>
        <time>2021-08-03T13:12:18Z</time>
      </trkpt>
      <trkpt lat="42.32241" lon="-0.61763">
        <ele>974.03</ele>
        <time>2021-08-03T13:12:21Z</time>
      </trkpt>
      <trkpt lat="42.32227" lon="-0.61717">
        <ele>970.18</ele>
        <time>2021-08-03T13:12:24Z</time>
      </trkpt>
      <trkpt lat="42.32186" lon="-0.61679">
        <ele>964.64</ele>
        <time>2021-08-03T13:12:28Z</time>
      </trkpt>
      <trkpt lat="42.32158" lon="-0.61658">
        <ele>960.86</ele>
        <time>2021-08-03T13:12:31Z</time>
      </trkpt>
      <trkpt lat="42.32136" lon="-0.61651">
        <ele>956.48</ele>
        <time>2021-08-03T13:12:34Z</time>
      </trkpt>
      <trkpt lat="42.32122" lon="-0.61677">
        <ele>952.42</ele>
        <time>2021-08-03T13:12:37Z</time>
      </trkpt>
      <trkpt lat="42.32112" lon="-0.61713">
        <ele>948.53</ele>
        <time>2021-08-03T13:12:40Z</time>
      </trkpt>
      <trkpt lat="42.32087" lon="-0.6173">
        <ele>945.5</ele>
        <time>2021-08-03T13:12:43Z</time>
      </trkpt>
      <trkpt lat="42.32058" lon="-0.61744">
        <ele>942.48</ele>
        <time>2021-08-03T13:12:46Z</time>
      </trkpt>
      <trkpt lat="42.32028" lon="-0.61736">
        <ele>938.45</ele>
        <time>2021-08-03T13:12:50Z</time>
      </trkpt>
      <trkpt lat="42.32024" lon="-0.61725">
        <ele>937.35</ele>
        <time>2021-08-03T13:12:51Z</time>
      </trkpt>
      <trkpt lat="42.31982" lon="-0.61674">
        <ele>931.38</ele>
        <time>2021-08-03T13:12:57Z</time>
      </trkpt>
      <trkpt lat="42.31977" lon="-0.61709">
        <ele>928.76</ele>
        <time>2021-08-03T13:13:00Z</time>
      </trkpt>
      <trkpt lat="42.31999" lon="-0.61757">
        <ele>924.88</ele>
        <time>2021-08-03T13:13:04Z</time>
      </trkpt>
      <trkpt lat="42.32" lon="-0.61804">
        <ele>920.95</ele>
        <time>2021-08-03T13:13:08Z</time>
      </trkpt>
      <trkpt lat="42.3199" lon="-0.61817">
        <ele>917.88</ele>
        <time>2021-08-03T13:13:10Z</time>
      </trkpt>
      <trkpt lat="42.31961" lon="-0.61814">
        <ele>914.13</ele>
        <time>2021-08-03T13:13:14Z</time>
      </trkpt>
      <trkpt lat="42.31954" lon="-0.6181">
        <ele>913.4</ele>
        <time>2021-08-03T13:13:15Z</time>
      </trkpt>
      <trkpt lat="42.31938" lon="-0.61802">
        <ele>911.86</ele>
        <time>2021-08-03T13:13:17Z</time>
      </trkpt>
      <trkpt lat="42.31897" lon="-0.61762">
        <ele>907.71</ele>
        <time>2021-08-03T13:13:23Z</time>
      </trkpt>
      <trkpt lat="42.31893" lon="-0.61705">
        <ele>903.38</ele>
        <time>2021-08-03T13:13:29Z</time>
      </trkpt>
      <trkpt lat="42.3187" lon="-0.61683">
        <ele>900.24</ele>
        <time>2021-08-03T13:13:33Z</time>
      </trkpt>
      <trkpt lat="42.3186" lon="-0.61684">
        <ele>899.73</ele>
        <time>2021-08-03T13:13:34Z</time>
      </trkpt>
      <trkpt lat="42.31841" lon="-0.61688">
        <ele>898.85</ele>
        <time>2021-08-03T13:13:36Z</time>
      </trkpt>
      <trkpt lat="42.31816" lon="-0.61697">
        <ele>897.06</ele>
        <time>2021-08-03T13:13:39Z</time>
      </trkpt>
      <trkpt lat="42.31769" lon="-0.61696">
        <ele>892.7</ele>
        <time>2021-08-03T13:13:44Z</time>
      </trkpt>
      <trkpt lat="42.31749" lon="-0.61685">
        <ele>891.05</ele>
        <time>2021-08-03T13:13:46Z</time>
      </trkpt>
      <trkpt lat="42.31695" lon="-0.61649">
        <ele>886.53</ele>
        <time>2021-08-03T13:13:51Z</time>
      </trkpt>
      <trkpt lat="42.31631" lon="-0.61638">
        <ele>883.47</ele>
        <time>2021-08-03T13:13:55Z</time>
      </trkpt>
      <trkpt lat="42.31549" lon="-0.61647">
        <ele>879.3</ele>
        <time>2021-08-03T13:14:00Z</time>
      </trkpt>
      <trkpt lat="42.31487" lon="-0.61673">
        <ele>875.32</ele>
        <time>2021-08-03T13:14:04Z</time>
      </trkpt>
      <trkpt lat="42.31443" lon="-0.61692">
        <ele>872.31</ele>
        <time>2021-08-03T13:14:07Z</time>
      </trkpt>
      <trkpt lat="42.31399" lon="-0.61706">
        <ele>869.06</ele>
        <time>2021-08-03T13:14:10Z</time>
      </trkpt>
      <trkpt lat="42.31402" lon="-0.6171">
        <ele>827.5</ele>
      </trkpt>
      <trkpt lat="42.31409" lon="-0.61712">
        <ele>827.6</ele>
      </trkpt>
      <trkpt lat="42.31441" lon="-0.61713">
        <ele>828.3</ele>
      </trkpt>
      <trkpt lat="42.31497" lon="-0.6172">
        <ele>828</ele>
      </trkpt>
      <trkpt lat="42.31517" lon="-0.6172">
        <ele>829</ele>
      </trkpt>
      <trkpt lat="42.31528" lon="-0.61722">
        <ele>829.4</ele>
      </trkpt>
      <trkpt lat="42.3155" lon="-0.61731">
        <ele>829.4</ele>
      </trkpt>
      <trkpt lat="42.31561" lon="-0.61738">
        <ele>829.1</ele>
      </trkpt>
      <trkpt lat="42.31581" lon="-0.61755">
        <ele>828.7</ele>
      </trkpt>
      <trkpt lat="42.31596" lon="-0.61774">
        <ele>829.5</ele>
      </trkpt>
      <trkpt lat="42.3161" lon="-0.61804">
        <ele>829.1</ele>
      </trkpt>
      <trkpt lat="42.31617" lon="-0.61829">
        <ele>827.9</ele>
      </trkpt>
      <trkpt lat="42.31622" lon="-0.61845">
        <ele>827.6</ele>
      </trkpt>
      <trkpt lat="42.31624" lon="-0.61854">
        <ele>827.5</ele>
      </trkpt>
      <trkpt lat="42.31633" lon="-0.61906">
        <ele>826.3</ele>
      </trkpt>
      <trkpt lat="42.31636" lon="-0.61928">
        <ele>824.9</ele>
      </trkpt>
      <trkpt lat="42.31636" lon="-0.61942">
        <ele>823.5</ele>
      </trkpt>
      <trkpt lat="42.31633" lon="-0.61956">
        <ele>822.1</ele>
      </trkpt>
      <trkpt lat="42.31628" lon="-0.61975">
        <ele>820.1</ele>
      </trkpt>
      <trkpt lat="42.31608" lon="-0.62032">
        <ele>813.1</ele>
      </trkpt>
      <trkpt lat="42.31585" lon="-0.62144">
        <ele>800</ele>
      </trkpt>
      <trkpt lat="42.31586" lon="-0.62168">
        <ele>798.1</ele>
      </trkpt>
      <trkpt lat="42.31603" lon="-0.62299">
        <ele>793.6</ele>
      </trkpt>
      <trkpt lat="42.31603" lon="-0.62302">
        <ele>793.5</ele>
      </trkpt>
    </trkseg>
  </trk>
  <trk>
    <name><![CDATA[Jour 5_3]]></name>
    <trkseg>
      <trkpt lat="42.31183" lon="-0.62394">
        <ele>789.94</ele>
        <time>2021-08-03T13:19:25Z</time>
      </trkpt>
      <trkpt lat="42.31201" lon="-0.62387">
        <ele>790.45</ele>
        <time>2021-08-03T13:19:34Z</time>
      </trkpt>
      <trkpt lat="42.31252" lon="-0.62393">
        <ele>792.39</ele>
        <time>2021-08-03T13:19:44Z</time>
      </trkpt>
      <trkpt lat="42.31277" lon="-0.62402">
        <ele>794.07</ele>
        <time>2021-08-03T13:19:53Z</time>
      </trkpt>
      <trkpt lat="42.31337" lon="-0.6243">
        <ele>796.76</ele>
        <time>2021-08-03T13:20:05Z</time>
      </trkpt>
      <trkpt lat="42.31379" lon="-0.62443">
        <ele>799.36</ele>
        <time>2021-08-03T13:20:14Z</time>
      </trkpt>
      <trkpt lat="42.31393" lon="-0.62417">
        <ele>800.25</ele>
        <time>2021-08-03T13:20:22Z</time>
      </trkpt>
      <trkpt lat="42.31398" lon="-0.62404">
        <ele>800.76</ele>
        <time>2021-08-03T13:20:25Z</time>
      </trkpt>
      <trkpt lat="42.31401" lon="-0.624">
        <ele>800.86</ele>
        <time>2021-08-03T13:20:26Z</time>
      </trkpt>
      <trkpt lat="42.31406" lon="-0.62395">
        <ele>800.91</ele>
        <time>2021-08-03T13:20:27Z</time>
      </trkpt>
      <trkpt lat="42.31412" lon="-0.62392">
        <ele>801</ele>
        <time>2021-08-03T13:20:28Z</time>
      </trkpt>
      <trkpt lat="42.31419" lon="-0.6239">
        <ele>801.15</ele>
        <time>2021-08-03T13:20:29Z</time>
      </trkpt>
      <trkpt lat="42.31471" lon="-0.62372">
        <ele>802.28</ele>
        <time>2021-08-03T13:20:35Z</time>
      </trkpt>
      <trkpt lat="42.31501" lon="-0.62378">
        <ele>802.98</ele>
        <time>2021-08-03T13:20:39Z</time>
      </trkpt>
      <trkpt lat="42.31535" lon="-0.62388">
        <ele>803.83</ele>
        <time>2021-08-03T13:20:44Z</time>
      </trkpt>
      <trkpt lat="42.3159" lon="-0.62366">
        <ele>805.66</ele>
        <time>2021-08-03T13:20:53Z</time>
      </trkpt>
      <trkpt lat="42.31603" lon="-0.62358">
        <ele>807.2</ele>
        <time>2021-08-03T13:21:00Z</time>
      </trkpt>
      <trkpt lat="42.31605" lon="-0.62357">
        <ele>807.93</ele>
        <time>2021-08-03T13:21:22Z</time>
      </trkpt>
      <trkpt lat="42.31602" lon="-0.62355">
        <ele>807.76</ele>
        <time>2021-08-03T13:21:33Z</time>
      </trkpt>
      <trkpt lat="42.31603" lon="-0.62341">
        <ele>808.23</ele>
        <time>2021-08-03T13:21:50Z</time>
      </trkpt>
      <trkpt lat="42.31602" lon="-0.6235">
        <ele>808.27</ele>
        <time>2021-08-03T13:22:08Z</time>
      </trkpt>
      <trkpt lat="42.31602" lon="-0.62356">
        <ele>808.15</ele>
        <time>2021-08-03T13:22:10Z</time>
      </trkpt>
      <trkpt lat="42.31589" lon="-0.62368">
        <ele>808.12</ele>
        <time>2021-08-03T13:22:14Z</time>
      </trkpt>
      <trkpt lat="42.31546" lon="-0.62389">
        <ele>808.26</ele>
        <time>2021-08-03T13:22:21Z</time>
      </trkpt>
      <trkpt lat="42.31477" lon="-0.62373">
        <ele>807.08</ele>
        <time>2021-08-03T13:22:29Z</time>
      </trkpt>
      <trkpt lat="42.31397" lon="-0.624">
        <ele>805.25</ele>
        <time>2021-08-03T13:22:38Z</time>
      </trkpt>
      <trkpt lat="42.31392" lon="-0.62405">
        <ele>805.04</ele>
        <time>2021-08-03T13:22:39Z</time>
      </trkpt>
      <trkpt lat="42.31388" lon="-0.62411">
        <ele>804.76</ele>
        <time>2021-08-03T13:22:40Z</time>
      </trkpt>
      <trkpt lat="42.31387" lon="-0.62416">
        <ele>804.49</ele>
        <time>2021-08-03T13:22:41Z</time>
      </trkpt>
      <trkpt lat="42.31385" lon="-0.62422">
        <ele>804.2</ele>
        <time>2021-08-03T13:22:42Z</time>
      </trkpt>
      <trkpt lat="42.31384" lon="-0.62426">
        <ele>803.88</ele>
        <time>2021-08-03T13:22:43Z</time>
      </trkpt>
      <trkpt lat="42.31382" lon="-0.62438">
        <ele>802.29</ele>
        <time>2021-08-03T13:22:50Z</time>
      </trkpt>
      <trkpt lat="42.31353" lon="-0.62434">
        <ele>800.96</ele>
        <time>2021-08-03T13:22:58Z</time>
      </trkpt>
      <trkpt lat="42.31286" lon="-0.62408">
        <ele>801.31</ele>
        <time>2021-08-03T13:23:04Z</time>
      </trkpt>
      <trkpt lat="42.3121" lon="-0.62386">
        <ele>800.59</ele>
        <time>2021-08-03T13:23:10Z</time>
      </trkpt>
      <trkpt lat="42.31185" lon="-0.6239">
        <ele>796.42</ele>
        <time>2021-08-03T13:23:16Z</time>
      </trkpt>
      <trkpt lat="42.31188" lon="-0.62411">
        <ele>792.66</ele>
        <time>2021-08-03T13:23:22Z</time>
      </trkpt>
      <trkpt lat="42.31193" lon="-0.62417">
        <ele>792.3</ele>
        <time>2021-08-03T13:23:23Z</time>
      </trkpt>
      <trkpt lat="42.31279" lon="-0.62525">
        <ele>790.92</ele>
        <time>2021-08-03T13:23:33Z</time>
      </trkpt>
      <trkpt lat="42.31302" lon="-0.62578">
        <ele>789.93</ele>
        <time>2021-08-03T13:23:37Z</time>
      </trkpt>
      <trkpt lat="42.31361" lon="-0.62758">
        <ele>786.95</ele>
        <time>2021-08-03T13:23:48Z</time>
      </trkpt>
      <trkpt lat="42.31368" lon="-0.62775">
        <ele>786.49</ele>
        <time>2021-08-03T13:23:49Z</time>
      </trkpt>
      <trkpt lat="42.31368" lon="-0.62865">
        <ele>783.61</ele>
        <time>2021-08-03T13:23:54Z</time>
      </trkpt>
      <trkpt lat="42.31315" lon="-0.62991">
        <ele>779.77</ele>
        <time>2021-08-03T13:24:00Z</time>
      </trkpt>
      <trkpt lat="42.31215" lon="-0.63251">
        <ele>777.12</ele>
        <time>2021-08-03T13:24:10Z</time>
      </trkpt>
      <trkpt lat="42.31114" lon="-0.63513">
        <ele>774</ele>
        <time>2021-08-03T13:24:19Z</time>
      </trkpt>
      <trkpt lat="42.31021" lon="-0.63755">
        <ele>770.82</ele>
        <time>2021-08-03T13:24:27Z</time>
      </trkpt>
      <trkpt lat="42.3095" lon="-0.63936">
        <ele>767.46</ele>
        <time>2021-08-03T13:24:33Z</time>
      </trkpt>
      <trkpt lat="42.309" lon="-0.64067">
        <ele>763.77</ele>
        <time>2021-08-03T13:24:38Z</time>
      </trkpt>
      <trkpt lat="42.30877" lon="-0.64128">
        <ele>760.42</ele>
        <time>2021-08-03T13:24:41Z</time>
      </trkpt>
      <trkpt lat="42.3083" lon="-0.64174">
        <ele>756.29</ele>
        <time>2021-08-03T13:24:45Z</time>
      </trkpt>
      <trkpt lat="42.3077" lon="-0.64207">
        <ele>753.73</ele>
        <time>2021-08-03T13:24:49Z</time>
      </trkpt>
      <trkpt lat="42.30621" lon="-0.64329">
        <ele>757</ele>
        <time>2021-08-03T13:24:58Z</time>
      </trkpt>
      <trkpt lat="42.30548" lon="-0.64386">
        <ele>760.03</ele>
        <time>2021-08-03T13:25:04Z</time>
      </trkpt>
      <trkpt lat="42.30429" lon="-0.64457">
        <ele>760.41</ele>
        <time>2021-08-03T13:25:11Z</time>
      </trkpt>
      <trkpt lat="42.30304" lon="-0.64539">
        <ele>758.16</ele>
        <time>2021-08-03T13:25:18Z</time>
      </trkpt>
      <trkpt lat="42.3029" lon="-0.64554">
        <ele>757.1</ele>
        <time>2021-08-03T13:25:19Z</time>
      </trkpt>
      <trkpt lat="42.30264" lon="-0.64616">
        <ele>753.73</ele>
        <time>2021-08-03T13:25:22Z</time>
      </trkpt>
      <trkpt lat="42.3024" lon="-0.64709">
        <ele>750</ele>
        <time>2021-08-03T13:25:26Z</time>
      </trkpt>
      <trkpt lat="42.30197" lon="-0.64792">
        <ele>747.51</ele>
        <time>2021-08-03T13:25:30Z</time>
      </trkpt>
      <trkpt lat="42.30102" lon="-0.64905">
        <ele>743.88</ele>
        <time>2021-08-03T13:25:36Z</time>
      </trkpt>
      <trkpt lat="42.30018" lon="-0.65002">
        <ele>740.39</ele>
        <time>2021-08-03T13:25:41Z</time>
      </trkpt>
      <trkpt lat="42.29967" lon="-0.65062">
        <ele>737.29</ele>
        <time>2021-08-03T13:25:44Z</time>
      </trkpt>
      <trkpt lat="42.29933" lon="-0.65102">
        <ele>735.46</ele>
        <time>2021-08-03T13:25:46Z</time>
      </trkpt>
      <trkpt lat="42.29934" lon="-0.65115">
        <ele>706.34</ele>
        <time>2021-08-03T14:05:08Z</time>
      </trkpt>
      <trkpt lat="42.29949" lon="-0.65136">
        <ele>707.55</ele>
        <time>2021-08-03T14:05:11Z</time>
      </trkpt>
      <trkpt lat="42.3001" lon="-0.65263">
        <ele>709.2</ele>
        <time>2021-08-03T14:05:20Z</time>
      </trkpt>
      <trkpt lat="42.30105" lon="-0.65452">
        <ele>710.29</ele>
        <time>2021-08-03T14:05:31Z</time>
      </trkpt>
      <trkpt lat="42.30205" lon="-0.65658">
        <ele>710.05</ele>
        <time>2021-08-03T14:05:42Z</time>
      </trkpt>
      <trkpt lat="42.30303" lon="-0.65864">
        <ele>708.73</ele>
        <time>2021-08-03T14:05:52Z</time>
      </trkpt>
      <trkpt lat="42.30465" lon="-0.6625">
        <ele>706.5</ele>
        <time>2021-08-03T14:06:09Z</time>
      </trkpt>
      <trkpt lat="42.30588" lon="-0.66561">
        <ele>704.22</ele>
        <time>2021-08-03T14:06:22Z</time>
      </trkpt>
      <trkpt lat="42.30601" lon="-0.66679">
        <ele>703.59</ele>
        <time>2021-08-03T14:06:27Z</time>
      </trkpt>
      <trkpt lat="42.30633" lon="-0.66755">
        <ele>703.5</ele>
        <time>2021-08-03T14:06:33Z</time>
      </trkpt>
      <trkpt lat="42.30639" lon="-0.6676">
        <ele>703.52</ele>
        <time>2021-08-03T14:06:34Z</time>
      </trkpt>
      <trkpt lat="42.30644" lon="-0.66764">
        <ele>703.55</ele>
        <time>2021-08-03T14:06:35Z</time>
      </trkpt>
      <trkpt lat="42.30647" lon="-0.66794">
        <ele>704.26</ele>
        <time>2021-08-03T14:06:39Z</time>
      </trkpt>
      <trkpt lat="42.30636" lon="-0.66979">
        <ele>704.75</ele>
        <time>2021-08-03T14:06:49Z</time>
      </trkpt>
      <trkpt lat="42.3063" lon="-0.67165">
        <ele>701.75</ele>
        <time>2021-08-03T14:06:57Z</time>
      </trkpt>
      <trkpt lat="42.30649" lon="-0.67347">
        <ele>700.8</ele>
        <time>2021-08-03T14:07:05Z</time>
      </trkpt>
      <trkpt lat="42.30719" lon="-0.67612">
        <ele>700.52</ele>
        <time>2021-08-03T14:07:17Z</time>
      </trkpt>
      <trkpt lat="42.30732" lon="-0.6778">
        <ele>702.07</ele>
        <time>2021-08-03T14:07:25Z</time>
      </trkpt>
      <trkpt lat="42.30742" lon="-0.67938">
        <ele>705.57</ele>
        <time>2021-08-03T14:07:33Z</time>
      </trkpt>
      <trkpt lat="42.30753" lon="-0.68022">
        <ele>707.55</ele>
        <time>2021-08-03T14:07:37Z</time>
      </trkpt>
      <trkpt lat="42.308" lon="-0.68139">
        <ele>711.49</ele>
        <time>2021-08-03T14:07:43Z</time>
      </trkpt>
      <trkpt lat="42.30836" lon="-0.68215">
        <ele>714.58</ele>
        <time>2021-08-03T14:07:47Z</time>
      </trkpt>
      <trkpt lat="42.30871" lon="-0.68291">
        <ele>717.75</ele>
        <time>2021-08-03T14:07:51Z</time>
      </trkpt>
      <trkpt lat="42.30905" lon="-0.68399">
        <ele>720.94</ele>
        <time>2021-08-03T14:07:56Z</time>
      </trkpt>
      <trkpt lat="42.30955" lon="-0.68552">
        <ele>724.17</ele>
        <time>2021-08-03T14:08:03Z</time>
      </trkpt>
      <trkpt lat="42.31036" lon="-0.68671">
        <ele>727.42</ele>
        <time>2021-08-03T14:08:10Z</time>
      </trkpt>
      <trkpt lat="42.31097" lon="-0.68753">
        <ele>730.76</ele>
        <time>2021-08-03T14:08:15Z</time>
      </trkpt>
      <trkpt lat="42.31157" lon="-0.68834">
        <ele>734.06</ele>
        <time>2021-08-03T14:08:20Z</time>
      </trkpt>
      <trkpt lat="42.31199" lon="-0.68896">
        <ele>737.47</ele>
        <time>2021-08-03T14:08:24Z</time>
      </trkpt>
      <trkpt lat="42.31223" lon="-0.68951">
        <ele>740.52</ele>
        <time>2021-08-03T14:08:27Z</time>
      </trkpt>
      <trkpt lat="42.31242" lon="-0.69036">
        <ele>744.28</ele>
        <time>2021-08-03T14:08:31Z</time>
      </trkpt>
      <trkpt lat="42.31257" lon="-0.69122">
        <ele>747.38</ele>
        <time>2021-08-03T14:08:35Z</time>
      </trkpt>
      <trkpt lat="42.31279" lon="-0.69206">
        <ele>749.17</ele>
        <time>2021-08-03T14:08:39Z</time>
      </trkpt>
      <trkpt lat="42.31365" lon="-0.69333">
        <ele>749.48</ele>
        <time>2021-08-03T14:08:47Z</time>
      </trkpt>
      <trkpt lat="42.31422" lon="-0.69364">
        <ele>749.11</ele>
        <time>2021-08-03T14:08:51Z</time>
      </trkpt>
      <trkpt lat="42.31571" lon="-0.69403">
        <ele>748.86</ele>
        <time>2021-08-03T14:09:02Z</time>
      </trkpt>
      <trkpt lat="42.31629" lon="-0.69475">
        <ele>752.03</ele>
        <time>2021-08-03T14:09:09Z</time>
      </trkpt>
      <trkpt lat="42.31638" lon="-0.69482">
        <ele>752.74</ele>
        <time>2021-08-03T14:09:10Z</time>
      </trkpt>
      <trkpt lat="42.31666" lon="-0.69527">
        <ele>757.47</ele>
        <time>2021-08-03T14:09:17Z</time>
      </trkpt>
      <trkpt lat="42.31667" lon="-0.69553">
        <ele>759.02</ele>
        <time>2021-08-03T14:09:20Z</time>
      </trkpt>
      <trkpt lat="42.31672" lon="-0.69609">
        <ele>762.65</ele>
        <time>2021-08-03T14:09:27Z</time>
      </trkpt>
      <trkpt lat="42.31676" lon="-0.69626">
        <ele>764.84</ele>
        <time>2021-08-03T14:09:33Z</time>
      </trkpt>
      <trkpt lat="42.31666" lon="-0.69657">
        <ele>765.91</ele>
        <time>2021-08-03T14:09:43Z</time>
      </trkpt>
      <trkpt lat="42.31682" lon="-0.69693">
        <ele>765.18</ele>
        <time>2021-08-03T14:09:54Z</time>
      </trkpt>
      <trkpt lat="42.31693" lon="-0.69706">
        <ele>765</ele>
        <time>2021-08-03T14:10:02Z</time>
      </trkpt>
      <trkpt lat="42.31695" lon="-0.69708">
        <ele>764.93</ele>
        <time>2021-08-03T14:10:06Z</time>
      </trkpt>
      <trkpt lat="42.31738" lon="-0.69733">
        <ele>765.11</ele>
        <time>2021-08-03T14:10:13Z</time>
      </trkpt>
      <trkpt lat="42.31774" lon="-0.69777">
        <ele>765.21</ele>
        <time>2021-08-03T14:10:18Z</time>
      </trkpt>
      <trkpt lat="42.31824" lon="-0.69901">
        <ele>767.3</ele>
        <time>2021-08-03T14:10:29Z</time>
      </trkpt>
      <trkpt lat="42.31842" lon="-0.69954">
        <ele>765.42</ele>
        <time>2021-08-03T14:10:34Z</time>
      </trkpt>
      <trkpt lat="42.3185" lon="-0.70025">
        <ele>761.26</ele>
        <time>2021-08-03T14:10:40Z</time>
      </trkpt>
      <trkpt lat="42.31859" lon="-0.7006">
        <ele>758.15</ele>
        <time>2021-08-03T14:10:43Z</time>
      </trkpt>
      <trkpt lat="42.31866" lon="-0.70085">
        <ele>755.7</ele>
        <time>2021-08-03T14:10:45Z</time>
      </trkpt>
      <trkpt lat="42.31891" lon="-0.70115">
        <ele>750.71</ele>
        <time>2021-08-03T14:10:49Z</time>
      </trkpt>
      <trkpt lat="42.31899" lon="-0.70114">
        <ele>749.67</ele>
        <time>2021-08-03T14:10:50Z</time>
      </trkpt>
      <trkpt lat="42.31938" lon="-0.70145">
        <ele>744.72</ele>
        <time>2021-08-03T14:10:56Z</time>
      </trkpt>
      <trkpt lat="42.31945" lon="-0.70156">
        <ele>743.94</ele>
        <time>2021-08-03T14:10:57Z</time>
      </trkpt>
      <trkpt lat="42.31969" lon="-0.70188">
        <ele>741.69</ele>
        <time>2021-08-03T14:11:00Z</time>
      </trkpt>
      <trkpt lat="42.32016" lon="-0.70221">
        <ele>737.92</ele>
        <time>2021-08-03T14:11:05Z</time>
      </trkpt>
      <trkpt lat="42.32053" lon="-0.70244">
        <ele>735.96</ele>
        <time>2021-08-03T14:11:09Z</time>
      </trkpt>
      <trkpt lat="42.321" lon="-0.70255">
        <ele>735.37</ele>
        <time>2021-08-03T14:11:14Z</time>
      </trkpt>
      <trkpt lat="42.32179" lon="-0.7031">
        <ele>732.26</ele>
        <time>2021-08-03T14:11:24Z</time>
      </trkpt>
      <trkpt lat="42.32199" lon="-0.70334">
        <ele>730.58</ele>
        <time>2021-08-03T14:11:27Z</time>
      </trkpt>
      <trkpt lat="42.32203" lon="-0.70344">
        <ele>730.28</ele>
        <time>2021-08-03T14:11:28Z</time>
      </trkpt>
      <trkpt lat="42.32205" lon="-0.70354">
        <ele>730.13</ele>
        <time>2021-08-03T14:11:29Z</time>
      </trkpt>
      <trkpt lat="42.32205" lon="-0.70378">
        <ele>730.03</ele>
        <time>2021-08-03T14:11:31Z</time>
      </trkpt>
      <trkpt lat="42.32204" lon="-0.70402">
        <ele>730.14</ele>
        <time>2021-08-03T14:11:33Z</time>
      </trkpt>
      <trkpt lat="42.32209" lon="-0.70449">
        <ele>730.91</ele>
        <time>2021-08-03T14:11:37Z</time>
      </trkpt>
      <trkpt lat="42.32203" lon="-0.70493">
        <ele>731.78</ele>
        <time>2021-08-03T14:11:41Z</time>
      </trkpt>
      <trkpt lat="42.32151" lon="-0.70614">
        <ele>731.98</ele>
        <time>2021-08-03T14:11:51Z</time>
      </trkpt>
      <trkpt lat="42.32121" lon="-0.7065">
        <ele>731.55</ele>
        <time>2021-08-03T14:11:55Z</time>
      </trkpt>
      <trkpt lat="42.32059" lon="-0.70706">
        <ele>729.14</ele>
        <time>2021-08-03T14:12:02Z</time>
      </trkpt>
      <trkpt lat="42.32015" lon="-0.70797">
        <ele>725.06</ele>
        <time>2021-08-03T14:12:09Z</time>
      </trkpt>
      <trkpt lat="42.31994" lon="-0.70843">
        <ele>721.67</ele>
        <time>2021-08-03T14:12:13Z</time>
      </trkpt>
      <trkpt lat="42.31976" lon="-0.70888">
        <ele>718.09</ele>
        <time>2021-08-03T14:12:17Z</time>
      </trkpt>
      <trkpt lat="42.31956" lon="-0.70937">
        <ele>714.59</ele>
        <time>2021-08-03T14:12:21Z</time>
      </trkpt>
      <trkpt lat="42.31935" lon="-0.70993">
        <ele>711.5</ele>
        <time>2021-08-03T14:12:25Z</time>
      </trkpt>
      <trkpt lat="42.31916" lon="-0.71053">
        <ele>708.37</ele>
        <time>2021-08-03T14:12:29Z</time>
      </trkpt>
      <trkpt lat="42.31895" lon="-0.71112">
        <ele>704.86</ele>
        <time>2021-08-03T14:12:33Z</time>
      </trkpt>
      <trkpt lat="42.31855" lon="-0.7117">
        <ele>700.54</ele>
        <time>2021-08-03T14:12:38Z</time>
      </trkpt>
      <trkpt lat="42.31825" lon="-0.71214">
        <ele>697.25</ele>
        <time>2021-08-03T14:12:42Z</time>
      </trkpt>
      <trkpt lat="42.31806" lon="-0.71249">
        <ele>694.43</ele>
        <time>2021-08-03T14:12:45Z</time>
      </trkpt>
      <trkpt lat="42.31767" lon="-0.71256">
        <ele>690.09</ele>
        <time>2021-08-03T14:12:50Z</time>
      </trkpt>
      <trkpt lat="42.31759" lon="-0.71247">
        <ele>689.42</ele>
        <time>2021-08-03T14:12:51Z</time>
      </trkpt>
      <trkpt lat="42.31716" lon="-0.71181">
        <ele>685.24</ele>
        <time>2021-08-03T14:12:57Z</time>
      </trkpt>
      <trkpt lat="42.31708" lon="-0.71141">
        <ele>681.2</ele>
        <time>2021-08-03T14:13:02Z</time>
      </trkpt>
      <trkpt lat="42.31697" lon="-0.7114">
        <ele>678.17</ele>
        <time>2021-08-03T14:13:06Z</time>
      </trkpt>
      <trkpt lat="42.31698" lon="-0.71157">
        <ele>676.82</ele>
        <time>2021-08-03T14:13:08Z</time>
      </trkpt>
      <trkpt lat="42.31713" lon="-0.71261">
        <ele>673.1</ele>
        <time>2021-08-03T14:13:16Z</time>
      </trkpt>
      <trkpt lat="42.31739" lon="-0.7135">
        <ele>669.77</ele>
        <time>2021-08-03T14:13:23Z</time>
      </trkpt>
      <trkpt lat="42.31759" lon="-0.71388">
        <ele>667.29</ele>
        <time>2021-08-03T14:13:27Z</time>
      </trkpt>
      <trkpt lat="42.31787" lon="-0.71422">
        <ele>662.6</ele>
        <time>2021-08-03T14:13:33Z</time>
      </trkpt>
      <trkpt lat="42.31789" lon="-0.71438">
        <ele>660.88</ele>
        <time>2021-08-03T14:13:35Z</time>
      </trkpt>
      <trkpt lat="42.3179" lon="-0.71452">
        <ele>659.49</ele>
        <time>2021-08-03T14:13:37Z</time>
      </trkpt>
      <trkpt lat="42.31808" lon="-0.71498">
        <ele>656.35</ele>
        <time>2021-08-03T14:13:43Z</time>
      </trkpt>
      <trkpt lat="42.31825" lon="-0.71518">
        <ele>654.98</ele>
        <time>2021-08-03T14:13:46Z</time>
      </trkpt>
      <trkpt lat="42.31834" lon="-0.71555">
        <ele>652.04</ele>
        <time>2021-08-03T14:13:51Z</time>
      </trkpt>
      <trkpt lat="42.31834" lon="-0.71594">
        <ele>649.63</ele>
        <time>2021-08-03T14:13:56Z</time>
      </trkpt>
      <trkpt lat="42.3184" lon="-0.71661">
        <ele>645.92</ele>
        <time>2021-08-03T14:14:03Z</time>
      </trkpt>
      <trkpt lat="42.31846" lon="-0.71711">
        <ele>642.84</ele>
        <time>2021-08-03T14:14:08Z</time>
      </trkpt>
      <trkpt lat="42.31852" lon="-0.71763">
        <ele>638.96</ele>
        <time>2021-08-03T14:14:14Z</time>
      </trkpt>
      <trkpt lat="42.3185" lon="-0.71816">
        <ele>636.5</ele>
        <time>2021-08-03T14:14:22Z</time>
      </trkpt>
      <trkpt lat="42.31836" lon="-0.71846">
        <ele>636.3</ele>
        <time>2021-08-03T14:14:26Z</time>
      </trkpt>
      <trkpt lat="42.31826" lon="-0.71914">
        <ele>636.23</ele>
        <time>2021-08-03T14:14:35Z</time>
      </trkpt>
      <trkpt lat="42.31814" lon="-0.72021">
        <ele>635.86</ele>
        <time>2021-08-03T14:14:46Z</time>
      </trkpt>
      <trkpt lat="42.31803" lon="-0.72099">
        <ele>636.76</ele>
        <time>2021-08-03T14:14:54Z</time>
      </trkpt>
      <trkpt lat="42.31795" lon="-0.72125">
        <ele>637.38</ele>
        <time>2021-08-03T14:14:57Z</time>
      </trkpt>
      <trkpt lat="42.31769" lon="-0.72266">
        <ele>637.23</ele>
        <time>2021-08-03T14:15:09Z</time>
      </trkpt>
      <trkpt lat="42.31768" lon="-0.72277">
        <ele>636.98</ele>
        <time>2021-08-03T14:15:10Z</time>
      </trkpt>
      <trkpt lat="42.31757" lon="-0.72345">
        <ele>636.55</ele>
        <time>2021-08-03T14:15:16Z</time>
      </trkpt>
      <trkpt lat="42.31764" lon="-0.72386">
        <ele>635.86</ele>
        <time>2021-08-03T14:15:20Z</time>
      </trkpt>
      <trkpt lat="42.31774" lon="-0.72425">
        <ele>634.87</ele>
        <time>2021-08-03T14:15:24Z</time>
      </trkpt>
      <trkpt lat="42.31764" lon="-0.72525">
        <ele>631.11</ele>
        <time>2021-08-03T14:15:34Z</time>
      </trkpt>
      <trkpt lat="42.31765" lon="-0.7257">
        <ele>628.88</ele>
        <time>2021-08-03T14:15:39Z</time>
      </trkpt>
      <trkpt lat="42.31771" lon="-0.72598">
        <ele>627.31</ele>
        <time>2021-08-03T14:15:43Z</time>
      </trkpt>
      <trkpt lat="42.31776" lon="-0.72608">
        <ele>626.55</ele>
        <time>2021-08-03T14:15:45Z</time>
      </trkpt>
      <trkpt lat="42.31783" lon="-0.72642">
        <ele>625.11</ele>
        <time>2021-08-03T14:15:50Z</time>
      </trkpt>
      <trkpt lat="42.31788" lon="-0.72669">
        <ele>624.21</ele>
        <time>2021-08-03T14:15:54Z</time>
      </trkpt>
      <trkpt lat="42.31796" lon="-0.72689">
        <ele>622.39</ele>
        <time>2021-08-03T14:16:02Z</time>
      </trkpt>
      <trkpt lat="42.31805" lon="-0.72705">
        <ele>621.35</ele>
        <time>2021-08-03T14:16:25Z</time>
      </trkpt>
      <trkpt lat="42.31806" lon="-0.72781">
        <ele>621.47</ele>
        <time>2021-08-03T14:16:32Z</time>
      </trkpt>
      <trkpt lat="42.31764" lon="-0.72833">
        <ele>621.15</ele>
        <time>2021-08-03T14:16:38Z</time>
      </trkpt>
      <trkpt lat="42.31752" lon="-0.72836">
        <ele>620.9</ele>
        <time>2021-08-03T14:16:39Z</time>
      </trkpt>
      <trkpt lat="42.31649" lon="-0.72857">
        <ele>617.59</ele>
        <time>2021-08-03T14:16:47Z</time>
      </trkpt>
      <trkpt lat="42.31613" lon="-0.72865">
        <ele>616.51</ele>
        <time>2021-08-03T14:16:50Z</time>
      </trkpt>
      <trkpt lat="42.31572" lon="-0.72924">
        <ele>614.3</ele>
        <time>2021-08-03T14:16:56Z</time>
      </trkpt>
      <trkpt lat="42.31551" lon="-0.73011">
        <ele>611.54</ele>
        <time>2021-08-03T14:17:02Z</time>
      </trkpt>
      <trkpt lat="42.31549" lon="-0.73094">
        <ele>608.47</ele>
        <time>2021-08-03T14:17:07Z</time>
      </trkpt>
      <trkpt lat="42.31561" lon="-0.7317">
        <ele>605.03</ele>
        <time>2021-08-03T14:17:12Z</time>
      </trkpt>
      <trkpt lat="42.31544" lon="-0.73237">
        <ele>602.05</ele>
        <time>2021-08-03T14:17:17Z</time>
      </trkpt>
      <trkpt lat="42.31519" lon="-0.73295">
        <ele>600.34</ele>
        <time>2021-08-03T14:17:21Z</time>
      </trkpt>
      <trkpt lat="42.31497" lon="-0.73436">
        <ele>597.55</ele>
        <time>2021-08-03T14:17:29Z</time>
      </trkpt>
      <trkpt lat="42.31504" lon="-0.7355">
        <ele>593.9</ele>
        <time>2021-08-03T14:17:36Z</time>
      </trkpt>
      <trkpt lat="42.31515" lon="-0.73655">
        <ele>590.78</ele>
        <time>2021-08-03T14:17:42Z</time>
      </trkpt>
      <trkpt lat="42.31523" lon="-0.73814">
        <ele>587.61</ele>
        <time>2021-08-03T14:17:50Z</time>
      </trkpt>
      <trkpt lat="42.31516" lon="-0.73961">
        <ele>584.61</ele>
        <time>2021-08-03T14:17:57Z</time>
      </trkpt>
      <trkpt lat="42.31508" lon="-0.74093">
        <ele>581.15</ele>
        <time>2021-08-03T14:18:03Z</time>
      </trkpt>
      <trkpt lat="42.31505" lon="-0.74136">
        <ele>578.71</ele>
        <time>2021-08-03T14:18:05Z</time>
      </trkpt>
      <trkpt lat="42.31524" lon="-0.74214">
        <ele>575.08</ele>
        <time>2021-08-03T14:18:09Z</time>
      </trkpt>
      <trkpt lat="42.31553" lon="-0.74288">
        <ele>571.44</ele>
        <time>2021-08-03T14:18:13Z</time>
      </trkpt>
      <trkpt lat="42.31583" lon="-0.74359">
        <ele>568.36</ele>
        <time>2021-08-03T14:18:17Z</time>
      </trkpt>
      <trkpt lat="42.31605" lon="-0.7441">
        <ele>566.47</ele>
        <time>2021-08-03T14:18:20Z</time>
      </trkpt>
      <trkpt lat="42.31614" lon="-0.74481">
        <ele>564.01</ele>
        <time>2021-08-03T14:18:24Z</time>
      </trkpt>
      <trkpt lat="42.31617" lon="-0.74591">
        <ele>560.28</ele>
        <time>2021-08-03T14:18:29Z</time>
      </trkpt>
      <trkpt lat="42.31615" lon="-0.7467">
        <ele>556.66</ele>
        <time>2021-08-03T14:18:33Z</time>
      </trkpt>
      <trkpt lat="42.31597" lon="-0.7473">
        <ele>552.5</ele>
        <time>2021-08-03T14:18:37Z</time>
      </trkpt>
      <trkpt lat="42.31565" lon="-0.74758">
        <ele>549.17</ele>
        <time>2021-08-03T14:18:40Z</time>
      </trkpt>
      <trkpt lat="42.31538" lon="-0.74771">
        <ele>547.19</ele>
        <time>2021-08-03T14:18:42Z</time>
      </trkpt>
      <trkpt lat="42.31509" lon="-0.74782">
        <ele>545.34</ele>
        <time>2021-08-03T14:18:44Z</time>
      </trkpt>
      <trkpt lat="42.31465" lon="-0.74848">
        <ele>541.26</ele>
        <time>2021-08-03T14:18:49Z</time>
      </trkpt>
      <trkpt lat="42.31463" lon="-0.74868">
        <ele>540.48</ele>
        <time>2021-08-03T14:18:50Z</time>
      </trkpt>
      <trkpt lat="42.31442" lon="-0.75023">
        <ele>536.69</ele>
        <time>2021-08-03T14:18:57Z</time>
      </trkpt>
      <trkpt lat="42.3142" lon="-0.7519">
        <ele>533.62</ele>
        <time>2021-08-03T14:19:06Z</time>
      </trkpt>
      <trkpt lat="42.31414" lon="-0.75238">
        <ele>531.05</ele>
        <time>2021-08-03T14:19:13Z</time>
      </trkpt>
      <trkpt lat="42.31416" lon="-0.75256">
        <ele>529.63</ele>
        <time>2021-08-03T14:19:22Z</time>
      </trkpt>
      <trkpt lat="42.3142" lon="-0.75262">
        <ele>529.38</ele>
        <time>2021-08-03T14:19:25Z</time>
      </trkpt>
      <trkpt lat="42.31451" lon="-0.75274">
        <ele>529.04</ele>
        <time>2021-08-03T14:19:30Z</time>
      </trkpt>
      <trkpt lat="42.31493" lon="-0.75307">
        <ele>528.9</ele>
        <time>2021-08-03T14:19:34Z</time>
      </trkpt>
      <trkpt lat="42.31568" lon="-0.75348">
        <ele>527.4</ele>
        <time>2021-08-03T14:19:40Z</time>
      </trkpt>
      <trkpt lat="42.31579" lon="-0.75359">
        <ele>526.98</ele>
        <time>2021-08-03T14:19:41Z</time>
      </trkpt>
      <trkpt lat="42.316" lon="-0.7538">
        <ele>525.93</ele>
        <time>2021-08-03T14:19:43Z</time>
      </trkpt>
      <trkpt lat="42.31673" lon="-0.75423">
        <ele>521.87</ele>
        <time>2021-08-03T14:19:49Z</time>
      </trkpt>
      <trkpt lat="42.31698" lon="-0.75468">
        <ele>520.25</ele>
        <time>2021-08-03T14:19:52Z</time>
      </trkpt>
      <trkpt lat="42.31728" lon="-0.75528">
        <ele>517.76</ele>
        <time>2021-08-03T14:19:56Z</time>
      </trkpt>
      <trkpt lat="42.31806" lon="-0.75562">
        <ele>513.38</ele>
        <time>2021-08-03T14:20:02Z</time>
      </trkpt>
      <trkpt lat="42.31916" lon="-0.75553">
        <ele>509.53</ele>
        <time>2021-08-03T14:20:10Z</time>
      </trkpt>
      <trkpt lat="42.31967" lon="-0.75546">
        <ele>508.57</ele>
        <time>2021-08-03T14:20:14Z</time>
      </trkpt>
      <trkpt lat="42.32021" lon="-0.7549">
        <ele>507.3</ele>
        <time>2021-08-03T14:20:21Z</time>
      </trkpt>
      <trkpt lat="42.32023" lon="-0.75481">
        <ele>507.18</ele>
        <time>2021-08-03T14:20:22Z</time>
      </trkpt>
      <trkpt lat="42.32031" lon="-0.75456">
        <ele>506.24</ele>
        <time>2021-08-03T14:20:30Z</time>
      </trkpt>
      <trkpt lat="42.32023" lon="-0.75454">
        <ele>505.71</ele>
        <time>2021-08-03T14:20:57Z</time>
      </trkpt>
      <trkpt lat="42.32021" lon="-0.75456">
        <ele>505.86</ele>
        <time>2021-08-03T14:21:31Z</time>
      </trkpt>
      <trkpt lat="42.32019" lon="-0.75455">
        <ele>505.09</ele>
        <time>2021-08-03T14:22:02Z</time>
      </trkpt>
      <trkpt lat="42.32019" lon="-0.75458">
        <ele>505.18</ele>
        <time>2021-08-03T14:22:09Z</time>
      </trkpt>
      <trkpt lat="42.32022" lon="-0.75456">
        <ele>504.98</ele>
        <time>2021-08-03T14:22:44Z</time>
      </trkpt>
      <trkpt lat="42.32026" lon="-0.75461">
        <ele>505.21</ele>
        <time>2021-08-03T14:22:59Z</time>
      </trkpt>
      <trkpt lat="42.32022" lon="-0.75461">
        <ele>505.86</ele>
        <time>2021-08-03T14:23:20Z</time>
      </trkpt>
      <trkpt lat="42.32022" lon="-0.75461">
        <ele>505.31</ele>
        <time>2021-08-03T14:24:04Z</time>
      </trkpt>
      <trkpt lat="42.3202" lon="-0.7546">
        <ele>506.38</ele>
        <time>2021-08-03T14:24:30Z</time>
      </trkpt>
      <trkpt lat="42.32019" lon="-0.7546">
        <ele>505.44</ele>
        <time>2021-08-03T14:25:17Z</time>
      </trkpt>
      <trkpt lat="42.3202" lon="-0.7546">
        <ele>506.66</ele>
        <time>2021-08-03T14:26:00Z</time>
      </trkpt>
      <trkpt lat="42.32019" lon="-0.7546">
        <ele>505.72</ele>
        <time>2021-08-03T14:26:47Z</time>
      </trkpt>
      <trkpt lat="42.3202" lon="-0.7546">
        <ele>506.3</ele>
        <time>2021-08-03T14:27:42Z</time>
      </trkpt>
      <trkpt lat="42.3202" lon="-0.7546">
        <ele>505.86</ele>
        <time>2021-08-03T14:28:49Z</time>
      </trkpt>
      <trkpt lat="42.32026" lon="-0.75459">
        <ele>504.42</ele>
        <time>2021-08-03T14:29:05Z</time>
      </trkpt>
      <trkpt lat="42.32027" lon="-0.75458">
        <ele>504.6</ele>
        <time>2021-08-03T14:29:49Z</time>
      </trkpt>
      <trkpt lat="42.32027" lon="-0.75458">
        <ele>504.65</ele>
        <time>2021-08-03T14:30:21Z</time>
      </trkpt>
      <trkpt lat="42.32052" lon="-0.75422">
        <ele>504.81</ele>
        <time>2021-08-03T14:30:27Z</time>
      </trkpt>
      <trkpt lat="42.32093" lon="-0.75342">
        <ele>505.49</ele>
        <time>2021-08-03T14:30:33Z</time>
      </trkpt>
      <trkpt lat="42.3215" lon="-0.75316">
        <ele>506.54</ele>
        <time>2021-08-03T14:30:39Z</time>
      </trkpt>
      <trkpt lat="42.32178" lon="-0.7532">
        <ele>507.49</ele>
        <time>2021-08-03T14:30:42Z</time>
      </trkpt>
      <trkpt lat="42.32214" lon="-0.75338">
        <ele>509.22</ele>
        <time>2021-08-03T14:30:46Z</time>
      </trkpt>
      <trkpt lat="42.32233" lon="-0.75407">
        <ele>512.27</ele>
        <time>2021-08-03T14:30:52Z</time>
      </trkpt>
      <trkpt lat="42.32264" lon="-0.75488">
        <ele>515.69</ele>
        <time>2021-08-03T14:30:59Z</time>
      </trkpt>
      <trkpt lat="42.32296" lon="-0.75545">
        <ele>518.64</ele>
        <time>2021-08-03T14:31:04Z</time>
      </trkpt>
      <trkpt lat="42.32303" lon="-0.75574">
        <ele>519.94</ele>
        <time>2021-08-03T14:31:06Z</time>
      </trkpt>
      <trkpt lat="42.32346" lon="-0.7563">
        <ele>522.88</ele>
        <time>2021-08-03T14:31:11Z</time>
      </trkpt>
      <trkpt lat="42.32404" lon="-0.75674">
        <ele>526.31</ele>
        <time>2021-08-03T14:31:17Z</time>
      </trkpt>
      <trkpt lat="42.32463" lon="-0.75669">
        <ele>528.75</ele>
        <time>2021-08-03T14:31:23Z</time>
      </trkpt>
      <trkpt lat="42.32508" lon="-0.7564">
        <ele>530.61</ele>
        <time>2021-08-03T14:31:28Z</time>
      </trkpt>
      <trkpt lat="42.32558" lon="-0.75654">
        <ele>532.24</ele>
        <time>2021-08-03T14:31:34Z</time>
      </trkpt>
      <trkpt lat="42.32579" lon="-0.75674">
        <ele>533.12</ele>
        <time>2021-08-03T14:31:37Z</time>
      </trkpt>
      <trkpt lat="42.32584" lon="-0.7571">
        <ele>534.45</ele>
        <time>2021-08-03T14:31:41Z</time>
      </trkpt>
      <trkpt lat="42.32599" lon="-0.75792">
        <ele>536.64</ele>
        <time>2021-08-03T14:31:47Z</time>
      </trkpt>
      <trkpt lat="42.3269" lon="-0.75911">
        <ele>540.51</ele>
        <time>2021-08-03T14:31:56Z</time>
      </trkpt>
      <trkpt lat="42.32699" lon="-0.75925">
        <ele>541.02</ele>
        <time>2021-08-03T14:31:57Z</time>
      </trkpt>
      <trkpt lat="42.32731" lon="-0.76021">
        <ele>543.75</ele>
        <time>2021-08-03T14:32:03Z</time>
      </trkpt>
      <trkpt lat="42.32741" lon="-0.76035">
        <ele>544.15</ele>
        <time>2021-08-03T14:32:04Z</time>
      </trkpt>
      <trkpt lat="42.32814" lon="-0.76122">
        <ele>548</ele>
        <time>2021-08-03T14:32:11Z</time>
      </trkpt>
      <trkpt lat="42.32875" lon="-0.76191">
        <ele>551.03</ele>
        <time>2021-08-03T14:32:17Z</time>
      </trkpt>
      <trkpt lat="42.32914" lon="-0.76231">
        <ele>553.02</ele>
        <time>2021-08-03T14:32:21Z</time>
      </trkpt>
      <trkpt lat="42.32939" lon="-0.76301">
        <ele>555.19</ele>
        <time>2021-08-03T14:32:26Z</time>
      </trkpt>
      <trkpt lat="42.32951" lon="-0.76354">
        <ele>556.37</ele>
        <time>2021-08-03T14:32:29Z</time>
      </trkpt>
      <trkpt lat="42.33007" lon="-0.76459">
        <ele>559.04</ele>
        <time>2021-08-03T14:32:36Z</time>
      </trkpt>
      <trkpt lat="42.33074" lon="-0.76532">
        <ele>562.54</ele>
        <time>2021-08-03T14:32:43Z</time>
      </trkpt>
      <trkpt lat="42.33109" lon="-0.76602">
        <ele>566.74</ele>
        <time>2021-08-03T14:32:49Z</time>
      </trkpt>
      <trkpt lat="42.33133" lon="-0.76653">
        <ele>568.93</ele>
        <time>2021-08-03T14:32:53Z</time>
      </trkpt>
      <trkpt lat="42.33184" lon="-0.76703">
        <ele>571.62</ele>
        <time>2021-08-03T14:32:58Z</time>
      </trkpt>
      <trkpt lat="42.33211" lon="-0.76719">
        <ele>572.81</ele>
        <time>2021-08-03T14:33:00Z</time>
      </trkpt>
      <trkpt lat="42.33256" lon="-0.7677">
        <ele>575.25</ele>
        <time>2021-08-03T14:33:04Z</time>
      </trkpt>
      <trkpt lat="42.33322" lon="-0.76827">
        <ele>580.1</ele>
        <time>2021-08-03T14:33:09Z</time>
      </trkpt>
      <trkpt lat="42.33351" lon="-0.76868">
        <ele>582.59</ele>
        <time>2021-08-03T14:33:12Z</time>
      </trkpt>
      <trkpt lat="42.33393" lon="-0.76916">
        <ele>585.06</ele>
        <time>2021-08-03T14:33:16Z</time>
      </trkpt>
      <trkpt lat="42.33436" lon="-0.77013">
        <ele>588.31</ele>
        <time>2021-08-03T14:33:22Z</time>
      </trkpt>
      <trkpt lat="42.33469" lon="-0.7706">
        <ele>589.53</ele>
        <time>2021-08-03T14:33:25Z</time>
      </trkpt>
      <trkpt lat="42.33528" lon="-0.77126">
        <ele>592.17</ele>
        <time>2021-08-03T14:33:30Z</time>
      </trkpt>
      <trkpt lat="42.33594" lon="-0.77172">
        <ele>595.1</ele>
        <time>2021-08-03T14:33:35Z</time>
      </trkpt>
      <trkpt lat="42.33629" lon="-0.77227">
        <ele>597.9</ele>
        <time>2021-08-03T14:33:39Z</time>
      </trkpt>
      <trkpt lat="42.3366" lon="-0.77264">
        <ele>599.79</ele>
        <time>2021-08-03T14:33:42Z</time>
      </trkpt>
      <trkpt lat="42.33718" lon="-0.77377">
        <ele>603.44</ele>
        <time>2021-08-03T14:33:49Z</time>
      </trkpt>
      <trkpt lat="42.33745" lon="-0.7743">
        <ele>605.21</ele>
        <time>2021-08-03T14:33:52Z</time>
      </trkpt>
      <trkpt lat="42.33823" lon="-0.77527">
        <ele>608.67</ele>
        <time>2021-08-03T14:33:59Z</time>
      </trkpt>
      <trkpt lat="42.33876" lon="-0.77566">
        <ele>611.19</ele>
        <time>2021-08-03T14:34:04Z</time>
      </trkpt>
      <trkpt lat="42.33891" lon="-0.77612">
        <ele>613.63</ele>
        <time>2021-08-03T14:34:08Z</time>
      </trkpt>
      <trkpt lat="42.33894" lon="-0.7772">
        <ele>617.74</ele>
        <time>2021-08-03T14:34:15Z</time>
      </trkpt>
      <trkpt lat="42.33913" lon="-0.7781">
        <ele>621.52</ele>
        <time>2021-08-03T14:34:20Z</time>
      </trkpt>
      <trkpt lat="42.33918" lon="-0.77827">
        <ele>622.33</ele>
        <time>2021-08-03T14:34:21Z</time>
      </trkpt>
      <trkpt lat="42.33969" lon="-0.77927">
        <ele>626.55</ele>
        <time>2021-08-03T14:34:27Z</time>
      </trkpt>
      <trkpt lat="42.34012" lon="-0.78022">
        <ele>630.28</ele>
        <time>2021-08-03T14:34:32Z</time>
      </trkpt>
      <trkpt lat="42.34061" lon="-0.78091">
        <ele>633.74</ele>
        <time>2021-08-03T14:34:36Z</time>
      </trkpt>
      <trkpt lat="42.34119" lon="-0.78118">
        <ele>636.93</ele>
        <time>2021-08-03T14:34:40Z</time>
      </trkpt>
      <trkpt lat="42.34144" lon="-0.78116">
        <ele>638.48</ele>
        <time>2021-08-03T14:34:42Z</time>
      </trkpt>
      <trkpt lat="42.34175" lon="-0.78143">
        <ele>642.71</ele>
        <time>2021-08-03T14:34:47Z</time>
      </trkpt>
      <trkpt lat="42.34156" lon="-0.78177">
        <ele>644.99</ele>
        <time>2021-08-03T14:34:51Z</time>
      </trkpt>
      <trkpt lat="42.34135" lon="-0.78233">
        <ele>647.37</ele>
        <time>2021-08-03T14:34:57Z</time>
      </trkpt>
      <trkpt lat="42.34139" lon="-0.78243">
        <ele>647.79</ele>
        <time>2021-08-03T14:34:58Z</time>
      </trkpt>
      <trkpt lat="42.34192" lon="-0.78345">
        <ele>651.75</ele>
        <time>2021-08-03T14:35:05Z</time>
      </trkpt>
      <trkpt lat="42.34241" lon="-0.78435">
        <ele>655.26</ele>
        <time>2021-08-03T14:35:10Z</time>
      </trkpt>
      <trkpt lat="42.34293" lon="-0.78492">
        <ele>658.84</ele>
        <time>2021-08-03T14:35:14Z</time>
      </trkpt>
      <trkpt lat="42.34344" lon="-0.78542">
        <ele>662.4</ele>
        <time>2021-08-03T14:35:18Z</time>
      </trkpt>
      <trkpt lat="42.3441" lon="-0.78587">
        <ele>665.91</ele>
        <time>2021-08-03T14:35:23Z</time>
      </trkpt>
      <trkpt lat="42.34491" lon="-0.78632">
        <ele>668.99</ele>
        <time>2021-08-03T14:35:29Z</time>
      </trkpt>
      <trkpt lat="42.34529" lon="-0.78654">
        <ele>670.28</ele>
        <time>2021-08-03T14:35:32Z</time>
      </trkpt>
      <trkpt lat="42.34574" lon="-0.78724">
        <ele>671.61</ele>
        <time>2021-08-03T14:35:37Z</time>
      </trkpt>
      <trkpt lat="42.34671" lon="-0.78882">
        <ele>673.1</ele>
        <time>2021-08-03T14:35:47Z</time>
      </trkpt>
      <trkpt lat="42.34704" lon="-0.78973">
        <ele>673.03</ele>
        <time>2021-08-03T14:35:52Z</time>
      </trkpt>
      <trkpt lat="42.34746" lon="-0.79026">
        <ele>672.79</ele>
        <time>2021-08-03T14:35:56Z</time>
      </trkpt>
      <trkpt lat="42.34822" lon="-0.79086">
        <ele>672.94</ele>
        <time>2021-08-03T14:36:02Z</time>
      </trkpt>
      <trkpt lat="42.34839" lon="-0.79143">
        <ele>674.24</ele>
        <time>2021-08-03T14:36:06Z</time>
      </trkpt>
      <trkpt lat="42.34858" lon="-0.79203">
        <ele>676.24</ele>
        <time>2021-08-03T14:36:10Z</time>
      </trkpt>
      <trkpt lat="42.34867" lon="-0.79297">
        <ele>679.03</ele>
        <time>2021-08-03T14:36:15Z</time>
      </trkpt>
      <trkpt lat="42.34898" lon="-0.79368">
        <ele>681.61</ele>
        <time>2021-08-03T14:36:20Z</time>
      </trkpt>
      <trkpt lat="42.34923" lon="-0.79375">
        <ele>682.7</ele>
        <time>2021-08-03T14:36:22Z</time>
      </trkpt>
      <trkpt lat="42.34959" lon="-0.79354">
        <ele>685.26</ele>
        <time>2021-08-03T14:36:25Z</time>
      </trkpt>
      <trkpt lat="42.34982" lon="-0.79332">
        <ele>686.45</ele>
        <time>2021-08-03T14:36:28Z</time>
      </trkpt>
      <trkpt lat="42.34998" lon="-0.79322">
        <ele>686.82</ele>
        <time>2021-08-03T14:36:31Z</time>
      </trkpt>
      <trkpt lat="42.35007" lon="-0.79316">
        <ele>686.65</ele>
        <time>2021-08-03T14:36:39Z</time>
      </trkpt>
      <trkpt lat="42.35017" lon="-0.79302">
        <ele>686.99</ele>
        <time>2021-08-03T14:37:41Z</time>
      </trkpt>
      <trkpt lat="42.35054" lon="-0.79278">
        <ele>687.21</ele>
        <time>2021-08-03T14:37:46Z</time>
      </trkpt>
      <trkpt lat="42.35073" lon="-0.79271">
        <ele>687.51</ele>
        <time>2021-08-03T14:37:48Z</time>
      </trkpt>
      <trkpt lat="42.3509" lon="-0.79233">
        <ele>687.86</ele>
        <time>2021-08-03T14:37:52Z</time>
      </trkpt>
      <trkpt lat="42.35111" lon="-0.79172">
        <ele>688.19</ele>
        <time>2021-08-03T14:37:59Z</time>
      </trkpt>
      <trkpt lat="42.3514" lon="-0.79189">
        <ele>688.34</ele>
        <time>2021-08-03T14:38:02Z</time>
      </trkpt>
      <trkpt lat="42.35181" lon="-0.79224">
        <ele>689.03</ele>
        <time>2021-08-03T14:38:07Z</time>
      </trkpt>
      <trkpt lat="42.35217" lon="-0.79229">
        <ele>689.8</ele>
        <time>2021-08-03T14:38:11Z</time>
      </trkpt>
      <trkpt lat="42.35237" lon="-0.79223">
        <ele>690.26</ele>
        <time>2021-08-03T14:38:13Z</time>
      </trkpt>
      <trkpt lat="42.35284" lon="-0.79221">
        <ele>691.35</ele>
        <time>2021-08-03T14:38:18Z</time>
      </trkpt>
      <trkpt lat="42.3532" lon="-0.79263">
        <ele>692.12</ele>
        <time>2021-08-03T14:38:24Z</time>
      </trkpt>
      <trkpt lat="42.35323" lon="-0.79289">
        <ele>692.43</ele>
        <time>2021-08-03T14:38:27Z</time>
      </trkpt>
      <trkpt lat="42.35305" lon="-0.79323">
        <ele>693.2</ele>
        <time>2021-08-03T14:38:33Z</time>
      </trkpt>
      <trkpt lat="42.35289" lon="-0.79332">
        <ele>693.96</ele>
        <time>2021-08-03T14:38:36Z</time>
      </trkpt>
      <trkpt lat="42.35279" lon="-0.79349">
        <ele>694.81</ele>
        <time>2021-08-03T14:38:40Z</time>
      </trkpt>
      <trkpt lat="42.35298" lon="-0.79428">
        <ele>697.45</ele>
        <time>2021-08-03T14:38:49Z</time>
      </trkpt>
      <trkpt lat="42.35325" lon="-0.7952">
        <ele>700.61</ele>
        <time>2021-08-03T14:38:56Z</time>
      </trkpt>
      <trkpt lat="42.35366" lon="-0.79557">
        <ele>703.45</ele>
        <time>2021-08-03T14:39:02Z</time>
      </trkpt>
      <trkpt lat="42.35454" lon="-0.7957">
        <ele>705.72</ele>
        <time>2021-08-03T14:39:13Z</time>
      </trkpt>
      <trkpt lat="42.35469" lon="-0.79573">
        <ele>705.36</ele>
        <time>2021-08-03T14:39:15Z</time>
      </trkpt>
      <trkpt lat="42.355" lon="-0.79602">
        <ele>703.53</ele>
        <time>2021-08-03T14:39:21Z</time>
      </trkpt>
      <trkpt lat="42.35527" lon="-0.79653">
        <ele>701.12</ele>
        <time>2021-08-03T14:39:28Z</time>
      </trkpt>
      <trkpt lat="42.35549" lon="-0.79672">
        <ele>698.34</ele>
        <time>2021-08-03T14:39:38Z</time>
      </trkpt>
      <trkpt lat="42.3557" lon="-0.79671">
        <ele>698.02</ele>
        <time>2021-08-03T14:39:42Z</time>
      </trkpt>
      <trkpt lat="42.35583" lon="-0.79667">
        <ele>697.86</ele>
        <time>2021-08-03T14:39:44Z</time>
      </trkpt>
      <trkpt lat="42.35614" lon="-0.79674">
        <ele>697.66</ele>
        <time>2021-08-03T14:39:49Z</time>
      </trkpt>
      <trkpt lat="42.35613" lon="-0.79709">
        <ele>696.95</ele>
        <time>2021-08-03T14:39:55Z</time>
      </trkpt>
      <trkpt lat="42.35592" lon="-0.79758">
        <ele>696.02</ele>
        <time>2021-08-03T14:40:00Z</time>
      </trkpt>
      <trkpt lat="42.3558" lon="-0.79819">
        <ele>694.72</ele>
        <time>2021-08-03T14:40:05Z</time>
      </trkpt>
      <trkpt lat="42.35606" lon="-0.79879">
        <ele>692.32</ele>
        <time>2021-08-03T14:40:12Z</time>
      </trkpt>
      <trkpt lat="42.35611" lon="-0.79887">
        <ele>691.97</ele>
        <time>2021-08-03T14:40:13Z</time>
      </trkpt>
      <trkpt lat="42.3562" lon="-0.79902">
        <ele>691.07</ele>
        <time>2021-08-03T14:40:15Z</time>
      </trkpt>
      <trkpt lat="42.35654" lon="-0.79928">
        <ele>687.85</ele>
        <time>2021-08-03T14:40:21Z</time>
      </trkpt>
      <trkpt lat="42.35666" lon="-0.79933">
        <ele>686.74</ele>
        <time>2021-08-03T14:40:23Z</time>
      </trkpt>
      <trkpt lat="42.35687" lon="-0.79953">
        <ele>683.1</ele>
        <time>2021-08-03T14:40:29Z</time>
      </trkpt>
      <trkpt lat="42.3569" lon="-0.79953">
        <ele>681.95</ele>
        <time>2021-08-03T14:40:31Z</time>
      </trkpt>
      <trkpt lat="42.35694" lon="-0.79953">
        <ele>678.32</ele>
        <time>2021-08-03T14:40:45Z</time>
      </trkpt>
      <trkpt lat="42.35697" lon="-0.79949">
        <ele>677.69</ele>
        <time>2021-08-03T14:40:55Z</time>
      </trkpt>
      <trkpt lat="42.35708" lon="-0.79936">
        <ele>677.59</ele>
        <time>2021-08-03T14:40:59Z</time>
      </trkpt>
      <trkpt lat="42.35732" lon="-0.79912">
        <ele>677.01</ele>
        <time>2021-08-03T14:41:03Z</time>
      </trkpt>
      <trkpt lat="42.35763" lon="-0.79894">
        <ele>676.08</ele>
        <time>2021-08-03T14:41:07Z</time>
      </trkpt>
      <trkpt lat="42.35822" lon="-0.79899">
        <ele>674.85</ele>
        <time>2021-08-03T14:41:14Z</time>
      </trkpt>
      <trkpt lat="42.35852" lon="-0.79918">
        <ele>674.8</ele>
        <time>2021-08-03T14:41:19Z</time>
      </trkpt>
      <trkpt lat="42.35887" lon="-0.7993">
        <ele>674.56</ele>
        <time>2021-08-03T14:41:24Z</time>
      </trkpt>
      <trkpt lat="42.35943" lon="-0.79961">
        <ele>671.98</ele>
        <time>2021-08-03T14:41:34Z</time>
      </trkpt>
      <trkpt lat="42.35938" lon="-0.79994">
        <ele>669.47</ele>
        <time>2021-08-03T14:41:41Z</time>
      </trkpt>
      <trkpt lat="42.35919" lon="-0.8">
        <ele>669.22</ele>
        <time>2021-08-03T14:41:44Z</time>
      </trkpt>
      <trkpt lat="42.35879" lon="-0.80004">
        <ele>671.53</ele>
        <time>2021-08-03T14:41:53Z</time>
      </trkpt>
      <trkpt lat="42.35852" lon="-0.79991">
        <ele>673.45</ele>
        <time>2021-08-03T14:41:58Z</time>
      </trkpt>
      <trkpt lat="42.35825" lon="-0.80004">
        <ele>675.79</ele>
        <time>2021-08-03T14:42:03Z</time>
      </trkpt>
      <trkpt lat="42.35787" lon="-0.80072">
        <ele>679.24</ele>
        <time>2021-08-03T14:42:10Z</time>
      </trkpt>
      <trkpt lat="42.35759" lon="-0.80099">
        <ele>681.09</ele>
        <time>2021-08-03T14:42:14Z</time>
      </trkpt>
      <trkpt lat="42.35713" lon="-0.8012">
        <ele>685.12</ele>
        <time>2021-08-03T14:42:21Z</time>
      </trkpt>
      <trkpt lat="42.35702" lon="-0.80128">
        <ele>688.53</ele>
        <time>2021-08-03T14:42:27Z</time>
      </trkpt>
      <trkpt lat="42.35696" lon="-0.80129">
        <ele>690.16</ele>
        <time>2021-08-03T14:42:33Z</time>
      </trkpt>
      <trkpt lat="42.35666" lon="-0.80123">
        <ele>691.18</ele>
        <time>2021-08-03T14:42:38Z</time>
      </trkpt>
      <trkpt lat="42.35629" lon="-0.80132">
        <ele>691.59</ele>
        <time>2021-08-03T14:42:43Z</time>
      </trkpt>
      <trkpt lat="42.35617" lon="-0.80134">
        <ele>691.66</ele>
        <time>2021-08-03T14:42:45Z</time>
      </trkpt>
      <trkpt lat="42.35605" lon="-0.80153">
        <ele>691.81</ele>
        <time>2021-08-03T14:42:49Z</time>
      </trkpt>
      <trkpt lat="42.35605" lon="-0.80186">
        <ele>691.59</ele>
        <time>2021-08-03T14:42:52Z</time>
      </trkpt>
      <trkpt lat="42.35626" lon="-0.80255">
        <ele>690.95</ele>
        <time>2021-08-03T14:43:00Z</time>
      </trkpt>
      <trkpt lat="42.3564" lon="-0.80259">
        <ele>690.74</ele>
        <time>2021-08-03T14:43:02Z</time>
      </trkpt>
      <trkpt lat="42.35672" lon="-0.80274">
        <ele>690.34</ele>
        <time>2021-08-03T14:43:06Z</time>
      </trkpt>
      <trkpt lat="42.35677" lon="-0.80303">
        <ele>689.87</ele>
        <time>2021-08-03T14:43:12Z</time>
      </trkpt>
      <trkpt lat="42.35671" lon="-0.80306">
        <ele>689.86</ele>
        <time>2021-08-03T14:43:13Z</time>
      </trkpt>
      <trkpt lat="42.35636" lon="-0.80325">
        <ele>690.67</ele>
        <time>2021-08-03T14:43:19Z</time>
      </trkpt>
      <trkpt lat="42.3559" lon="-0.80359">
        <ele>694.29</ele>
        <time>2021-08-03T14:43:26Z</time>
      </trkpt>
      <trkpt lat="42.35564" lon="-0.80371">
        <ele>696.43</ele>
        <time>2021-08-03T14:43:30Z</time>
      </trkpt>
      <trkpt lat="42.35553" lon="-0.80397">
        <ele>699.82</ele>
        <time>2021-08-03T14:43:36Z</time>
      </trkpt>
      <trkpt lat="42.35575" lon="-0.80458">
        <ele>703.18</ele>
        <time>2021-08-03T14:43:46Z</time>
      </trkpt>
      <trkpt lat="42.3559" lon="-0.80501">
        <ele>704.07</ele>
        <time>2021-08-03T14:43:50Z</time>
      </trkpt>
      <trkpt lat="42.35603" lon="-0.80522">
        <ele>704.37</ele>
        <time>2021-08-03T14:43:53Z</time>
      </trkpt>
      <trkpt lat="42.35617" lon="-0.80586">
        <ele>705.53</ele>
        <time>2021-08-03T14:43:59Z</time>
      </trkpt>
      <trkpt lat="42.35635" lon="-0.8072">
        <ele>707.25</ele>
        <time>2021-08-03T14:44:10Z</time>
      </trkpt>
      <trkpt lat="42.35637" lon="-0.80732">
        <ele>707.51</ele>
        <time>2021-08-03T14:44:11Z</time>
      </trkpt>
      <trkpt lat="42.35647" lon="-0.80762">
        <ele>708.19</ele>
        <time>2021-08-03T14:44:14Z</time>
      </trkpt>
      <trkpt lat="42.35654" lon="-0.80853">
        <ele>708.64</ele>
        <time>2021-08-03T14:44:23Z</time>
      </trkpt>
      <trkpt lat="42.35654" lon="-0.80864">
        <ele>708.63</ele>
        <time>2021-08-03T14:44:25Z</time>
      </trkpt>
      <trkpt lat="42.35646" lon="-0.80933">
        <ele>708.35</ele>
        <time>2021-08-03T14:44:32Z</time>
      </trkpt>
      <trkpt lat="42.3565" lon="-0.81027">
        <ele>707.7</ele>
        <time>2021-08-03T14:44:39Z</time>
      </trkpt>
      <trkpt lat="42.35659" lon="-0.81077">
        <ele>707.22</ele>
        <time>2021-08-03T14:44:43Z</time>
      </trkpt>
      <trkpt lat="42.35663" lon="-0.81172">
        <ele>707.43</ele>
        <time>2021-08-03T14:44:52Z</time>
      </trkpt>
      <trkpt lat="42.35662" lon="-0.81184">
        <ele>707.63</ele>
        <time>2021-08-03T14:44:59Z</time>
      </trkpt>
      <trkpt lat="42.35674" lon="-0.81229">
        <ele>707.81</ele>
        <time>2021-08-03T14:45:06Z</time>
      </trkpt>
      <trkpt lat="42.35684" lon="-0.81288">
        <ele>707.12</ele>
        <time>2021-08-03T14:45:13Z</time>
      </trkpt>
      <trkpt lat="42.35677" lon="-0.81314">
        <ele>706.79</ele>
        <time>2021-08-03T14:45:17Z</time>
      </trkpt>
      <trkpt lat="42.35666" lon="-0.81357">
        <ele>705.81</ele>
        <time>2021-08-03T14:45:23Z</time>
      </trkpt>
      <trkpt lat="42.35659" lon="-0.81395">
        <ele>703.54</ele>
        <time>2021-08-03T14:45:29Z</time>
      </trkpt>
      <trkpt lat="42.35672" lon="-0.81455">
        <ele>701.17</ele>
        <time>2021-08-03T14:45:36Z</time>
      </trkpt>
      <trkpt lat="42.35687" lon="-0.8148">
        <ele>699.98</ele>
        <time>2021-08-03T14:45:40Z</time>
      </trkpt>
      <trkpt lat="42.35696" lon="-0.81516">
        <ele>698.2</ele>
        <time>2021-08-03T14:45:46Z</time>
      </trkpt>
      <trkpt lat="42.35694" lon="-0.81548">
        <ele>697.49</ele>
        <time>2021-08-03T14:45:49Z</time>
      </trkpt>
      <trkpt lat="42.35705" lon="-0.81618">
        <ele>696.63</ele>
        <time>2021-08-03T14:45:56Z</time>
      </trkpt>
      <trkpt lat="42.35713" lon="-0.81689">
        <ele>696.06</ele>
        <time>2021-08-03T14:46:03Z</time>
      </trkpt>
      <trkpt lat="42.35711" lon="-0.81713">
        <ele>695.5</ele>
        <time>2021-08-03T14:46:07Z</time>
      </trkpt>
      <trkpt lat="42.35712" lon="-0.81747">
        <ele>694.31</ele>
        <time>2021-08-03T14:46:11Z</time>
      </trkpt>
      <trkpt lat="42.35718" lon="-0.81772">
        <ele>693.39</ele>
        <time>2021-08-03T14:46:15Z</time>
      </trkpt>
      <trkpt lat="42.35729" lon="-0.81827">
        <ele>691.36</ele>
        <time>2021-08-03T14:46:23Z</time>
      </trkpt>
      <trkpt lat="42.35716" lon="-0.81839">
        <ele>689.51</ele>
        <time>2021-08-03T14:46:29Z</time>
      </trkpt>
      <trkpt lat="42.35712" lon="-0.81833">
        <ele>689.23</ele>
        <time>2021-08-03T14:46:30Z</time>
      </trkpt>
      <trkpt lat="42.35684" lon="-0.81799">
        <ele>687.89</ele>
        <time>2021-08-03T14:46:35Z</time>
      </trkpt>
      <trkpt lat="42.35642" lon="-0.81794">
        <ele>684.23</ele>
        <time>2021-08-03T14:46:42Z</time>
      </trkpt>
      <trkpt lat="42.35637" lon="-0.81837">
        <ele>681.28</ele>
        <time>2021-08-03T14:46:47Z</time>
      </trkpt>
      <trkpt lat="42.35648" lon="-0.81864">
        <ele>678.77</ele>
        <time>2021-08-03T14:46:52Z</time>
      </trkpt>
      <trkpt lat="42.35655" lon="-0.81874">
        <ele>678.35</ele>
        <time>2021-08-03T14:46:54Z</time>
      </trkpt>
      <trkpt lat="42.35687" lon="-0.81922">
        <ele>676.59</ele>
        <time>2021-08-03T14:47:02Z</time>
      </trkpt>
      <trkpt lat="42.35697" lon="-0.81947">
        <ele>676.14</ele>
        <time>2021-08-03T14:47:04Z</time>
      </trkpt>
      <trkpt lat="42.35706" lon="-0.81972">
        <ele>675.68</ele>
        <time>2021-08-03T14:47:06Z</time>
      </trkpt>
      <trkpt lat="42.35738" lon="-0.82013">
        <ele>674.19</ele>
        <time>2021-08-03T14:47:11Z</time>
      </trkpt>
      <trkpt lat="42.3576" lon="-0.82032">
        <ele>673.24</ele>
        <time>2021-08-03T14:47:14Z</time>
      </trkpt>
      <trkpt lat="42.35772" lon="-0.82044">
        <ele>671.64</ele>
        <time>2021-08-03T14:47:18Z</time>
      </trkpt>
      <trkpt lat="42.35772" lon="-0.82065">
        <ele>668.38</ele>
        <time>2021-08-03T14:47:30Z</time>
      </trkpt>
      <trkpt lat="42.35764" lon="-0.82073">
        <ele>668.04</ele>
        <time>2021-08-03T14:47:32Z</time>
      </trkpt>
      <trkpt lat="42.35761" lon="-0.82114">
        <ele>666.72</ele>
        <time>2021-08-03T14:47:40Z</time>
      </trkpt>
      <trkpt lat="42.35776" lon="-0.82122">
        <ele>666.09</ele>
        <time>2021-08-03T14:47:44Z</time>
      </trkpt>
      <trkpt lat="42.35789" lon="-0.82123">
        <ele>665.59</ele>
        <time>2021-08-03T14:47:46Z</time>
      </trkpt>
      <trkpt lat="42.35825" lon="-0.82147">
        <ele>661.88</ele>
        <time>2021-08-03T14:47:54Z</time>
      </trkpt>
      <trkpt lat="42.35847" lon="-0.82179">
        <ele>658.74</ele>
        <time>2021-08-03T14:48:00Z</time>
      </trkpt>
      <trkpt lat="42.3585" lon="-0.82198">
        <ele>656.09</ele>
        <time>2021-08-03T14:48:07Z</time>
      </trkpt>
      <trkpt lat="42.35849" lon="-0.82199">
        <ele>655.89</ele>
        <time>2021-08-03T14:48:08Z</time>
      </trkpt>
      <trkpt lat="42.35833" lon="-0.82194">
        <ele>655.47</ele>
        <time>2021-08-03T14:48:14Z</time>
      </trkpt>
      <trkpt lat="42.35823" lon="-0.82185">
        <ele>655.46</ele>
        <time>2021-08-03T14:48:16Z</time>
      </trkpt>
      <trkpt lat="42.35764" lon="-0.82198">
        <ele>658.36</ele>
        <time>2021-08-03T14:48:24Z</time>
      </trkpt>
      <trkpt lat="42.35757" lon="-0.82211">
        <ele>659.8</ele>
        <time>2021-08-03T14:48:26Z</time>
      </trkpt>
      <trkpt lat="42.35746" lon="-0.82232">
        <ele>664.08</ele>
        <time>2021-08-03T14:48:31Z</time>
      </trkpt>
      <trkpt lat="42.35728" lon="-0.8225">
        <ele>667.2</ele>
        <time>2021-08-03T14:48:35Z</time>
      </trkpt>
      <trkpt lat="42.35722" lon="-0.82256">
        <ele>667.89</ele>
        <time>2021-08-03T14:48:36Z</time>
      </trkpt>
      <trkpt lat="42.35716" lon="-0.82299">
        <ele>671.91</ele>
        <time>2021-08-03T14:48:41Z</time>
      </trkpt>
      <trkpt lat="42.35718" lon="-0.82308">
        <ele>672.81</ele>
        <time>2021-08-03T14:48:42Z</time>
      </trkpt>
      <trkpt lat="42.35727" lon="-0.82345">
        <ele>676.27</ele>
        <time>2021-08-03T14:48:46Z</time>
      </trkpt>
      <trkpt lat="42.35726" lon="-0.82385">
        <ele>680.47</ele>
        <time>2021-08-03T14:48:50Z</time>
      </trkpt>
      <trkpt lat="42.35726" lon="-0.8243">
        <ele>684.01</ele>
        <time>2021-08-03T14:48:54Z</time>
      </trkpt>
      <trkpt lat="42.35727" lon="-0.82477">
        <ele>687.9</ele>
        <time>2021-08-03T14:48:58Z</time>
      </trkpt>
      <trkpt lat="42.35732" lon="-0.82525">
        <ele>691.89</ele>
        <time>2021-08-03T14:49:02Z</time>
      </trkpt>
      <trkpt lat="42.35736" lon="-0.82547">
        <ele>693.79</ele>
        <time>2021-08-03T14:49:04Z</time>
      </trkpt>
      <trkpt lat="42.35749" lon="-0.82587">
        <ele>698.25</ele>
        <time>2021-08-03T14:49:09Z</time>
      </trkpt>
      <trkpt lat="42.35772" lon="-0.82629">
        <ele>701.45</ele>
        <time>2021-08-03T14:49:14Z</time>
      </trkpt>
      <trkpt lat="42.35793" lon="-0.82681">
        <ele>705.09</ele>
        <time>2021-08-03T14:49:19Z</time>
      </trkpt>
      <trkpt lat="42.35781" lon="-0.827">
        <ele>709.44</ele>
        <time>2021-08-03T14:49:25Z</time>
      </trkpt>
      <trkpt lat="42.35777" lon="-0.82698">
        <ele>710.1</ele>
        <time>2021-08-03T14:49:26Z</time>
      </trkpt>
      <trkpt lat="42.35759" lon="-0.82683">
        <ele>712.37</ele>
        <time>2021-08-03T14:49:31Z</time>
      </trkpt>
      <trkpt lat="42.35702" lon="-0.82685">
        <ele>713.49</ele>
        <time>2021-08-03T14:49:40Z</time>
      </trkpt>
      <trkpt lat="42.35696" lon="-0.82698">
        <ele>713.1</ele>
        <time>2021-08-03T14:49:42Z</time>
      </trkpt>
      <trkpt lat="42.35668" lon="-0.82722">
        <ele>710.64</ele>
        <time>2021-08-03T14:49:49Z</time>
      </trkpt>
      <trkpt lat="42.35643" lon="-0.82744">
        <ele>707.45</ele>
        <time>2021-08-03T14:49:55Z</time>
      </trkpt>
      <trkpt lat="42.35609" lon="-0.82772">
        <ele>703.3</ele>
        <time>2021-08-03T14:50:03Z</time>
      </trkpt>
      <trkpt lat="42.356" lon="-0.82779">
        <ele>702.23</ele>
        <time>2021-08-03T14:50:05Z</time>
      </trkpt>
      <trkpt lat="42.35583" lon="-0.82789">
        <ele>699.69</ele>
        <time>2021-08-03T14:50:09Z</time>
      </trkpt>
      <trkpt lat="42.35569" lon="-0.82803">
        <ele>698.04</ele>
        <time>2021-08-03T14:50:12Z</time>
      </trkpt>
      <trkpt lat="42.35541" lon="-0.82817">
        <ele>694.07</ele>
        <time>2021-08-03T14:50:18Z</time>
      </trkpt>
      <trkpt lat="42.35522" lon="-0.82829">
        <ele>691</ele>
        <time>2021-08-03T14:50:23Z</time>
      </trkpt>
      <trkpt lat="42.35506" lon="-0.82854">
        <ele>687.94</ele>
        <time>2021-08-03T14:50:28Z</time>
      </trkpt>
      <trkpt lat="42.35501" lon="-0.8286">
        <ele>687.3</ele>
        <time>2021-08-03T14:50:29Z</time>
      </trkpt>
      <trkpt lat="42.35477" lon="-0.82868">
        <ele>683.15</ele>
        <time>2021-08-03T14:50:35Z</time>
      </trkpt>
      <trkpt lat="42.35444" lon="-0.82854">
        <ele>680.15</ele>
        <time>2021-08-03T14:50:41Z</time>
      </trkpt>
      <trkpt lat="42.3545" lon="-0.82882">
        <ele>677.73</ele>
        <time>2021-08-03T14:50:46Z</time>
      </trkpt>
      <trkpt lat="42.35466" lon="-0.82905">
        <ele>676.45</ele>
        <time>2021-08-03T14:50:49Z</time>
      </trkpt>
      <trkpt lat="42.35488" lon="-0.82949">
        <ele>673.77</ele>
        <time>2021-08-03T14:50:54Z</time>
      </trkpt>
      <trkpt lat="42.355" lon="-0.82966">
        <ele>672.33</ele>
        <time>2021-08-03T14:50:57Z</time>
      </trkpt>
      <trkpt lat="42.35485" lon="-0.82992">
        <ele>668.51</ele>
        <time>2021-08-03T14:51:03Z</time>
      </trkpt>
      <trkpt lat="42.35464" lon="-0.82995">
        <ele>667.41</ele>
        <time>2021-08-03T14:51:06Z</time>
      </trkpt>
      <trkpt lat="42.3545" lon="-0.82995">
        <ele>666.65</ele>
        <time>2021-08-03T14:51:08Z</time>
      </trkpt>
      <trkpt lat="42.35383" lon="-0.82978">
        <ele>663.06</ele>
        <time>2021-08-03T14:51:17Z</time>
      </trkpt>
      <trkpt lat="42.35362" lon="-0.82975">
        <ele>661.39</ele>
        <time>2021-08-03T14:51:20Z</time>
      </trkpt>
      <trkpt lat="42.35282" lon="-0.82995">
        <ele>659.52</ele>
        <time>2021-08-03T14:51:30Z</time>
      </trkpt>
      <trkpt lat="42.35264" lon="-0.82996">
        <ele>659.15</ele>
        <time>2021-08-03T14:51:32Z</time>
      </trkpt>
      <trkpt lat="42.35219" lon="-0.82982">
        <ele>657.57</ele>
        <time>2021-08-03T14:51:38Z</time>
      </trkpt>
      <trkpt lat="42.35187" lon="-0.82959">
        <ele>653.87</ele>
        <time>2021-08-03T14:51:46Z</time>
      </trkpt>
      <trkpt lat="42.35166" lon="-0.82938">
        <ele>652.36</ele>
        <time>2021-08-03T14:51:50Z</time>
      </trkpt>
      <trkpt lat="42.3511" lon="-0.8293">
        <ele>648.73</ele>
        <time>2021-08-03T14:51:58Z</time>
      </trkpt>
      <trkpt lat="42.35082" lon="-0.82956">
        <ele>646.5</ele>
        <time>2021-08-03T14:52:04Z</time>
      </trkpt>
      <trkpt lat="42.3507" lon="-0.82965">
        <ele>642.79</ele>
        <time>2021-08-03T14:52:12Z</time>
      </trkpt>
      <trkpt lat="42.35049" lon="-0.82969">
        <ele>639.71</ele>
        <time>2021-08-03T14:52:28Z</time>
      </trkpt>
      <trkpt lat="42.35016" lon="-0.82978">
        <ele>637.09</ele>
        <time>2021-08-03T14:52:40Z</time>
      </trkpt>
      <trkpt lat="42.34997" lon="-0.82966">
        <ele>636.56</ele>
        <time>2021-08-03T14:52:45Z</time>
      </trkpt>
      <trkpt lat="42.34987" lon="-0.82958">
        <ele>636.61</ele>
        <time>2021-08-03T14:52:47Z</time>
      </trkpt>
      <trkpt lat="42.34937" lon="-0.82959">
        <ele>638.28</ele>
        <time>2021-08-03T14:52:54Z</time>
      </trkpt>
      <trkpt lat="42.34924" lon="-0.82982">
        <ele>640.37</ele>
        <time>2021-08-03T14:53:00Z</time>
      </trkpt>
      <trkpt lat="42.34932" lon="-0.82989">
        <ele>641.14</ele>
        <time>2021-08-03T14:53:03Z</time>
      </trkpt>
      <trkpt lat="42.34957" lon="-0.83007">
        <ele>644.44</ele>
        <time>2021-08-03T14:53:12Z</time>
      </trkpt>
      <trkpt lat="42.34961" lon="-0.83015">
        <ele>645.12</ele>
        <time>2021-08-03T14:53:14Z</time>
      </trkpt>
      <trkpt lat="42.34947" lon="-0.83032">
        <ele>646.64</ele>
        <time>2021-08-03T14:53:19Z</time>
      </trkpt>
      <trkpt lat="42.34913" lon="-0.83033">
        <ele>648.95</ele>
        <time>2021-08-03T14:53:24Z</time>
      </trkpt>
      <trkpt lat="42.34881" lon="-0.83018">
        <ele>652.64</ele>
        <time>2021-08-03T14:53:31Z</time>
      </trkpt>
      <trkpt lat="42.3485" lon="-0.8299">
        <ele>655.95</ele>
        <time>2021-08-03T14:53:37Z</time>
      </trkpt>
      <trkpt lat="42.34832" lon="-0.8297">
        <ele>657.91</ele>
        <time>2021-08-03T14:53:41Z</time>
      </trkpt>
      <trkpt lat="42.34804" lon="-0.82949">
        <ele>659.29</ele>
        <time>2021-08-03T14:53:45Z</time>
      </trkpt>
      <trkpt lat="42.34776" lon="-0.82923">
        <ele>660.41</ele>
        <time>2021-08-03T14:53:50Z</time>
      </trkpt>
      <trkpt lat="42.34761" lon="-0.82901">
        <ele>661.82</ele>
        <time>2021-08-03T14:53:53Z</time>
      </trkpt>
      <trkpt lat="42.34757" lon="-0.82867">
        <ele>664.06</ele>
        <time>2021-08-03T14:53:57Z</time>
      </trkpt>
      <trkpt lat="42.34752" lon="-0.82807">
        <ele>668.09</ele>
        <time>2021-08-03T14:54:03Z</time>
      </trkpt>
      <trkpt lat="42.34751" lon="-0.82794">
        <ele>668.74</ele>
        <time>2021-08-03T14:54:04Z</time>
      </trkpt>
      <trkpt lat="42.34728" lon="-0.82742">
        <ele>671.86</ele>
        <time>2021-08-03T14:54:11Z</time>
      </trkpt>
      <trkpt lat="42.34722" lon="-0.82757">
        <ele>673.55</ele>
        <time>2021-08-03T14:54:15Z</time>
      </trkpt>
      <trkpt lat="42.3472" lon="-0.82783">
        <ele>677.32</ele>
        <time>2021-08-03T14:54:24Z</time>
      </trkpt>
      <trkpt lat="42.34712" lon="-0.82846">
        <ele>679.7</ele>
        <time>2021-08-03T14:54:32Z</time>
      </trkpt>
      <trkpt lat="42.3471" lon="-0.82857">
        <ele>680.05</ele>
        <time>2021-08-03T14:54:33Z</time>
      </trkpt>
      <trkpt lat="42.3468" lon="-0.82902">
        <ele>683.1</ele>
        <time>2021-08-03T14:54:40Z</time>
      </trkpt>
      <trkpt lat="42.34655" lon="-0.82921">
        <ele>684.92</ele>
        <time>2021-08-03T14:54:44Z</time>
      </trkpt>
      <trkpt lat="42.34665" lon="-0.82941">
        <ele>685.69</ele>
        <time>2021-08-03T14:54:49Z</time>
      </trkpt>
      <trkpt lat="42.34681" lon="-0.82946">
        <ele>686.11</ele>
        <time>2021-08-03T14:54:51Z</time>
      </trkpt>
      <trkpt lat="42.34713" lon="-0.82983">
        <ele>688.71</ele>
        <time>2021-08-03T14:54:58Z</time>
      </trkpt>
      <trkpt lat="42.34703" lon="-0.82997">
        <ele>689.79</ele>
        <time>2021-08-03T14:55:00Z</time>
      </trkpt>
      <trkpt lat="42.34693" lon="-0.83013">
        <ele>691.73</ele>
        <time>2021-08-03T14:55:04Z</time>
      </trkpt>
      <trkpt lat="42.34699" lon="-0.83036">
        <ele>693.67</ele>
        <time>2021-08-03T14:55:10Z</time>
      </trkpt>
      <trkpt lat="42.34697" lon="-0.83073">
        <ele>697.07</ele>
        <time>2021-08-03T14:55:18Z</time>
      </trkpt>
      <trkpt lat="42.34679" lon="-0.83109">
        <ele>700.3</ele>
        <time>2021-08-03T14:55:26Z</time>
      </trkpt>
      <trkpt lat="42.34661" lon="-0.83127">
        <ele>702.44</ele>
        <time>2021-08-03T14:55:32Z</time>
      </trkpt>
      <trkpt lat="42.34631" lon="-0.83099">
        <ele>704.7</ele>
        <time>2021-08-03T14:55:38Z</time>
      </trkpt>
      <trkpt lat="42.34587" lon="-0.83058">
        <ele>707.44</ele>
        <time>2021-08-03T14:55:44Z</time>
      </trkpt>
      <trkpt lat="42.3456" lon="-0.83046">
        <ele>709.28</ele>
        <time>2021-08-03T14:55:47Z</time>
      </trkpt>
      <trkpt lat="42.34543" lon="-0.8303">
        <ele>711.05</ele>
        <time>2021-08-03T14:55:50Z</time>
      </trkpt>
      <trkpt lat="42.34504" lon="-0.83025">
        <ele>713.89</ele>
        <time>2021-08-03T14:55:55Z</time>
      </trkpt>
      <trkpt lat="42.34478" lon="-0.83001">
        <ele>717.79</ele>
        <time>2021-08-03T14:56:02Z</time>
      </trkpt>
      <trkpt lat="42.3448" lon="-0.82992">
        <ele>718.21</ele>
        <time>2021-08-03T14:56:03Z</time>
      </trkpt>
      <trkpt lat="42.34494" lon="-0.82946">
        <ele>719.58</ele>
        <time>2021-08-03T14:56:07Z</time>
      </trkpt>
      <trkpt lat="42.34535" lon="-0.8292">
        <ele>718.98</ele>
        <time>2021-08-03T14:56:12Z</time>
      </trkpt>
      <trkpt lat="42.3455" lon="-0.82913">
        <ele>717.39</ele>
        <time>2021-08-03T14:56:14Z</time>
      </trkpt>
      <trkpt lat="42.34554" lon="-0.82875">
        <ele>714.71</ele>
        <time>2021-08-03T14:56:20Z</time>
      </trkpt>
      <trkpt lat="42.34515" lon="-0.82867">
        <ele>714.71</ele>
        <time>2021-08-03T14:56:25Z</time>
      </trkpt>
      <trkpt lat="42.34482" lon="-0.8286">
        <ele>716.18</ele>
        <time>2021-08-03T14:56:30Z</time>
      </trkpt>
      <trkpt lat="42.34456" lon="-0.82827">
        <ele>718.19</ele>
        <time>2021-08-03T14:56:38Z</time>
      </trkpt>
      <trkpt lat="42.34435" lon="-0.82793">
        <ele>719.83</ele>
        <time>2021-08-03T14:56:46Z</time>
      </trkpt>
      <trkpt lat="42.34432" lon="-0.8276">
        <ele>721.17</ele>
        <time>2021-08-03T14:56:51Z</time>
      </trkpt>
      <trkpt lat="42.34405" lon="-0.82727">
        <ele>724.34</ele>
        <time>2021-08-03T14:56:59Z</time>
      </trkpt>
      <trkpt lat="42.34348" lon="-0.82714">
        <ele>727.91</ele>
        <time>2021-08-03T14:57:13Z</time>
      </trkpt>
      <trkpt lat="42.34338" lon="-0.82711">
        <ele>728.74</ele>
        <time>2021-08-03T14:57:15Z</time>
      </trkpt>
      <trkpt lat="42.34306" lon="-0.82683">
        <ele>732.24</ele>
        <time>2021-08-03T14:57:23Z</time>
      </trkpt>
      <trkpt lat="42.34282" lon="-0.82663">
        <ele>735.47</ele>
        <time>2021-08-03T14:57:30Z</time>
      </trkpt>
      <trkpt lat="42.34263" lon="-0.82645">
        <ele>737.59</ele>
        <time>2021-08-03T14:57:35Z</time>
      </trkpt>
      <trkpt lat="42.34246" lon="-0.82633">
        <ele>739.31</ele>
        <time>2021-08-03T14:57:39Z</time>
      </trkpt>
      <trkpt lat="42.34207" lon="-0.82624">
        <ele>743.34</ele>
        <time>2021-08-03T14:57:47Z</time>
      </trkpt>
      <trkpt lat="42.34202" lon="-0.82623">
        <ele>743.81</ele>
        <time>2021-08-03T14:57:48Z</time>
      </trkpt>
      <trkpt lat="42.3418" lon="-0.82601">
        <ele>746.05</ele>
        <time>2021-08-03T14:57:54Z</time>
      </trkpt>
      <trkpt lat="42.34174" lon="-0.82587">
        <ele>747.5</ele>
        <time>2021-08-03T14:57:56Z</time>
      </trkpt>
      <trkpt lat="42.34154" lon="-0.82571">
        <ele>749.55</ele>
        <time>2021-08-03T14:58:00Z</time>
      </trkpt>
      <trkpt lat="42.34137" lon="-0.82567">
        <ele>751.13</ele>
        <time>2021-08-03T14:58:03Z</time>
      </trkpt>
      <trkpt lat="42.34096" lon="-0.82567">
        <ele>753.61</ele>
        <time>2021-08-03T14:58:10Z</time>
      </trkpt>
      <trkpt lat="42.3408" lon="-0.82579">
        <ele>754.35</ele>
        <time>2021-08-03T14:58:15Z</time>
      </trkpt>
      <trkpt lat="42.34071" lon="-0.82625">
        <ele>755.43</ele>
        <time>2021-08-03T14:58:26Z</time>
      </trkpt>
      <trkpt lat="42.3407" lon="-0.82631">
        <ele>755.59</ele>
        <time>2021-08-03T14:58:27Z</time>
      </trkpt>
      <trkpt lat="42.34069" lon="-0.82662">
        <ele>756.17</ele>
        <time>2021-08-03T14:58:31Z</time>
      </trkpt>
      <trkpt lat="42.34051" lon="-0.82707">
        <ele>757.94</ele>
        <time>2021-08-03T14:58:37Z</time>
      </trkpt>
      <trkpt lat="42.34032" lon="-0.8273">
        <ele>759.49</ele>
        <time>2021-08-03T14:58:41Z</time>
      </trkpt>
      <trkpt lat="42.3401" lon="-0.82784">
        <ele>763.19</ele>
        <time>2021-08-03T14:58:48Z</time>
      </trkpt>
      <trkpt lat="42.34004" lon="-0.82801">
        <ele>764.21</ele>
        <time>2021-08-03T14:58:50Z</time>
      </trkpt>
      <trkpt lat="42.33978" lon="-0.82834">
        <ele>768.17</ele>
        <time>2021-08-03T14:58:57Z</time>
      </trkpt>
      <trkpt lat="42.33974" lon="-0.82839">
        <ele>768.71</ele>
        <time>2021-08-03T14:58:58Z</time>
      </trkpt>
      <trkpt lat="42.33943" lon="-0.82885">
        <ele>772.36</ele>
        <time>2021-08-03T14:59:05Z</time>
      </trkpt>
      <trkpt lat="42.33939" lon="-0.82891">
        <ele>772.87</ele>
        <time>2021-08-03T14:59:06Z</time>
      </trkpt>
      <trkpt lat="42.33918" lon="-0.82977">
        <ele>776.46</ele>
        <time>2021-08-03T14:59:15Z</time>
      </trkpt>
      <trkpt lat="42.33926" lon="-0.83003">
        <ele>777.38</ele>
        <time>2021-08-03T14:59:18Z</time>
      </trkpt>
      <trkpt lat="42.33932" lon="-0.8307">
        <ele>780.17</ele>
        <time>2021-08-03T14:59:25Z</time>
      </trkpt>
      <trkpt lat="42.33916" lon="-0.83128">
        <ele>783.75</ele>
        <time>2021-08-03T14:59:31Z</time>
      </trkpt>
      <trkpt lat="42.33909" lon="-0.83146">
        <ele>785.2</ele>
        <time>2021-08-03T14:59:33Z</time>
      </trkpt>
      <trkpt lat="42.33893" lon="-0.83174">
        <ele>789.12</ele>
        <time>2021-08-03T14:59:37Z</time>
      </trkpt>
      <trkpt lat="42.33889" lon="-0.83181">
        <ele>789.91</ele>
        <time>2021-08-03T14:59:38Z</time>
      </trkpt>
      <trkpt lat="42.33867" lon="-0.83243">
        <ele>794.27</ele>
        <time>2021-08-03T14:59:44Z</time>
      </trkpt>
      <trkpt lat="42.3385" lon="-0.83286">
        <ele>797.69</ele>
        <time>2021-08-03T14:59:48Z</time>
      </trkpt>
      <trkpt lat="42.33836" lon="-0.83333">
        <ele>800.87</ele>
        <time>2021-08-03T14:59:52Z</time>
      </trkpt>
      <trkpt lat="42.33834" lon="-0.83345">
        <ele>801.36</ele>
        <time>2021-08-03T14:59:53Z</time>
      </trkpt>
      <trkpt lat="42.33833" lon="-0.83403">
        <ele>802.94</ele>
        <time>2021-08-03T14:59:58Z</time>
      </trkpt>
      <trkpt lat="42.33809" lon="-0.83424">
        <ele>804.07</ele>
        <time>2021-08-03T15:00:05Z</time>
      </trkpt>
      <trkpt lat="42.33776" lon="-0.83425">
        <ele>805.53</ele>
        <time>2021-08-03T15:00:10Z</time>
      </trkpt>
      <trkpt lat="42.33734" lon="-0.83437">
        <ele>809.13</ele>
        <time>2021-08-03T15:00:17Z</time>
      </trkpt>
      <trkpt lat="42.33715" lon="-0.83415">
        <ele>811.06</ele>
        <time>2021-08-03T15:00:21Z</time>
      </trkpt>
      <trkpt lat="42.33707" lon="-0.83402">
        <ele>811.81</ele>
        <time>2021-08-03T15:00:23Z</time>
      </trkpt>
      <trkpt lat="42.33668" lon="-0.83343">
        <ele>814.47</ele>
        <time>2021-08-03T15:00:30Z</time>
      </trkpt>
      <trkpt lat="42.3362" lon="-0.8327">
        <ele>818.03</ele>
        <time>2021-08-03T15:00:38Z</time>
      </trkpt>
      <trkpt lat="42.33565" lon="-0.83169">
        <ele>820.73</ele>
        <time>2021-08-03T15:00:47Z</time>
      </trkpt>
      <trkpt lat="42.33518" lon="-0.83072">
        <ele>821.53</ele>
        <time>2021-08-03T15:00:55Z</time>
      </trkpt>
      <trkpt lat="42.3346" lon="-0.82993">
        <ele>824.73</ele>
        <time>2021-08-03T15:01:04Z</time>
      </trkpt>
      <trkpt lat="42.3344" lon="-0.82938">
        <ele>827.27</ele>
        <time>2021-08-03T15:01:10Z</time>
      </trkpt>
      <trkpt lat="42.33435" lon="-0.82919">
        <ele>828.68</ele>
        <time>2021-08-03T15:01:13Z</time>
      </trkpt>
      <trkpt lat="42.33428" lon="-0.82853">
        <ele>832.93</ele>
        <time>2021-08-03T15:01:20Z</time>
      </trkpt>
      <trkpt lat="42.33428" lon="-0.82844">
        <ele>833.46</ele>
        <time>2021-08-03T15:01:21Z</time>
      </trkpt>
      <trkpt lat="42.33405" lon="-0.82765">
        <ele>837.52</ele>
        <time>2021-08-03T15:01:29Z</time>
      </trkpt>
      <trkpt lat="42.33385" lon="-0.82718">
        <ele>841.27</ele>
        <time>2021-08-03T15:01:34Z</time>
      </trkpt>
      <trkpt lat="42.33381" lon="-0.82711">
        <ele>842.05</ele>
        <time>2021-08-03T15:01:35Z</time>
      </trkpt>
      <trkpt lat="42.33368" lon="-0.82659">
        <ele>845.97</ele>
        <time>2021-08-03T15:01:40Z</time>
      </trkpt>
      <trkpt lat="42.3335" lon="-0.82592">
        <ele>849.36</ele>
        <time>2021-08-03T15:01:46Z</time>
      </trkpt>
      <trkpt lat="42.33328" lon="-0.82487">
        <ele>851.98</ele>
        <time>2021-08-03T15:01:55Z</time>
      </trkpt>
      <trkpt lat="42.33301" lon="-0.82479">
        <ele>852.88</ele>
        <time>2021-08-03T15:02:01Z</time>
      </trkpt>
      <trkpt lat="42.33299" lon="-0.82511">
        <ele>853.9</ele>
        <time>2021-08-03T15:02:04Z</time>
      </trkpt>
      <trkpt lat="42.33297" lon="-0.82549">
        <ele>855.22</ele>
        <time>2021-08-03T15:02:07Z</time>
      </trkpt>
      <trkpt lat="42.33305" lon="-0.82647">
        <ele>859.07</ele>
        <time>2021-08-03T15:02:14Z</time>
      </trkpt>
      <trkpt lat="42.33316" lon="-0.82724">
        <ele>862.32</ele>
        <time>2021-08-03T15:02:19Z</time>
      </trkpt>
      <trkpt lat="42.33321" lon="-0.82807">
        <ele>865.73</ele>
        <time>2021-08-03T15:02:24Z</time>
      </trkpt>
      <trkpt lat="42.33318" lon="-0.82855">
        <ele>867.97</ele>
        <time>2021-08-03T15:02:28Z</time>
      </trkpt>
      <trkpt lat="42.33299" lon="-0.82915">
        <ele>871.47</ele>
        <time>2021-08-03T15:02:34Z</time>
      </trkpt>
      <trkpt lat="42.3329" lon="-0.82964">
        <ele>875.91</ele>
        <time>2021-08-03T15:02:39Z</time>
      </trkpt>
      <trkpt lat="42.3329" lon="-0.8297">
        <ele>876.9</ele>
        <time>2021-08-03T15:02:40Z</time>
      </trkpt>
      <trkpt lat="42.3329" lon="-0.82981">
        <ele>878.86</ele>
        <time>2021-08-03T15:02:42Z</time>
      </trkpt>
      <trkpt lat="42.3328" lon="-0.83006">
        <ele>883.01</ele>
        <time>2021-08-03T15:02:47Z</time>
      </trkpt>
      <trkpt lat="42.33271" lon="-0.82974">
        <ele>886.9</ele>
        <time>2021-08-03T15:02:52Z</time>
      </trkpt>
      <trkpt lat="42.33245" lon="-0.82969">
        <ele>889.73</ele>
        <time>2021-08-03T15:02:57Z</time>
      </trkpt>
      <trkpt lat="42.33243" lon="-0.8301">
        <ele>892.49</ele>
        <time>2021-08-03T15:03:01Z</time>
      </trkpt>
      <trkpt lat="42.33261" lon="-0.83071">
        <ele>896.39</ele>
        <time>2021-08-03T15:03:06Z</time>
      </trkpt>
      <trkpt lat="42.33272" lon="-0.83099">
        <ele>898.17</ele>
        <time>2021-08-03T15:03:08Z</time>
      </trkpt>
      <trkpt lat="42.33317" lon="-0.83183">
        <ele>902.53</ele>
        <time>2021-08-03T15:03:14Z</time>
      </trkpt>
      <trkpt lat="42.33376" lon="-0.83298">
        <ele>905.66</ele>
        <time>2021-08-03T15:03:22Z</time>
      </trkpt>
      <trkpt lat="42.334" lon="-0.83371">
        <ele>908.53</ele>
        <time>2021-08-03T15:03:27Z</time>
      </trkpt>
      <trkpt lat="42.33408" lon="-0.83417">
        <ele>911.99</ele>
        <time>2021-08-03T15:03:31Z</time>
      </trkpt>
      <trkpt lat="42.33426" lon="-0.83452">
        <ele>916.35</ele>
        <time>2021-08-03T15:03:36Z</time>
      </trkpt>
      <trkpt lat="42.3345" lon="-0.83495">
        <ele>919.96</ele>
        <time>2021-08-03T15:03:41Z</time>
      </trkpt>
      <trkpt lat="42.33512" lon="-0.83588">
        <ele>924.04</ele>
        <time>2021-08-03T15:03:48Z</time>
      </trkpt>
      <trkpt lat="42.33521" lon="-0.83602">
        <ele>924.38</ele>
        <time>2021-08-03T15:03:49Z</time>
      </trkpt>
      <trkpt lat="42.33547" lon="-0.83641">
        <ele>925.17</ele>
        <time>2021-08-03T15:03:53Z</time>
      </trkpt>
      <trkpt lat="42.33613" lon="-0.8373">
        <ele>927.9</ele>
        <time>2021-08-03T15:04:02Z</time>
      </trkpt>
      <trkpt lat="42.33664" lon="-0.83809">
        <ele>930.38</ele>
        <time>2021-08-03T15:04:09Z</time>
      </trkpt>
      <trkpt lat="42.33732" lon="-0.83927">
        <ele>933.39</ele>
        <time>2021-08-03T15:04:18Z</time>
      </trkpt>
      <trkpt lat="42.33742" lon="-0.83939">
        <ele>933.47</ele>
        <time>2021-08-03T15:04:19Z</time>
      </trkpt>
      <trkpt lat="42.33766" lon="-0.83985">
        <ele>933.4</ele>
        <time>2021-08-03T15:04:23Z</time>
      </trkpt>
      <trkpt lat="42.33771" lon="-0.84002">
        <ele>933.24</ele>
        <time>2021-08-03T15:04:25Z</time>
      </trkpt>
      <trkpt lat="42.33789" lon="-0.84044">
        <ele>932.83</ele>
        <time>2021-08-03T15:04:29Z</time>
      </trkpt>
      <trkpt lat="42.33793" lon="-0.84096">
        <ele>932.83</ele>
        <time>2021-08-03T15:04:33Z</time>
      </trkpt>
      <trkpt lat="42.33791" lon="-0.8412">
        <ele>932.94</ele>
        <time>2021-08-03T15:04:35Z</time>
      </trkpt>
      <trkpt lat="42.33753" lon="-0.84161">
        <ele>933.46</ele>
        <time>2021-08-03T15:04:41Z</time>
      </trkpt>
      <trkpt lat="42.33743" lon="-0.84162">
        <ele>933.86</ele>
        <time>2021-08-03T15:04:42Z</time>
      </trkpt>
      <trkpt lat="42.33702" lon="-0.84168">
        <ele>935.23</ele>
        <time>2021-08-03T15:04:46Z</time>
      </trkpt>
      <trkpt lat="42.33667" lon="-0.84164">
        <ele>936.57</ele>
        <time>2021-08-03T15:04:49Z</time>
      </trkpt>
      <trkpt lat="42.33597" lon="-0.84187">
        <ele>939.83</ele>
        <time>2021-08-03T15:04:56Z</time>
      </trkpt>
      <trkpt lat="42.33582" lon="-0.84234">
        <ele>941.69</ele>
        <time>2021-08-03T15:05:00Z</time>
      </trkpt>
      <trkpt lat="42.33578" lon="-0.8426">
        <ele>942.76</ele>
        <time>2021-08-03T15:05:02Z</time>
      </trkpt>
      <trkpt lat="42.33577" lon="-0.84295">
        <ele>944.04</ele>
        <time>2021-08-03T15:05:05Z</time>
      </trkpt>
      <trkpt lat="42.3357" lon="-0.84329">
        <ele>945.54</ele>
        <time>2021-08-03T15:05:08Z</time>
      </trkpt>
      <trkpt lat="42.33518" lon="-0.84405">
        <ele>949.03</ele>
        <time>2021-08-03T15:05:15Z</time>
      </trkpt>
      <trkpt lat="42.33469" lon="-0.84434">
        <ele>950.48</ele>
        <time>2021-08-03T15:05:20Z</time>
      </trkpt>
      <trkpt lat="42.33455" lon="-0.84496">
        <ele>951.42</ele>
        <time>2021-08-03T15:05:26Z</time>
      </trkpt>
      <trkpt lat="42.3346" lon="-0.84527">
        <ele>951.5</ele>
        <time>2021-08-03T15:05:28Z</time>
      </trkpt>
      <trkpt lat="42.33446" lon="-0.84626">
        <ele>951.44</ele>
        <time>2021-08-03T15:05:35Z</time>
      </trkpt>
      <trkpt lat="42.33411" lon="-0.84657">
        <ele>951.04</ele>
        <time>2021-08-03T15:05:40Z</time>
      </trkpt>
      <trkpt lat="42.33367" lon="-0.84675">
        <ele>951.32</ele>
        <time>2021-08-03T15:05:44Z</time>
      </trkpt>
      <trkpt lat="42.33329" lon="-0.84678">
        <ele>952.27</ele>
        <time>2021-08-03T15:05:47Z</time>
      </trkpt>
      <trkpt lat="42.33274" lon="-0.84657">
        <ele>954.98</ele>
        <time>2021-08-03T15:05:52Z</time>
      </trkpt>
      <trkpt lat="42.33222" lon="-0.84641">
        <ele>958.7</ele>
        <time>2021-08-03T15:05:57Z</time>
      </trkpt>
      <trkpt lat="42.33196" lon="-0.84628">
        <ele>960.9</ele>
        <time>2021-08-03T15:06:00Z</time>
      </trkpt>
      <trkpt lat="42.33172" lon="-0.84627">
        <ele>964.3</ele>
        <time>2021-08-03T15:06:07Z</time>
      </trkpt>
      <trkpt lat="42.33122" lon="-0.84621">
        <ele>965.87</ele>
        <time>2021-08-03T15:06:13Z</time>
      </trkpt>
      <trkpt lat="42.33071" lon="-0.84634">
        <ele>966.51</ele>
        <time>2021-08-03T15:06:17Z</time>
      </trkpt>
      <trkpt lat="42.33023" lon="-0.84607">
        <ele>967.02</ele>
        <time>2021-08-03T15:06:21Z</time>
      </trkpt>
      <trkpt lat="42.32959" lon="-0.84536">
        <ele>967.73</ele>
        <time>2021-08-03T15:06:26Z</time>
      </trkpt>
      <trkpt lat="42.32901" lon="-0.84511">
        <ele>967.93</ele>
        <time>2021-08-03T15:06:30Z</time>
      </trkpt>
      <trkpt lat="42.3284" lon="-0.84513">
        <ele>967.51</ele>
        <time>2021-08-03T15:06:34Z</time>
      </trkpt>
      <trkpt lat="42.32783" lon="-0.84532">
        <ele>965.91</ele>
        <time>2021-08-03T15:06:39Z</time>
      </trkpt>
      <trkpt lat="42.32753" lon="-0.84542">
        <ele>964.66</ele>
        <time>2021-08-03T15:06:42Z</time>
      </trkpt>
      <trkpt lat="42.3274" lon="-0.84548">
        <ele>963.84</ele>
        <time>2021-08-03T15:06:44Z</time>
      </trkpt>
      <trkpt lat="42.32704" lon="-0.84575">
        <ele>962.01</ele>
        <time>2021-08-03T15:06:50Z</time>
      </trkpt>
      <trkpt lat="42.32666" lon="-0.84591">
        <ele>962.04</ele>
        <time>2021-08-03T15:06:56Z</time>
      </trkpt>
      <trkpt lat="42.3264" lon="-0.84596">
        <ele>962.38</ele>
        <time>2021-08-03T15:07:00Z</time>
      </trkpt>
      <trkpt lat="42.32622" lon="-0.8462">
        <ele>962.77</ele>
        <time>2021-08-03T15:07:05Z</time>
      </trkpt>
      <trkpt lat="42.32609" lon="-0.84693">
        <ele>963</ele>
        <time>2021-08-03T15:07:12Z</time>
      </trkpt>
      <trkpt lat="42.32615" lon="-0.8475">
        <ele>962.3</ele>
        <time>2021-08-03T15:07:18Z</time>
      </trkpt>
      <trkpt lat="42.32581" lon="-0.84806">
        <ele>963.4</ele>
        <time>2021-08-03T15:07:26Z</time>
      </trkpt>
      <trkpt lat="42.32572" lon="-0.84808">
        <ele>963.56</ele>
        <time>2021-08-03T15:07:27Z</time>
      </trkpt>
      <trkpt lat="42.32547" lon="-0.84816">
        <ele>963.63</ele>
        <time>2021-08-03T15:07:30Z</time>
      </trkpt>
      <trkpt lat="42.32498" lon="-0.8487">
        <ele>963.01</ele>
        <time>2021-08-03T15:07:37Z</time>
      </trkpt>
      <trkpt lat="42.32476" lon="-0.84914">
        <ele>963.02</ele>
        <time>2021-08-03T15:07:41Z</time>
      </trkpt>
      <trkpt lat="42.32455" lon="-0.84988">
        <ele>963.77</ele>
        <time>2021-08-03T15:07:48Z</time>
      </trkpt>
      <trkpt lat="42.32451" lon="-0.84999">
        <ele>963.8</ele>
        <time>2021-08-03T15:07:51Z</time>
      </trkpt>
      <trkpt lat="42.32416" lon="-0.84992">
        <ele>964</ele>
        <time>2021-08-03T15:07:57Z</time>
      </trkpt>
      <trkpt lat="42.32404" lon="-0.84978">
        <ele>964.04</ele>
        <time>2021-08-03T15:07:59Z</time>
      </trkpt>
      <trkpt lat="42.32385" lon="-0.84948">
        <ele>964.06</ele>
        <time>2021-08-03T15:08:03Z</time>
      </trkpt>
      <trkpt lat="42.32358" lon="-0.84926">
        <ele>964.16</ele>
        <time>2021-08-03T15:08:07Z</time>
      </trkpt>
      <trkpt lat="42.32318" lon="-0.84907">
        <ele>964.71</ele>
        <time>2021-08-03T15:08:12Z</time>
      </trkpt>
      <trkpt lat="42.32293" lon="-0.84875">
        <ele>965.26</ele>
        <time>2021-08-03T15:08:16Z</time>
      </trkpt>
      <trkpt lat="42.32274" lon="-0.84839">
        <ele>965.44</ele>
        <time>2021-08-03T15:08:20Z</time>
      </trkpt>
      <trkpt lat="42.32257" lon="-0.84815">
        <ele>965.34</ele>
        <time>2021-08-03T15:08:23Z</time>
      </trkpt>
      <trkpt lat="42.32223" lon="-0.84796">
        <ele>965.41</ele>
        <time>2021-08-03T15:08:28Z</time>
      </trkpt>
      <trkpt lat="42.32199" lon="-0.8477">
        <ele>965.44</ele>
        <time>2021-08-03T15:08:32Z</time>
      </trkpt>
      <trkpt lat="42.32137" lon="-0.84686">
        <ele>963.27</ele>
        <time>2021-08-03T15:08:43Z</time>
      </trkpt>
      <trkpt lat="42.32083" lon="-0.84681">
        <ele>962.11</ele>
        <time>2021-08-03T15:08:50Z</time>
      </trkpt>
      <trkpt lat="42.31993" lon="-0.84723">
        <ele>961.73</ele>
        <time>2021-08-03T15:09:01Z</time>
      </trkpt>
      <trkpt lat="42.31955" lon="-0.84756">
        <ele>962.35</ele>
        <time>2021-08-03T15:09:09Z</time>
      </trkpt>
      <trkpt lat="42.3189" lon="-0.84782">
        <ele>961.67</ele>
        <time>2021-08-03T15:09:19Z</time>
      </trkpt>
      <trkpt lat="42.31873" lon="-0.84789">
        <ele>961.33</ele>
        <time>2021-08-03T15:09:21Z</time>
      </trkpt>
      <trkpt lat="42.3182" lon="-0.84786">
        <ele>960.26</ele>
        <time>2021-08-03T15:09:28Z</time>
      </trkpt>
      <trkpt lat="42.31796" lon="-0.84776">
        <ele>959.89</ele>
        <time>2021-08-03T15:09:31Z</time>
      </trkpt>
      <trkpt lat="42.31759" lon="-0.84742">
        <ele>958.95</ele>
        <time>2021-08-03T15:09:36Z</time>
      </trkpt>
      <trkpt lat="42.31739" lon="-0.84719">
        <ele>958.32</ele>
        <time>2021-08-03T15:09:39Z</time>
      </trkpt>
      <trkpt lat="42.31707" lon="-0.84684">
        <ele>956.77</ele>
        <time>2021-08-03T15:09:44Z</time>
      </trkpt>
      <trkpt lat="42.31659" lon="-0.84626">
        <ele>952.2</ele>
        <time>2021-08-03T15:09:53Z</time>
      </trkpt>
      <trkpt lat="42.31621" lon="-0.84562">
        <ele>948.85</ele>
        <time>2021-08-03T15:10:01Z</time>
      </trkpt>
      <trkpt lat="42.31579" lon="-0.84486">
        <ele>946.33</ele>
        <time>2021-08-03T15:10:11Z</time>
      </trkpt>
      <trkpt lat="42.31567" lon="-0.84472">
        <ele>945.92</ele>
        <time>2021-08-03T15:10:13Z</time>
      </trkpt>
      <trkpt lat="42.31518" lon="-0.84452">
        <ele>944.44</ele>
        <time>2021-08-03T15:10:19Z</time>
      </trkpt>
      <trkpt lat="42.3148" lon="-0.8447">
        <ele>943.45</ele>
        <time>2021-08-03T15:10:24Z</time>
      </trkpt>
      <trkpt lat="42.31436" lon="-0.84463">
        <ele>943.67</ele>
        <time>2021-08-03T15:10:33Z</time>
      </trkpt>
      <trkpt lat="42.3141" lon="-0.84439">
        <ele>943.97</ele>
        <time>2021-08-03T15:10:37Z</time>
      </trkpt>
      <trkpt lat="42.31393" lon="-0.84407">
        <ele>944.11</ele>
        <time>2021-08-03T15:10:41Z</time>
      </trkpt>
      <trkpt lat="42.31386" lon="-0.84389">
        <ele>944.08</ele>
        <time>2021-08-03T15:10:43Z</time>
      </trkpt>
      <trkpt lat="42.31358" lon="-0.84362">
        <ele>942.95</ele>
        <time>2021-08-03T15:10:48Z</time>
      </trkpt>
      <trkpt lat="42.3134" lon="-0.84347">
        <ele>940.78</ele>
        <time>2021-08-03T15:10:55Z</time>
      </trkpt>
      <trkpt lat="42.3129" lon="-0.84267">
        <ele>937.47</ele>
        <time>2021-08-03T15:11:07Z</time>
      </trkpt>
      <trkpt lat="42.31244" lon="-0.84212">
        <ele>935.32</ele>
        <time>2021-08-03T15:11:13Z</time>
      </trkpt>
      <trkpt lat="42.31183" lon="-0.84172">
        <ele>933.38</ele>
        <time>2021-08-03T15:11:20Z</time>
      </trkpt>
      <trkpt lat="42.31134" lon="-0.84155">
        <ele>930.09</ele>
        <time>2021-08-03T15:11:28Z</time>
      </trkpt>
      <trkpt lat="42.31102" lon="-0.84157">
        <ele>928.22</ele>
        <time>2021-08-03T15:11:32Z</time>
      </trkpt>
      <trkpt lat="42.31058" lon="-0.84152">
        <ele>926.06</ele>
        <time>2021-08-03T15:11:38Z</time>
      </trkpt>
      <trkpt lat="42.31025" lon="-0.84147">
        <ele>925.02</ele>
        <time>2021-08-03T15:11:42Z</time>
      </trkpt>
      <trkpt lat="42.30999" lon="-0.8415">
        <ele>924.27</ele>
        <time>2021-08-03T15:11:45Z</time>
      </trkpt>
      <trkpt lat="42.30942" lon="-0.84134">
        <ele>922.43</ele>
        <time>2021-08-03T15:11:52Z</time>
      </trkpt>
      <trkpt lat="42.309" lon="-0.84106">
        <ele>921.75</ele>
        <time>2021-08-03T15:11:59Z</time>
      </trkpt>
      <trkpt lat="42.30867" lon="-0.84066">
        <ele>919.31</ele>
        <time>2021-08-03T15:12:11Z</time>
      </trkpt>
      <trkpt lat="42.30859" lon="-0.84056">
        <ele>918.41</ele>
        <time>2021-08-03T15:12:14Z</time>
      </trkpt>
      <trkpt lat="42.30837" lon="-0.84047">
        <ele>916.78</ele>
        <time>2021-08-03T15:12:19Z</time>
      </trkpt>
      <trkpt lat="42.30772" lon="-0.84055">
        <ele>914.05</ele>
        <time>2021-08-03T15:12:28Z</time>
      </trkpt>
      <trkpt lat="42.30709" lon="-0.84064">
        <ele>910.99</ele>
        <time>2021-08-03T15:12:35Z</time>
      </trkpt>
      <trkpt lat="42.30668" lon="-0.8407">
        <ele>909.21</ele>
        <time>2021-08-03T15:12:39Z</time>
      </trkpt>
      <trkpt lat="42.3062" lon="-0.84054">
        <ele>907.2</ele>
        <time>2021-08-03T15:12:44Z</time>
      </trkpt>
      <trkpt lat="42.30554" lon="-0.84039">
        <ele>905.95</ele>
        <time>2021-08-03T15:12:52Z</time>
      </trkpt>
      <trkpt lat="42.30544" lon="-0.84027">
        <ele>905.34</ele>
        <time>2021-08-03T15:12:54Z</time>
      </trkpt>
      <trkpt lat="42.30528" lon="-0.84005">
        <ele>903.92</ele>
        <time>2021-08-03T15:12:57Z</time>
      </trkpt>
      <trkpt lat="42.30472" lon="-0.83965">
        <ele>900.23</ele>
        <time>2021-08-03T15:13:04Z</time>
      </trkpt>
      <trkpt lat="42.3044" lon="-0.83955">
        <ele>898.7</ele>
        <time>2021-08-03T15:13:07Z</time>
      </trkpt>
      <trkpt lat="42.30402" lon="-0.83933">
        <ele>896.99</ele>
        <time>2021-08-03T15:13:11Z</time>
      </trkpt>
      <trkpt lat="42.30374" lon="-0.83916">
        <ele>894.45</ele>
        <time>2021-08-03T15:13:18Z</time>
      </trkpt>
      <trkpt lat="42.30337" lon="-0.83915">
        <ele>893.85</ele>
        <time>2021-08-03T15:13:23Z</time>
      </trkpt>
      <trkpt lat="42.30314" lon="-0.83906">
        <ele>893.67</ele>
        <time>2021-08-03T15:13:26Z</time>
      </trkpt>
      <trkpt lat="42.30262" lon="-0.83891">
        <ele>892.96</ele>
        <time>2021-08-03T15:13:32Z</time>
      </trkpt>
      <trkpt lat="42.30212" lon="-0.83899">
        <ele>890.88</ele>
        <time>2021-08-03T15:13:39Z</time>
      </trkpt>
      <trkpt lat="42.30188" lon="-0.83933">
        <ele>888.34</ele>
        <time>2021-08-03T15:13:45Z</time>
      </trkpt>
      <trkpt lat="42.30181" lon="-0.83966">
        <ele>886.94</ele>
        <time>2021-08-03T15:13:48Z</time>
      </trkpt>
      <trkpt lat="42.30178" lon="-0.83977">
        <ele>886.76</ele>
        <time>2021-08-03T15:13:49Z</time>
      </trkpt>
      <trkpt lat="42.30146" lon="-0.84028">
        <ele>884.78</ele>
        <time>2021-08-03T15:13:57Z</time>
      </trkpt>
      <trkpt lat="42.301" lon="-0.84062">
        <ele>883.38</ele>
        <time>2021-08-03T15:14:04Z</time>
      </trkpt>
      <trkpt lat="42.30092" lon="-0.84065">
        <ele>883.18</ele>
        <time>2021-08-03T15:14:05Z</time>
      </trkpt>
      <trkpt lat="42.30074" lon="-0.84068">
        <ele>882.3</ele>
        <time>2021-08-03T15:14:09Z</time>
      </trkpt>
      <trkpt lat="42.30043" lon="-0.84071">
        <ele>879.76</ele>
        <time>2021-08-03T15:14:17Z</time>
      </trkpt>
      <trkpt lat="42.30011" lon="-0.841">
        <ele>878.74</ele>
        <time>2021-08-03T15:14:21Z</time>
      </trkpt>
      <trkpt lat="42.29967" lon="-0.84147">
        <ele>878.01</ele>
        <time>2021-08-03T15:14:29Z</time>
      </trkpt>
      <trkpt lat="42.2991" lon="-0.8417">
        <ele>875.34</ele>
        <time>2021-08-03T15:14:41Z</time>
      </trkpt>
      <trkpt lat="42.29866" lon="-0.84187">
        <ele>872.25</ele>
        <time>2021-08-03T15:14:48Z</time>
      </trkpt>
      <trkpt lat="42.2986" lon="-0.84191">
        <ele>871.82</ele>
        <time>2021-08-03T15:14:49Z</time>
      </trkpt>
      <trkpt lat="42.2985" lon="-0.84202">
        <ele>869.71</ele>
        <time>2021-08-03T15:14:54Z</time>
      </trkpt>
      <trkpt lat="42.29825" lon="-0.84241">
        <ele>866.43</ele>
        <time>2021-08-03T15:15:07Z</time>
      </trkpt>
      <trkpt lat="42.29807" lon="-0.84267">
        <ele>865.11</ele>
        <time>2021-08-03T15:15:11Z</time>
      </trkpt>
      <trkpt lat="42.2977" lon="-0.843">
        <ele>862.3</ele>
        <time>2021-08-03T15:15:18Z</time>
      </trkpt>
      <trkpt lat="42.29736" lon="-0.84315">
        <ele>859.88</ele>
        <time>2021-08-03T15:15:24Z</time>
      </trkpt>
      <trkpt lat="42.29699" lon="-0.84296">
        <ele>857.11</ele>
        <time>2021-08-03T15:15:32Z</time>
      </trkpt>
      <trkpt lat="42.29685" lon="-0.8427">
        <ele>856.48</ele>
        <time>2021-08-03T15:15:35Z</time>
      </trkpt>
      <trkpt lat="42.29641" lon="-0.84223">
        <ele>854.17</ele>
        <time>2021-08-03T15:15:42Z</time>
      </trkpt>
      <trkpt lat="42.29546" lon="-0.84204">
        <ele>853.27</ele>
        <time>2021-08-03T15:15:53Z</time>
      </trkpt>
      <trkpt lat="42.29537" lon="-0.84204">
        <ele>853.37</ele>
        <time>2021-08-03T15:15:54Z</time>
      </trkpt>
      <trkpt lat="42.29505" lon="-0.84233">
        <ele>855.14</ele>
        <time>2021-08-03T15:16:01Z</time>
      </trkpt>
      <trkpt lat="42.29454" lon="-0.84297">
        <ele>855.59</ele>
        <time>2021-08-03T15:16:10Z</time>
      </trkpt>
      <trkpt lat="42.29395" lon="-0.84334">
        <ele>852.09</ele>
        <time>2021-08-03T15:16:19Z</time>
      </trkpt>
      <trkpt lat="42.29381" lon="-0.84341">
        <ele>850.79</ele>
        <time>2021-08-03T15:16:22Z</time>
      </trkpt>
      <trkpt lat="42.29356" lon="-0.84368">
        <ele>848.66</ele>
        <time>2021-08-03T15:16:28Z</time>
      </trkpt>
      <trkpt lat="42.29351" lon="-0.84381">
        <ele>847.65</ele>
        <time>2021-08-03T15:16:30Z</time>
      </trkpt>
      <trkpt lat="42.29327" lon="-0.84408">
        <ele>845.65</ele>
        <time>2021-08-03T15:16:35Z</time>
      </trkpt>
      <trkpt lat="42.29285" lon="-0.84431">
        <ele>844.09</ele>
        <time>2021-08-03T15:16:42Z</time>
      </trkpt>
      <trkpt lat="42.29251" lon="-0.84425">
        <ele>844.49</ele>
        <time>2021-08-03T15:16:49Z</time>
      </trkpt>
      <trkpt lat="42.29211" lon="-0.84432">
        <ele>845.75</ele>
        <time>2021-08-03T15:16:55Z</time>
      </trkpt>
      <trkpt lat="42.29183" lon="-0.84442">
        <ele>845.66</ele>
        <time>2021-08-03T15:17:01Z</time>
      </trkpt>
      <trkpt lat="42.29129" lon="-0.84438">
        <ele>844.15</ele>
        <time>2021-08-03T15:17:08Z</time>
      </trkpt>
      <trkpt lat="42.29089" lon="-0.84453">
        <ele>843.69</ele>
        <time>2021-08-03T15:17:13Z</time>
      </trkpt>
      <trkpt lat="42.29054" lon="-0.84473">
        <ele>843.99</ele>
        <time>2021-08-03T15:17:22Z</time>
      </trkpt>
      <trkpt lat="42.29035" lon="-0.84485">
        <ele>844.71</ele>
        <time>2021-08-03T15:17:27Z</time>
      </trkpt>
      <trkpt lat="42.29016" lon="-0.84489">
        <ele>845.56</ele>
        <time>2021-08-03T15:17:32Z</time>
      </trkpt>
      <trkpt lat="42.29007" lon="-0.84488">
        <ele>846.15</ele>
        <time>2021-08-03T15:17:35Z</time>
      </trkpt>
      <trkpt lat="42.28987" lon="-0.8449">
        <ele>846.97</ele>
        <time>2021-08-03T15:17:39Z</time>
      </trkpt>
      <trkpt lat="42.28943" lon="-0.84508">
        <ele>847.9</ele>
        <time>2021-08-03T15:17:46Z</time>
      </trkpt>
      <trkpt lat="42.28921" lon="-0.84508">
        <ele>847.74</ele>
        <time>2021-08-03T15:17:50Z</time>
      </trkpt>
      <trkpt lat="42.28867" lon="-0.84512">
        <ele>848.09</ele>
        <time>2021-08-03T15:17:59Z</time>
      </trkpt>
      <trkpt lat="42.28844" lon="-0.84517">
        <ele>848.12</ele>
        <time>2021-08-03T15:18:03Z</time>
      </trkpt>
      <trkpt lat="42.28808" lon="-0.84516">
        <ele>847.95</ele>
        <time>2021-08-03T15:18:08Z</time>
      </trkpt>
      <trkpt lat="42.28797" lon="-0.84511">
        <ele>847.32</ele>
        <time>2021-08-03T15:18:10Z</time>
      </trkpt>
      <trkpt lat="42.28763" lon="-0.84492">
        <ele>845.44</ele>
        <time>2021-08-03T15:18:15Z</time>
      </trkpt>
      <trkpt lat="42.28747" lon="-0.84487">
        <ele>844.74</ele>
        <time>2021-08-03T15:18:17Z</time>
      </trkpt>
      <trkpt lat="42.28727" lon="-0.84478">
        <ele>843.69</ele>
        <time>2021-08-03T15:18:20Z</time>
      </trkpt>
      <trkpt lat="42.28687" lon="-0.84456">
        <ele>841.7</ele>
        <time>2021-08-03T15:18:28Z</time>
      </trkpt>
      <trkpt lat="42.28683" lon="-0.84461">
        <ele>841.11</ele>
        <time>2021-08-03T15:18:30Z</time>
      </trkpt>
      <trkpt lat="42.28657" lon="-0.84531">
        <ele>837.69</ele>
        <time>2021-08-03T15:18:40Z</time>
      </trkpt>
      <trkpt lat="42.28615" lon="-0.84603">
        <ele>834.56</ele>
        <time>2021-08-03T15:18:49Z</time>
      </trkpt>
      <trkpt lat="42.28588" lon="-0.84606">
        <ele>834.13</ele>
        <time>2021-08-03T15:18:55Z</time>
      </trkpt>
      <trkpt lat="42.28572" lon="-0.84597">
        <ele>833.99</ele>
        <time>2021-08-03T15:18:58Z</time>
      </trkpt>
      <trkpt lat="42.28549" lon="-0.84589">
        <ele>832.48</ele>
        <time>2021-08-03T15:19:02Z</time>
      </trkpt>
      <trkpt lat="42.28496" lon="-0.84564">
        <ele>828.7</ele>
        <time>2021-08-03T15:19:10Z</time>
      </trkpt>
      <trkpt lat="42.28489" lon="-0.84561">
        <ele>828.16</ele>
        <time>2021-08-03T15:19:11Z</time>
      </trkpt>
      <trkpt lat="42.28466" lon="-0.84545">
        <ele>826.7</ele>
        <time>2021-08-03T15:19:15Z</time>
      </trkpt>
      <trkpt lat="42.28439" lon="-0.84508">
        <ele>825.2</ele>
        <time>2021-08-03T15:19:21Z</time>
      </trkpt>
      <trkpt lat="42.28415" lon="-0.84498">
        <ele>824.92</ele>
        <time>2021-08-03T15:19:26Z</time>
      </trkpt>
      <trkpt lat="42.28384" lon="-0.84502">
        <ele>824.83</ele>
        <time>2021-08-03T15:19:32Z</time>
      </trkpt>
      <trkpt lat="42.28367" lon="-0.84514">
        <ele>824.79</ele>
        <time>2021-08-03T15:19:36Z</time>
      </trkpt>
      <trkpt lat="42.28349" lon="-0.84545">
        <ele>825.11</ele>
        <time>2021-08-03T15:19:42Z</time>
      </trkpt>
      <trkpt lat="42.28342" lon="-0.84554">
        <ele>825.19</ele>
        <time>2021-08-03T15:19:44Z</time>
      </trkpt>
      <trkpt lat="42.28304" lon="-0.84584">
        <ele>826.49</ele>
        <time>2021-08-03T15:19:53Z</time>
      </trkpt>
      <trkpt lat="42.28277" lon="-0.8461">
        <ele>828.07</ele>
        <time>2021-08-03T15:19:59Z</time>
      </trkpt>
      <trkpt lat="42.28256" lon="-0.84608">
        <ele>829.88</ele>
        <time>2021-08-03T15:20:04Z</time>
      </trkpt>
      <trkpt lat="42.28206" lon="-0.84591">
        <ele>831.18</ele>
        <time>2021-08-03T15:20:19Z</time>
      </trkpt>
      <trkpt lat="42.28145" lon="-0.84588">
        <ele>831.41</ele>
        <time>2021-08-03T15:20:28Z</time>
      </trkpt>
      <trkpt lat="42.2811" lon="-0.84607">
        <ele>832.57</ele>
        <time>2021-08-03T15:20:33Z</time>
      </trkpt>
      <trkpt lat="42.2807" lon="-0.84683">
        <ele>833.81</ele>
        <time>2021-08-03T15:20:42Z</time>
      </trkpt>
      <trkpt lat="42.28064" lon="-0.84702">
        <ele>833.94</ele>
        <time>2021-08-03T15:20:44Z</time>
      </trkpt>
      <trkpt lat="42.28022" lon="-0.84764">
        <ele>834.54</ele>
        <time>2021-08-03T15:20:51Z</time>
      </trkpt>
      <trkpt lat="42.27991" lon="-0.8477">
        <ele>835.53</ele>
        <time>2021-08-03T15:20:56Z</time>
      </trkpt>
      <trkpt lat="42.27983" lon="-0.84763">
        <ele>836.22</ele>
        <time>2021-08-03T15:20:58Z</time>
      </trkpt>
      <trkpt lat="42.27957" lon="-0.84758">
        <ele>838.02</ele>
        <time>2021-08-03T15:21:03Z</time>
      </trkpt>
      <trkpt lat="42.27943" lon="-0.84776">
        <ele>839.1</ele>
        <time>2021-08-03T15:21:08Z</time>
      </trkpt>
      <trkpt lat="42.27925" lon="-0.84861">
        <ele>840.91</ele>
        <time>2021-08-03T15:21:19Z</time>
      </trkpt>
      <trkpt lat="42.279" lon="-0.8492">
        <ele>841.77</ele>
        <time>2021-08-03T15:21:29Z</time>
      </trkpt>
      <trkpt lat="42.27861" lon="-0.84962">
        <ele>843.41</ele>
        <time>2021-08-03T15:21:37Z</time>
      </trkpt>
      <trkpt lat="42.2786" lon="-0.84981">
        <ele>843.52</ele>
        <time>2021-08-03T15:21:39Z</time>
      </trkpt>
      <trkpt lat="42.27847" lon="-0.85012">
        <ele>843.34</ele>
        <time>2021-08-03T15:21:48Z</time>
      </trkpt>
      <trkpt lat="42.27808" lon="-0.85023">
        <ele>842.87</ele>
        <time>2021-08-03T15:22:00Z</time>
      </trkpt>
      <trkpt lat="42.27785" lon="-0.85032">
        <ele>841.64</ele>
        <time>2021-08-03T15:22:11Z</time>
      </trkpt>
      <trkpt lat="42.27785" lon="-0.85032">
        <ele>840.09</ele>
        <time>2021-08-03T15:22:37Z</time>
      </trkpt>
      <trkpt lat="42.27762" lon="-0.85038">
        <ele>839.89</ele>
        <time>2021-08-03T15:24:05Z</time>
      </trkpt>
      <trkpt lat="42.27724" lon="-0.85038">
        <ele>837.71</ele>
        <time>2021-08-03T15:24:16Z</time>
      </trkpt>
      <trkpt lat="42.27689" lon="-0.85015">
        <ele>834.31</ele>
        <time>2021-08-03T15:24:27Z</time>
      </trkpt>
      <trkpt lat="42.27671" lon="-0.85007">
        <ele>832.68</ele>
        <time>2021-08-03T15:24:34Z</time>
      </trkpt>
      <trkpt lat="42.27649" lon="-0.84997">
        <ele>831.54</ele>
        <time>2021-08-03T15:24:39Z</time>
      </trkpt>
      <trkpt lat="42.27603" lon="-0.84988">
        <ele>828.07</ele>
        <time>2021-08-03T15:24:50Z</time>
      </trkpt>
      <trkpt lat="42.27585" lon="-0.84992">
        <ele>825.92</ele>
        <time>2021-08-03T15:24:56Z</time>
      </trkpt>
      <trkpt lat="42.27562" lon="-0.84995">
        <ele>824.82</ele>
        <time>2021-08-03T15:24:59Z</time>
      </trkpt>
      <trkpt lat="42.27529" lon="-0.84996">
        <ele>824.03</ele>
        <time>2021-08-03T15:25:02Z</time>
      </trkpt>
      <trkpt lat="42.27512" lon="-0.85">
        <ele>823.48</ele>
        <time>2021-08-03T15:25:04Z</time>
      </trkpt>
      <trkpt lat="42.27486" lon="-0.8501">
        <ele>823.02</ele>
        <time>2021-08-03T15:25:10Z</time>
      </trkpt>
      <trkpt lat="42.2746" lon="-0.85009">
        <ele>823.62</ele>
        <time>2021-08-03T15:25:14Z</time>
      </trkpt>
      <trkpt lat="42.27403" lon="-0.84991">
        <ele>825.76</ele>
        <time>2021-08-03T15:25:22Z</time>
      </trkpt>
      <trkpt lat="42.27368" lon="-0.84996">
        <ele>828.81</ele>
        <time>2021-08-03T15:25:31Z</time>
      </trkpt>
      <trkpt lat="42.27331" lon="-0.85001">
        <ele>830.38</ele>
        <time>2021-08-03T15:25:38Z</time>
      </trkpt>
      <trkpt lat="42.27284" lon="-0.85028">
        <ele>831.79</ele>
        <time>2021-08-03T15:25:49Z</time>
      </trkpt>
      <trkpt lat="42.27257" lon="-0.85075">
        <ele>832.37</ele>
        <time>2021-08-03T15:25:54Z</time>
      </trkpt>
      <trkpt lat="42.27217" lon="-0.85092">
        <ele>835.45</ele>
        <time>2021-08-03T15:26:02Z</time>
      </trkpt>
      <trkpt lat="42.27177" lon="-0.85084">
        <ele>836.44</ele>
        <time>2021-08-03T15:26:08Z</time>
      </trkpt>
      <trkpt lat="42.27145" lon="-0.85088">
        <ele>836.81</ele>
        <time>2021-08-03T15:26:13Z</time>
      </trkpt>
      <trkpt lat="42.2712" lon="-0.85101">
        <ele>836.96</ele>
        <time>2021-08-03T15:26:17Z</time>
      </trkpt>
      <trkpt lat="42.27077" lon="-0.85116">
        <ele>836.92</ele>
        <time>2021-08-03T15:26:23Z</time>
      </trkpt>
      <trkpt lat="42.27027" lon="-0.85149">
        <ele>836.76</ele>
        <time>2021-08-03T15:26:29Z</time>
      </trkpt>
      <trkpt lat="42.27" lon="-0.85159">
        <ele>836.46</ele>
        <time>2021-08-03T15:26:32Z</time>
      </trkpt>
      <trkpt lat="42.26969" lon="-0.85181">
        <ele>834.96</ele>
        <time>2021-08-03T15:26:37Z</time>
      </trkpt>
      <trkpt lat="42.26949" lon="-0.85205">
        <ele>832.04</ele>
        <time>2021-08-03T15:26:47Z</time>
      </trkpt>
      <trkpt lat="42.26843" lon="-0.85321">
        <ele>798.4</ele>
      </trkpt>
      <trkpt lat="42.26824" lon="-0.85328">
        <ele>799.6</ele>
      </trkpt>
      <trkpt lat="42.26781" lon="-0.8533">
        <ele>799.1</ele>
      </trkpt>
      <trkpt lat="42.26735" lon="-0.85342">
        <ele>798.5</ele>
      </trkpt>
      <trkpt lat="42.26707" lon="-0.85342">
        <ele>798.9</ele>
      </trkpt>
      <trkpt lat="42.26682" lon="-0.85331">
        <ele>798.5</ele>
      </trkpt>
      <trkpt lat="42.26625" lon="-0.85296">
        <ele>791.3</ele>
      </trkpt>
      <trkpt lat="42.26606" lon="-0.85291">
        <ele>791.1</ele>
      </trkpt>
      <trkpt lat="42.26573" lon="-0.85271">
        <ele>787.4</ele>
      </trkpt>
      <trkpt lat="42.26564" lon="-0.85271">
        <ele>785.9</ele>
      </trkpt>
      <trkpt lat="42.26507" lon="-0.85348">
        <ele>784.6</ele>
      </trkpt>
      <trkpt lat="42.26483" lon="-0.85357">
        <ele>782.7</ele>
      </trkpt>
      <trkpt lat="42.26449" lon="-0.85359">
        <ele>781.9</ele>
      </trkpt>
      <trkpt lat="42.26418" lon="-0.85376">
        <ele>783.1</ele>
      </trkpt>
      <trkpt lat="42.26384" lon="-0.85374">
        <ele>785.4</ele>
      </trkpt>
      <trkpt lat="42.26325" lon="-0.85355">
        <ele>784.9</ele>
      </trkpt>
      <trkpt lat="42.26285" lon="-0.85338">
        <ele>780.3</ele>
      </trkpt>
      <trkpt lat="42.26275" lon="-0.85347">
        <ele>780.8</ele>
      </trkpt>
      <trkpt lat="42.26267" lon="-0.85364">
        <ele>781.6</ele>
      </trkpt>
      <trkpt lat="42.26266" lon="-0.85411">
        <ele>784.7</ele>
      </trkpt>
      <trkpt lat="42.26243" lon="-0.85472">
        <ele>785.4</ele>
      </trkpt>
      <trkpt lat="42.26218" lon="-0.85497">
        <ele>784.4</ele>
      </trkpt>
      <trkpt lat="42.26173" lon="-0.85518">
        <ele>780.5</ele>
      </trkpt>
      <trkpt lat="42.26148" lon="-0.85521">
        <ele>778.2</ele>
      </trkpt>
      <trkpt lat="42.26099" lon="-0.85556">
        <ele>777.6</ele>
      </trkpt>
      <trkpt lat="42.26036" lon="-0.85579">
        <ele>779.7</ele>
      </trkpt>
      <trkpt lat="42.25989" lon="-0.85567">
        <ele>777.4</ele>
      </trkpt>
      <trkpt lat="42.25963" lon="-0.85567">
        <ele>778.8</ele>
      </trkpt>
      <trkpt lat="42.25931" lon="-0.85562">
        <ele>778.9</ele>
      </trkpt>
      <trkpt lat="42.25878" lon="-0.85541">
        <ele>773.8</ele>
      </trkpt>
      <trkpt lat="42.25771" lon="-0.85533">
        <ele>775.5</ele>
      </trkpt>
      <trkpt lat="42.25718" lon="-0.85505">
        <ele>773.6</ele>
      </trkpt>
      <trkpt lat="42.25658" lon="-0.85444">
        <ele>771.9</ele>
      </trkpt>
      <trkpt lat="42.25634" lon="-0.85433">
        <ele>770.5</ele>
      </trkpt>
      <trkpt lat="42.25587" lon="-0.85432">
        <ele>769.9</ele>
      </trkpt>
      <trkpt lat="42.25543" lon="-0.85387">
        <ele>768</ele>
      </trkpt>
      <trkpt lat="42.25514" lon="-0.85367">
        <ele>769.1</ele>
      </trkpt>
      <trkpt lat="42.25446" lon="-0.85351">
        <ele>770.7</ele>
      </trkpt>
      <trkpt lat="42.25408" lon="-0.85347">
        <ele>771.7</ele>
      </trkpt>
      <trkpt lat="42.25351" lon="-0.85392">
        <ele>770</ele>
      </trkpt>
      <trkpt lat="42.25332" lon="-0.85409">
        <ele>770</ele>
      </trkpt>
      <trkpt lat="42.25274" lon="-0.85396">
        <ele>767.2</ele>
      </trkpt>
      <trkpt lat="42.25243" lon="-0.85352">
        <ele>766.1</ele>
      </trkpt>
      <trkpt lat="42.25237" lon="-0.8531">
        <ele>767.8</ele>
      </trkpt>
      <trkpt lat="42.25205" lon="-0.85265">
        <ele>764.3</ele>
      </trkpt>
      <trkpt lat="42.25194" lon="-0.85229">
        <ele>763.9</ele>
      </trkpt>
      <trkpt lat="42.25174" lon="-0.85216">
        <ele>761.1</ele>
      </trkpt>
      <trkpt lat="42.25127" lon="-0.85203">
        <ele>757.6</ele>
      </trkpt>
      <trkpt lat="42.25114" lon="-0.85184">
        <ele>758.1</ele>
      </trkpt>
      <trkpt lat="42.25106" lon="-0.85156">
        <ele>758.6</ele>
      </trkpt>
      <trkpt lat="42.25097" lon="-0.85136">
        <ele>757.3</ele>
      </trkpt>
      <trkpt lat="42.25071" lon="-0.85111">
        <ele>755.5</ele>
      </trkpt>
      <trkpt lat="42.25044" lon="-0.85105">
        <ele>755.3</ele>
      </trkpt>
      <trkpt lat="42.24996" lon="-0.85101">
        <ele>755</ele>
      </trkpt>
      <trkpt lat="42.24958" lon="-0.85109">
        <ele>753.3</ele>
      </trkpt>
      <trkpt lat="42.24939" lon="-0.85122">
        <ele>751.7</ele>
      </trkpt>
      <trkpt lat="42.24933" lon="-0.85126">
        <ele>751.1</ele>
      </trkpt>
      <trkpt lat="42.24928" lon="-0.85133">
        <ele>750.3</ele>
      </trkpt>
      <trkpt lat="42.24902" lon="-0.85135">
        <ele>750.2</ele>
      </trkpt>
      <trkpt lat="42.24872" lon="-0.8513">
        <ele>751.5</ele>
      </trkpt>
      <trkpt lat="42.24839" lon="-0.85136">
        <ele>752.3</ele>
      </trkpt>
      <trkpt lat="42.24726" lon="-0.85189">
        <ele>756.5</ele>
      </trkpt>
      <trkpt lat="42.24687" lon="-0.85203">
        <ele>754.5</ele>
      </trkpt>
      <trkpt lat="42.24642" lon="-0.85197">
        <ele>755.9</ele>
      </trkpt>
      <trkpt lat="42.24623" lon="-0.85197">
        <ele>755.2</ele>
      </trkpt>
      <trkpt lat="42.24586" lon="-0.85203">
        <ele>752.7</ele>
      </trkpt>
      <trkpt lat="42.24564" lon="-0.85198">
        <ele>754.5</ele>
      </trkpt>
      <trkpt lat="42.24554" lon="-0.85193">
        <ele>755.8</ele>
      </trkpt>
      <trkpt lat="42.24547" lon="-0.85192">
        <ele>756.2</ele>
      </trkpt>
      <trkpt lat="42.24531" lon="-0.85195">
        <ele>756.3</ele>
      </trkpt>
      <trkpt lat="42.24515" lon="-0.85203">
        <ele>755.9</ele>
      </trkpt>
      <trkpt lat="42.24507" lon="-0.85211">
        <ele>755.3</ele>
      </trkpt>
      <trkpt lat="42.24492" lon="-0.85237">
        <ele>752.2</ele>
      </trkpt>
      <trkpt lat="42.24484" lon="-0.85259">
        <ele>750.2</ele>
      </trkpt>
      <trkpt lat="42.24477" lon="-0.85285">
        <ele>749.1</ele>
      </trkpt>
      <trkpt lat="42.24472" lon="-0.85313">
        <ele>748.1</ele>
      </trkpt>
      <trkpt lat="42.24468" lon="-0.85323">
        <ele>747.7</ele>
      </trkpt>
      <trkpt lat="42.24456" lon="-0.85333">
        <ele>747.5</ele>
      </trkpt>
      <trkpt lat="42.24451" lon="-0.8534">
        <ele>748.2</ele>
      </trkpt>
      <trkpt lat="42.24446" lon="-0.85341">
        <ele>748.3</ele>
      </trkpt>
      <trkpt lat="42.24442" lon="-0.85337">
        <ele>748</ele>
      </trkpt>
      <trkpt lat="42.2443" lon="-0.8532">
        <ele>748.1</ele>
      </trkpt>
      <trkpt lat="42.24405" lon="-0.85292">
        <ele>747</ele>
      </trkpt>
      <trkpt lat="42.24399" lon="-0.85278">
        <ele>746.2</ele>
      </trkpt>
      <trkpt lat="42.2439" lon="-0.85261">
        <ele>744.9</ele>
      </trkpt>
      <trkpt lat="42.24375" lon="-0.8524">
        <ele>742.7</ele>
      </trkpt>
      <trkpt lat="42.24367" lon="-0.8523">
        <ele>741.7</ele>
      </trkpt>
      <trkpt lat="42.24363" lon="-0.8522">
        <ele>741.3</ele>
      </trkpt>
      <trkpt lat="42.24358" lon="-0.85187">
        <ele>741.4</ele>
      </trkpt>
      <trkpt lat="42.24362" lon="-0.85165">
        <ele>742.6</ele>
      </trkpt>
      <trkpt lat="42.24362" lon="-0.8513">
        <ele>745.1</ele>
      </trkpt>
      <trkpt lat="42.24357" lon="-0.85122">
        <ele>745</ele>
      </trkpt>
      <trkpt lat="42.24331" lon="-0.8511">
        <ele>742.7</ele>
      </trkpt>
      <trkpt lat="42.24315" lon="-0.85106">
        <ele>742.9</ele>
      </trkpt>
      <trkpt lat="42.24286" lon="-0.85105">
        <ele>742.6</ele>
      </trkpt>
      <trkpt lat="42.24277" lon="-0.85108">
        <ele>742.1</ele>
      </trkpt>
      <trkpt lat="42.24265" lon="-0.85117">
        <ele>740.8</ele>
      </trkpt>
      <trkpt lat="42.24253" lon="-0.85118">
        <ele>740.5</ele>
      </trkpt>
      <trkpt lat="42.24224" lon="-0.85112">
        <ele>740.4</ele>
      </trkpt>
      <trkpt lat="42.24214" lon="-0.85109">
        <ele>740.4</ele>
      </trkpt>
      <trkpt lat="42.24209" lon="-0.85105">
        <ele>740.7</ele>
      </trkpt>
      <trkpt lat="42.24182" lon="-0.85076">
        <ele>741.7</ele>
      </trkpt>
      <trkpt lat="42.24179" lon="-0.85068">
        <ele>741.4</ele>
      </trkpt>
      <trkpt lat="42.24176" lon="-0.85056">
        <ele>741.1</ele>
      </trkpt>
      <trkpt lat="42.24176" lon="-0.85046">
        <ele>741</ele>
      </trkpt>
      <trkpt lat="42.24181" lon="-0.8503">
        <ele>741.3</ele>
      </trkpt>
      <trkpt lat="42.24204" lon="-0.8498">
        <ele>742.5</ele>
      </trkpt>
      <trkpt lat="42.24226" lon="-0.84951">
        <ele>742.6</ele>
      </trkpt>
      <trkpt lat="42.24247" lon="-0.84942">
        <ele>744.4</ele>
      </trkpt>
      <trkpt lat="42.24254" lon="-0.84936">
        <ele>744.6</ele>
      </trkpt>
      <trkpt lat="42.24259" lon="-0.84928">
        <ele>744.4</ele>
      </trkpt>
      <trkpt lat="42.24262" lon="-0.84903">
        <ele>743.8</ele>
      </trkpt>
      <trkpt lat="42.24266" lon="-0.84882">
        <ele>744.4</ele>
      </trkpt>
      <trkpt lat="42.24266" lon="-0.84874">
        <ele>744.4</ele>
      </trkpt>
      <trkpt lat="42.24265" lon="-0.84867">
        <ele>744.3</ele>
      </trkpt>
      <trkpt lat="42.24244" lon="-0.84838">
        <ele>740.9</ele>
      </trkpt>
      <trkpt lat="42.2424" lon="-0.84826">
        <ele>740.3</ele>
      </trkpt>
      <trkpt lat="42.24234" lon="-0.84792">
        <ele>740.1</ele>
      </trkpt>
      <trkpt lat="42.24228" lon="-0.84738">
        <ele>741</ele>
      </trkpt>
      <trkpt lat="42.24213" lon="-0.8471">
        <ele>740.5</ele>
      </trkpt>
      <trkpt lat="42.24208" lon="-0.84693">
        <ele>741.1</ele>
      </trkpt>
      <trkpt lat="42.24195" lon="-0.84682">
        <ele>740.4</ele>
      </trkpt>
      <trkpt lat="42.24181" lon="-0.84664">
        <ele>740.3</ele>
      </trkpt>
      <trkpt lat="42.24168" lon="-0.8463">
        <ele>739.5</ele>
      </trkpt>
      <trkpt lat="42.24161" lon="-0.84618">
        <ele>739.4</ele>
      </trkpt>
      <trkpt lat="42.24155" lon="-0.84622">
        <ele>739.2</ele>
      </trkpt>
      <trkpt lat="42.24137" lon="-0.84623">
        <ele>738.7</ele>
      </trkpt>
      <trkpt lat="42.24091" lon="-0.84614">
        <ele>738</ele>
      </trkpt>
      <trkpt lat="42.24083" lon="-0.84614">
        <ele>737.8</ele>
      </trkpt>
      <trkpt lat="42.24058" lon="-0.8462">
        <ele>738.1</ele>
      </trkpt>
      <trkpt lat="42.24028" lon="-0.84635">
        <ele>737.1</ele>
      </trkpt>
      <trkpt lat="42.24004" lon="-0.8464">
        <ele>736.8</ele>
      </trkpt>
      <trkpt lat="42.23997" lon="-0.8464">
        <ele>736.8</ele>
      </trkpt>
      <trkpt lat="42.23962" lon="-0.84627">
        <ele>737.8</ele>
      </trkpt>
      <trkpt lat="42.23946" lon="-0.84627">
        <ele>737.5</ele>
      </trkpt>
      <trkpt lat="42.23922" lon="-0.84625">
        <ele>737.1</ele>
      </trkpt>
      <trkpt lat="42.23902" lon="-0.8462">
        <ele>735.8</ele>
      </trkpt>
      <trkpt lat="42.23897" lon="-0.84616">
        <ele>735.6</ele>
      </trkpt>
      <trkpt lat="42.23893" lon="-0.84601">
        <ele>736.5</ele>
      </trkpt>
      <trkpt lat="42.23888" lon="-0.84575">
        <ele>737.7</ele>
      </trkpt>
      <trkpt lat="42.23884" lon="-0.84545">
        <ele>737.9</ele>
      </trkpt>
      <trkpt lat="42.23873" lon="-0.84504">
        <ele>738.3</ele>
      </trkpt>
      <trkpt lat="42.2387" lon="-0.84483">
        <ele>736.5</ele>
      </trkpt>
      <trkpt lat="42.2387" lon="-0.84462">
        <ele>734.2</ele>
      </trkpt>
      <trkpt lat="42.23868" lon="-0.8445">
        <ele>733.1</ele>
      </trkpt>
      <trkpt lat="42.23861" lon="-0.84438">
        <ele>732.6</ele>
      </trkpt>
      <trkpt lat="42.23834" lon="-0.84416">
        <ele>734.7</ele>
      </trkpt>
      <trkpt lat="42.23808" lon="-0.84381">
        <ele>731.2</ele>
      </trkpt>
      <trkpt lat="42.23786" lon="-0.84364">
        <ele>732.3</ele>
      </trkpt>
      <trkpt lat="42.2375" lon="-0.84328">
        <ele>734.8</ele>
      </trkpt>
      <trkpt lat="42.23731" lon="-0.84305">
        <ele>732.6</ele>
      </trkpt>
      <trkpt lat="42.23714" lon="-0.84278">
        <ele>730.6</ele>
      </trkpt>
      <trkpt lat="42.23693" lon="-0.84233">
        <ele>727.9</ele>
      </trkpt>
      <trkpt lat="42.23646" lon="-0.84161">
        <ele>725.6</ele>
      </trkpt>
      <trkpt lat="42.23639" lon="-0.84146">
        <ele>724.4</ele>
      </trkpt>
      <trkpt lat="42.2358" lon="-0.84099">
        <ele>727.2</ele>
      </trkpt>
      <trkpt lat="42.23515" lon="-0.84028">
        <ele>730.3</ele>
      </trkpt>
      <trkpt lat="42.235" lon="-0.84005">
        <ele>730.8</ele>
      </trkpt>
      <trkpt lat="42.23493" lon="-0.83976">
        <ele>727.4</ele>
      </trkpt>
      <trkpt lat="42.23484" lon="-0.83953">
        <ele>725.3</ele>
      </trkpt>
      <trkpt lat="42.23471" lon="-0.83937">
        <ele>724.7</ele>
      </trkpt>
      <trkpt lat="42.23459" lon="-0.83927">
        <ele>724.8</ele>
      </trkpt>
      <trkpt lat="42.23397" lon="-0.83894">
        <ele>724</ele>
      </trkpt>
      <trkpt lat="42.23388" lon="-0.83885">
        <ele>722.8</ele>
      </trkpt>
      <trkpt lat="42.23374" lon="-0.8388">
        <ele>722.6</ele>
      </trkpt>
      <trkpt lat="42.23362" lon="-0.83884">
        <ele>723.6</ele>
      </trkpt>
      <trkpt lat="42.23355" lon="-0.83887">
        <ele>724</ele>
      </trkpt>
      <trkpt lat="42.23326" lon="-0.83897">
        <ele>724.6</ele>
      </trkpt>
      <trkpt lat="42.23312" lon="-0.83898">
        <ele>724.3</ele>
      </trkpt>
      <trkpt lat="42.233" lon="-0.83894">
        <ele>724.3</ele>
      </trkpt>
      <trkpt lat="42.2325" lon="-0.83851">
        <ele>730.2</ele>
      </trkpt>
      <trkpt lat="42.23237" lon="-0.83847">
        <ele>730.8</ele>
      </trkpt>
      <trkpt lat="42.23217" lon="-0.83833">
        <ele>733</ele>
      </trkpt>
      <trkpt lat="42.23203" lon="-0.83827">
        <ele>733.8</ele>
      </trkpt>
      <trkpt lat="42.23187" lon="-0.83826">
        <ele>733.9</ele>
      </trkpt>
      <trkpt lat="42.23143" lon="-0.83832">
        <ele>734.5</ele>
      </trkpt>
      <trkpt lat="42.23132" lon="-0.83838">
        <ele>734.2</ele>
      </trkpt>
      <trkpt lat="42.2311" lon="-0.83854">
        <ele>733</ele>
      </trkpt>
      <trkpt lat="42.2309" lon="-0.83862">
        <ele>733.3</ele>
      </trkpt>
      <trkpt lat="42.23069" lon="-0.83862">
        <ele>732.7</ele>
      </trkpt>
      <trkpt lat="42.23063" lon="-0.83858">
        <ele>732.8</ele>
      </trkpt>
      <trkpt lat="42.2304" lon="-0.83825">
        <ele>734.9</ele>
      </trkpt>
      <trkpt lat="42.23017" lon="-0.83801">
        <ele>733.2</ele>
      </trkpt>
      <trkpt lat="42.22995" lon="-0.83782">
        <ele>732.3</ele>
      </trkpt>
      <trkpt lat="42.22958" lon="-0.83767">
        <ele>734.1</ele>
      </trkpt>
      <trkpt lat="42.22882" lon="-0.83747">
        <ele>736.3</ele>
      </trkpt>
      <trkpt lat="42.22866" lon="-0.83746">
        <ele>737.1</ele>
      </trkpt>
      <trkpt lat="42.22809" lon="-0.83736">
        <ele>737.6</ele>
      </trkpt>
      <trkpt lat="42.22798" lon="-0.83731">
        <ele>737</ele>
      </trkpt>
      <trkpt lat="42.22787" lon="-0.83722">
        <ele>735.7</ele>
      </trkpt>
      <trkpt lat="42.22767" lon="-0.837">
        <ele>732.9</ele>
      </trkpt>
      <trkpt lat="42.22756" lon="-0.83692">
        <ele>732.5</ele>
      </trkpt>
      <trkpt lat="42.22742" lon="-0.83687">
        <ele>732</ele>
      </trkpt>
      <trkpt lat="42.22715" lon="-0.83683">
        <ele>731</ele>
      </trkpt>
      <trkpt lat="42.2266" lon="-0.83699">
        <ele>730.3</ele>
      </trkpt>
      <trkpt lat="42.22657" lon="-0.83703">
        <ele>730.2</ele>
      </trkpt>
      <trkpt lat="42.22641" lon="-0.83705">
        <ele>729.8</ele>
      </trkpt>
      <trkpt lat="42.22621" lon="-0.83705">
        <ele>729.3</ele>
      </trkpt>
      <trkpt lat="42.22594" lon="-0.83699">
        <ele>729.3</ele>
      </trkpt>
      <trkpt lat="42.22563" lon="-0.83702">
        <ele>730.2</ele>
      </trkpt>
      <trkpt lat="42.22532" lon="-0.83711">
        <ele>731.4</ele>
      </trkpt>
      <trkpt lat="42.22516" lon="-0.83718">
        <ele>731.7</ele>
      </trkpt>
      <trkpt lat="42.22493" lon="-0.83737">
        <ele>731.3</ele>
      </trkpt>
      <trkpt lat="42.22483" lon="-0.83749">
        <ele>731.2</ele>
      </trkpt>
      <trkpt lat="42.22479" lon="-0.83759">
        <ele>730.2</ele>
      </trkpt>
      <trkpt lat="42.22474" lon="-0.83781">
        <ele>727.6</ele>
      </trkpt>
      <trkpt lat="42.22471" lon="-0.83786">
        <ele>727.3</ele>
      </trkpt>
      <trkpt lat="42.22467" lon="-0.8379">
        <ele>727.3</ele>
      </trkpt>
      <trkpt lat="42.22445" lon="-0.83797">
        <ele>729.4</ele>
      </trkpt>
      <trkpt lat="42.22396" lon="-0.83819">
        <ele>731.3</ele>
      </trkpt>
      <trkpt lat="42.22385" lon="-0.83828">
        <ele>730.9</ele>
      </trkpt>
      <trkpt lat="42.22348" lon="-0.83843">
        <ele>732.1</ele>
      </trkpt>
      <trkpt lat="42.2232" lon="-0.83843">
        <ele>730.9</ele>
      </trkpt>
      <trkpt lat="42.22315" lon="-0.83837">
        <ele>730.2</ele>
      </trkpt>
      <trkpt lat="42.2231" lon="-0.83852">
        <ele>729.5</ele>
      </trkpt>
      <trkpt lat="42.22304" lon="-0.83874">
        <ele>729</ele>
      </trkpt>
      <trkpt lat="42.22296" lon="-0.83891">
        <ele>728.3</ele>
      </trkpt>
      <trkpt lat="42.22289" lon="-0.839">
        <ele>727.8</ele>
      </trkpt>
      <trkpt lat="42.22259" lon="-0.83922">
        <ele>726.3</ele>
      </trkpt>
      <trkpt lat="42.22244" lon="-0.8394">
        <ele>726.8</ele>
      </trkpt>
      <trkpt lat="42.22229" lon="-0.83964">
        <ele>727.2</ele>
      </trkpt>
      <trkpt lat="42.22199" lon="-0.83995">
        <ele>725.8</ele>
      </trkpt>
      <trkpt lat="42.22186" lon="-0.84018">
        <ele>725.1</ele>
      </trkpt>
      <trkpt lat="42.22179" lon="-0.84023">
        <ele>724.4</ele>
      </trkpt>
      <trkpt lat="42.2214" lon="-0.84036">
        <ele>722.8</ele>
      </trkpt>
      <trkpt lat="42.22096" lon="-0.84059">
        <ele>723.9</ele>
      </trkpt>
      <trkpt lat="42.22089" lon="-0.84065">
        <ele>724.5</ele>
      </trkpt>
      <trkpt lat="42.22054" lon="-0.84113">
        <ele>727.4</ele>
      </trkpt>
      <trkpt lat="42.21981" lon="-0.8417">
        <ele>728.2</ele>
      </trkpt>
      <trkpt lat="42.21942" lon="-0.84234">
        <ele>761.16</ele>
        <time>2021-08-03T15:50:02Z</time>
      </trkpt>
      <trkpt lat="42.2194" lon="-0.84277">
        <ele>758.97</ele>
        <time>2021-08-03T15:50:06Z</time>
      </trkpt>
      <trkpt lat="42.21917" lon="-0.84336">
        <ele>756.49</ele>
        <time>2021-08-03T15:50:13Z</time>
      </trkpt>
      <trkpt lat="42.21851" lon="-0.84398">
        <ele>754.39</ele>
        <time>2021-08-03T15:50:20Z</time>
      </trkpt>
      <trkpt lat="42.21849" lon="-0.84461">
        <ele>750.75</ele>
        <time>2021-08-03T15:50:26Z</time>
      </trkpt>
      <trkpt lat="42.21877" lon="-0.84509">
        <ele>748.1</ele>
        <time>2021-08-03T15:50:32Z</time>
      </trkpt>
      <trkpt lat="42.2187" lon="-0.84572">
        <ele>745.37</ele>
        <time>2021-08-03T15:50:38Z</time>
      </trkpt>
      <trkpt lat="42.21826" lon="-0.84575">
        <ele>741.61</ele>
        <time>2021-08-03T15:50:43Z</time>
      </trkpt>
      <trkpt lat="42.21789" lon="-0.84547">
        <ele>738.48</ele>
        <time>2021-08-03T15:50:47Z</time>
      </trkpt>
      <trkpt lat="42.21772" lon="-0.84472">
        <ele>735.3</ele>
        <time>2021-08-03T15:50:52Z</time>
      </trkpt>
      <trkpt lat="42.21734" lon="-0.84422">
        <ele>732.63</ele>
        <time>2021-08-03T15:50:57Z</time>
      </trkpt>
      <trkpt lat="42.21706" lon="-0.84413">
        <ele>729.59</ele>
        <time>2021-08-03T15:51:01Z</time>
      </trkpt>
      <trkpt lat="42.2169" lon="-0.84418">
        <ele>727.81</ele>
        <time>2021-08-03T15:51:03Z</time>
      </trkpt>
      <trkpt lat="42.21637" lon="-0.84437">
        <ele>723.63</ele>
        <time>2021-08-03T15:51:09Z</time>
      </trkpt>
      <trkpt lat="42.21568" lon="-0.84465">
        <ele>721.7</ele>
        <time>2021-08-03T15:51:17Z</time>
      </trkpt>
      <trkpt lat="42.2153" lon="-0.8449">
        <ele>721.67</ele>
        <time>2021-08-03T15:51:21Z</time>
      </trkpt>
      <trkpt lat="42.21512" lon="-0.84512">
        <ele>721.68</ele>
        <time>2021-08-03T15:51:25Z</time>
      </trkpt>
      <trkpt lat="42.21504" lon="-0.84529">
        <ele>721.72</ele>
        <time>2021-08-03T15:51:27Z</time>
      </trkpt>
      <trkpt lat="42.21478" lon="-0.84549">
        <ele>722.31</ele>
        <time>2021-08-03T15:51:32Z</time>
      </trkpt>
      <trkpt lat="42.21464" lon="-0.84553">
        <ele>723</ele>
        <time>2021-08-03T15:51:34Z</time>
      </trkpt>
      <trkpt lat="42.21446" lon="-0.84615">
        <ele>725</ele>
        <time>2021-08-03T15:51:41Z</time>
      </trkpt>
      <trkpt lat="42.21451" lon="-0.84638">
        <ele>725.39</ele>
        <time>2021-08-03T15:51:43Z</time>
      </trkpt>
      <trkpt lat="42.21465" lon="-0.84705">
        <ele>726.44</ele>
        <time>2021-08-03T15:51:49Z</time>
      </trkpt>
      <trkpt lat="42.21449" lon="-0.84787">
        <ele>727.89</ele>
        <time>2021-08-03T15:51:56Z</time>
      </trkpt>
      <trkpt lat="42.21399" lon="-0.84796">
        <ele>729.3</ele>
        <time>2021-08-03T15:52:01Z</time>
      </trkpt>
      <trkpt lat="42.21331" lon="-0.84768">
        <ele>730.8</ele>
        <time>2021-08-03T15:52:06Z</time>
      </trkpt>
      <trkpt lat="42.21266" lon="-0.84757">
        <ele>731.43</ele>
        <time>2021-08-03T15:52:11Z</time>
      </trkpt>
      <trkpt lat="42.21202" lon="-0.84731">
        <ele>732.89</ele>
        <time>2021-08-03T15:52:17Z</time>
      </trkpt>
      <trkpt lat="42.2112" lon="-0.84701">
        <ele>733.71</ele>
        <time>2021-08-03T15:52:24Z</time>
      </trkpt>
      <trkpt lat="42.21084" lon="-0.84715">
        <ele>733.01</ele>
        <time>2021-08-03T15:52:28Z</time>
      </trkpt>
      <trkpt lat="42.21032" lon="-0.84783">
        <ele>729.77</ele>
        <time>2021-08-03T15:52:37Z</time>
      </trkpt>
      <trkpt lat="42.21036" lon="-0.84829">
        <ele>728.7</ele>
        <time>2021-08-03T15:52:40Z</time>
      </trkpt>
      <trkpt lat="42.21001" lon="-0.84923">
        <ele>726.16</ele>
        <time>2021-08-03T15:52:48Z</time>
      </trkpt>
      <trkpt lat="42.20973" lon="-0.84956">
        <ele>725.03</ele>
        <time>2021-08-03T15:52:52Z</time>
      </trkpt>
      <trkpt lat="42.2096" lon="-0.84987">
        <ele>723.72</ele>
        <time>2021-08-03T15:52:56Z</time>
      </trkpt>
      <trkpt lat="42.20956" lon="-0.85003">
        <ele>723.05</ele>
        <time>2021-08-03T15:52:58Z</time>
      </trkpt>
      <trkpt lat="42.20943" lon="-0.85031">
        <ele>721.7</ele>
        <time>2021-08-03T15:53:01Z</time>
      </trkpt>
      <trkpt lat="42.20877" lon="-0.85099">
        <ele>719.01</ele>
        <time>2021-08-03T15:53:08Z</time>
      </trkpt>
      <trkpt lat="42.20843" lon="-0.85173">
        <ele>718.26</ele>
        <time>2021-08-03T15:53:13Z</time>
      </trkpt>
      <trkpt lat="42.20788" lon="-0.85247">
        <ele>716.67</ele>
        <time>2021-08-03T15:53:20Z</time>
      </trkpt>
      <trkpt lat="42.20767" lon="-0.8528">
        <ele>716.48</ele>
        <time>2021-08-03T15:53:23Z</time>
      </trkpt>
      <trkpt lat="42.20755" lon="-0.85293">
        <ele>715.59</ele>
        <time>2021-08-03T15:53:27Z</time>
      </trkpt>
      <trkpt lat="42.20743" lon="-0.85316">
        <ele>714.32</ele>
        <time>2021-08-03T15:53:31Z</time>
      </trkpt>
      <trkpt lat="42.20725" lon="-0.85348">
        <ele>712.76</ele>
        <time>2021-08-03T15:53:36Z</time>
      </trkpt>
      <trkpt lat="42.20693" lon="-0.85381">
        <ele>710.71</ele>
        <time>2021-08-03T15:53:41Z</time>
      </trkpt>
      <trkpt lat="42.20681" lon="-0.85417">
        <ele>709.47</ele>
        <time>2021-08-03T15:53:45Z</time>
      </trkpt>
      <trkpt lat="42.20678" lon="-0.85541">
        <ele>708.73</ele>
        <time>2021-08-03T15:53:55Z</time>
      </trkpt>
      <trkpt lat="42.20699" lon="-0.85641">
        <ele>709.16</ele>
        <time>2021-08-03T15:54:02Z</time>
      </trkpt>
      <trkpt lat="42.20682" lon="-0.85695">
        <ele>709.28</ele>
        <time>2021-08-03T15:54:10Z</time>
      </trkpt>
      <trkpt lat="42.20666" lon="-0.8571">
        <ele>709.19</ele>
        <time>2021-08-03T15:54:13Z</time>
      </trkpt>
      <trkpt lat="42.20601" lon="-0.85745">
        <ele>708.51</ele>
        <time>2021-08-03T15:54:23Z</time>
      </trkpt>
      <trkpt lat="42.20588" lon="-0.85754">
        <ele>708.22</ele>
        <time>2021-08-03T15:54:25Z</time>
      </trkpt>
      <trkpt lat="42.20556" lon="-0.85808">
        <ele>707.25</ele>
        <time>2021-08-03T15:54:32Z</time>
      </trkpt>
      <trkpt lat="42.20547" lon="-0.85823">
        <ele>706.91</ele>
        <time>2021-08-03T15:54:34Z</time>
      </trkpt>
      <trkpt lat="42.20485" lon="-0.8588">
        <ele>706.6</ele>
        <time>2021-08-03T15:54:44Z</time>
      </trkpt>
      <trkpt lat="42.20478" lon="-0.85887">
        <ele>706.47</ele>
        <time>2021-08-03T15:54:45Z</time>
      </trkpt>
      <trkpt lat="42.20449" lon="-0.85877">
        <ele>704.21</ele>
        <time>2021-08-03T15:54:51Z</time>
      </trkpt>
      <trkpt lat="42.20429" lon="-0.85861">
        <ele>701.69</ele>
        <time>2021-08-03T15:54:56Z</time>
      </trkpt>
      <trkpt lat="42.20417" lon="-0.8585">
        <ele>699.6</ele>
        <time>2021-08-03T15:55:00Z</time>
      </trkpt>
      <trkpt lat="42.20364" lon="-0.85819">
        <ele>695.62</ele>
        <time>2021-08-03T15:55:07Z</time>
      </trkpt>
      <trkpt lat="42.20321" lon="-0.85791">
        <ele>692.01</ele>
        <time>2021-08-03T15:55:12Z</time>
      </trkpt>
      <trkpt lat="42.20305" lon="-0.85779">
        <ele>690.66</ele>
        <time>2021-08-03T15:55:14Z</time>
      </trkpt>
      <trkpt lat="42.20255" lon="-0.85786">
        <ele>687.69</ele>
        <time>2021-08-03T15:55:21Z</time>
      </trkpt>
      <trkpt lat="42.20246" lon="-0.85809">
        <ele>685.61</ele>
        <time>2021-08-03T15:55:26Z</time>
      </trkpt>
      <trkpt lat="42.20228" lon="-0.8584">
        <ele>684.05</ele>
        <time>2021-08-03T15:55:30Z</time>
      </trkpt>
      <trkpt lat="42.20209" lon="-0.85864">
        <ele>682.46</ele>
        <time>2021-08-03T15:55:33Z</time>
      </trkpt>
      <trkpt lat="42.20185" lon="-0.85868">
        <ele>680.83</ele>
        <time>2021-08-03T15:55:37Z</time>
      </trkpt>
      <trkpt lat="42.20163" lon="-0.85865">
        <ele>678.64</ele>
        <time>2021-08-03T15:55:42Z</time>
      </trkpt>
      <trkpt lat="42.20141" lon="-0.85877">
        <ele>676.96</ele>
        <time>2021-08-03T15:55:46Z</time>
      </trkpt>
      <trkpt lat="42.20112" lon="-0.85925">
        <ele>674.9</ele>
        <time>2021-08-03T15:55:52Z</time>
      </trkpt>
      <trkpt lat="42.20094" lon="-0.85941">
        <ele>673.84</ele>
        <time>2021-08-03T15:55:56Z</time>
      </trkpt>
      <trkpt lat="42.20084" lon="-0.8597">
        <ele>672.55</ele>
        <time>2021-08-03T15:56:02Z</time>
      </trkpt>
      <trkpt lat="42.20122" lon="-0.86007">
        <ele>671.78</ele>
        <time>2021-08-03T15:56:07Z</time>
      </trkpt>
      <trkpt lat="42.20132" lon="-0.8607">
        <ele>669.58</ele>
        <time>2021-08-03T15:56:13Z</time>
      </trkpt>
      <trkpt lat="42.20125" lon="-0.86082">
        <ele>669.06</ele>
        <time>2021-08-03T15:56:14Z</time>
      </trkpt>
      <trkpt lat="42.20107" lon="-0.86112">
        <ele>667.55</ele>
        <time>2021-08-03T15:56:17Z</time>
      </trkpt>
      <trkpt lat="42.20049" lon="-0.86156">
        <ele>664.47</ele>
        <time>2021-08-03T15:56:23Z</time>
      </trkpt>
      <trkpt lat="42.20032" lon="-0.86173">
        <ele>663.42</ele>
        <time>2021-08-03T15:56:25Z</time>
      </trkpt>
      <trkpt lat="42.19992" lon="-0.86193">
        <ele>659.78</ele>
        <time>2021-08-03T15:56:31Z</time>
      </trkpt>
      <trkpt lat="42.19994" lon="-0.86213">
        <ele>658.24</ele>
        <time>2021-08-03T15:56:34Z</time>
      </trkpt>
      <trkpt lat="42.20011" lon="-0.86258">
        <ele>656</ele>
        <time>2021-08-03T15:56:41Z</time>
      </trkpt>
      <trkpt lat="42.20043" lon="-0.86321">
        <ele>654.19</ele>
        <time>2021-08-03T15:56:46Z</time>
      </trkpt>
      <trkpt lat="42.20063" lon="-0.86384">
        <ele>652</ele>
        <time>2021-08-03T15:56:51Z</time>
      </trkpt>
      <trkpt lat="42.20045" lon="-0.86444">
        <ele>650.33</ele>
        <time>2021-08-03T15:56:57Z</time>
      </trkpt>
      <trkpt lat="42.20042" lon="-0.86456">
        <ele>650.11</ele>
        <time>2021-08-03T15:56:58Z</time>
      </trkpt>
      <trkpt lat="42.20034" lon="-0.86497">
        <ele>649.2</ele>
        <time>2021-08-03T15:57:01Z</time>
      </trkpt>
      <trkpt lat="42.20045" lon="-0.86571">
        <ele>646.87</ele>
        <time>2021-08-03T15:57:07Z</time>
      </trkpt>
      <trkpt lat="42.20034" lon="-0.8664">
        <ele>643.78</ele>
        <time>2021-08-03T15:57:14Z</time>
      </trkpt>
      <trkpt lat="42.20021" lon="-0.86645">
        <ele>642.66</ele>
        <time>2021-08-03T15:57:16Z</time>
      </trkpt>
      <trkpt lat="42.19944" lon="-0.86661">
        <ele>639.98</ele>
        <time>2021-08-03T15:57:24Z</time>
      </trkpt>
      <trkpt lat="42.19922" lon="-0.86719">
        <ele>637.98</ele>
        <time>2021-08-03T15:57:31Z</time>
      </trkpt>
      <trkpt lat="42.19931" lon="-0.86728">
        <ele>637.75</ele>
        <time>2021-08-03T15:57:32Z</time>
      </trkpt>
      <trkpt lat="42.20009" lon="-0.86824">
        <ele>635.91</ele>
        <time>2021-08-03T15:57:41Z</time>
      </trkpt>
      <trkpt lat="42.20029" lon="-0.86844">
        <ele>635.26</ele>
        <time>2021-08-03T15:57:43Z</time>
      </trkpt>
      <trkpt lat="42.20062" lon="-0.86863">
        <ele>633.88</ele>
        <time>2021-08-03T15:57:46Z</time>
      </trkpt>
      <trkpt lat="42.20121" lon="-0.86916">
        <ele>630.21</ele>
        <time>2021-08-03T15:57:53Z</time>
      </trkpt>
      <trkpt lat="42.20163" lon="-0.86994">
        <ele>626.63</ele>
        <time>2021-08-03T15:58:00Z</time>
      </trkpt>
      <trkpt lat="42.20181" lon="-0.87033">
        <ele>624.75</ele>
        <time>2021-08-03T15:58:03Z</time>
      </trkpt>
      <trkpt lat="42.20189" lon="-0.87105">
        <ele>620.71</ele>
        <time>2021-08-03T15:58:08Z</time>
      </trkpt>
      <trkpt lat="42.20202" lon="-0.87141">
        <ele>618.33</ele>
        <time>2021-08-03T15:58:11Z</time>
      </trkpt>
      <trkpt lat="42.20245" lon="-0.87218">
        <ele>614.47</ele>
        <time>2021-08-03T15:58:17Z</time>
      </trkpt>
      <trkpt lat="42.20269" lon="-0.87252">
        <ele>612.8</ele>
        <time>2021-08-03T15:58:20Z</time>
      </trkpt>
      <trkpt lat="42.20296" lon="-0.87282">
        <ele>611.22</ele>
        <time>2021-08-03T15:58:23Z</time>
      </trkpt>
      <trkpt lat="42.20304" lon="-0.87342">
        <ele>608.84</ele>
        <time>2021-08-03T15:58:28Z</time>
      </trkpt>
      <trkpt lat="42.20301" lon="-0.87388">
        <ele>607.29</ele>
        <time>2021-08-03T15:58:31Z</time>
      </trkpt>
      <trkpt lat="42.20329" lon="-0.87456">
        <ele>603.93</ele>
        <time>2021-08-03T15:58:36Z</time>
      </trkpt>
      <trkpt lat="42.20379" lon="-0.87503">
        <ele>600.38</ele>
        <time>2021-08-03T15:58:41Z</time>
      </trkpt>
      <trkpt lat="42.20405" lon="-0.87562">
        <ele>597.37</ele>
        <time>2021-08-03T15:58:46Z</time>
      </trkpt>
      <trkpt lat="42.20419" lon="-0.87608">
        <ele>595.26</ele>
        <time>2021-08-03T15:58:51Z</time>
      </trkpt>
      <trkpt lat="42.20422" lon="-0.87664">
        <ele>593.37</ele>
        <time>2021-08-03T15:58:56Z</time>
      </trkpt>
      <trkpt lat="42.20446" lon="-0.8773">
        <ele>592.34</ele>
        <time>2021-08-03T15:59:01Z</time>
      </trkpt>
      <trkpt lat="42.20484" lon="-0.8779">
        <ele>591.3</ele>
        <time>2021-08-03T15:59:06Z</time>
      </trkpt>
      <trkpt lat="42.20502" lon="-0.87863">
        <ele>589.56</ele>
        <time>2021-08-03T15:59:12Z</time>
      </trkpt>
      <trkpt lat="42.20505" lon="-0.87997">
        <ele>588.31</ele>
        <time>2021-08-03T15:59:21Z</time>
      </trkpt>
      <trkpt lat="42.20522" lon="-0.88133">
        <ele>586.76</ele>
        <time>2021-08-03T15:59:29Z</time>
      </trkpt>
      <trkpt lat="42.20539" lon="-0.8823">
        <ele>585.86</ele>
        <time>2021-08-03T15:59:34Z</time>
      </trkpt>
      <trkpt lat="42.20563" lon="-0.88322">
        <ele>584.38</ele>
        <time>2021-08-03T15:59:40Z</time>
      </trkpt>
      <trkpt lat="42.20545" lon="-0.88372">
        <ele>583.35</ele>
        <time>2021-08-03T15:59:44Z</time>
      </trkpt>
      <trkpt lat="42.20543" lon="-0.88422">
        <ele>582.15</ele>
        <time>2021-08-03T15:59:49Z</time>
      </trkpt>
      <trkpt lat="42.20568" lon="-0.88474">
        <ele>581.75</ele>
        <time>2021-08-03T15:59:56Z</time>
      </trkpt>
      <trkpt lat="42.20568" lon="-0.88479">
        <ele>581.26</ele>
        <time>2021-08-03T16:00:03Z</time>
      </trkpt>
      <trkpt lat="42.20568" lon="-0.88486">
        <ele>580.75</ele>
        <time>2021-08-03T16:00:13Z</time>
      </trkpt>
      <trkpt lat="42.20573" lon="-0.88561">
        <ele>580.88</ele>
        <time>2021-08-03T16:00:19Z</time>
      </trkpt>
      <trkpt lat="42.20555" lon="-0.88716">
        <ele>581.65</ele>
        <time>2021-08-03T16:00:26Z</time>
      </trkpt>
      <trkpt lat="42.2056" lon="-0.88906">
        <ele>581.59</ele>
        <time>2021-08-03T16:00:33Z</time>
      </trkpt>
      <trkpt lat="42.20572" lon="-0.89011">
        <ele>581.21</ele>
        <time>2021-08-03T16:00:37Z</time>
      </trkpt>
      <trkpt lat="42.20625" lon="-0.89094">
        <ele>579.58</ele>
        <time>2021-08-03T16:00:43Z</time>
      </trkpt>
      <trkpt lat="42.20678" lon="-0.89148">
        <ele>579.77</ele>
        <time>2021-08-03T16:00:48Z</time>
      </trkpt>
      <trkpt lat="42.20701" lon="-0.89158">
        <ele>580.05</ele>
        <time>2021-08-03T16:00:50Z</time>
      </trkpt>
      <trkpt lat="42.20728" lon="-0.89166">
        <ele>580.19</ele>
        <time>2021-08-03T16:00:52Z</time>
      </trkpt>
      <trkpt lat="42.20759" lon="-0.89215">
        <ele>579.38</ele>
        <time>2021-08-03T16:00:57Z</time>
      </trkpt>
      <trkpt lat="42.20746" lon="-0.89308">
        <ele>577.21</ele>
        <time>2021-08-03T16:01:02Z</time>
      </trkpt>
      <trkpt lat="42.20668" lon="-0.89472">
        <ele>577.47</ele>
        <time>2021-08-03T16:01:11Z</time>
      </trkpt>
      <trkpt lat="42.20658" lon="-0.89489">
        <ele>577.57</ele>
        <time>2021-08-03T16:01:12Z</time>
      </trkpt>
      <trkpt lat="42.2061" lon="-0.89536">
        <ele>577.56</ele>
        <time>2021-08-03T16:01:16Z</time>
      </trkpt>
      <trkpt lat="42.20578" lon="-0.89643">
        <ele>575.51</ele>
        <time>2021-08-03T16:01:22Z</time>
      </trkpt>
      <trkpt lat="42.20583" lon="-0.89688">
        <ele>573.26</ele>
        <time>2021-08-03T16:01:27Z</time>
      </trkpt>
      <trkpt lat="42.20583" lon="-0.89704">
        <ele>570.97</ele>
        <time>2021-08-03T16:01:32Z</time>
      </trkpt>
      <trkpt lat="42.20576" lon="-0.898">
        <ele>570.27</ele>
        <time>2021-08-03T16:01:38Z</time>
      </trkpt>
      <trkpt lat="42.2053" lon="-0.89901">
        <ele>570.05</ele>
        <time>2021-08-03T16:01:44Z</time>
      </trkpt>
      <trkpt lat="42.20522" lon="-0.89957">
        <ele>569.25</ele>
        <time>2021-08-03T16:01:48Z</time>
      </trkpt>
      <trkpt lat="42.20533" lon="-0.90084">
        <ele>567.54</ele>
        <time>2021-08-03T16:01:55Z</time>
      </trkpt>
      <trkpt lat="42.20544" lon="-0.90123">
        <ele>566.99</ele>
        <time>2021-08-03T16:01:57Z</time>
      </trkpt>
      <trkpt lat="42.20544" lon="-0.90197">
        <ele>565.63</ele>
        <time>2021-08-03T16:02:01Z</time>
      </trkpt>
      <trkpt lat="42.20546" lon="-0.90252">
        <ele>564.74</ele>
        <time>2021-08-03T16:02:04Z</time>
      </trkpt>
      <trkpt lat="42.20507" lon="-0.90343">
        <ele>564.54</ele>
        <time>2021-08-03T16:02:10Z</time>
      </trkpt>
      <trkpt lat="42.20469" lon="-0.90453">
        <ele>566.63</ele>
        <time>2021-08-03T16:02:17Z</time>
      </trkpt>
      <trkpt lat="42.20498" lon="-0.90535">
        <ele>567.48</ele>
        <time>2021-08-03T16:02:22Z</time>
      </trkpt>
      <trkpt lat="42.20506" lon="-0.90568">
        <ele>567.51</ele>
        <time>2021-08-03T16:02:24Z</time>
      </trkpt>
      <trkpt lat="42.20527" lon="-0.90654">
        <ele>564.76</ele>
        <time>2021-08-03T16:02:31Z</time>
      </trkpt>
      <trkpt lat="42.20506" lon="-0.90663">
        <ele>563.68</ele>
        <time>2021-08-03T16:02:33Z</time>
      </trkpt>
      <trkpt lat="42.20485" lon="-0.90674">
        <ele>562.78</ele>
        <time>2021-08-03T16:02:35Z</time>
      </trkpt>
      <trkpt lat="42.20442" lon="-0.9075">
        <ele>561.81</ele>
        <time>2021-08-03T16:02:41Z</time>
      </trkpt>
      <trkpt lat="42.2044" lon="-0.90789">
        <ele>561.89</ele>
        <time>2021-08-03T16:02:43Z</time>
      </trkpt>
      <trkpt lat="42.20422" lon="-0.90872">
        <ele>562.44</ele>
        <time>2021-08-03T16:02:48Z</time>
      </trkpt>
      <trkpt lat="42.20396" lon="-0.90921">
        <ele>563.29</ele>
        <time>2021-08-03T16:02:51Z</time>
      </trkpt>
      <trkpt lat="42.2034" lon="-0.90998">
        <ele>562.77</ele>
        <time>2021-08-03T16:02:58Z</time>
      </trkpt>
      <trkpt lat="42.20275" lon="-0.90996">
        <ele>561.58</ele>
        <time>2021-08-03T16:03:02Z</time>
      </trkpt>
      <trkpt lat="42.20219" lon="-0.90989">
        <ele>560.21</ele>
        <time>2021-08-03T16:03:05Z</time>
      </trkpt>
      <trkpt lat="42.20144" lon="-0.90994">
        <ele>558.24</ele>
        <time>2021-08-03T16:03:09Z</time>
      </trkpt>
      <trkpt lat="42.20086" lon="-0.90983">
        <ele>555.75</ele>
        <time>2021-08-03T16:03:12Z</time>
      </trkpt>
      <trkpt lat="42.20032" lon="-0.90998">
        <ele>551.27</ele>
        <time>2021-08-03T16:03:16Z</time>
      </trkpt>
      <trkpt lat="42.20026" lon="-0.91009">
        <ele>549.92</ele>
        <time>2021-08-03T16:03:17Z</time>
      </trkpt>
      <trkpt lat="42.19998" lon="-0.91001">
        <ele>543.55</ele>
        <time>2021-08-03T16:03:23Z</time>
      </trkpt>
      <trkpt lat="42.1999" lon="-0.91006">
        <ele>540.49</ele>
        <time>2021-08-03T16:03:28Z</time>
      </trkpt>
      <trkpt lat="42.19996" lon="-0.90996">
        <ele>539.05</ele>
        <time>2021-08-03T16:03:33Z</time>
      </trkpt>
      <trkpt lat="42.2" lon="-0.91008">
        <ele>538.54</ele>
        <time>2021-08-03T16:03:38Z</time>
      </trkpt>
      <trkpt lat="42.19993" lon="-0.90997">
        <ele>538.31</ele>
        <time>2021-08-03T16:03:43Z</time>
      </trkpt>
      <trkpt lat="42.19992" lon="-0.90997">
        <ele>538.41</ele>
        <time>2021-08-03T16:03:58Z</time>
      </trkpt>
      <trkpt lat="42.19992" lon="-0.90997">
        <ele>538.73</ele>
        <time>2021-08-03T16:04:19Z</time>
      </trkpt>
      <trkpt lat="42.19966" lon="-0.9099">
        <ele>539.28</ele>
        <time>2021-08-03T16:13:10Z</time>
      </trkpt>
      <trkpt lat="42.19985" lon="-0.90993">
        <ele>539.28</ele>
        <time>2021-08-03T16:13:51Z</time>
      </trkpt>
      <trkpt lat="42.19982" lon="-0.90993">
        <ele>539.28</ele>
        <time>2021-08-03T16:16:26Z</time>
      </trkpt>
      <trkpt lat="42.19982" lon="-0.90993">
        <ele>539.28</ele>
        <time>2021-08-03T16:18:18Z</time>
      </trkpt>
      <trkpt lat="42.19981" lon="-0.90992">
        <ele>539.28</ele>
        <time>2021-08-03T16:21:59Z</time>
      </trkpt>
      <trkpt lat="42.19982" lon="-0.90992">
        <ele>539.28</ele>
        <time>2021-08-03T16:26:35Z</time>
      </trkpt>
      <trkpt lat="42.19982" lon="-0.90992">
        <ele>539.28</ele>
        <time>2021-08-03T16:30:08Z</time>
      </trkpt>
      <trkpt lat="42.19982" lon="-0.90991">
        <ele>539.28</ele>
        <time>2021-08-03T16:34:13Z</time>
      </trkpt>
      <trkpt lat="42.19985" lon="-0.90991">
        <ele>539.28</ele>
        <time>2021-08-03T16:35:31Z</time>
      </trkpt>
      <trkpt lat="42.19988" lon="-0.9099">
        <ele>539.35</ele>
        <time>2021-08-03T16:35:37Z</time>
      </trkpt>
      <trkpt lat="42.20009" lon="-0.9101">
        <ele>539.45</ele>
        <time>2021-08-03T16:35:46Z</time>
      </trkpt>
      <trkpt lat="42.20009" lon="-0.91013">
        <ele>539.68</ele>
        <time>2021-08-03T16:35:58Z</time>
      </trkpt>
      <trkpt lat="42.2002" lon="-0.91035">
        <ele>539.9</ele>
        <time>2021-08-03T16:36:10Z</time>
      </trkpt>
      <trkpt lat="42.20023" lon="-0.91052">
        <ele>540.03</ele>
        <time>2021-08-03T16:36:20Z</time>
      </trkpt>
      <trkpt lat="42.20024" lon="-0.91052">
        <ele>539.87</ele>
        <time>2021-08-03T16:36:41Z</time>
      </trkpt>
      <trkpt lat="42.2003" lon="-0.91091">
        <ele>539.85</ele>
        <time>2021-08-03T16:36:47Z</time>
      </trkpt>
      <trkpt lat="42.20035" lon="-0.91103">
        <ele>539.87</ele>
        <time>2021-08-03T16:36:48Z</time>
      </trkpt>
      <trkpt lat="42.2004" lon="-0.91185">
        <ele>541.38</ele>
        <time>2021-08-03T16:36:55Z</time>
      </trkpt>
      <trkpt lat="42.20026" lon="-0.91197">
        <ele>542.76</ele>
        <time>2021-08-03T16:36:58Z</time>
      </trkpt>
      <trkpt lat="42.19931" lon="-0.91247">
        <ele>545.59</ele>
        <time>2021-08-03T16:37:06Z</time>
      </trkpt>
      <trkpt lat="42.19906" lon="-0.91267">
        <ele>546.14</ele>
        <time>2021-08-03T16:37:08Z</time>
      </trkpt>
      <trkpt lat="42.19853" lon="-0.91333">
        <ele>546.73</ele>
        <time>2021-08-03T16:37:13Z</time>
      </trkpt>
      <trkpt lat="42.19807" lon="-0.91376">
        <ele>546.41</ele>
        <time>2021-08-03T16:37:17Z</time>
      </trkpt>
      <trkpt lat="42.19784" lon="-0.91421">
        <ele>545.76</ele>
        <time>2021-08-03T16:37:21Z</time>
      </trkpt>
      <trkpt lat="42.19754" lon="-0.91462">
        <ele>545.02</ele>
        <time>2021-08-03T16:37:25Z</time>
      </trkpt>
      <trkpt lat="42.19657" lon="-0.91556">
        <ele>541.43</ele>
        <time>2021-08-03T16:37:36Z</time>
      </trkpt>
      <trkpt lat="42.19571" lon="-0.91651">
        <ele>540.16</ele>
        <time>2021-08-03T16:37:46Z</time>
      </trkpt>
      <trkpt lat="42.19559" lon="-0.91661">
        <ele>540.62</ele>
        <time>2021-08-03T16:37:51Z</time>
      </trkpt>
      <trkpt lat="42.1956" lon="-0.9166">
        <ele>540.89</ele>
        <time>2021-08-03T16:38:02Z</time>
      </trkpt>
      <trkpt lat="42.19576" lon="-0.91647">
        <ele>540.54</ele>
        <time>2021-08-03T16:38:14Z</time>
      </trkpt>
      <trkpt lat="42.19578" lon="-0.91646">
        <ele>540.35</ele>
        <time>2021-08-03T16:38:20Z</time>
      </trkpt>
      <trkpt lat="42.19556" lon="-0.91666">
        <ele>540.62</ele>
        <time>2021-08-03T16:38:32Z</time>
      </trkpt>
      <trkpt lat="42.19538" lon="-0.91679">
        <ele>541.07</ele>
        <time>2021-08-03T16:38:49Z</time>
      </trkpt>
      <trkpt lat="42.19497" lon="-0.91691">
        <ele>541.29</ele>
        <time>2021-08-03T16:38:58Z</time>
      </trkpt>
      <trkpt lat="42.19462" lon="-0.91695">
        <ele>541.65</ele>
        <time>2021-08-03T16:39:01Z</time>
      </trkpt>
      <trkpt lat="42.19328" lon="-0.91662">
        <ele>542.61</ele>
        <time>2021-08-03T16:39:09Z</time>
      </trkpt>
      <trkpt lat="42.1931" lon="-0.91656">
        <ele>542.61</ele>
        <time>2021-08-03T16:39:10Z</time>
      </trkpt>
      <trkpt lat="42.19239" lon="-0.91635">
        <ele>541.41</ele>
        <time>2021-08-03T16:39:14Z</time>
      </trkpt>
      <trkpt lat="42.19195" lon="-0.91607">
        <ele>539.78</ele>
        <time>2021-08-03T16:39:17Z</time>
      </trkpt>
      <trkpt lat="42.19121" lon="-0.91585">
        <ele>537.04</ele>
        <time>2021-08-03T16:39:22Z</time>
      </trkpt>
      <trkpt lat="42.19037" lon="-0.91613">
        <ele>535.01</ele>
        <time>2021-08-03T16:39:28Z</time>
      </trkpt>
      <trkpt lat="42.19008" lon="-0.91634">
        <ele>534.74</ele>
        <time>2021-08-03T16:39:30Z</time>
      </trkpt>
      <trkpt lat="42.18981" lon="-0.9166">
        <ele>534.54</ele>
        <time>2021-08-03T16:39:32Z</time>
      </trkpt>
      <trkpt lat="42.18937" lon="-0.91689">
        <ele>534.31</ele>
        <time>2021-08-03T16:39:35Z</time>
      </trkpt>
      <trkpt lat="42.18879" lon="-0.91792">
        <ele>532.96</ele>
        <time>2021-08-03T16:39:41Z</time>
      </trkpt>
      <trkpt lat="42.18839" lon="-0.91914">
        <ele>532.09</ele>
        <time>2021-08-03T16:39:46Z</time>
      </trkpt>
      <trkpt lat="42.18812" lon="-0.92021">
        <ele>531.83</ele>
        <time>2021-08-03T16:39:50Z</time>
      </trkpt>
      <trkpt lat="42.18781" lon="-0.92082">
        <ele>531.42</ele>
        <time>2021-08-03T16:39:53Z</time>
      </trkpt>
      <trkpt lat="42.18725" lon="-0.92101">
        <ele>530.32</ele>
        <time>2021-08-03T16:39:57Z</time>
      </trkpt>
      <trkpt lat="42.18692" lon="-0.9209">
        <ele>530.2</ele>
        <time>2021-08-03T16:39:59Z</time>
      </trkpt>
      <trkpt lat="42.18642" lon="-0.92088">
        <ele>531.12</ele>
        <time>2021-08-03T16:40:03Z</time>
      </trkpt>
      <trkpt lat="42.1858" lon="-0.92083">
        <ele>532.35</ele>
        <time>2021-08-03T16:40:07Z</time>
      </trkpt>
      <trkpt lat="42.18469" lon="-0.92117">
        <ele>534.54</ele>
        <time>2021-08-03T16:40:14Z</time>
      </trkpt>
      <trkpt lat="42.18439" lon="-0.92139">
        <ele>535.24</ele>
        <time>2021-08-03T16:40:16Z</time>
      </trkpt>
      <trkpt lat="42.18394" lon="-0.92202">
        <ele>536.13</ele>
        <time>2021-08-03T16:40:20Z</time>
      </trkpt>
      <trkpt lat="42.18343" lon="-0.92295">
        <ele>535.37</ele>
        <time>2021-08-03T16:40:27Z</time>
      </trkpt>
      <trkpt lat="42.18324" lon="-0.92346">
        <ele>533.67</ele>
        <time>2021-08-03T16:40:31Z</time>
      </trkpt>
      <trkpt lat="42.18296" lon="-0.92394">
        <ele>532.55</ele>
        <time>2021-08-03T16:40:35Z</time>
      </trkpt>
      <trkpt lat="42.18223" lon="-0.92549">
        <ele>531.4</ele>
        <time>2021-08-03T16:40:46Z</time>
      </trkpt>
      <trkpt lat="42.18186" lon="-0.92628">
        <ele>531.24</ele>
        <time>2021-08-03T16:40:51Z</time>
      </trkpt>
      <trkpt lat="42.18151" lon="-0.92674">
        <ele>531.07</ele>
        <time>2021-08-03T16:40:55Z</time>
      </trkpt>
      <trkpt lat="42.1813" lon="-0.92688">
        <ele>531</ele>
        <time>2021-08-03T16:40:57Z</time>
      </trkpt>
      <trkpt lat="42.18046" lon="-0.92795">
        <ele>530.2</ele>
        <time>2021-08-03T16:41:07Z</time>
      </trkpt>
      <trkpt lat="42.17993" lon="-0.92891">
        <ele>529.96</ele>
        <time>2021-08-03T16:41:15Z</time>
      </trkpt>
      <trkpt lat="42.17932" lon="-0.93037">
        <ele>529.42</ele>
        <time>2021-08-03T16:41:27Z</time>
      </trkpt>
      <trkpt lat="42.17898" lon="-0.93089">
        <ele>529.51</ele>
        <time>2021-08-03T16:41:31Z</time>
      </trkpt>
      <trkpt lat="42.17849" lon="-0.93147">
        <ele>529.75</ele>
        <time>2021-08-03T16:41:36Z</time>
      </trkpt>
      <trkpt lat="42.17826" lon="-0.93199">
        <ele>529.8</ele>
        <time>2021-08-03T16:41:40Z</time>
      </trkpt>
      <trkpt lat="42.17819" lon="-0.93225">
        <ele>529.8</ele>
        <time>2021-08-03T16:41:42Z</time>
      </trkpt>
      <trkpt lat="42.17795" lon="-0.93258">
        <ele>529.86</ele>
        <time>2021-08-03T16:41:46Z</time>
      </trkpt>
      <trkpt lat="42.17743" lon="-0.93298">
        <ele>530.54</ele>
        <time>2021-08-03T16:41:55Z</time>
      </trkpt>
      <trkpt lat="42.17667" lon="-0.93348">
        <ele>530.11</ele>
        <time>2021-08-03T16:42:02Z</time>
      </trkpt>
      <trkpt lat="42.17612" lon="-0.93402">
        <ele>528.28</ele>
        <time>2021-08-03T16:42:08Z</time>
      </trkpt>
      <trkpt lat="42.17578" lon="-0.93416">
        <ele>527.08</ele>
        <time>2021-08-03T16:42:12Z</time>
      </trkpt>
      <trkpt lat="42.17563" lon="-0.93418">
        <ele>526.7</ele>
        <time>2021-08-03T16:42:14Z</time>
      </trkpt>
      <trkpt lat="42.17532" lon="-0.93433">
        <ele>526.57</ele>
        <time>2021-08-03T16:42:18Z</time>
      </trkpt>
      <trkpt lat="42.17483" lon="-0.93451">
        <ele>527.88</ele>
        <time>2021-08-03T16:42:23Z</time>
      </trkpt>
      <trkpt lat="42.17452" lon="-0.93489">
        <ele>532.12</ele>
        <time>2021-08-03T16:42:28Z</time>
      </trkpt>
      <trkpt lat="42.17436" lon="-0.93513">
        <ele>534.73</ele>
        <time>2021-08-03T16:42:31Z</time>
      </trkpt>
      <trkpt lat="42.17415" lon="-0.93524">
        <ele>537.88</ele>
        <time>2021-08-03T16:42:35Z</time>
      </trkpt>
      <trkpt lat="42.17385" lon="-0.93527">
        <ele>542.06</ele>
        <time>2021-08-03T16:42:41Z</time>
      </trkpt>
      <trkpt lat="42.17352" lon="-0.93531">
        <ele>545.43</ele>
        <time>2021-08-03T16:42:46Z</time>
      </trkpt>
      <trkpt lat="42.17323" lon="-0.93529">
        <ele>548.62</ele>
        <time>2021-08-03T16:42:51Z</time>
      </trkpt>
      <trkpt lat="42.17308" lon="-0.93525">
        <ele>550.22</ele>
        <time>2021-08-03T16:42:54Z</time>
      </trkpt>
      <trkpt lat="42.17301" lon="-0.93547">
        <ele>552.39</ele>
        <time>2021-08-03T16:43:01Z</time>
      </trkpt>
      <trkpt lat="42.17309" lon="-0.9358">
        <ele>554.14</ele>
        <time>2021-08-03T16:43:20Z</time>
      </trkpt>
      <trkpt lat="42.17324" lon="-0.93657">
        <ele>555.39</ele>
        <time>2021-08-03T16:43:28Z</time>
      </trkpt>
      <trkpt lat="42.17341" lon="-0.93738">
        <ele>557.73</ele>
        <time>2021-08-03T16:43:37Z</time>
      </trkpt>
      <trkpt lat="42.17329" lon="-0.93763">
        <ele>559.67</ele>
        <time>2021-08-03T16:43:43Z</time>
      </trkpt>
      <trkpt lat="42.1726" lon="-0.93765">
        <ele>562.98</ele>
        <time>2021-08-03T16:43:52Z</time>
      </trkpt>
      <trkpt lat="42.17197" lon="-0.93755">
        <ele>566.26</ele>
        <time>2021-08-03T16:44:00Z</time>
      </trkpt>
      <trkpt lat="42.17188" lon="-0.93754">
        <ele>566.86</ele>
        <time>2021-08-03T16:44:02Z</time>
      </trkpt>
      <trkpt lat="42.17169" lon="-0.93781">
        <ele>569.36</ele>
        <time>2021-08-03T16:44:09Z</time>
      </trkpt>
      <trkpt lat="42.1717" lon="-0.93787">
        <ele>569.62</ele>
        <time>2021-08-03T16:44:10Z</time>
      </trkpt>
      <trkpt lat="42.17202" lon="-0.9382">
        <ele>571.73</ele>
        <time>2021-08-03T16:44:20Z</time>
      </trkpt>
      <trkpt lat="42.17224" lon="-0.93825">
        <ele>572.68</ele>
        <time>2021-08-03T16:44:24Z</time>
      </trkpt>
      <trkpt lat="42.17258" lon="-0.93871">
        <ele>574.94</ele>
        <time>2021-08-03T16:44:32Z</time>
      </trkpt>
      <trkpt lat="42.17248" lon="-0.93893">
        <ele>575.98</ele>
        <time>2021-08-03T16:44:35Z</time>
      </trkpt>
      <trkpt lat="42.17244" lon="-0.93957">
        <ele>578.35</ele>
        <time>2021-08-03T16:44:44Z</time>
      </trkpt>
      <trkpt lat="42.17291" lon="-0.93966">
        <ele>580.42</ele>
        <time>2021-08-03T16:44:51Z</time>
      </trkpt>
      <trkpt lat="42.17309" lon="-0.93951">
        <ele>581.2</ele>
        <time>2021-08-03T16:44:54Z</time>
      </trkpt>
      <trkpt lat="42.17342" lon="-0.93906">
        <ele>582.89</ele>
        <time>2021-08-03T16:45:00Z</time>
      </trkpt>
      <trkpt lat="42.17369" lon="-0.93884">
        <ele>584.39</ele>
        <time>2021-08-03T16:45:04Z</time>
      </trkpt>
      <trkpt lat="42.17402" lon="-0.93837">
        <ele>586.62</ele>
        <time>2021-08-03T16:45:11Z</time>
      </trkpt>
      <trkpt lat="42.17406" lon="-0.93819">
        <ele>587.07</ele>
        <time>2021-08-03T16:45:13Z</time>
      </trkpt>
      <trkpt lat="42.17411" lon="-0.93802">
        <ele>587.61</ele>
        <time>2021-08-03T16:45:15Z</time>
      </trkpt>
      <trkpt lat="42.17452" lon="-0.93776">
        <ele>590.05</ele>
        <time>2021-08-03T16:45:23Z</time>
      </trkpt>
      <trkpt lat="42.17487" lon="-0.93821">
        <ele>592.25</ele>
        <time>2021-08-03T16:45:30Z</time>
      </trkpt>
      <trkpt lat="42.1751" lon="-0.93865">
        <ele>594.53</ele>
        <time>2021-08-03T16:45:35Z</time>
      </trkpt>
      <trkpt lat="42.17572" lon="-0.93934">
        <ele>598.53</ele>
        <time>2021-08-03T16:45:44Z</time>
      </trkpt>
      <trkpt lat="42.17605" lon="-0.93974">
        <ele>601.66</ele>
        <time>2021-08-03T16:45:49Z</time>
      </trkpt>
      <trkpt lat="42.1761" lon="-0.93984">
        <ele>602.13</ele>
        <time>2021-08-03T16:45:50Z</time>
      </trkpt>
      <trkpt lat="42.17622" lon="-0.94041">
        <ele>604.72</ele>
        <time>2021-08-03T16:45:55Z</time>
      </trkpt>
      <trkpt lat="42.17628" lon="-0.94125">
        <ele>608.25</ele>
        <time>2021-08-03T16:46:03Z</time>
      </trkpt>
      <trkpt lat="42.17659" lon="-0.94162">
        <ele>610.32</ele>
        <time>2021-08-03T16:46:08Z</time>
      </trkpt>
      <trkpt lat="42.17708" lon="-0.94217">
        <ele>613.43</ele>
        <time>2021-08-03T16:46:15Z</time>
      </trkpt>
      <trkpt lat="42.17718" lon="-0.94238">
        <ele>614.33</ele>
        <time>2021-08-03T16:46:17Z</time>
      </trkpt>
      <trkpt lat="42.17729" lon="-0.94287">
        <ele>615.93</ele>
        <time>2021-08-03T16:46:21Z</time>
      </trkpt>
      <trkpt lat="42.17737" lon="-0.94339">
        <ele>618.03</ele>
        <time>2021-08-03T16:46:25Z</time>
      </trkpt>
      <trkpt lat="42.17739" lon="-0.94389">
        <ele>620.62</ele>
        <time>2021-08-03T16:46:30Z</time>
      </trkpt>
      <trkpt lat="42.17744" lon="-0.94417">
        <ele>621.9</ele>
        <time>2021-08-03T16:46:33Z</time>
      </trkpt>
      <trkpt lat="42.17739" lon="-0.94452">
        <ele>623.5</ele>
        <time>2021-08-03T16:46:37Z</time>
      </trkpt>
      <trkpt lat="42.17732" lon="-0.94473">
        <ele>624.2</ele>
        <time>2021-08-03T16:46:40Z</time>
      </trkpt>
      <trkpt lat="42.17711" lon="-0.94506">
        <ele>625.03</ele>
        <time>2021-08-03T16:46:46Z</time>
      </trkpt>
      <trkpt lat="42.1769" lon="-0.94528">
        <ele>625.63</ele>
        <time>2021-08-03T16:46:51Z</time>
      </trkpt>
      <trkpt lat="42.17684" lon="-0.9454">
        <ele>625.81</ele>
        <time>2021-08-03T16:46:53Z</time>
      </trkpt>
      <trkpt lat="42.17678" lon="-0.94575">
        <ele>625.98</ele>
        <time>2021-08-03T16:46:57Z</time>
      </trkpt>
      <trkpt lat="42.17679" lon="-0.94592">
        <ele>626.19</ele>
        <time>2021-08-03T16:46:59Z</time>
      </trkpt>
      <trkpt lat="42.17678" lon="-0.94614">
        <ele>626.27</ele>
        <time>2021-08-03T16:47:02Z</time>
      </trkpt>
      <trkpt lat="42.17693" lon="-0.94665">
        <ele>626.41</ele>
        <time>2021-08-03T16:47:08Z</time>
      </trkpt>
      <trkpt lat="42.17711" lon="-0.94691">
        <ele>626.61</ele>
        <time>2021-08-03T16:47:11Z</time>
      </trkpt>
      <trkpt lat="42.17749" lon="-0.94741">
        <ele>627.52</ele>
        <time>2021-08-03T16:47:18Z</time>
      </trkpt>
      <trkpt lat="42.17826" lon="-0.94778">
        <ele>629.68</ele>
        <time>2021-08-03T16:47:28Z</time>
      </trkpt>
      <trkpt lat="42.17857" lon="-0.94825">
        <ele>631.3</ele>
        <time>2021-08-03T16:47:33Z</time>
      </trkpt>
      <trkpt lat="42.17879" lon="-0.94904">
        <ele>634.41</ele>
        <time>2021-08-03T16:47:39Z</time>
      </trkpt>
      <trkpt lat="42.17874" lon="-0.94963">
        <ele>636.25</ele>
        <time>2021-08-03T16:47:44Z</time>
      </trkpt>
      <trkpt lat="42.17903" lon="-0.95063">
        <ele>639.66</ele>
        <time>2021-08-03T16:47:52Z</time>
      </trkpt>
      <trkpt lat="42.17919" lon="-0.95082">
        <ele>640.84</ele>
        <time>2021-08-03T16:47:54Z</time>
      </trkpt>
      <trkpt lat="42.17966" lon="-0.95151">
        <ele>644.41</ele>
        <time>2021-08-03T16:48:01Z</time>
      </trkpt>
      <trkpt lat="42.17971" lon="-0.95162">
        <ele>644.93</ele>
        <time>2021-08-03T16:48:02Z</time>
      </trkpt>
      <trkpt lat="42.17986" lon="-0.9521">
        <ele>646.56</ele>
        <time>2021-08-03T16:48:07Z</time>
      </trkpt>
      <trkpt lat="42.17978" lon="-0.95247">
        <ele>647.99</ele>
        <time>2021-08-03T16:48:12Z</time>
      </trkpt>
      <trkpt lat="42.17961" lon="-0.9528">
        <ele>649.15</ele>
        <time>2021-08-03T16:48:21Z</time>
      </trkpt>
      <trkpt lat="42.17923" lon="-0.95303">
        <ele>651.14</ele>
        <time>2021-08-03T16:48:29Z</time>
      </trkpt>
      <trkpt lat="42.17895" lon="-0.95339">
        <ele>653.16</ele>
        <time>2021-08-03T16:48:35Z</time>
      </trkpt>
      <trkpt lat="42.1786" lon="-0.9537">
        <ele>655.72</ele>
        <time>2021-08-03T16:48:43Z</time>
      </trkpt>
      <trkpt lat="42.1784" lon="-0.95378">
        <ele>656.75</ele>
        <time>2021-08-03T16:48:49Z</time>
      </trkpt>
      <trkpt lat="42.17825" lon="-0.95358">
        <ele>657.55</ele>
        <time>2021-08-03T16:48:52Z</time>
      </trkpt>
      <trkpt lat="42.17772" lon="-0.95338">
        <ele>659.8</ele>
        <time>2021-08-03T16:48:59Z</time>
      </trkpt>
      <trkpt lat="42.17698" lon="-0.95358">
        <ele>663.44</ele>
        <time>2021-08-03T16:49:07Z</time>
      </trkpt>
      <trkpt lat="42.17648" lon="-0.95367">
        <ele>665.97</ele>
        <time>2021-08-03T16:49:13Z</time>
      </trkpt>
      <trkpt lat="42.17633" lon="-0.95377">
        <ele>666.65</ele>
        <time>2021-08-03T16:49:15Z</time>
      </trkpt>
      <trkpt lat="42.17601" lon="-0.95375">
        <ele>668.51</ele>
        <time>2021-08-03T16:49:19Z</time>
      </trkpt>
      <trkpt lat="42.17552" lon="-0.95402">
        <ele>671.41</ele>
        <time>2021-08-03T16:49:27Z</time>
      </trkpt>
      <trkpt lat="42.17562" lon="-0.95474">
        <ele>673.6</ele>
        <time>2021-08-03T16:49:34Z</time>
      </trkpt>
      <trkpt lat="42.17585" lon="-0.95489">
        <ele>674.58</ele>
        <time>2021-08-03T16:49:37Z</time>
      </trkpt>
      <trkpt lat="42.17644" lon="-0.95507">
        <ele>677.29</ele>
        <time>2021-08-03T16:49:44Z</time>
      </trkpt>
      <trkpt lat="42.17693" lon="-0.95511">
        <ele>680.16</ele>
        <time>2021-08-03T16:49:51Z</time>
      </trkpt>
      <trkpt lat="42.17724" lon="-0.95531">
        <ele>682.35</ele>
        <time>2021-08-03T16:49:57Z</time>
      </trkpt>
      <trkpt lat="42.17769" lon="-0.95539">
        <ele>684.54</ele>
        <time>2021-08-03T16:50:03Z</time>
      </trkpt>
      <trkpt lat="42.17776" lon="-0.95534">
        <ele>684.84</ele>
        <time>2021-08-03T16:50:04Z</time>
      </trkpt>
      <trkpt lat="42.17791" lon="-0.9552">
        <ele>685.55</ele>
        <time>2021-08-03T16:50:06Z</time>
      </trkpt>
      <trkpt lat="42.17832" lon="-0.9553">
        <ele>688.5</ele>
        <time>2021-08-03T16:50:12Z</time>
      </trkpt>
      <trkpt lat="42.17848" lon="-0.95551">
        <ele>689.68</ele>
        <time>2021-08-03T16:50:15Z</time>
      </trkpt>
      <trkpt lat="42.17879" lon="-0.9556">
        <ele>691.33</ele>
        <time>2021-08-03T16:50:19Z</time>
      </trkpt>
      <trkpt lat="42.17894" lon="-0.95561">
        <ele>692.13</ele>
        <time>2021-08-03T16:50:21Z</time>
      </trkpt>
      <trkpt lat="42.17933" lon="-0.95582">
        <ele>694.22</ele>
        <time>2021-08-03T16:50:26Z</time>
      </trkpt>
      <trkpt lat="42.17964" lon="-0.95587">
        <ele>695.84</ele>
        <time>2021-08-03T16:50:30Z</time>
      </trkpt>
      <trkpt lat="42.17996" lon="-0.95584">
        <ele>697.51</ele>
        <time>2021-08-03T16:50:34Z</time>
      </trkpt>
      <trkpt lat="42.18019" lon="-0.95563">
        <ele>699.41</ele>
        <time>2021-08-03T16:50:38Z</time>
      </trkpt>
      <trkpt lat="42.18058" lon="-0.95507">
        <ele>703.45</ele>
        <time>2021-08-03T16:50:45Z</time>
      </trkpt>
      <trkpt lat="42.18064" lon="-0.95472">
        <ele>705.06</ele>
        <time>2021-08-03T16:50:48Z</time>
      </trkpt>
      <trkpt lat="42.18069" lon="-0.95434">
        <ele>706.13</ele>
        <time>2021-08-03T16:50:51Z</time>
      </trkpt>
      <trkpt lat="42.18084" lon="-0.9541">
        <ele>707.02</ele>
        <time>2021-08-03T16:50:54Z</time>
      </trkpt>
      <trkpt lat="42.18097" lon="-0.9536">
        <ele>707.55</ele>
        <time>2021-08-03T16:51:00Z</time>
      </trkpt>
      <trkpt lat="42.18106" lon="-0.9533">
        <ele>707.86</ele>
        <time>2021-08-03T16:51:03Z</time>
      </trkpt>
      <trkpt lat="42.18114" lon="-0.9531">
        <ele>708.36</ele>
        <time>2021-08-03T16:51:05Z</time>
      </trkpt>
      <trkpt lat="42.18153" lon="-0.95239">
        <ele>710.18</ele>
        <time>2021-08-03T16:51:13Z</time>
      </trkpt>
      <trkpt lat="42.18191" lon="-0.9525">
        <ele>711.1</ele>
        <time>2021-08-03T16:51:18Z</time>
      </trkpt>
      <trkpt lat="42.18217" lon="-0.95255">
        <ele>711.58</ele>
        <time>2021-08-03T16:51:22Z</time>
      </trkpt>
      <trkpt lat="42.18233" lon="-0.9525">
        <ele>711.96</ele>
        <time>2021-08-03T16:51:25Z</time>
      </trkpt>
      <trkpt lat="42.18281" lon="-0.9527">
        <ele>712.91</ele>
        <time>2021-08-03T16:51:33Z</time>
      </trkpt>
      <trkpt lat="42.18304" lon="-0.95279">
        <ele>713.28</ele>
        <time>2021-08-03T16:51:36Z</time>
      </trkpt>
      <trkpt lat="42.18343" lon="-0.95282">
        <ele>713.98</ele>
        <time>2021-08-03T16:51:41Z</time>
      </trkpt>
      <trkpt lat="42.18394" lon="-0.95274">
        <ele>714.93</ele>
        <time>2021-08-03T16:51:47Z</time>
      </trkpt>
      <trkpt lat="42.18425" lon="-0.95294">
        <ele>715.55</ele>
        <time>2021-08-03T16:51:51Z</time>
      </trkpt>
      <trkpt lat="42.18479" lon="-0.95343">
        <ele>716.97</ele>
        <time>2021-08-03T16:51:58Z</time>
      </trkpt>
      <trkpt lat="42.1856" lon="-0.95397">
        <ele>719.05</ele>
        <time>2021-08-03T16:52:08Z</time>
      </trkpt>
      <trkpt lat="42.18643" lon="-0.95425">
        <ele>721.12</ele>
        <time>2021-08-03T16:52:18Z</time>
      </trkpt>
      <trkpt lat="42.18666" lon="-0.95446">
        <ele>721.44</ele>
        <time>2021-08-03T16:52:21Z</time>
      </trkpt>
      <trkpt lat="42.18762" lon="-0.95492">
        <ele>718.85</ele>
        <time>2021-08-03T16:52:32Z</time>
      </trkpt>
      <trkpt lat="42.18839" lon="-0.95562">
        <ele>717.05</ele>
        <time>2021-08-03T16:52:42Z</time>
      </trkpt>
      <trkpt lat="42.18923" lon="-0.95622">
        <ele>718.97</ele>
        <time>2021-08-03T16:52:53Z</time>
      </trkpt>
      <trkpt lat="42.18966" lon="-0.9563">
        <ele>720.71</ele>
        <time>2021-08-03T16:52:58Z</time>
      </trkpt>
      <trkpt lat="42.19003" lon="-0.95664">
        <ele>722.81</ele>
        <time>2021-08-03T16:53:03Z</time>
      </trkpt>
      <trkpt lat="42.19015" lon="-0.95683">
        <ele>723.65</ele>
        <time>2021-08-03T16:53:05Z</time>
      </trkpt>
      <trkpt lat="42.19074" lon="-0.95709">
        <ele>725.45</ele>
        <time>2021-08-03T16:53:12Z</time>
      </trkpt>
      <trkpt lat="42.19094" lon="-0.95703">
        <ele>725.73</ele>
        <time>2021-08-03T16:53:14Z</time>
      </trkpt>
      <trkpt lat="42.19126" lon="-0.95695">
        <ele>726.32</ele>
        <time>2021-08-03T16:53:17Z</time>
      </trkpt>
      <trkpt lat="42.19157" lon="-0.95683">
        <ele>727.08</ele>
        <time>2021-08-03T16:53:20Z</time>
      </trkpt>
      <trkpt lat="42.19216" lon="-0.9568">
        <ele>729.54</ele>
        <time>2021-08-03T16:53:26Z</time>
      </trkpt>
      <trkpt lat="42.19286" lon="-0.95718">
        <ele>729.48</ele>
        <time>2021-08-03T16:53:34Z</time>
      </trkpt>
      <trkpt lat="42.19314" lon="-0.95774">
        <ele>728.08</ele>
        <time>2021-08-03T16:53:39Z</time>
      </trkpt>
      <trkpt lat="42.19341" lon="-0.95828">
        <ele>725.99</ele>
        <time>2021-08-03T16:53:44Z</time>
      </trkpt>
      <trkpt lat="42.19367" lon="-0.95868">
        <ele>723.24</ele>
        <time>2021-08-03T16:53:49Z</time>
      </trkpt>
      <trkpt lat="42.1941" lon="-0.95918">
        <ele>720.09</ele>
        <time>2021-08-03T16:53:55Z</time>
      </trkpt>
      <trkpt lat="42.19457" lon="-0.95948">
        <ele>717.69</ele>
        <time>2021-08-03T16:54:01Z</time>
      </trkpt>
      <trkpt lat="42.19479" lon="-0.95973">
        <ele>716.78</ele>
        <time>2021-08-03T16:54:05Z</time>
      </trkpt>
      <trkpt lat="42.19499" lon="-0.95987">
        <ele>716.32</ele>
        <time>2021-08-03T16:54:09Z</time>
      </trkpt>
      <trkpt lat="42.19511" lon="-0.95989">
        <ele>715.99</ele>
        <time>2021-08-03T16:54:11Z</time>
      </trkpt>
      <trkpt lat="42.19571" lon="-0.96006">
        <ele>713.28</ele>
        <time>2021-08-03T16:54:21Z</time>
      </trkpt>
      <trkpt lat="42.19596" lon="-0.9602">
        <ele>711.89</ele>
        <time>2021-08-03T16:54:25Z</time>
      </trkpt>
      <trkpt lat="42.19669" lon="-0.96058">
        <ele>708.07</ele>
        <time>2021-08-03T16:54:35Z</time>
      </trkpt>
      <trkpt lat="42.19677" lon="-0.96062">
        <ele>707.59</ele>
        <time>2021-08-03T16:54:36Z</time>
      </trkpt>
      <trkpt lat="42.19706" lon="-0.96089">
        <ele>705.96</ele>
        <time>2021-08-03T16:54:40Z</time>
      </trkpt>
      <trkpt lat="42.19759" lon="-0.96156">
        <ele>702.12</ele>
        <time>2021-08-03T16:54:48Z</time>
      </trkpt>
      <trkpt lat="42.19784" lon="-0.96172">
        <ele>700.78</ele>
        <time>2021-08-03T16:54:51Z</time>
      </trkpt>
      <trkpt lat="42.19806" lon="-0.96225">
        <ele>697.59</ele>
        <time>2021-08-03T16:54:57Z</time>
      </trkpt>
      <trkpt lat="42.19834" lon="-0.9624">
        <ele>695.86</ele>
        <time>2021-08-03T16:55:01Z</time>
      </trkpt>
      <trkpt lat="42.19888" lon="-0.96289">
        <ele>693.31</ele>
        <time>2021-08-03T16:55:08Z</time>
      </trkpt>
      <trkpt lat="42.19898" lon="-0.96323">
        <ele>691.96</ele>
        <time>2021-08-03T16:55:11Z</time>
      </trkpt>
      <trkpt lat="42.19904" lon="-0.96387">
        <ele>689.92</ele>
        <time>2021-08-03T16:55:16Z</time>
      </trkpt>
      <trkpt lat="42.19927" lon="-0.96413">
        <ele>687.57</ele>
        <time>2021-08-03T16:55:21Z</time>
      </trkpt>
      <trkpt lat="42.19935" lon="-0.9641">
        <ele>687.07</ele>
        <time>2021-08-03T16:55:22Z</time>
      </trkpt>
      <trkpt lat="42.19952" lon="-0.96403">
        <ele>686.2</ele>
        <time>2021-08-03T16:55:24Z</time>
      </trkpt>
      <trkpt lat="42.20009" lon="-0.96393">
        <ele>683.63</ele>
        <time>2021-08-03T16:55:30Z</time>
      </trkpt>
      <trkpt lat="42.20027" lon="-0.96387">
        <ele>682.79</ele>
        <time>2021-08-03T16:55:32Z</time>
      </trkpt>
      <trkpt lat="42.20103" lon="-0.96418">
        <ele>679.05</ele>
        <time>2021-08-03T16:55:40Z</time>
      </trkpt>
      <trkpt lat="42.20111" lon="-0.96422">
        <ele>678.2</ele>
        <time>2021-08-03T16:55:41Z</time>
      </trkpt>
      <trkpt lat="42.20165" lon="-0.96413">
        <ele>675.29</ele>
        <time>2021-08-03T16:55:47Z</time>
      </trkpt>
      <trkpt lat="42.2022" lon="-0.96401">
        <ele>672.46</ele>
        <time>2021-08-03T16:55:53Z</time>
      </trkpt>
      <trkpt lat="42.20248" lon="-0.96411">
        <ele>671.55</ele>
        <time>2021-08-03T16:55:56Z</time>
      </trkpt>
      <trkpt lat="42.20277" lon="-0.96434">
        <ele>669.38</ele>
        <time>2021-08-03T16:56:00Z</time>
      </trkpt>
      <trkpt lat="42.20299" lon="-0.96462">
        <ele>667.21</ele>
        <time>2021-08-03T16:56:04Z</time>
      </trkpt>
      <trkpt lat="42.20309" lon="-0.9648">
        <ele>663.99</ele>
        <time>2021-08-03T16:56:11Z</time>
      </trkpt>
      <trkpt lat="42.20312" lon="-0.96487">
        <ele>662.66</ele>
        <time>2021-08-03T16:56:18Z</time>
      </trkpt>
      <trkpt lat="42.20357" lon="-0.96491">
        <ele>661.95</ele>
        <time>2021-08-03T16:56:24Z</time>
      </trkpt>
      <trkpt lat="42.20406" lon="-0.96482">
        <ele>660.92</ele>
        <time>2021-08-03T16:56:29Z</time>
      </trkpt>
      <trkpt lat="42.20451" lon="-0.96517">
        <ele>659.41</ele>
        <time>2021-08-03T16:56:35Z</time>
      </trkpt>
      <trkpt lat="42.2044" lon="-0.96555">
        <ele>658.93</ele>
        <time>2021-08-03T16:56:38Z</time>
      </trkpt>
      <trkpt lat="42.20424" lon="-0.96616">
        <ele>658.98</ele>
        <time>2021-08-03T16:56:43Z</time>
      </trkpt>
      <trkpt lat="42.20445" lon="-0.96679">
        <ele>659.12</ele>
        <time>2021-08-03T16:56:50Z</time>
      </trkpt>
      <trkpt lat="42.20477" lon="-0.9668">
        <ele>658.02</ele>
        <time>2021-08-03T16:56:55Z</time>
      </trkpt>
      <trkpt lat="42.20525" lon="-0.96647">
        <ele>655.39</ele>
        <time>2021-08-03T16:57:07Z</time>
      </trkpt>
      <trkpt lat="42.20527" lon="-0.96645">
        <ele>654.29</ele>
        <time>2021-08-03T16:57:24Z</time>
      </trkpt>
      <trkpt lat="42.20536" lon="-0.96624">
        <ele>654.41</ele>
        <time>2021-08-03T16:57:51Z</time>
      </trkpt>
      <trkpt lat="42.20541" lon="-0.96596">
        <ele>654.61</ele>
        <time>2021-08-03T16:57:59Z</time>
      </trkpt>
      <trkpt lat="42.20541" lon="-0.96595">
        <ele>654.6</ele>
        <time>2021-08-03T16:58:06Z</time>
      </trkpt>
      <trkpt lat="42.20564" lon="-0.96603">
        <ele>654.81</ele>
        <time>2021-08-03T16:58:11Z</time>
      </trkpt>
      <trkpt lat="42.20602" lon="-0.96624">
        <ele>655.28</ele>
        <time>2021-08-03T16:58:15Z</time>
      </trkpt>
      <trkpt lat="42.20649" lon="-0.96625">
        <ele>655.64</ele>
        <time>2021-08-03T16:58:19Z</time>
      </trkpt>
      <trkpt lat="42.20679" lon="-0.96656">
        <ele>655.81</ele>
        <time>2021-08-03T16:58:23Z</time>
      </trkpt>
      <trkpt lat="42.20697" lon="-0.96747">
        <ele>655.14</ele>
        <time>2021-08-03T16:58:29Z</time>
      </trkpt>
      <trkpt lat="42.20731" lon="-0.96781">
        <ele>653.53</ele>
        <time>2021-08-03T16:58:34Z</time>
      </trkpt>
      <trkpt lat="42.20768" lon="-0.96769">
        <ele>652.22</ele>
        <time>2021-08-03T16:58:38Z</time>
      </trkpt>
      <trkpt lat="42.20792" lon="-0.96768">
        <ele>651.99</ele>
        <time>2021-08-03T16:58:40Z</time>
      </trkpt>
      <trkpt lat="42.20837" lon="-0.96759">
        <ele>651.91</ele>
        <time>2021-08-03T16:58:43Z</time>
      </trkpt>
      <trkpt lat="42.20906" lon="-0.96795">
        <ele>652.63</ele>
        <time>2021-08-03T16:58:48Z</time>
      </trkpt>
      <trkpt lat="42.20929" lon="-0.96826">
        <ele>653.2</ele>
        <time>2021-08-03T16:58:50Z</time>
      </trkpt>
      <trkpt lat="42.20965" lon="-0.96876">
        <ele>654.08</ele>
        <time>2021-08-03T16:58:55Z</time>
      </trkpt>
      <trkpt lat="42.20979" lon="-0.96883">
        <ele>652.43</ele>
        <time>2021-08-03T16:59:03Z</time>
      </trkpt>
      <trkpt lat="42.21005" lon="-0.96876">
        <ele>651.15</ele>
        <time>2021-08-03T16:59:14Z</time>
      </trkpt>
      <trkpt lat="42.21012" lon="-0.96875">
        <ele>651.04</ele>
        <time>2021-08-03T16:59:15Z</time>
      </trkpt>
      <trkpt lat="42.21094" lon="-0.96836">
        <ele>650.5</ele>
        <time>2021-08-03T16:59:22Z</time>
      </trkpt>
      <trkpt lat="42.2115" lon="-0.9685">
        <ele>650.36</ele>
        <time>2021-08-03T16:59:27Z</time>
      </trkpt>
      <trkpt lat="42.21196" lon="-0.96897">
        <ele>650.45</ele>
        <time>2021-08-03T16:59:32Z</time>
      </trkpt>
      <trkpt lat="42.21218" lon="-0.96895">
        <ele>650.47</ele>
        <time>2021-08-03T16:59:34Z</time>
      </trkpt>
      <trkpt lat="42.21308" lon="-0.96896">
        <ele>650.47</ele>
        <time>2021-08-03T16:59:40Z</time>
      </trkpt>
      <trkpt lat="42.21376" lon="-0.96936">
        <ele>648.81</ele>
        <time>2021-08-03T16:59:46Z</time>
      </trkpt>
      <trkpt lat="42.21366" lon="-0.97">
        <ele>645.97</ele>
        <time>2021-08-03T16:59:51Z</time>
      </trkpt>
      <trkpt lat="42.21347" lon="-0.97015">
        <ele>644.62</ele>
        <time>2021-08-03T16:59:53Z</time>
      </trkpt>
      <trkpt lat="42.21305" lon="-0.97061">
        <ele>641.14</ele>
        <time>2021-08-03T16:59:58Z</time>
      </trkpt>
      <trkpt lat="42.21255" lon="-0.97146">
        <ele>637.22</ele>
        <time>2021-08-03T17:00:03Z</time>
      </trkpt>
      <trkpt lat="42.21234" lon="-0.97177">
        <ele>635.87</ele>
        <time>2021-08-03T17:00:05Z</time>
      </trkpt>
      <trkpt lat="42.21224" lon="-0.97259">
        <ele>631.11</ele>
        <time>2021-08-03T17:00:10Z</time>
      </trkpt>
      <trkpt lat="42.21201" lon="-0.97315">
        <ele>627.55</ele>
        <time>2021-08-03T17:00:14Z</time>
      </trkpt>
      <trkpt lat="42.21165" lon="-0.97317">
        <ele>624.39</ele>
        <time>2021-08-03T17:00:18Z</time>
      </trkpt>
      <trkpt lat="42.21157" lon="-0.9735">
        <ele>621.82</ele>
        <time>2021-08-03T17:00:21Z</time>
      </trkpt>
      <trkpt lat="42.21162" lon="-0.97444">
        <ele>618.41</ele>
        <time>2021-08-03T17:00:26Z</time>
      </trkpt>
      <trkpt lat="42.21134" lon="-0.97514">
        <ele>615.1</ele>
        <time>2021-08-03T17:00:31Z</time>
      </trkpt>
      <trkpt lat="42.21098" lon="-0.97596">
        <ele>611.49</ele>
        <time>2021-08-03T17:00:36Z</time>
      </trkpt>
      <trkpt lat="42.21106" lon="-0.97647">
        <ele>608.06</ele>
        <time>2021-08-03T17:00:39Z</time>
      </trkpt>
      <trkpt lat="42.21113" lon="-0.97674">
        <ele>606.22</ele>
        <time>2021-08-03T17:00:41Z</time>
      </trkpt>
      <trkpt lat="42.21095" lon="-0.97739">
        <ele>601.61</ele>
        <time>2021-08-03T17:00:46Z</time>
      </trkpt>
      <trkpt lat="42.21048" lon="-0.97832">
        <ele>596.17</ele>
        <time>2021-08-03T17:00:52Z</time>
      </trkpt>
      <trkpt lat="42.21041" lon="-0.97875">
        <ele>593</ele>
        <time>2021-08-03T17:00:55Z</time>
      </trkpt>
      <trkpt lat="42.2103" lon="-0.97905">
        <ele>591.13</ele>
        <time>2021-08-03T17:00:57Z</time>
      </trkpt>
      <trkpt lat="42.21002" lon="-0.97985">
        <ele>586.29</ele>
        <time>2021-08-03T17:01:02Z</time>
      </trkpt>
      <trkpt lat="42.2098" lon="-0.98029">
        <ele>583.52</ele>
        <time>2021-08-03T17:01:05Z</time>
      </trkpt>
      <trkpt lat="42.20954" lon="-0.98055">
        <ele>579.27</ele>
        <time>2021-08-03T17:01:09Z</time>
      </trkpt>
      <trkpt lat="42.20935" lon="-0.98081">
        <ele>576</ele>
        <time>2021-08-03T17:01:12Z</time>
      </trkpt>
      <trkpt lat="42.2093" lon="-0.98147">
        <ele>572.32</ele>
        <time>2021-08-03T17:01:16Z</time>
      </trkpt>
      <trkpt lat="42.20951" lon="-0.98199">
        <ele>570.47</ele>
        <time>2021-08-03T17:01:19Z</time>
      </trkpt>
      <trkpt lat="42.20966" lon="-0.98314">
        <ele>566.19</ele>
        <time>2021-08-03T17:01:26Z</time>
      </trkpt>
      <trkpt lat="42.2095" lon="-0.98372">
        <ele>564.08</ele>
        <time>2021-08-03T17:01:29Z</time>
      </trkpt>
      <trkpt lat="42.20961" lon="-0.9846">
        <ele>560.61</ele>
        <time>2021-08-03T17:01:34Z</time>
      </trkpt>
      <trkpt lat="42.20961" lon="-0.98478">
        <ele>556.01</ele>
        <time>2021-08-03T17:01:39Z</time>
      </trkpt>
      <trkpt lat="42.20959" lon="-0.98482">
        <ele>554.24</ele>
        <time>2021-08-03T17:01:41Z</time>
      </trkpt>
      <trkpt lat="42.20919" lon="-0.98505">
        <ele>551.56</ele>
        <time>2021-08-03T17:01:47Z</time>
      </trkpt>
      <trkpt lat="42.20914" lon="-0.9852">
        <ele>551.14</ele>
        <time>2021-08-03T17:01:48Z</time>
      </trkpt>
      <trkpt lat="42.20882" lon="-0.98609">
        <ele>549.4</ele>
        <time>2021-08-03T17:01:53Z</time>
      </trkpt>
      <trkpt lat="42.20864" lon="-0.98722">
        <ele>547.44</ele>
        <time>2021-08-03T17:01:58Z</time>
      </trkpt>
      <trkpt lat="42.20855" lon="-0.98804">
        <ele>544.79</ele>
        <time>2021-08-03T17:02:03Z</time>
      </trkpt>
      <trkpt lat="42.20877" lon="-0.98809">
        <ele>543.67</ele>
        <time>2021-08-03T17:02:06Z</time>
      </trkpt>
      <trkpt lat="42.20954" lon="-0.98809">
        <ele>542.84</ele>
        <time>2021-08-03T17:02:14Z</time>
      </trkpt>
      <trkpt lat="42.21018" lon="-0.98818">
        <ele>542.83</ele>
        <time>2021-08-03T17:02:18Z</time>
      </trkpt>
      <trkpt lat="42.21061" lon="-0.98812">
        <ele>542.87</ele>
        <time>2021-08-03T17:02:21Z</time>
      </trkpt>
      <trkpt lat="42.21082" lon="-0.98853">
        <ele>542.11</ele>
        <time>2021-08-03T17:02:27Z</time>
      </trkpt>
      <trkpt lat="42.2106" lon="-0.98866">
        <ele>541.54</ele>
        <time>2021-08-03T17:02:31Z</time>
      </trkpt>
      <trkpt lat="42.21057" lon="-0.98867">
        <ele>541.34</ele>
        <time>2021-08-03T17:02:43Z</time>
      </trkpt>
      <trkpt lat="42.21029" lon="-0.98877">
        <ele>541.59</ele>
        <time>2021-08-03T17:02:58Z</time>
      </trkpt>
      <trkpt lat="42.2099" lon="-0.98906">
        <ele>542.28</ele>
        <time>2021-08-03T17:03:02Z</time>
      </trkpt>
      <trkpt lat="42.20926" lon="-0.98931">
        <ele>545.08</ele>
        <time>2021-08-03T17:03:08Z</time>
      </trkpt>
      <trkpt lat="42.20899" lon="-0.98973">
        <ele>546.78</ele>
        <time>2021-08-03T17:03:12Z</time>
      </trkpt>
      <trkpt lat="42.20863" lon="-0.99009">
        <ele>549.65</ele>
        <time>2021-08-03T17:03:17Z</time>
      </trkpt>
      <trkpt lat="42.20825" lon="-0.99054">
        <ele>552.51</ele>
        <time>2021-08-03T17:03:23Z</time>
      </trkpt>
      <trkpt lat="42.20808" lon="-0.99121">
        <ele>555.58</ele>
        <time>2021-08-03T17:03:29Z</time>
      </trkpt>
      <trkpt lat="42.20768" lon="-0.9917">
        <ele>558.33</ele>
        <time>2021-08-03T17:03:35Z</time>
      </trkpt>
      <trkpt lat="42.20799" lon="-0.99205">
        <ele>559.3</ele>
        <time>2021-08-03T17:03:39Z</time>
      </trkpt>
      <trkpt lat="42.20811" lon="-0.99206">
        <ele>559.53</ele>
        <time>2021-08-03T17:03:40Z</time>
      </trkpt>
      <trkpt lat="42.20833" lon="-0.99206">
        <ele>560.11</ele>
        <time>2021-08-03T17:03:42Z</time>
      </trkpt>
      <trkpt lat="42.20844" lon="-0.99238">
        <ele>560.74</ele>
        <time>2021-08-03T17:03:47Z</time>
      </trkpt>
      <trkpt lat="42.2084" lon="-0.99282">
        <ele>560.06</ele>
        <time>2021-08-03T17:03:55Z</time>
      </trkpt>
      <trkpt lat="42.20844" lon="-0.99292">
        <ele>559.3</ele>
        <time>2021-08-03T17:04:02Z</time>
      </trkpt>
      <trkpt lat="42.20869" lon="-0.99312">
        <ele>559.14</ele>
        <time>2021-08-03T17:04:07Z</time>
      </trkpt>
      <trkpt lat="42.20909" lon="-0.99371">
        <ele>558.82</ele>
        <time>2021-08-03T17:04:14Z</time>
      </trkpt>
      <trkpt lat="42.20888" lon="-0.99403">
        <ele>558.59</ele>
        <time>2021-08-03T17:04:18Z</time>
      </trkpt>
      <trkpt lat="42.2086" lon="-0.99449">
        <ele>558.86</ele>
        <time>2021-08-03T17:04:23Z</time>
      </trkpt>
      <trkpt lat="42.20805" lon="-0.99511">
        <ele>560.94</ele>
        <time>2021-08-03T17:04:29Z</time>
      </trkpt>
      <trkpt lat="42.20793" lon="-0.99515">
        <ele>561.45</ele>
        <time>2021-08-03T17:04:30Z</time>
      </trkpt>
      <trkpt lat="42.20773" lon="-0.99561">
        <ele>564.21</ele>
        <time>2021-08-03T17:04:37Z</time>
      </trkpt>
      <trkpt lat="42.20817" lon="-0.99575">
        <ele>566.25</ele>
        <time>2021-08-03T17:04:42Z</time>
      </trkpt>
      <trkpt lat="42.20821" lon="-0.99572">
        <ele>566.15</ele>
        <time>2021-08-03T17:04:54Z</time>
      </trkpt>
      <trkpt lat="42.20826" lon="-0.9957">
        <ele>565.97</ele>
        <time>2021-08-03T17:04:57Z</time>
      </trkpt>
      <trkpt lat="42.20863" lon="-0.99601">
        <ele>566</ele>
        <time>2021-08-03T17:05:03Z</time>
      </trkpt>
      <trkpt lat="42.20876" lon="-0.99629">
        <ele>565.87</ele>
        <time>2021-08-03T17:05:05Z</time>
      </trkpt>
      <trkpt lat="42.2089" lon="-0.99658">
        <ele>565.45</ele>
        <time>2021-08-03T17:05:07Z</time>
      </trkpt>
      <trkpt lat="42.20924" lon="-0.99783">
        <ele>564.17</ele>
        <time>2021-08-03T17:05:15Z</time>
      </trkpt>
      <trkpt lat="42.2093" lon="-0.99799">
        <ele>561.11</ele>
        <time>2021-08-03T17:05:24Z</time>
      </trkpt>
      <trkpt lat="42.20953" lon="-0.99831">
        <ele>559.75</ele>
        <time>2021-08-03T17:05:37Z</time>
      </trkpt>
      <trkpt lat="42.20969" lon="-0.99853">
        <ele>559.6</ele>
        <time>2021-08-03T17:05:39Z</time>
      </trkpt>
      <trkpt lat="42.20987" lon="-0.99943">
        <ele>557.02</ele>
        <time>2021-08-03T17:05:46Z</time>
      </trkpt>
      <trkpt lat="42.21014" lon="-0.9998">
        <ele>553.81</ele>
        <time>2021-08-03T17:05:51Z</time>
      </trkpt>
      <trkpt lat="42.21025" lon="-0.99978">
        <ele>553.33</ele>
        <time>2021-08-03T17:05:52Z</time>
      </trkpt>
      <trkpt lat="42.211" lon="-0.99994">
        <ele>550.75</ele>
        <time>2021-08-03T17:05:59Z</time>
      </trkpt>
      <trkpt lat="42.21148" lon="-0.99997">
        <ele>549.48</ele>
        <time>2021-08-03T17:06:04Z</time>
      </trkpt>
      <trkpt lat="42.21163" lon="-1.0006">
        <ele>547.63</ele>
        <time>2021-08-03T17:06:09Z</time>
      </trkpt>
      <trkpt lat="42.21205" lon="-1.00168">
        <ele>545.16</ele>
        <time>2021-08-03T17:06:17Z</time>
      </trkpt>
      <trkpt lat="42.21219" lon="-1.00194">
        <ele>544.79</ele>
        <time>2021-08-03T17:06:19Z</time>
      </trkpt>
      <trkpt lat="42.2124" lon="-1.00238">
        <ele>544.4</ele>
        <time>2021-08-03T17:06:22Z</time>
      </trkpt>
      <trkpt lat="42.21287" lon="-1.00303">
        <ele>544.46</ele>
        <time>2021-08-03T17:06:27Z</time>
      </trkpt>
      <trkpt lat="42.21355" lon="-1.00356">
        <ele>545.43</ele>
        <time>2021-08-03T17:06:33Z</time>
      </trkpt>
      <trkpt lat="42.21353" lon="-1.00385">
        <ele>545.88</ele>
        <time>2021-08-03T17:06:38Z</time>
      </trkpt>
      <trkpt lat="42.21308" lon="-1.00373">
        <ele>545.89</ele>
        <time>2021-08-03T17:06:43Z</time>
      </trkpt>
      <trkpt lat="42.21281" lon="-1.00349">
        <ele>546.02</ele>
        <time>2021-08-03T17:06:46Z</time>
      </trkpt>
      <trkpt lat="42.21224" lon="-1.00329">
        <ele>547.6</ele>
        <time>2021-08-03T17:06:53Z</time>
      </trkpt>
      <trkpt lat="42.21157" lon="-1.00312">
        <ele>551.01</ele>
        <time>2021-08-03T17:07:01Z</time>
      </trkpt>
      <trkpt lat="42.21132" lon="-1.00346">
        <ele>553.09</ele>
        <time>2021-08-03T17:07:05Z</time>
      </trkpt>
      <trkpt lat="42.21118" lon="-1.00363">
        <ele>554.37</ele>
        <time>2021-08-03T17:07:07Z</time>
      </trkpt>
      <trkpt lat="42.21106" lon="-1.00369">
        <ele>557.59</ele>
        <time>2021-08-03T17:07:14Z</time>
      </trkpt>
      <trkpt lat="42.21077" lon="-1.00327">
        <ele>559.31</ele>
        <time>2021-08-03T17:07:21Z</time>
      </trkpt>
      <trkpt lat="42.21019" lon="-1.00294">
        <ele>561.95</ele>
        <time>2021-08-03T17:07:28Z</time>
      </trkpt>
      <trkpt lat="42.20995" lon="-1.00313">
        <ele>563.35</ele>
        <time>2021-08-03T17:07:31Z</time>
      </trkpt>
      <trkpt lat="42.20965" lon="-1.0038">
        <ele>567.28</ele>
        <time>2021-08-03T17:07:38Z</time>
      </trkpt>
      <trkpt lat="42.20945" lon="-1.00393">
        <ele>568.38</ele>
        <time>2021-08-03T17:07:40Z</time>
      </trkpt>
      <trkpt lat="42.20882" lon="-1.00402">
        <ele>570.97</ele>
        <time>2021-08-03T17:07:46Z</time>
      </trkpt>
      <trkpt lat="42.20833" lon="-1.00423">
        <ele>573.4</ele>
        <time>2021-08-03T17:07:51Z</time>
      </trkpt>
      <trkpt lat="42.20811" lon="-1.00457">
        <ele>577.22</ele>
        <time>2021-08-03T17:07:56Z</time>
      </trkpt>
      <trkpt lat="42.2081" lon="-1.00492">
        <ele>579.69</ele>
        <time>2021-08-03T17:08:00Z</time>
      </trkpt>
      <trkpt lat="42.20815" lon="-1.00531">
        <ele>580.8</ele>
        <time>2021-08-03T17:08:04Z</time>
      </trkpt>
      <trkpt lat="42.20811" lon="-1.0056">
        <ele>581.05</ele>
        <time>2021-08-03T17:08:07Z</time>
      </trkpt>
      <trkpt lat="42.20771" lon="-1.00604">
        <ele>581.41</ele>
        <time>2021-08-03T17:08:14Z</time>
      </trkpt>
      <trkpt lat="42.20756" lon="-1.00625">
        <ele>581.4</ele>
        <time>2021-08-03T17:08:16Z</time>
      </trkpt>
      <trkpt lat="42.2071" lon="-1.0063">
        <ele>580.91</ele>
        <time>2021-08-03T17:08:22Z</time>
      </trkpt>
      <trkpt lat="42.20691" lon="-1.00635">
        <ele>580.48</ele>
        <time>2021-08-03T17:08:24Z</time>
      </trkpt>
      <trkpt lat="42.20676" lon="-1.00642">
        <ele>579.95</ele>
        <time>2021-08-03T17:08:26Z</time>
      </trkpt>
      <trkpt lat="42.20655" lon="-1.00675">
        <ele>578.08</ele>
        <time>2021-08-03T17:08:31Z</time>
      </trkpt>
      <trkpt lat="42.20656" lon="-1.00706">
        <ele>577.04</ele>
        <time>2021-08-03T17:08:35Z</time>
      </trkpt>
      <trkpt lat="42.20663" lon="-1.00752">
        <ele>577.47</ele>
        <time>2021-08-03T17:08:40Z</time>
      </trkpt>
      <trkpt lat="42.20677" lon="-1.00787">
        <ele>579.65</ele>
        <time>2021-08-03T17:08:45Z</time>
      </trkpt>
      <trkpt lat="42.20697" lon="-1.00811">
        <ele>580.44</ele>
        <time>2021-08-03T17:08:49Z</time>
      </trkpt>
      <trkpt lat="42.20714" lon="-1.00844">
        <ele>581.19</ele>
        <time>2021-08-03T17:08:53Z</time>
      </trkpt>
      <trkpt lat="42.20719" lon="-1.00866">
        <ele>581.8</ele>
        <time>2021-08-03T17:08:55Z</time>
      </trkpt>
      <trkpt lat="42.20719" lon="-1.00895">
        <ele>582.18</ele>
        <time>2021-08-03T17:08:59Z</time>
      </trkpt>
      <trkpt lat="42.20723" lon="-1.00932">
        <ele>582.3</ele>
        <time>2021-08-03T17:09:07Z</time>
      </trkpt>
      <trkpt lat="42.20752" lon="-1.00961">
        <ele>581.01</ele>
        <time>2021-08-03T17:09:13Z</time>
      </trkpt>
      <trkpt lat="42.20791" lon="-1.00965">
        <ele>577.99</ele>
        <time>2021-08-03T17:09:23Z</time>
      </trkpt>
      <trkpt lat="42.20849" lon="-1.00965">
        <ele>576.55</ele>
        <time>2021-08-03T17:09:37Z</time>
      </trkpt>
      <trkpt lat="42.2091" lon="-1.00972">
        <ele>576.03</ele>
        <time>2021-08-03T17:09:45Z</time>
      </trkpt>
      <trkpt lat="42.20936" lon="-1.00964">
        <ele>575.68</ele>
        <time>2021-08-03T17:09:49Z</time>
      </trkpt>
      <trkpt lat="42.20971" lon="-1.00957">
        <ele>575.73</ele>
        <time>2021-08-03T17:09:53Z</time>
      </trkpt>
      <trkpt lat="42.21025" lon="-1.00988">
        <ele>576.75</ele>
        <time>2021-08-03T17:10:01Z</time>
      </trkpt>
      <trkpt lat="42.21053" lon="-1.01013">
        <ele>576.76</ele>
        <time>2021-08-03T17:10:05Z</time>
      </trkpt>
      <trkpt lat="42.21064" lon="-1.01053">
        <ele>576.78</ele>
        <time>2021-08-03T17:10:11Z</time>
      </trkpt>
      <trkpt lat="42.21053" lon="-1.01097">
        <ele>577.63</ele>
        <time>2021-08-03T17:10:15Z</time>
      </trkpt>
      <trkpt lat="42.21069" lon="-1.01191">
        <ele>580.91</ele>
        <time>2021-08-03T17:10:23Z</time>
      </trkpt>
      <trkpt lat="42.21094" lon="-1.01241">
        <ele>584.08</ele>
        <time>2021-08-03T17:10:30Z</time>
      </trkpt>
      <trkpt lat="42.21095" lon="-1.01285">
        <ele>587.76</ele>
        <time>2021-08-03T17:10:36Z</time>
      </trkpt>
      <trkpt lat="42.21081" lon="-1.0128">
        <ele>588.64</ele>
        <time>2021-08-03T17:10:38Z</time>
      </trkpt>
      <trkpt lat="42.21066" lon="-1.01275">
        <ele>589.37</ele>
        <time>2021-08-03T17:10:40Z</time>
      </trkpt>
      <trkpt lat="42.21037" lon="-1.01275">
        <ele>589.68</ele>
        <time>2021-08-03T17:10:43Z</time>
      </trkpt>
      <trkpt lat="42.21011" lon="-1.01274">
        <ele>589.69</ele>
        <time>2021-08-03T17:10:46Z</time>
      </trkpt>
      <trkpt lat="42.20998" lon="-1.01269">
        <ele>589.62</ele>
        <time>2021-08-03T17:10:48Z</time>
      </trkpt>
      <trkpt lat="42.20969" lon="-1.01275">
        <ele>589.59</ele>
        <time>2021-08-03T17:10:53Z</time>
      </trkpt>
      <trkpt lat="42.20948" lon="-1.01292">
        <ele>589.54</ele>
        <time>2021-08-03T17:10:57Z</time>
      </trkpt>
      <trkpt lat="42.20941" lon="-1.01328">
        <ele>589.38</ele>
        <time>2021-08-03T17:11:03Z</time>
      </trkpt>
      <trkpt lat="42.20946" lon="-1.01342">
        <ele>588.86</ele>
        <time>2021-08-03T17:11:06Z</time>
      </trkpt>
      <trkpt lat="42.20926" lon="-1.01383">
        <ele>588.12</ele>
        <time>2021-08-03T17:11:12Z</time>
      </trkpt>
      <trkpt lat="42.20899" lon="-1.0139">
        <ele>586.95</ele>
        <time>2021-08-03T17:11:16Z</time>
      </trkpt>
      <trkpt lat="42.20836" lon="-1.01389">
        <ele>584.8</ele>
        <time>2021-08-03T17:11:23Z</time>
      </trkpt>
      <trkpt lat="42.20788" lon="-1.01391">
        <ele>582.91</ele>
        <time>2021-08-03T17:11:29Z</time>
      </trkpt>
      <trkpt lat="42.20742" lon="-1.01418">
        <ele>581.81</ele>
        <time>2021-08-03T17:11:35Z</time>
      </trkpt>
      <trkpt lat="42.20681" lon="-1.01394">
        <ele>581.18</ele>
        <time>2021-08-03T17:11:42Z</time>
      </trkpt>
      <trkpt lat="42.20654" lon="-1.01388">
        <ele>580.5</ele>
        <time>2021-08-03T17:11:45Z</time>
      </trkpt>
      <trkpt lat="42.20625" lon="-1.01389">
        <ele>580.13</ele>
        <time>2021-08-03T17:11:48Z</time>
      </trkpt>
      <trkpt lat="42.20607" lon="-1.01389">
        <ele>579.68</ele>
        <time>2021-08-03T17:11:50Z</time>
      </trkpt>
      <trkpt lat="42.20563" lon="-1.01415">
        <ele>578.46</ele>
        <time>2021-08-03T17:11:56Z</time>
      </trkpt>
      <trkpt lat="42.20536" lon="-1.01436">
        <ele>578.3</ele>
        <time>2021-08-03T17:11:59Z</time>
      </trkpt>
      <trkpt lat="42.20501" lon="-1.01434">
        <ele>577.57</ele>
        <time>2021-08-03T17:12:03Z</time>
      </trkpt>
      <trkpt lat="42.20472" lon="-1.01412">
        <ele>576.11</ele>
        <time>2021-08-03T17:12:08Z</time>
      </trkpt>
      <trkpt lat="42.20422" lon="-1.01411">
        <ele>572.96</ele>
        <time>2021-08-03T17:12:14Z</time>
      </trkpt>
      <trkpt lat="42.20382" lon="-1.01416">
        <ele>570.63</ele>
        <time>2021-08-03T17:12:19Z</time>
      </trkpt>
      <trkpt lat="42.20338" lon="-1.01432">
        <ele>567.04</ele>
        <time>2021-08-03T17:12:26Z</time>
      </trkpt>
      <trkpt lat="42.20332" lon="-1.01438">
        <ele>566.62</ele>
        <time>2021-08-03T17:12:27Z</time>
      </trkpt>
      <trkpt lat="42.20286" lon="-1.01478">
        <ele>563.9</ele>
        <time>2021-08-03T17:12:32Z</time>
      </trkpt>
      <trkpt lat="42.20219" lon="-1.0148">
        <ele>560.48</ele>
        <time>2021-08-03T17:12:39Z</time>
      </trkpt>
      <trkpt lat="42.20181" lon="-1.01507">
        <ele>559.44</ele>
        <time>2021-08-03T17:12:43Z</time>
      </trkpt>
      <trkpt lat="42.20153" lon="-1.01527">
        <ele>558.91</ele>
        <time>2021-08-03T17:12:47Z</time>
      </trkpt>
      <trkpt lat="42.20092" lon="-1.01528">
        <ele>559.16</ele>
        <time>2021-08-03T17:12:54Z</time>
      </trkpt>
      <trkpt lat="42.20071" lon="-1.01523">
        <ele>559.1</ele>
        <time>2021-08-03T17:12:56Z</time>
      </trkpt>
      <trkpt lat="42.2001" lon="-1.01547">
        <ele>557.97</ele>
        <time>2021-08-03T17:13:02Z</time>
      </trkpt>
      <trkpt lat="42.19945" lon="-1.0162">
        <ele>556.36</ele>
        <time>2021-08-03T17:13:10Z</time>
      </trkpt>
      <trkpt lat="42.19928" lon="-1.01648">
        <ele>555.45</ele>
        <time>2021-08-03T17:13:13Z</time>
      </trkpt>
      <trkpt lat="42.19894" lon="-1.01668">
        <ele>555.12</ele>
        <time>2021-08-03T17:13:17Z</time>
      </trkpt>
      <trkpt lat="42.19876" lon="-1.01672">
        <ele>554.76</ele>
        <time>2021-08-03T17:13:19Z</time>
      </trkpt>
      <trkpt lat="42.19865" lon="-1.01681">
        <ele>553.08</ele>
        <time>2021-08-03T17:13:25Z</time>
      </trkpt>
      <trkpt lat="42.19855" lon="-1.01702">
        <ele>552.5</ele>
        <time>2021-08-03T17:13:29Z</time>
      </trkpt>
      <trkpt lat="42.19825" lon="-1.01717">
        <ele>552.25</ele>
        <time>2021-08-03T17:13:33Z</time>
      </trkpt>
      <trkpt lat="42.19724" lon="-1.01707">
        <ele>550.94</ele>
        <time>2021-08-03T17:13:41Z</time>
      </trkpt>
      <trkpt lat="42.19693" lon="-1.01685">
        <ele>549.85</ele>
        <time>2021-08-03T17:13:45Z</time>
      </trkpt>
      <trkpt lat="42.19647" lon="-1.01705">
        <ele>548.7</ele>
        <time>2021-08-03T17:13:51Z</time>
      </trkpt>
      <trkpt lat="42.19633" lon="-1.01729">
        <ele>548.69</ele>
        <time>2021-08-03T17:13:53Z</time>
      </trkpt>
      <trkpt lat="42.1962" lon="-1.01747">
        <ele>548.74</ele>
        <time>2021-08-03T17:13:55Z</time>
      </trkpt>
      <trkpt lat="42.19571" lon="-1.0177">
        <ele>549.55</ele>
        <time>2021-08-03T17:14:00Z</time>
      </trkpt>
      <trkpt lat="42.1952" lon="-1.01737">
        <ele>551.54</ele>
        <time>2021-08-03T17:14:06Z</time>
      </trkpt>
      <trkpt lat="42.19508" lon="-1.01727">
        <ele>551.65</ele>
        <time>2021-08-03T17:14:07Z</time>
      </trkpt>
      <trkpt lat="42.19442" lon="-1.01695">
        <ele>550.88</ele>
        <time>2021-08-03T17:14:13Z</time>
      </trkpt>
      <trkpt lat="42.19433" lon="-1.01687">
        <ele>550.62</ele>
        <time>2021-08-03T17:14:14Z</time>
      </trkpt>
      <trkpt lat="42.19396" lon="-1.01656">
        <ele>548.81</ele>
        <time>2021-08-03T17:14:18Z</time>
      </trkpt>
      <trkpt lat="42.19309" lon="-1.01599">
        <ele>544.94</ele>
        <time>2021-08-03T17:14:25Z</time>
      </trkpt>
      <trkpt lat="42.19288" lon="-1.01588">
        <ele>544.14</ele>
        <time>2021-08-03T17:14:27Z</time>
      </trkpt>
      <trkpt lat="42.19262" lon="-1.01553">
        <ele>542.29</ele>
        <time>2021-08-03T17:14:31Z</time>
      </trkpt>
    </trkseg>
  </trk>
  <trk>
    <name><![CDATA[Jour 5_4]]></name>
    <trkseg>
      <trkpt lat="42.19246" lon="-1.01553">
        <ele>536.72</ele>
        <time>2021-08-03T17:23:31Z</time>
      </trkpt>
      <trkpt lat="42.19256" lon="-1.0164">
        <ele>536.59</ele>
        <time>2021-08-03T17:23:42Z</time>
      </trkpt>
      <trkpt lat="42.19278" lon="-1.01723">
        <ele>534.54</ele>
        <time>2021-08-03T17:23:51Z</time>
      </trkpt>
      <trkpt lat="42.19283" lon="-1.01738">
        <ele>533.61</ele>
        <time>2021-08-03T17:23:54Z</time>
      </trkpt>
      <trkpt lat="42.19293" lon="-1.01815">
        <ele>530.48</ele>
        <time>2021-08-03T17:24:03Z</time>
      </trkpt>
      <trkpt lat="42.19307" lon="-1.01852">
        <ele>529.21</ele>
        <time>2021-08-03T17:24:07Z</time>
      </trkpt>
      <trkpt lat="42.19329" lon="-1.01877">
        <ele>527.69</ele>
        <time>2021-08-03T17:24:15Z</time>
      </trkpt>
      <trkpt lat="42.1938" lon="-1.0192">
        <ele>527.78</ele>
        <time>2021-08-03T17:24:21Z</time>
      </trkpt>
      <trkpt lat="42.19459" lon="-1.01972">
        <ele>528.79</ele>
        <time>2021-08-03T17:24:28Z</time>
      </trkpt>
      <trkpt lat="42.19488" lon="-1.02013">
        <ele>528.97</ele>
        <time>2021-08-03T17:24:32Z</time>
      </trkpt>
      <trkpt lat="42.19513" lon="-1.02054">
        <ele>528.49</ele>
        <time>2021-08-03T17:24:37Z</time>
      </trkpt>
      <trkpt lat="42.1954" lon="-1.02095">
        <ele>527.75</ele>
        <time>2021-08-03T17:24:43Z</time>
      </trkpt>
      <trkpt lat="42.19598" lon="-1.02161">
        <ele>529.3</ele>
        <time>2021-08-03T17:24:53Z</time>
      </trkpt>
      <trkpt lat="42.19605" lon="-1.02165">
        <ele>529.66</ele>
        <time>2021-08-03T17:24:55Z</time>
      </trkpt>
      <trkpt lat="42.19629" lon="-1.02167">
        <ele>530.19</ele>
        <time>2021-08-03T17:24:59Z</time>
      </trkpt>
      <trkpt lat="42.19679" lon="-1.02172">
        <ele>528.83</ele>
        <time>2021-08-03T17:25:07Z</time>
      </trkpt>
      <trkpt lat="42.19683" lon="-1.02182">
        <ele>528.04</ele>
        <time>2021-08-03T17:25:09Z</time>
      </trkpt>
      <trkpt lat="42.19688" lon="-1.0219">
        <ele>527.25</ele>
        <time>2021-08-03T17:25:11Z</time>
      </trkpt>
      <trkpt lat="42.19695" lon="-1.02227">
        <ele>525.61</ele>
        <time>2021-08-03T17:25:15Z</time>
      </trkpt>
      <trkpt lat="42.19705" lon="-1.02267">
        <ele>524.96</ele>
        <time>2021-08-03T17:25:18Z</time>
      </trkpt>
      <trkpt lat="42.19734" lon="-1.02301">
        <ele>524.23</ele>
        <time>2021-08-03T17:25:22Z</time>
      </trkpt>
      <trkpt lat="42.19756" lon="-1.02325">
        <ele>524</ele>
        <time>2021-08-03T17:25:26Z</time>
      </trkpt>
      <trkpt lat="42.19797" lon="-1.02384">
        <ele>526.68</ele>
        <time>2021-08-03T17:25:33Z</time>
      </trkpt>
      <trkpt lat="42.19836" lon="-1.0245">
        <ele>529.35</ele>
        <time>2021-08-03T17:25:39Z</time>
      </trkpt>
      <trkpt lat="42.19868" lon="-1.02527">
        <ele>531.3</ele>
        <time>2021-08-03T17:25:44Z</time>
      </trkpt>
      <trkpt lat="42.1988" lon="-1.02587">
        <ele>532.06</ele>
        <time>2021-08-03T17:25:48Z</time>
      </trkpt>
      <trkpt lat="42.19935" lon="-1.02622">
        <ele>533.09</ele>
        <time>2021-08-03T17:25:55Z</time>
      </trkpt>
      <trkpt lat="42.1995" lon="-1.02641">
        <ele>534.39</ele>
        <time>2021-08-03T17:25:58Z</time>
      </trkpt>
      <trkpt lat="42.19972" lon="-1.02677">
        <ele>535.98</ele>
        <time>2021-08-03T17:26:03Z</time>
      </trkpt>
      <trkpt lat="42.20018" lon="-1.02711">
        <ele>537.68</ele>
        <time>2021-08-03T17:26:10Z</time>
      </trkpt>
      <trkpt lat="42.20048" lon="-1.02769">
        <ele>539.14</ele>
        <time>2021-08-03T17:26:19Z</time>
      </trkpt>
      <trkpt lat="42.20067" lon="-1.0277">
        <ele>539.68</ele>
        <time>2021-08-03T17:26:24Z</time>
      </trkpt>
      <trkpt lat="42.20111" lon="-1.02783">
        <ele>540.74</ele>
        <time>2021-08-03T17:26:35Z</time>
      </trkpt>
      <trkpt lat="42.20151" lon="-1.02802">
        <ele>541.97</ele>
        <time>2021-08-03T17:26:47Z</time>
      </trkpt>
      <trkpt lat="42.20185" lon="-1.02803">
        <ele>543.61</ele>
        <time>2021-08-03T17:27:00Z</time>
      </trkpt>
      <trkpt lat="42.20217" lon="-1.02831">
        <ele>545.38</ele>
        <time>2021-08-03T17:27:14Z</time>
      </trkpt>
      <trkpt lat="42.20242" lon="-1.02861">
        <ele>548.41</ele>
        <time>2021-08-03T17:27:26Z</time>
      </trkpt>
      <trkpt lat="42.20266" lon="-1.02879">
        <ele>551.54</ele>
        <time>2021-08-03T17:27:34Z</time>
      </trkpt>
      <trkpt lat="42.20274" lon="-1.02906">
        <ele>554.87</ele>
        <time>2021-08-03T17:27:42Z</time>
      </trkpt>
      <trkpt lat="42.20268" lon="-1.02924">
        <ele>556.77</ele>
        <time>2021-08-03T17:27:47Z</time>
      </trkpt>
      <trkpt lat="42.20232" lon="-1.02957">
        <ele>560.25</ele>
        <time>2021-08-03T17:27:57Z</time>
      </trkpt>
      <trkpt lat="42.20216" lon="-1.02984">
        <ele>561.88</ele>
        <time>2021-08-03T17:28:03Z</time>
      </trkpt>
      <trkpt lat="42.20215" lon="-1.03036">
        <ele>563.24</ele>
        <time>2021-08-03T17:28:10Z</time>
      </trkpt>
      <trkpt lat="42.20209" lon="-1.0308">
        <ele>564.76</ele>
        <time>2021-08-03T17:28:18Z</time>
      </trkpt>
      <trkpt lat="42.20207" lon="-1.03081">
        <ele>564.89</ele>
        <time>2021-08-03T17:28:19Z</time>
      </trkpt>
      <trkpt lat="42.20191" lon="-1.03097">
        <ele>565.62</ele>
        <time>2021-08-03T17:28:25Z</time>
      </trkpt>
      <trkpt lat="42.20149" lon="-1.03157">
        <ele>564.58</ele>
        <time>2021-08-03T17:28:35Z</time>
      </trkpt>
      <trkpt lat="42.2013" lon="-1.03237">
        <ele>564.18</ele>
        <time>2021-08-03T17:28:44Z</time>
      </trkpt>
      <trkpt lat="42.2013" lon="-1.03287">
        <ele>563.66</ele>
        <time>2021-08-03T17:28:49Z</time>
      </trkpt>
      <trkpt lat="42.20157" lon="-1.03324">
        <ele>563.14</ele>
        <time>2021-08-03T17:28:55Z</time>
      </trkpt>
      <trkpt lat="42.20213" lon="-1.03344">
        <ele>563.32</ele>
        <time>2021-08-03T17:29:02Z</time>
      </trkpt>
      <trkpt lat="42.20232" lon="-1.03345">
        <ele>563.34</ele>
        <time>2021-08-03T17:29:05Z</time>
      </trkpt>
      <trkpt lat="42.20258" lon="-1.03359">
        <ele>562.32</ele>
        <time>2021-08-03T17:29:10Z</time>
      </trkpt>
      <trkpt lat="42.20302" lon="-1.034">
        <ele>558.97</ele>
        <time>2021-08-03T17:29:19Z</time>
      </trkpt>
      <trkpt lat="42.20308" lon="-1.03402">
        <ele>558.66</ele>
        <time>2021-08-03T17:29:20Z</time>
      </trkpt>
      <trkpt lat="42.20327" lon="-1.03406">
        <ele>558.11</ele>
        <time>2021-08-03T17:29:23Z</time>
      </trkpt>
      <trkpt lat="42.20346" lon="-1.03414">
        <ele>557.49</ele>
        <time>2021-08-03T17:29:26Z</time>
      </trkpt>
      <trkpt lat="42.20368" lon="-1.0342">
        <ele>556.8</ele>
        <time>2021-08-03T17:29:29Z</time>
      </trkpt>
      <trkpt lat="42.20398" lon="-1.03462">
        <ele>555.97</ele>
        <time>2021-08-03T17:29:36Z</time>
      </trkpt>
      <trkpt lat="42.20373" lon="-1.03478">
        <ele>553.68</ele>
        <time>2021-08-03T17:29:42Z</time>
      </trkpt>
      <trkpt lat="42.20326" lon="-1.03466">
        <ele>550.43</ele>
        <time>2021-08-03T17:29:48Z</time>
      </trkpt>
      <trkpt lat="42.20301" lon="-1.03484">
        <ele>547.9</ele>
        <time>2021-08-03T17:29:53Z</time>
      </trkpt>
      <trkpt lat="42.20276" lon="-1.0353">
        <ele>545.64</ele>
        <time>2021-08-03T17:29:58Z</time>
      </trkpt>
      <trkpt lat="42.2024" lon="-1.03575">
        <ele>541.83</ele>
        <time>2021-08-03T17:30:04Z</time>
      </trkpt>
      <trkpt lat="42.2023" lon="-1.03586">
        <ele>540.39</ele>
        <time>2021-08-03T17:30:06Z</time>
      </trkpt>
      <trkpt lat="42.20238" lon="-1.03616">
        <ele>536.97</ele>
        <time>2021-08-03T17:30:11Z</time>
      </trkpt>
      <trkpt lat="42.20246" lon="-1.03617">
        <ele>536.27</ele>
        <time>2021-08-03T17:30:12Z</time>
      </trkpt>
      <trkpt lat="42.20314" lon="-1.03629">
        <ele>532.71</ele>
        <time>2021-08-03T17:30:20Z</time>
      </trkpt>
      <trkpt lat="42.20332" lon="-1.03642">
        <ele>531.19</ele>
        <time>2021-08-03T17:30:24Z</time>
      </trkpt>
      <trkpt lat="42.20336" lon="-1.03648">
        <ele>527.42</ele>
        <time>2021-08-03T17:30:30Z</time>
      </trkpt>
      <trkpt lat="42.20342" lon="-1.03658">
        <ele>525.68</ele>
        <time>2021-08-03T17:30:36Z</time>
      </trkpt>
      <trkpt lat="42.20352" lon="-1.03689">
        <ele>524.79</ele>
        <time>2021-08-03T17:30:40Z</time>
      </trkpt>
      <trkpt lat="42.20361" lon="-1.03726">
        <ele>523.61</ele>
        <time>2021-08-03T17:30:43Z</time>
      </trkpt>
      <trkpt lat="42.2038" lon="-1.0377">
        <ele>522.56</ele>
        <time>2021-08-03T17:30:46Z</time>
      </trkpt>
      <trkpt lat="42.20378" lon="-1.03857">
        <ele>519.42</ele>
        <time>2021-08-03T17:30:52Z</time>
      </trkpt>
      <trkpt lat="42.20371" lon="-1.0388">
        <ele>518.74</ele>
        <time>2021-08-03T17:30:54Z</time>
      </trkpt>
      <trkpt lat="42.20376" lon="-1.03908">
        <ele>516.65</ele>
        <time>2021-08-03T17:30:59Z</time>
      </trkpt>
      <trkpt lat="42.20387" lon="-1.03904">
        <ele>515.18</ele>
        <time>2021-08-03T17:31:03Z</time>
      </trkpt>
      <trkpt lat="42.20428" lon="-1.0389">
        <ele>512.31</ele>
        <time>2021-08-03T17:31:15Z</time>
      </trkpt>
      <trkpt lat="42.20431" lon="-1.0389">
        <ele>512.16</ele>
        <time>2021-08-03T17:31:16Z</time>
      </trkpt>
      <trkpt lat="42.20467" lon="-1.03905">
        <ele>511.12</ele>
        <time>2021-08-03T17:31:22Z</time>
      </trkpt>
      <trkpt lat="42.2049" lon="-1.03925">
        <ele>509.99</ele>
        <time>2021-08-03T17:31:26Z</time>
      </trkpt>
      <trkpt lat="42.20554" lon="-1.03956">
        <ele>507.23</ele>
        <time>2021-08-03T17:31:34Z</time>
      </trkpt>
      <trkpt lat="42.20628" lon="-1.03989">
        <ele>505.76</ele>
        <time>2021-08-03T17:31:43Z</time>
      </trkpt>
      <trkpt lat="42.20675" lon="-1.04002">
        <ele>505.67</ele>
        <time>2021-08-03T17:31:47Z</time>
      </trkpt>
      <trkpt lat="42.20716" lon="-1.03991">
        <ele>505.47</ele>
        <time>2021-08-03T17:31:51Z</time>
      </trkpt>
      <trkpt lat="42.20775" lon="-1.03954">
        <ele>505.06</ele>
        <time>2021-08-03T17:31:57Z</time>
      </trkpt>
      <trkpt lat="42.20801" lon="-1.03928">
        <ele>505.21</ele>
        <time>2021-08-03T17:32:00Z</time>
      </trkpt>
      <trkpt lat="42.20852" lon="-1.03901">
        <ele>506.45</ele>
        <time>2021-08-03T17:32:05Z</time>
      </trkpt>
      <trkpt lat="42.20968" lon="-1.03876">
        <ele>508.35</ele>
        <time>2021-08-03T17:32:16Z</time>
      </trkpt>
      <trkpt lat="42.2102" lon="-1.03852">
        <ele>508.7</ele>
        <time>2021-08-03T17:32:22Z</time>
      </trkpt>
      <trkpt lat="42.2104" lon="-1.03867">
        <ele>508.81</ele>
        <time>2021-08-03T17:32:27Z</time>
      </trkpt>
      <trkpt lat="42.21073" lon="-1.03911">
        <ele>508.32</ele>
        <time>2021-08-03T17:32:32Z</time>
      </trkpt>
      <trkpt lat="42.21097" lon="-1.03952">
        <ele>506.42</ele>
        <time>2021-08-03T17:32:37Z</time>
      </trkpt>
      <trkpt lat="42.2111" lon="-1.03993">
        <ele>505.46</ele>
        <time>2021-08-03T17:32:40Z</time>
      </trkpt>
      <trkpt lat="42.21123" lon="-1.04038">
        <ele>504.74</ele>
        <time>2021-08-03T17:32:43Z</time>
      </trkpt>
      <trkpt lat="42.2117" lon="-1.04088">
        <ele>505.13</ele>
        <time>2021-08-03T17:32:48Z</time>
      </trkpt>
      <trkpt lat="42.21203" lon="-1.04101">
        <ele>506.29</ele>
        <time>2021-08-03T17:32:51Z</time>
      </trkpt>
      <trkpt lat="42.21233" lon="-1.04138">
        <ele>509.72</ele>
        <time>2021-08-03T17:32:56Z</time>
      </trkpt>
      <trkpt lat="42.21249" lon="-1.04201">
        <ele>514.02</ele>
        <time>2021-08-03T17:33:02Z</time>
      </trkpt>
      <trkpt lat="42.213" lon="-1.04265">
        <ele>517.81</ele>
        <time>2021-08-03T17:33:08Z</time>
      </trkpt>
      <trkpt lat="42.21325" lon="-1.04276">
        <ele>519.01</ele>
        <time>2021-08-03T17:33:10Z</time>
      </trkpt>
      <trkpt lat="42.21359" lon="-1.0429">
        <ele>520.19</ele>
        <time>2021-08-03T17:33:13Z</time>
      </trkpt>
      <trkpt lat="42.2141" lon="-1.0437">
        <ele>522.15</ele>
        <time>2021-08-03T17:33:20Z</time>
      </trkpt>
      <trkpt lat="42.21472" lon="-1.04408">
        <ele>523.49</ele>
        <time>2021-08-03T17:33:26Z</time>
      </trkpt>
      <trkpt lat="42.21488" lon="-1.04422">
        <ele>523.87</ele>
        <time>2021-08-03T17:33:28Z</time>
      </trkpt>
      <trkpt lat="42.21522" lon="-1.04467">
        <ele>524.61</ele>
        <time>2021-08-03T17:33:32Z</time>
      </trkpt>
      <trkpt lat="42.21568" lon="-1.04485">
        <ele>525.82</ele>
        <time>2021-08-03T17:33:36Z</time>
      </trkpt>
      <trkpt lat="42.2163" lon="-1.04516">
        <ele>528.03</ele>
        <time>2021-08-03T17:33:42Z</time>
      </trkpt>
      <trkpt lat="42.21643" lon="-1.04568">
        <ele>529.52</ele>
        <time>2021-08-03T17:33:47Z</time>
      </trkpt>
      <trkpt lat="42.21636" lon="-1.04643">
        <ele>532.09</ele>
        <time>2021-08-03T17:33:53Z</time>
      </trkpt>
      <trkpt lat="42.21655" lon="-1.04762">
        <ele>535.9</ele>
        <time>2021-08-03T17:34:01Z</time>
      </trkpt>
      <trkpt lat="42.21708" lon="-1.04876">
        <ele>537.72</ele>
        <time>2021-08-03T17:34:09Z</time>
      </trkpt>
      <trkpt lat="42.2175" lon="-1.04955">
        <ele>539.78</ele>
        <time>2021-08-03T17:34:16Z</time>
      </trkpt>
      <trkpt lat="42.21759" lon="-1.05012">
        <ele>541.49</ele>
        <time>2021-08-03T17:34:21Z</time>
      </trkpt>
      <trkpt lat="42.21774" lon="-1.05044">
        <ele>542.66</ele>
        <time>2021-08-03T17:34:24Z</time>
      </trkpt>
      <trkpt lat="42.21792" lon="-1.05078">
        <ele>544.75</ele>
        <time>2021-08-03T17:34:27Z</time>
      </trkpt>
      <trkpt lat="42.21839" lon="-1.05122">
        <ele>548.96</ele>
        <time>2021-08-03T17:34:32Z</time>
      </trkpt>
      <trkpt lat="42.21872" lon="-1.0514">
        <ele>552.99</ele>
        <time>2021-08-03T17:34:36Z</time>
      </trkpt>
      <trkpt lat="42.21875" lon="-1.05143">
        <ele>553.94</ele>
        <time>2021-08-03T17:34:37Z</time>
      </trkpt>
      <trkpt lat="42.21885" lon="-1.0517">
        <ele>556.95</ele>
        <time>2021-08-03T17:34:41Z</time>
      </trkpt>
      <trkpt lat="42.21913" lon="-1.05233">
        <ele>560.57</ele>
        <time>2021-08-03T17:34:47Z</time>
      </trkpt>
      <trkpt lat="42.21927" lon="-1.05294">
        <ele>563.86</ele>
        <time>2021-08-03T17:34:52Z</time>
      </trkpt>
      <trkpt lat="42.21953" lon="-1.05366">
        <ele>568.32</ele>
        <time>2021-08-03T17:34:58Z</time>
      </trkpt>
      <trkpt lat="42.21994" lon="-1.05413">
        <ele>572.15</ele>
        <time>2021-08-03T17:35:03Z</time>
      </trkpt>
      <trkpt lat="42.22043" lon="-1.05467">
        <ele>576.28</ele>
        <time>2021-08-03T17:35:08Z</time>
      </trkpt>
      <trkpt lat="42.22086" lon="-1.05507">
        <ele>580</ele>
        <time>2021-08-03T17:35:12Z</time>
      </trkpt>
      <trkpt lat="42.2211" lon="-1.05552">
        <ele>583.65</ele>
        <time>2021-08-03T17:35:16Z</time>
      </trkpt>
      <trkpt lat="42.22142" lon="-1.05617">
        <ele>587.9</ele>
        <time>2021-08-03T17:35:21Z</time>
      </trkpt>
      <trkpt lat="42.22147" lon="-1.05631">
        <ele>589.8</ele>
        <time>2021-08-03T17:35:22Z</time>
      </trkpt>
      <trkpt lat="42.22155" lon="-1.05659">
        <ele>591.74</ele>
        <time>2021-08-03T17:35:24Z</time>
      </trkpt>
      <trkpt lat="42.22209" lon="-1.05689">
        <ele>595.63</ele>
        <time>2021-08-03T17:35:30Z</time>
      </trkpt>
      <trkpt lat="42.22219" lon="-1.05695">
        <ele>596.28</ele>
        <time>2021-08-03T17:35:31Z</time>
      </trkpt>
      <trkpt lat="42.22265" lon="-1.05718">
        <ele>598.56</ele>
        <time>2021-08-03T17:35:35Z</time>
      </trkpt>
      <trkpt lat="42.22315" lon="-1.05778">
        <ele>601.16</ele>
        <time>2021-08-03T17:35:41Z</time>
      </trkpt>
      <trkpt lat="42.22319" lon="-1.05791">
        <ele>601.75</ele>
        <time>2021-08-03T17:35:42Z</time>
      </trkpt>
      <trkpt lat="42.22325" lon="-1.05814">
        <ele>603.05</ele>
        <time>2021-08-03T17:35:44Z</time>
      </trkpt>
      <trkpt lat="42.22321" lon="-1.05874">
        <ele>606.18</ele>
        <time>2021-08-03T17:35:49Z</time>
      </trkpt>
      <trkpt lat="42.22312" lon="-1.05898">
        <ele>606.57</ele>
        <time>2021-08-03T17:35:51Z</time>
      </trkpt>
      <trkpt lat="42.22309" lon="-1.05992">
        <ele>605.29</ele>
        <time>2021-08-03T17:35:57Z</time>
      </trkpt>
      <trkpt lat="42.22316" lon="-1.06023">
        <ele>603.98</ele>
        <time>2021-08-03T17:35:59Z</time>
      </trkpt>
      <trkpt lat="42.22311" lon="-1.06109">
        <ele>599.96</ele>
        <time>2021-08-03T17:36:04Z</time>
      </trkpt>
      <trkpt lat="42.22305" lon="-1.06124">
        <ele>599.17</ele>
        <time>2021-08-03T17:36:05Z</time>
      </trkpt>
      <trkpt lat="42.22278" lon="-1.062">
        <ele>595.03</ele>
        <time>2021-08-03T17:36:10Z</time>
      </trkpt>
      <trkpt lat="42.22279" lon="-1.06252">
        <ele>590.41</ele>
        <time>2021-08-03T17:36:14Z</time>
      </trkpt>
      <trkpt lat="42.2229" lon="-1.06319">
        <ele>586.24</ele>
        <time>2021-08-03T17:36:18Z</time>
      </trkpt>
      <trkpt lat="42.22299" lon="-1.06371">
        <ele>582.86</ele>
        <time>2021-08-03T17:36:21Z</time>
      </trkpt>
      <trkpt lat="42.22307" lon="-1.06424">
        <ele>579.38</ele>
        <time>2021-08-03T17:36:24Z</time>
      </trkpt>
      <trkpt lat="42.22333" lon="-1.06487">
        <ele>575.17</ele>
        <time>2021-08-03T17:36:28Z</time>
      </trkpt>
      <trkpt lat="42.2236" lon="-1.06535">
        <ele>571.53</ele>
        <time>2021-08-03T17:36:32Z</time>
      </trkpt>
      <trkpt lat="42.22402" lon="-1.066">
        <ele>568.45</ele>
        <time>2021-08-03T17:36:38Z</time>
      </trkpt>
      <trkpt lat="42.22401" lon="-1.06665">
        <ele>565.96</ele>
        <time>2021-08-03T17:36:43Z</time>
      </trkpt>
      <trkpt lat="42.22407" lon="-1.06697">
        <ele>564.04</ele>
        <time>2021-08-03T17:36:46Z</time>
      </trkpt>
      <trkpt lat="42.22431" lon="-1.06773">
        <ele>560.57</ele>
        <time>2021-08-03T17:36:51Z</time>
      </trkpt>
      <trkpt lat="42.22448" lon="-1.06821">
        <ele>558.54</ele>
        <time>2021-08-03T17:36:54Z</time>
      </trkpt>
      <trkpt lat="42.22456" lon="-1.06868">
        <ele>556.7</ele>
        <time>2021-08-03T17:36:57Z</time>
      </trkpt>
      <trkpt lat="42.22437" lon="-1.0692">
        <ele>553.14</ele>
        <time>2021-08-03T17:37:02Z</time>
      </trkpt>
      <trkpt lat="42.22416" lon="-1.06999">
        <ele>550.84</ele>
        <time>2021-08-03T17:37:09Z</time>
      </trkpt>
      <trkpt lat="42.22446" lon="-1.07074">
        <ele>550.87</ele>
        <time>2021-08-03T17:37:14Z</time>
      </trkpt>
      <trkpt lat="42.22464" lon="-1.07159">
        <ele>551.3</ele>
        <time>2021-08-03T17:37:20Z</time>
      </trkpt>
      <trkpt lat="42.22474" lon="-1.07167">
        <ele>551.22</ele>
        <time>2021-08-03T17:37:21Z</time>
      </trkpt>
      <trkpt lat="42.22498" lon="-1.07196">
        <ele>550.8</ele>
        <time>2021-08-03T17:37:24Z</time>
      </trkpt>
      <trkpt lat="42.22501" lon="-1.07212">
        <ele>550.69</ele>
        <time>2021-08-03T17:37:25Z</time>
      </trkpt>
      <trkpt lat="42.225" lon="-1.0723">
        <ele>550.61</ele>
        <time>2021-08-03T17:37:26Z</time>
      </trkpt>
      <trkpt lat="42.22482" lon="-1.07292">
        <ele>550.09</ele>
        <time>2021-08-03T17:37:31Z</time>
      </trkpt>
      <trkpt lat="42.22474" lon="-1.0736">
        <ele>549.51</ele>
        <time>2021-08-03T17:37:37Z</time>
      </trkpt>
      <trkpt lat="42.22481" lon="-1.07371">
        <ele>549.54</ele>
        <time>2021-08-03T17:37:38Z</time>
      </trkpt>
      <trkpt lat="42.22508" lon="-1.07408">
        <ele>549.82</ele>
        <time>2021-08-03T17:37:41Z</time>
      </trkpt>
      <trkpt lat="42.22538" lon="-1.07475">
        <ele>551.08</ele>
        <time>2021-08-03T17:37:45Z</time>
      </trkpt>
      <trkpt lat="42.22573" lon="-1.07556">
        <ele>552.49</ele>
        <time>2021-08-03T17:37:51Z</time>
      </trkpt>
      <trkpt lat="42.22593" lon="-1.07602">
        <ele>552.9</ele>
        <time>2021-08-03T17:37:55Z</time>
      </trkpt>
      <trkpt lat="42.22609" lon="-1.07667">
        <ele>554</ele>
        <time>2021-08-03T17:38:01Z</time>
      </trkpt>
      <trkpt lat="42.22601" lon="-1.07677">
        <ele>554.15</ele>
        <time>2021-08-03T17:38:02Z</time>
      </trkpt>
      <trkpt lat="42.22582" lon="-1.07695">
        <ele>554.55</ele>
        <time>2021-08-03T17:38:04Z</time>
      </trkpt>
      <trkpt lat="42.22528" lon="-1.07725">
        <ele>555.42</ele>
        <time>2021-08-03T17:38:09Z</time>
      </trkpt>
      <trkpt lat="42.22487" lon="-1.07764">
        <ele>555.85</ele>
        <time>2021-08-03T17:38:13Z</time>
      </trkpt>
      <trkpt lat="42.22382" lon="-1.07887">
        <ele>557.67</ele>
        <time>2021-08-03T17:38:24Z</time>
      </trkpt>
      <trkpt lat="42.22325" lon="-1.07911">
        <ele>559.07</ele>
        <time>2021-08-03T17:38:29Z</time>
      </trkpt>
      <trkpt lat="42.22302" lon="-1.07911">
        <ele>559.86</ele>
        <time>2021-08-03T17:38:31Z</time>
      </trkpt>
      <trkpt lat="42.2225" lon="-1.07956">
        <ele>563.07</ele>
        <time>2021-08-03T17:38:37Z</time>
      </trkpt>
      <trkpt lat="42.2225" lon="-1.08006">
        <ele>563.59</ele>
        <time>2021-08-03T17:38:41Z</time>
      </trkpt>
      <trkpt lat="42.22266" lon="-1.08076">
        <ele>562.08</ele>
        <time>2021-08-03T17:38:45Z</time>
      </trkpt>
      <trkpt lat="42.22282" lon="-1.08128">
        <ele>560.69</ele>
        <time>2021-08-03T17:38:48Z</time>
      </trkpt>
      <trkpt lat="42.22295" lon="-1.08209">
        <ele>559.32</ele>
        <time>2021-08-03T17:38:52Z</time>
      </trkpt>
      <trkpt lat="42.22322" lon="-1.08327">
        <ele>558.12</ele>
        <time>2021-08-03T17:38:58Z</time>
      </trkpt>
      <trkpt lat="42.22317" lon="-1.08414">
        <ele>556.17</ele>
        <time>2021-08-03T17:39:03Z</time>
      </trkpt>
      <trkpt lat="42.22315" lon="-1.08514">
        <ele>554.25</ele>
        <time>2021-08-03T17:39:09Z</time>
      </trkpt>
      <trkpt lat="42.22328" lon="-1.08598">
        <ele>552.81</ele>
        <time>2021-08-03T17:39:15Z</time>
      </trkpt>
      <trkpt lat="42.22294" lon="-1.08675">
        <ele>549.16</ele>
        <time>2021-08-03T17:39:21Z</time>
      </trkpt>
      <trkpt lat="42.22285" lon="-1.08744">
        <ele>545.47</ele>
        <time>2021-08-03T17:39:26Z</time>
      </trkpt>
      <trkpt lat="42.22298" lon="-1.0879">
        <ele>543.6</ele>
        <time>2021-08-03T17:39:29Z</time>
      </trkpt>
      <trkpt lat="42.22326" lon="-1.08924">
        <ele>539.99</ele>
        <time>2021-08-03T17:39:36Z</time>
      </trkpt>
      <trkpt lat="42.22377" lon="-1.09067">
        <ele>537.42</ele>
        <time>2021-08-03T17:39:44Z</time>
      </trkpt>
      <trkpt lat="42.22389" lon="-1.09117">
        <ele>537.27</ele>
        <time>2021-08-03T17:39:47Z</time>
      </trkpt>
      <trkpt lat="42.22394" lon="-1.09207">
        <ele>536.65</ele>
        <time>2021-08-03T17:39:52Z</time>
      </trkpt>
      <trkpt lat="42.22415" lon="-1.0926">
        <ele>533.56</ele>
        <time>2021-08-03T17:39:58Z</time>
      </trkpt>
      <trkpt lat="42.22435" lon="-1.09294">
        <ele>530.31</ele>
        <time>2021-08-03T17:40:05Z</time>
      </trkpt>
      <trkpt lat="42.22442" lon="-1.09327">
        <ele>529.69</ele>
        <time>2021-08-03T17:40:09Z</time>
      </trkpt>
      <trkpt lat="42.22417" lon="-1.09395">
        <ele>530.02</ele>
        <time>2021-08-03T17:40:18Z</time>
      </trkpt>
      <trkpt lat="42.22405" lon="-1.09404">
        <ele>530.08</ele>
        <time>2021-08-03T17:40:20Z</time>
      </trkpt>
      <trkpt lat="42.22309" lon="-1.09465">
        <ele>528.49</ele>
        <time>2021-08-03T17:40:34Z</time>
      </trkpt>
      <trkpt lat="42.22245" lon="-1.0953">
        <ele>525.62</ele>
        <time>2021-08-03T17:40:48Z</time>
      </trkpt>
      <trkpt lat="42.22218" lon="-1.09565">
        <ele>524.04</ele>
        <time>2021-08-03T17:40:54Z</time>
      </trkpt>
      <trkpt lat="42.22211" lon="-1.09583">
        <ele>522.8</ele>
        <time>2021-08-03T17:40:58Z</time>
      </trkpt>
      <trkpt lat="42.22211" lon="-1.0959">
        <ele>521.52</ele>
        <time>2021-08-03T17:41:02Z</time>
      </trkpt>
      <trkpt lat="42.22212" lon="-1.09594">
        <ele>519.59</ele>
        <time>2021-08-03T17:41:17Z</time>
      </trkpt>
      <trkpt lat="42.22217" lon="-1.09605">
        <ele>519.26</ele>
        <time>2021-08-03T17:41:50Z</time>
      </trkpt>
      <trkpt lat="42.2224" lon="-1.09679">
        <ele>519.81</ele>
        <time>2021-08-03T17:41:57Z</time>
      </trkpt>
      <trkpt lat="42.22278" lon="-1.09711">
        <ele>520.19</ele>
        <time>2021-08-03T17:42:02Z</time>
      </trkpt>
      <trkpt lat="42.22362" lon="-1.09739">
        <ele>522.05</ele>
        <time>2021-08-03T17:42:13Z</time>
      </trkpt>
      <trkpt lat="42.22384" lon="-1.09753">
        <ele>522.35</ele>
        <time>2021-08-03T17:42:16Z</time>
      </trkpt>
      <trkpt lat="42.22443" lon="-1.0978">
        <ele>521.33</ele>
        <time>2021-08-03T17:42:26Z</time>
      </trkpt>
      <trkpt lat="42.22465" lon="-1.09767">
        <ele>520.24</ele>
        <time>2021-08-03T17:42:32Z</time>
      </trkpt>
      <trkpt lat="42.22502" lon="-1.09707">
        <ele>520.14</ele>
        <time>2021-08-03T17:42:43Z</time>
      </trkpt>
      <trkpt lat="42.2251" lon="-1.09702">
        <ele>520.46</ele>
        <time>2021-08-03T17:42:46Z</time>
      </trkpt>
      <trkpt lat="42.22517" lon="-1.097">
        <ele>520.82</ele>
        <time>2021-08-03T17:43:01Z</time>
      </trkpt>
      <trkpt lat="42.22518" lon="-1.097">
        <ele>520.84</ele>
        <time>2021-08-03T17:43:10Z</time>
      </trkpt>
      <trkpt lat="42.22519" lon="-1.09664">
        <ele>520.96</ele>
        <time>2021-08-03T17:43:18Z</time>
      </trkpt>
      <trkpt lat="42.22522" lon="-1.09617">
        <ele>519.74</ele>
        <time>2021-08-03T17:43:25Z</time>
      </trkpt>
      <trkpt lat="42.2252" lon="-1.09589">
        <ele>516.53</ele>
        <time>2021-08-03T17:43:35Z</time>
      </trkpt>
      <trkpt lat="42.22526" lon="-1.09595">
        <ele>515.24</ele>
        <time>2021-08-03T17:43:46Z</time>
      </trkpt>
      <trkpt lat="42.22529" lon="-1.09599">
        <ele>515.23</ele>
        <time>2021-08-03T17:43:51Z</time>
      </trkpt>
      <trkpt lat="42.2253" lon="-1.09594">
        <ele>515.28</ele>
        <time>2021-08-03T17:44:06Z</time>
      </trkpt>
      <trkpt lat="42.2253" lon="-1.09594">
        <ele>515.48</ele>
        <time>2021-08-03T17:44:24Z</time>
      </trkpt>
      <trkpt lat="42.22528" lon="-1.09579">
        <ele>514.26</ele>
        <time>2021-08-03T18:06:25Z</time>
      </trkpt>
      <trkpt lat="42.22526" lon="-1.09569">
        <ele>514.26</ele>
        <time>2021-08-03T18:06:27Z</time>
      </trkpt>
      <trkpt lat="42.22518" lon="-1.09518">
        <ele>513.42</ele>
        <time>2021-08-03T18:06:32Z</time>
      </trkpt>
      <trkpt lat="42.22539" lon="-1.09446">
        <ele>510.58</ele>
        <time>2021-08-03T18:06:39Z</time>
      </trkpt>
      <trkpt lat="42.22566" lon="-1.09433">
        <ele>509.35</ele>
        <time>2021-08-03T18:06:42Z</time>
      </trkpt>
      <trkpt lat="42.22587" lon="-1.09431">
        <ele>508.92</ele>
        <time>2021-08-03T18:06:44Z</time>
      </trkpt>
      <trkpt lat="42.22676" lon="-1.09432">
        <ele>508.14</ele>
        <time>2021-08-03T18:06:54Z</time>
      </trkpt>
      <trkpt lat="42.22682" lon="-1.09433">
        <ele>508.2</ele>
        <time>2021-08-03T18:06:55Z</time>
      </trkpt>
      <trkpt lat="42.22703" lon="-1.09452">
        <ele>508.64</ele>
        <time>2021-08-03T18:07:00Z</time>
      </trkpt>
      <trkpt lat="42.2273" lon="-1.09475">
        <ele>509.49</ele>
        <time>2021-08-03T18:07:06Z</time>
      </trkpt>
      <trkpt lat="42.22747" lon="-1.09479">
        <ele>510.05</ele>
        <time>2021-08-03T18:07:08Z</time>
      </trkpt>
      <trkpt lat="42.2279" lon="-1.09506">
        <ele>511.56</ele>
        <time>2021-08-03T18:07:13Z</time>
      </trkpt>
      <trkpt lat="42.22845" lon="-1.09575">
        <ele>512.99</ele>
        <time>2021-08-03T18:07:21Z</time>
      </trkpt>
      <trkpt lat="42.22855" lon="-1.09576">
        <ele>513.16</ele>
        <time>2021-08-03T18:07:22Z</time>
      </trkpt>
      <trkpt lat="42.22878" lon="-1.09575">
        <ele>513.61</ele>
        <time>2021-08-03T18:07:24Z</time>
      </trkpt>
      <trkpt lat="42.22931" lon="-1.09552">
        <ele>515.13</ele>
        <time>2021-08-03T18:07:30Z</time>
      </trkpt>
      <trkpt lat="42.22972" lon="-1.09575">
        <ele>517.61</ele>
        <time>2021-08-03T18:07:36Z</time>
      </trkpt>
      <trkpt lat="42.22975" lon="-1.09586">
        <ele>518.03</ele>
        <time>2021-08-03T18:07:37Z</time>
      </trkpt>
      <trkpt lat="42.22981" lon="-1.09611">
        <ele>519.08</ele>
        <time>2021-08-03T18:07:39Z</time>
      </trkpt>
      <trkpt lat="42.23032" lon="-1.09654">
        <ele>521.91</ele>
        <time>2021-08-03T18:07:46Z</time>
      </trkpt>
      <trkpt lat="42.23059" lon="-1.0964">
        <ele>522.7</ele>
        <time>2021-08-03T18:07:50Z</time>
      </trkpt>
      <trkpt lat="42.23067" lon="-1.09639">
        <ele>523.17</ele>
        <time>2021-08-03T18:07:57Z</time>
      </trkpt>
      <trkpt lat="42.23097" lon="-1.09624">
        <ele>523.73</ele>
        <time>2021-08-03T18:08:04Z</time>
      </trkpt>
      <trkpt lat="42.23135" lon="-1.09598">
        <ele>524.19</ele>
        <time>2021-08-03T18:08:08Z</time>
      </trkpt>
      <trkpt lat="42.23201" lon="-1.09613">
        <ele>524.89</ele>
        <time>2021-08-03T18:08:14Z</time>
      </trkpt>
      <trkpt lat="42.2321" lon="-1.09623">
        <ele>524.89</ele>
        <time>2021-08-03T18:08:15Z</time>
      </trkpt>
      <trkpt lat="42.23227" lon="-1.0964">
        <ele>524.85</ele>
        <time>2021-08-03T18:08:17Z</time>
      </trkpt>
      <trkpt lat="42.23254" lon="-1.09661">
        <ele>524.66</ele>
        <time>2021-08-03T18:08:20Z</time>
      </trkpt>
      <trkpt lat="42.23287" lon="-1.09721">
        <ele>523.81</ele>
        <time>2021-08-03T18:08:26Z</time>
      </trkpt>
      <trkpt lat="42.23325" lon="-1.09757">
        <ele>522.75</ele>
        <time>2021-08-03T18:08:31Z</time>
      </trkpt>
      <trkpt lat="42.23324" lon="-1.09792">
        <ele>521.4</ele>
        <time>2021-08-03T18:08:35Z</time>
      </trkpt>
      <trkpt lat="42.23306" lon="-1.09857">
        <ele>519.05</ele>
        <time>2021-08-03T18:08:40Z</time>
      </trkpt>
      <trkpt lat="42.23315" lon="-1.09888">
        <ele>517.8</ele>
        <time>2021-08-03T18:08:42Z</time>
      </trkpt>
      <trkpt lat="42.2336" lon="-1.09981">
        <ele>514.01</ele>
        <time>2021-08-03T18:08:49Z</time>
      </trkpt>
      <trkpt lat="42.23369" lon="-1.10037">
        <ele>512.95</ele>
        <time>2021-08-03T18:08:53Z</time>
      </trkpt>
      <trkpt lat="42.23369" lon="-1.10082">
        <ele>513.16</ele>
        <time>2021-08-03T18:08:56Z</time>
      </trkpt>
      <trkpt lat="42.23383" lon="-1.10135">
        <ele>514.04</ele>
        <time>2021-08-03T18:09:00Z</time>
      </trkpt>
      <trkpt lat="42.23395" lon="-1.10179">
        <ele>515.59</ele>
        <time>2021-08-03T18:09:04Z</time>
      </trkpt>
      <trkpt lat="42.23406" lon="-1.10201">
        <ele>516.63</ele>
        <time>2021-08-03T18:09:11Z</time>
      </trkpt>
      <trkpt lat="42.23413" lon="-1.10202">
        <ele>516.41</ele>
        <time>2021-08-03T18:09:30Z</time>
      </trkpt>
      <trkpt lat="42.23466" lon="-1.10217">
        <ele>517.14</ele>
        <time>2021-08-03T18:09:37Z</time>
      </trkpt>
      <trkpt lat="42.23496" lon="-1.1023">
        <ele>518.03</ele>
        <time>2021-08-03T18:09:40Z</time>
      </trkpt>
      <trkpt lat="42.23565" lon="-1.10262">
        <ele>519.53</ele>
        <time>2021-08-03T18:09:47Z</time>
      </trkpt>
      <trkpt lat="42.23593" lon="-1.10292">
        <ele>520.44</ele>
        <time>2021-08-03T18:09:50Z</time>
      </trkpt>
      <trkpt lat="42.23638" lon="-1.10342">
        <ele>521.89</ele>
        <time>2021-08-03T18:09:56Z</time>
      </trkpt>
      <trkpt lat="42.23692" lon="-1.10387">
        <ele>524.01</ele>
        <time>2021-08-03T18:10:02Z</time>
      </trkpt>
      <trkpt lat="42.23741" lon="-1.10455">
        <ele>526.11</ele>
        <time>2021-08-03T18:10:08Z</time>
      </trkpt>
      <trkpt lat="42.23784" lon="-1.10498">
        <ele>527.1</ele>
        <time>2021-08-03T18:10:13Z</time>
      </trkpt>
      <trkpt lat="42.23808" lon="-1.1053">
        <ele>527.35</ele>
        <time>2021-08-03T18:10:16Z</time>
      </trkpt>
      <trkpt lat="42.23854" lon="-1.10567">
        <ele>526.54</ele>
        <time>2021-08-03T18:10:21Z</time>
      </trkpt>
      <trkpt lat="42.23885" lon="-1.10594">
        <ele>525.57</ele>
        <time>2021-08-03T18:10:24Z</time>
      </trkpt>
      <trkpt lat="42.2393" lon="-1.10654">
        <ele>525.15</ele>
        <time>2021-08-03T18:10:30Z</time>
      </trkpt>
      <trkpt lat="42.23934" lon="-1.10656">
        <ele>525.04</ele>
        <time>2021-08-03T18:10:31Z</time>
      </trkpt>
      <trkpt lat="42.23935" lon="-1.10657">
        <ele>522.5</ele>
        <time>2021-08-03T18:10:40Z</time>
      </trkpt>
      <trkpt lat="42.23936" lon="-1.10656">
        <ele>521.65</ele>
        <time>2021-08-03T18:10:45Z</time>
      </trkpt>
      <trkpt lat="42.23947" lon="-1.10646">
        <ele>521.16</ele>
        <time>2021-08-03T18:10:59Z</time>
      </trkpt>
      <trkpt lat="42.23967" lon="-1.10636">
        <ele>521.23</ele>
        <time>2021-08-03T18:11:03Z</time>
      </trkpt>
      <trkpt lat="42.23991" lon="-1.10626">
        <ele>521.26</ele>
        <time>2021-08-03T18:11:07Z</time>
      </trkpt>
      <trkpt lat="42.24" lon="-1.10618">
        <ele>521.06</ele>
        <time>2021-08-03T18:11:09Z</time>
      </trkpt>
      <trkpt lat="42.24016" lon="-1.10607">
        <ele>520.56</ele>
        <time>2021-08-03T18:11:12Z</time>
      </trkpt>
      <trkpt lat="42.24053" lon="-1.10627">
        <ele>519.52</ele>
        <time>2021-08-03T18:11:19Z</time>
      </trkpt>
      <trkpt lat="42.24053" lon="-1.10653">
        <ele>519.33</ele>
        <time>2021-08-03T18:11:21Z</time>
      </trkpt>
      <trkpt lat="42.24054" lon="-1.10784">
        <ele>517.59</ele>
        <time>2021-08-03T18:11:29Z</time>
      </trkpt>
      <trkpt lat="42.24052" lon="-1.10822">
        <ele>515.86</ele>
        <time>2021-08-03T18:11:32Z</time>
      </trkpt>
      <trkpt lat="42.2405" lon="-1.10845">
        <ele>515.11</ele>
        <time>2021-08-03T18:11:34Z</time>
      </trkpt>
      <trkpt lat="42.2405" lon="-1.10857">
        <ele>514.97</ele>
        <time>2021-08-03T18:11:35Z</time>
      </trkpt>
      <trkpt lat="42.24066" lon="-1.1098">
        <ele>516.77</ele>
        <time>2021-08-03T18:11:42Z</time>
      </trkpt>
      <trkpt lat="42.24084" lon="-1.11112">
        <ele>518.56</ele>
        <time>2021-08-03T18:11:49Z</time>
      </trkpt>
      <trkpt lat="42.24104" lon="-1.1114">
        <ele>518.12</ele>
        <time>2021-08-03T18:11:53Z</time>
      </trkpt>
      <trkpt lat="42.24124" lon="-1.11143">
        <ele>517.99</ele>
        <time>2021-08-03T18:11:55Z</time>
      </trkpt>
      <trkpt lat="42.24167" lon="-1.11164">
        <ele>518.25</ele>
        <time>2021-08-03T18:11:59Z</time>
      </trkpt>
      <trkpt lat="42.2423" lon="-1.11193">
        <ele>519.63</ele>
        <time>2021-08-03T18:12:05Z</time>
      </trkpt>
      <trkpt lat="42.24267" lon="-1.11218">
        <ele>520.57</ele>
        <time>2021-08-03T18:12:09Z</time>
      </trkpt>
      <trkpt lat="42.24303" lon="-1.11257">
        <ele>521.18</ele>
        <time>2021-08-03T18:12:14Z</time>
      </trkpt>
      <trkpt lat="42.24373" lon="-1.11318">
        <ele>522.48</ele>
        <time>2021-08-03T18:12:21Z</time>
      </trkpt>
      <trkpt lat="42.24478" lon="-1.11396">
        <ele>525.19</ele>
        <time>2021-08-03T18:12:29Z</time>
      </trkpt>
      <trkpt lat="42.24575" lon="-1.11469">
        <ele>528.24</ele>
        <time>2021-08-03T18:12:36Z</time>
      </trkpt>
      <trkpt lat="42.24692" lon="-1.11594">
        <ele>530.58</ele>
        <time>2021-08-03T18:12:45Z</time>
      </trkpt>
      <trkpt lat="42.2479" lon="-1.11677">
        <ele>533.93</ele>
        <time>2021-08-03T18:12:52Z</time>
      </trkpt>
      <trkpt lat="42.24805" lon="-1.11685">
        <ele>534.13</ele>
        <time>2021-08-03T18:12:53Z</time>
      </trkpt>
      <trkpt lat="42.24964" lon="-1.1177">
        <ele>537.24</ele>
        <time>2021-08-03T18:13:03Z</time>
      </trkpt>
      <trkpt lat="42.25043" lon="-1.11812">
        <ele>538.06</ele>
        <time>2021-08-03T18:13:09Z</time>
      </trkpt>
      <trkpt lat="42.25097" lon="-1.11814">
        <ele>538.5</ele>
        <time>2021-08-03T18:13:13Z</time>
      </trkpt>
      <trkpt lat="42.2515" lon="-1.11797">
        <ele>539.32</ele>
        <time>2021-08-03T18:13:17Z</time>
      </trkpt>
      <trkpt lat="42.25212" lon="-1.11819">
        <ele>540.44</ele>
        <time>2021-08-03T18:13:22Z</time>
      </trkpt>
      <trkpt lat="42.25236" lon="-1.1184">
        <ele>540.99</ele>
        <time>2021-08-03T18:13:24Z</time>
      </trkpt>
      <trkpt lat="42.25348" lon="-1.11881">
        <ele>543.68</ele>
        <time>2021-08-03T18:13:32Z</time>
      </trkpt>
      <trkpt lat="42.25415" lon="-1.11884">
        <ele>545.5</ele>
        <time>2021-08-03T18:13:37Z</time>
      </trkpt>
      <trkpt lat="42.25475" lon="-1.11925">
        <ele>546.33</ele>
        <time>2021-08-03T18:13:43Z</time>
      </trkpt>
      <trkpt lat="42.25533" lon="-1.11954">
        <ele>543.83</ele>
        <time>2021-08-03T18:13:49Z</time>
      </trkpt>
      <trkpt lat="42.25562" lon="-1.11946">
        <ele>543.12</ele>
        <time>2021-08-03T18:13:51Z</time>
      </trkpt>
      <trkpt lat="42.2559" lon="-1.11935">
        <ele>542.65</ele>
        <time>2021-08-03T18:13:53Z</time>
      </trkpt>
      <trkpt lat="42.257" lon="-1.1193">
        <ele>543.48</ele>
        <time>2021-08-03T18:14:01Z</time>
      </trkpt>
      <trkpt lat="42.25721" lon="-1.11928">
        <ele>544.13</ele>
        <time>2021-08-03T18:14:03Z</time>
      </trkpt>
      <trkpt lat="42.25763" lon="-1.11986">
        <ele>544.61</ele>
        <time>2021-08-03T18:14:09Z</time>
      </trkpt>
      <trkpt lat="42.25771" lon="-1.12082">
        <ele>544.78</ele>
        <time>2021-08-03T18:14:14Z</time>
      </trkpt>
      <trkpt lat="42.25768" lon="-1.12103">
        <ele>544.83</ele>
        <time>2021-08-03T18:14:15Z</time>
      </trkpt>
      <trkpt lat="42.25758" lon="-1.12179">
        <ele>545.17</ele>
        <time>2021-08-03T18:14:19Z</time>
      </trkpt>
      <trkpt lat="42.25723" lon="-1.12242">
        <ele>545.47</ele>
        <time>2021-08-03T18:14:24Z</time>
      </trkpt>
      <trkpt lat="42.2561" lon="-1.12315">
        <ele>548.65</ele>
        <time>2021-08-03T18:14:32Z</time>
      </trkpt>
      <trkpt lat="42.25568" lon="-1.1234">
        <ele>552.26</ele>
        <time>2021-08-03T18:14:35Z</time>
      </trkpt>
      <trkpt lat="42.25509" lon="-1.1242">
        <ele>556.46</ele>
        <time>2021-08-03T18:14:41Z</time>
      </trkpt>
      <trkpt lat="42.25502" lon="-1.12456">
        <ele>557.38</ele>
        <time>2021-08-03T18:14:43Z</time>
      </trkpt>
      <trkpt lat="42.25484" lon="-1.12601">
        <ele>559.58</ele>
        <time>2021-08-03T18:14:51Z</time>
      </trkpt>
      <trkpt lat="42.25448" lon="-1.12633">
        <ele>558.35</ele>
        <time>2021-08-03T18:14:56Z</time>
      </trkpt>
      <trkpt lat="42.25432" lon="-1.12638">
        <ele>557.35</ele>
        <time>2021-08-03T18:14:58Z</time>
      </trkpt>
      <trkpt lat="42.2542" lon="-1.12643">
        <ele>555.88</ele>
        <time>2021-08-03T18:15:00Z</time>
      </trkpt>
      <trkpt lat="42.25406" lon="-1.12657">
        <ele>552.05</ele>
        <time>2021-08-03T18:15:04Z</time>
      </trkpt>
      <trkpt lat="42.25401" lon="-1.12665">
        <ele>550.47</ele>
        <time>2021-08-03T18:15:06Z</time>
      </trkpt>
      <trkpt lat="42.25391" lon="-1.12689">
        <ele>548.01</ele>
        <time>2021-08-03T18:15:10Z</time>
      </trkpt>
      <trkpt lat="42.25387" lon="-1.12725">
        <ele>544.26</ele>
        <time>2021-08-03T18:15:19Z</time>
      </trkpt>
      <trkpt lat="42.25383" lon="-1.12789">
        <ele>542.59</ele>
        <time>2021-08-03T18:15:27Z</time>
      </trkpt>
      <trkpt lat="42.25395" lon="-1.12879">
        <ele>539.55</ele>
        <time>2021-08-03T18:15:37Z</time>
      </trkpt>
      <trkpt lat="42.25409" lon="-1.1295">
        <ele>536.32</ele>
        <time>2021-08-03T18:15:45Z</time>
      </trkpt>
      <trkpt lat="42.25417" lon="-1.13">
        <ele>532.95</ele>
        <time>2021-08-03T18:15:53Z</time>
      </trkpt>
      <trkpt lat="42.2542" lon="-1.13023">
        <ele>530.84</ele>
        <time>2021-08-03T18:16:03Z</time>
      </trkpt>
      <trkpt lat="42.25419" lon="-1.13074">
        <ele>530.46</ele>
        <time>2021-08-03T18:16:13Z</time>
      </trkpt>
      <trkpt lat="42.25414" lon="-1.13148">
        <ele>531.23</ele>
        <time>2021-08-03T18:16:23Z</time>
      </trkpt>
      <trkpt lat="42.25392" lon="-1.13285">
        <ele>532.4</ele>
        <time>2021-08-03T18:16:31Z</time>
      </trkpt>
      <trkpt lat="42.25384" lon="-1.13328">
        <ele>532.66</ele>
        <time>2021-08-03T18:16:33Z</time>
      </trkpt>
      <trkpt lat="42.25337" lon="-1.13398">
        <ele>532.64</ele>
        <time>2021-08-03T18:16:38Z</time>
      </trkpt>
      <trkpt lat="42.25293" lon="-1.13428">
        <ele>532.61</ele>
        <time>2021-08-03T18:16:41Z</time>
      </trkpt>
      <trkpt lat="42.25255" lon="-1.13481">
        <ele>533.51</ele>
        <time>2021-08-03T18:16:45Z</time>
      </trkpt>
      <trkpt lat="42.25203" lon="-1.1358">
        <ele>537.69</ele>
        <time>2021-08-03T18:16:51Z</time>
      </trkpt>
      <trkpt lat="42.25175" lon="-1.13629">
        <ele>539.49</ele>
        <time>2021-08-03T18:16:54Z</time>
      </trkpt>
      <trkpt lat="42.25125" lon="-1.13675">
        <ele>540.39</ele>
        <time>2021-08-03T18:16:58Z</time>
      </trkpt>
      <trkpt lat="42.2509" lon="-1.137">
        <ele>540.3</ele>
        <time>2021-08-03T18:17:01Z</time>
      </trkpt>
      <trkpt lat="42.25079" lon="-1.13746">
        <ele>538.32</ele>
        <time>2021-08-03T18:17:05Z</time>
      </trkpt>
      <trkpt lat="42.25085" lon="-1.13777">
        <ele>537.06</ele>
        <time>2021-08-03T18:17:07Z</time>
      </trkpt>
      <trkpt lat="42.25084" lon="-1.1393">
        <ele>534.94</ele>
        <time>2021-08-03T18:17:15Z</time>
      </trkpt>
      <trkpt lat="42.25069" lon="-1.14">
        <ele>533.94</ele>
        <time>2021-08-03T18:17:19Z</time>
      </trkpt>
      <trkpt lat="42.25072" lon="-1.14108">
        <ele>533.97</ele>
        <time>2021-08-03T18:17:25Z</time>
      </trkpt>
      <trkpt lat="42.25078" lon="-1.14179">
        <ele>535.13</ele>
        <time>2021-08-03T18:17:31Z</time>
      </trkpt>
      <trkpt lat="42.25077" lon="-1.14185">
        <ele>535.42</ele>
        <time>2021-08-03T18:17:38Z</time>
      </trkpt>
      <trkpt lat="42.25078" lon="-1.14186">
        <ele>535.74</ele>
        <time>2021-08-03T18:18:13Z</time>
      </trkpt>
      <trkpt lat="42.25079" lon="-1.1419">
        <ele>536.02</ele>
        <time>2021-08-03T18:18:48Z</time>
      </trkpt>
      <trkpt lat="42.25089" lon="-1.14274">
        <ele>535.88</ele>
        <time>2021-08-03T18:18:55Z</time>
      </trkpt>
      <trkpt lat="42.25104" lon="-1.14455">
        <ele>532.73</ele>
        <time>2021-08-03T18:19:06Z</time>
      </trkpt>
      <trkpt lat="42.25114" lon="-1.14597">
        <ele>531.49</ele>
        <time>2021-08-03T18:19:17Z</time>
      </trkpt>
      <trkpt lat="42.25157" lon="-1.14687">
        <ele>528.09</ele>
        <time>2021-08-03T18:19:25Z</time>
      </trkpt>
      <trkpt lat="42.25179" lon="-1.14724">
        <ele>524.79</ele>
        <time>2021-08-03T18:19:30Z</time>
      </trkpt>
      <trkpt lat="42.25249" lon="-1.14838">
        <ele>522.62</ele>
        <time>2021-08-03T18:19:44Z</time>
      </trkpt>
      <trkpt lat="42.25312" lon="-1.14894">
        <ele>524.17</ele>
        <time>2021-08-03T18:19:52Z</time>
      </trkpt>
      <trkpt lat="42.25407" lon="-1.15055">
        <ele>526.32</ele>
        <time>2021-08-03T18:20:02Z</time>
      </trkpt>
      <trkpt lat="42.25478" lon="-1.15214">
        <ele>527.29</ele>
        <time>2021-08-03T18:20:09Z</time>
      </trkpt>
      <trkpt lat="42.25558" lon="-1.15411">
        <ele>527.76</ele>
        <time>2021-08-03T18:20:18Z</time>
      </trkpt>
      <trkpt lat="42.25577" lon="-1.1546">
        <ele>527.84</ele>
        <time>2021-08-03T18:20:21Z</time>
      </trkpt>
      <trkpt lat="42.25578" lon="-1.15475">
        <ele>527.86</ele>
        <time>2021-08-03T18:20:22Z</time>
      </trkpt>
      <trkpt lat="42.25575" lon="-1.15488">
        <ele>527.93</ele>
        <time>2021-08-03T18:20:23Z</time>
      </trkpt>
      <trkpt lat="42.25558" lon="-1.15533">
        <ele>528.38</ele>
        <time>2021-08-03T18:20:26Z</time>
      </trkpt>
      <trkpt lat="42.25526" lon="-1.15686">
        <ele>532.01</ele>
        <time>2021-08-03T18:20:35Z</time>
      </trkpt>
      <trkpt lat="42.25517" lon="-1.15754">
        <ele>535.25</ele>
        <time>2021-08-03T18:20:40Z</time>
      </trkpt>
      <trkpt lat="42.25504" lon="-1.15836">
        <ele>538.53</ele>
        <time>2021-08-03T18:20:46Z</time>
      </trkpt>
      <trkpt lat="42.25493" lon="-1.15908">
        <ele>538.93</ele>
        <time>2021-08-03T18:20:53Z</time>
      </trkpt>
      <trkpt lat="42.25491" lon="-1.15919">
        <ele>538.32</ele>
        <time>2021-08-03T18:20:55Z</time>
      </trkpt>
      <trkpt lat="42.25501" lon="-1.15998">
        <ele>536.41</ele>
        <time>2021-08-03T18:21:01Z</time>
      </trkpt>
      <trkpt lat="42.25543" lon="-1.1619">
        <ele>532.83</ele>
        <time>2021-08-03T18:21:10Z</time>
      </trkpt>
      <trkpt lat="42.25561" lon="-1.16236">
        <ele>531.81</ele>
        <time>2021-08-03T18:21:13Z</time>
      </trkpt>
      <trkpt lat="42.25553" lon="-1.16309">
        <ele>529.75</ele>
        <time>2021-08-03T18:21:18Z</time>
      </trkpt>
      <trkpt lat="42.25504" lon="-1.1648">
        <ele>526.27</ele>
        <time>2021-08-03T18:21:26Z</time>
      </trkpt>
      <trkpt lat="42.25484" lon="-1.16577">
        <ele>525.55</ele>
        <time>2021-08-03T18:21:30Z</time>
      </trkpt>
      <trkpt lat="42.25465" lon="-1.1663">
        <ele>525.51</ele>
        <time>2021-08-03T18:21:33Z</time>
      </trkpt>
      <trkpt lat="42.25482" lon="-1.1668">
        <ele>528.03</ele>
        <time>2021-08-03T18:21:38Z</time>
      </trkpt>
      <trkpt lat="42.25547" lon="-1.1674">
        <ele>532.41</ele>
        <time>2021-08-03T18:21:44Z</time>
      </trkpt>
      <trkpt lat="42.25573" lon="-1.16765">
        <ele>533.71</ele>
        <time>2021-08-03T18:21:46Z</time>
      </trkpt>
      <trkpt lat="42.25626" lon="-1.16864">
        <ele>536.68</ele>
        <time>2021-08-03T18:21:52Z</time>
      </trkpt>
      <trkpt lat="42.25723" lon="-1.17076">
        <ele>538.38</ele>
        <time>2021-08-03T18:22:02Z</time>
      </trkpt>
      <trkpt lat="42.2582" lon="-1.17292">
        <ele>541.53</ele>
        <time>2021-08-03T18:22:12Z</time>
      </trkpt>
      <trkpt lat="42.25855" lon="-1.17474">
        <ele>544.7</ele>
        <time>2021-08-03T18:22:20Z</time>
      </trkpt>
      <trkpt lat="42.25878" lon="-1.17599">
        <ele>548.4</ele>
        <time>2021-08-03T18:22:26Z</time>
      </trkpt>
      <trkpt lat="42.25903" lon="-1.17644">
        <ele>551.54</ele>
        <time>2021-08-03T18:22:30Z</time>
      </trkpt>
      <trkpt lat="42.2596" lon="-1.177">
        <ele>555.68</ele>
        <time>2021-08-03T18:22:36Z</time>
      </trkpt>
      <trkpt lat="42.25994" lon="-1.17756">
        <ele>559.45</ele>
        <time>2021-08-03T18:22:42Z</time>
      </trkpt>
      <trkpt lat="42.26004" lon="-1.17783">
        <ele>559.68</ele>
        <time>2021-08-03T18:22:48Z</time>
      </trkpt>
      <trkpt lat="42.26021" lon="-1.17896">
        <ele>558.77</ele>
        <time>2021-08-03T18:22:58Z</time>
      </trkpt>
      <trkpt lat="42.26023" lon="-1.17915">
        <ele>558.59</ele>
        <time>2021-08-03T18:23:00Z</time>
      </trkpt>
      <trkpt lat="42.26027" lon="-1.17985">
        <ele>558.26</ele>
        <time>2021-08-03T18:23:05Z</time>
      </trkpt>
      <trkpt lat="42.26051" lon="-1.18066">
        <ele>558.26</ele>
        <time>2021-08-03T18:23:10Z</time>
      </trkpt>
      <trkpt lat="42.26062" lon="-1.18172">
        <ele>557.96</ele>
        <time>2021-08-03T18:23:16Z</time>
      </trkpt>
      <trkpt lat="42.26054" lon="-1.18224">
        <ele>557.47</ele>
        <time>2021-08-03T18:23:19Z</time>
      </trkpt>
      <trkpt lat="42.2608" lon="-1.18305">
        <ele>555.16</ele>
        <time>2021-08-03T18:23:25Z</time>
      </trkpt>
      <trkpt lat="42.26101" lon="-1.18321">
        <ele>554.05</ele>
        <time>2021-08-03T18:23:27Z</time>
      </trkpt>
      <trkpt lat="42.26125" lon="-1.18367">
        <ele>551.09</ele>
        <time>2021-08-03T18:23:31Z</time>
      </trkpt>
      <trkpt lat="42.26142" lon="-1.18435">
        <ele>547.64</ele>
        <time>2021-08-03T18:23:36Z</time>
      </trkpt>
      <trkpt lat="42.26166" lon="-1.18494">
        <ele>545.48</ele>
        <time>2021-08-03T18:23:42Z</time>
      </trkpt>
      <trkpt lat="42.26206" lon="-1.1853">
        <ele>545.54</ele>
        <time>2021-08-03T18:23:49Z</time>
      </trkpt>
      <trkpt lat="42.26219" lon="-1.18549">
        <ele>545.63</ele>
        <time>2021-08-03T18:23:52Z</time>
      </trkpt>
      <trkpt lat="42.26239" lon="-1.18581">
        <ele>544.83</ele>
        <time>2021-08-03T18:24:00Z</time>
      </trkpt>
      <trkpt lat="42.26248" lon="-1.18599">
        <ele>544.69</ele>
        <time>2021-08-03T18:24:03Z</time>
      </trkpt>
      <trkpt lat="42.26264" lon="-1.18638">
        <ele>546.14</ele>
        <time>2021-08-03T18:24:12Z</time>
      </trkpt>
      <trkpt lat="42.26271" lon="-1.18658">
        <ele>546.68</ele>
        <time>2021-08-03T18:24:19Z</time>
      </trkpt>
      <trkpt lat="42.26268" lon="-1.18688">
        <ele>545.67</ele>
        <time>2021-08-03T18:24:27Z</time>
      </trkpt>
      <trkpt lat="42.26278" lon="-1.18696">
        <ele>544.19</ele>
        <time>2021-08-03T18:24:53Z</time>
      </trkpt>
      <trkpt lat="42.26308" lon="-1.18699">
        <ele>544.58</ele>
        <time>2021-08-03T18:25:03Z</time>
      </trkpt>
      <trkpt lat="42.2633" lon="-1.18688">
        <ele>544.67</ele>
        <time>2021-08-03T18:25:07Z</time>
      </trkpt>
      <trkpt lat="42.26404" lon="-1.18647">
        <ele>543.83</ele>
        <time>2021-08-03T18:25:18Z</time>
      </trkpt>
      <trkpt lat="42.26491" lon="-1.18638">
        <ele>542.13</ele>
        <time>2021-08-03T18:25:29Z</time>
      </trkpt>
      <trkpt lat="42.2649" lon="-1.18639">
        <ele>539.84</ele>
        <time>2021-08-03T18:25:38Z</time>
      </trkpt>
      <trkpt lat="42.26491" lon="-1.18639">
        <ele>539.45</ele>
        <time>2021-08-03T18:25:44Z</time>
      </trkpt>
      <trkpt lat="42.26484" lon="-1.1866">
        <ele>539</ele>
        <time>2021-08-03T18:25:51Z</time>
      </trkpt>
      <trkpt lat="42.26469" lon="-1.18668">
        <ele>539.01</ele>
        <time>2021-08-03T18:25:53Z</time>
      </trkpt>
      <trkpt lat="42.26409" lon="-1.18705">
        <ele>538.89</ele>
        <time>2021-08-03T18:26:00Z</time>
      </trkpt>
      <trkpt lat="42.26391" lon="-1.18753">
        <ele>538.53</ele>
        <time>2021-08-03T18:26:05Z</time>
      </trkpt>
      <trkpt lat="42.26371" lon="-1.18814">
        <ele>538.43</ele>
        <time>2021-08-03T18:26:10Z</time>
      </trkpt>
      <trkpt lat="42.26267" lon="-1.18937">
        <ele>536.59</ele>
        <time>2021-08-03T18:26:23Z</time>
      </trkpt>
      <trkpt lat="42.26245" lon="-1.18953">
        <ele>535.56</ele>
        <time>2021-08-03T18:26:26Z</time>
      </trkpt>
      <trkpt lat="42.26237" lon="-1.18998">
        <ele>533.05</ele>
        <time>2021-08-03T18:26:32Z</time>
      </trkpt>
      <trkpt lat="42.26235" lon="-1.19064">
        <ele>531.38</ele>
        <time>2021-08-03T18:26:38Z</time>
      </trkpt>
      <trkpt lat="42.26214" lon="-1.19136">
        <ele>530.6</ele>
        <time>2021-08-03T18:26:44Z</time>
      </trkpt>
      <trkpt lat="42.26206" lon="-1.19198">
        <ele>529.91</ele>
        <time>2021-08-03T18:26:53Z</time>
      </trkpt>
      <trkpt lat="42.26199" lon="-1.19249">
        <ele>529.75</ele>
        <time>2021-08-03T18:27:01Z</time>
      </trkpt>
      <trkpt lat="42.26179" lon="-1.19384">
        <ele>531.05</ele>
        <time>2021-08-03T18:27:10Z</time>
      </trkpt>
      <trkpt lat="42.26165" lon="-1.19451">
        <ele>532.68</ele>
        <time>2021-08-03T18:27:16Z</time>
      </trkpt>
      <trkpt lat="42.26168" lon="-1.19484">
        <ele>533.72</ele>
        <time>2021-08-03T18:27:20Z</time>
      </trkpt>
      <trkpt lat="42.26183" lon="-1.1957">
        <ele>535.4</ele>
        <time>2021-08-03T18:27:28Z</time>
      </trkpt>
      <trkpt lat="42.26174" lon="-1.19649">
        <ele>538.6</ele>
        <time>2021-08-03T18:27:35Z</time>
      </trkpt>
      <trkpt lat="42.26172" lon="-1.19652">
        <ele>539.23</ele>
        <time>2021-08-03T18:27:36Z</time>
      </trkpt>
      <trkpt lat="42.26169" lon="-1.19662">
        <ele>541.76</ele>
        <time>2021-08-03T18:27:41Z</time>
      </trkpt>
      <trkpt lat="42.26179" lon="-1.19676">
        <ele>543.21</ele>
        <time>2021-08-03T18:27:45Z</time>
      </trkpt>
      <trkpt lat="42.26224" lon="-1.19713">
        <ele>545.74</ele>
        <time>2021-08-03T18:27:55Z</time>
      </trkpt>
      <trkpt lat="42.26246" lon="-1.19699">
        <ele>546.5</ele>
        <time>2021-08-03T18:28:00Z</time>
      </trkpt>
      <trkpt lat="42.26299" lon="-1.19611">
        <ele>547.72</ele>
        <time>2021-08-03T18:28:14Z</time>
      </trkpt>
      <trkpt lat="42.26357" lon="-1.19525">
        <ele>548.37</ele>
        <time>2021-08-03T18:28:28Z</time>
      </trkpt>
      <trkpt lat="42.26456" lon="-1.19456">
        <ele>549.49</ele>
        <time>2021-08-03T18:28:43Z</time>
      </trkpt>
      <trkpt lat="42.26486" lon="-1.19436">
        <ele>550.05</ele>
        <time>2021-08-03T18:28:46Z</time>
      </trkpt>
      <trkpt lat="42.26578" lon="-1.19424">
        <ele>551.87</ele>
        <time>2021-08-03T18:28:53Z</time>
      </trkpt>
      <trkpt lat="42.26707" lon="-1.19421">
        <ele>554.16</ele>
        <time>2021-08-03T18:29:02Z</time>
      </trkpt>
      <trkpt lat="42.26748" lon="-1.19441">
        <ele>554.56</ele>
        <time>2021-08-03T18:29:06Z</time>
      </trkpt>
      <trkpt lat="42.26856" lon="-1.1954">
        <ele>556.12</ele>
        <time>2021-08-03T18:29:15Z</time>
      </trkpt>
      <trkpt lat="42.26955" lon="-1.1958">
        <ele>557.09</ele>
        <time>2021-08-03T18:29:23Z</time>
      </trkpt>
      <trkpt lat="42.26968" lon="-1.19583">
        <ele>557.24</ele>
        <time>2021-08-03T18:29:24Z</time>
      </trkpt>
      <trkpt lat="42.2704" lon="-1.1962">
        <ele>557.18</ele>
        <time>2021-08-03T18:29:32Z</time>
      </trkpt>
      <trkpt lat="42.27124" lon="-1.1966">
        <ele>556.83</ele>
        <time>2021-08-03T18:29:41Z</time>
      </trkpt>
      <trkpt lat="42.27178" lon="-1.19744">
        <ele>557.25</ele>
        <time>2021-08-03T18:29:49Z</time>
      </trkpt>
      <trkpt lat="42.27221" lon="-1.19802">
        <ele>557.52</ele>
        <time>2021-08-03T18:29:56Z</time>
      </trkpt>
      <trkpt lat="42.27271" lon="-1.19854">
        <ele>556.63</ele>
        <time>2021-08-03T18:30:09Z</time>
      </trkpt>
      <trkpt lat="42.27316" lon="-1.19903">
        <ele>556.05</ele>
        <time>2021-08-03T18:30:27Z</time>
      </trkpt>
      <trkpt lat="42.27364" lon="-1.19952">
        <ele>556.54</ele>
        <time>2021-08-03T18:30:36Z</time>
      </trkpt>
      <trkpt lat="42.2745" lon="-1.2004">
        <ele>558.81</ele>
        <time>2021-08-03T18:30:44Z</time>
      </trkpt>
      <trkpt lat="42.27474" lon="-1.20065">
        <ele>559.66</ele>
        <time>2021-08-03T18:30:46Z</time>
      </trkpt>
      <trkpt lat="42.27537" lon="-1.20177">
        <ele>563.39</ele>
        <time>2021-08-03T18:30:53Z</time>
      </trkpt>
      <trkpt lat="42.27594" lon="-1.20246">
        <ele>564.62</ele>
        <time>2021-08-03T18:30:59Z</time>
      </trkpt>
      <trkpt lat="42.27669" lon="-1.20333">
        <ele>563.71</ele>
        <time>2021-08-03T18:31:08Z</time>
      </trkpt>
      <trkpt lat="42.27809" lon="-1.20466">
        <ele>567.03</ele>
        <time>2021-08-03T18:31:21Z</time>
      </trkpt>
      <trkpt lat="42.2791" lon="-1.20557">
        <ele>570.39</ele>
        <time>2021-08-03T18:31:30Z</time>
      </trkpt>
      <trkpt lat="42.2799" lon="-1.20645">
        <ele>573.4</ele>
        <time>2021-08-03T18:31:37Z</time>
      </trkpt>
      <trkpt lat="42.28024" lon="-1.20685">
        <ele>574.54</ele>
        <time>2021-08-03T18:31:40Z</time>
      </trkpt>
      <trkpt lat="42.28093" lon="-1.20809">
        <ele>578.2</ele>
        <time>2021-08-03T18:31:48Z</time>
      </trkpt>
      <trkpt lat="42.28143" lon="-1.20892">
        <ele>581.3</ele>
        <time>2021-08-03T18:31:54Z</time>
      </trkpt>
      <trkpt lat="42.28152" lon="-1.20905">
        <ele>581.61</ele>
        <time>2021-08-03T18:31:55Z</time>
      </trkpt>
      <trkpt lat="42.2824" lon="-1.2097">
        <ele>582.66</ele>
        <time>2021-08-03T18:32:02Z</time>
      </trkpt>
      <trkpt lat="42.28383" lon="-1.21057">
        <ele>584.2</ele>
        <time>2021-08-03T18:32:13Z</time>
      </trkpt>
      <trkpt lat="42.28484" lon="-1.21122">
        <ele>585.92</ele>
        <time>2021-08-03T18:32:21Z</time>
      </trkpt>
      <trkpt lat="42.28533" lon="-1.21212">
        <ele>587.98</ele>
        <time>2021-08-03T18:32:28Z</time>
      </trkpt>
      <trkpt lat="42.28571" lon="-1.21232">
        <ele>588.02</ele>
        <time>2021-08-03T18:32:33Z</time>
      </trkpt>
      <trkpt lat="42.28595" lon="-1.21248">
        <ele>587.08</ele>
        <time>2021-08-03T18:32:38Z</time>
      </trkpt>
      <trkpt lat="42.28595" lon="-1.2127">
        <ele>586.66</ele>
        <time>2021-08-03T18:32:40Z</time>
      </trkpt>
      <trkpt lat="42.28585" lon="-1.21372">
        <ele>583.33</ele>
        <time>2021-08-03T18:32:47Z</time>
      </trkpt>
      <trkpt lat="42.28577" lon="-1.21459">
        <ele>580.23</ele>
        <time>2021-08-03T18:32:53Z</time>
      </trkpt>
      <trkpt lat="42.28566" lon="-1.21556">
        <ele>576.99</ele>
        <time>2021-08-03T18:33:01Z</time>
      </trkpt>
      <trkpt lat="42.28568" lon="-1.21584">
        <ele>574.76</ele>
        <time>2021-08-03T18:33:08Z</time>
      </trkpt>
      <trkpt lat="42.28566" lon="-1.21602">
        <ele>573.69</ele>
        <time>2021-08-03T18:33:19Z</time>
      </trkpt>
      <trkpt lat="42.28561" lon="-1.21647">
        <ele>573.79</ele>
        <time>2021-08-03T18:33:24Z</time>
      </trkpt>
      <trkpt lat="42.28577" lon="-1.21746">
        <ele>574.21</ele>
        <time>2021-08-03T18:33:32Z</time>
      </trkpt>
      <trkpt lat="42.2858" lon="-1.21793">
        <ele>574.17</ele>
        <time>2021-08-03T18:33:35Z</time>
      </trkpt>
      <trkpt lat="42.28597" lon="-1.21867">
        <ele>573.23</ele>
        <time>2021-08-03T18:33:40Z</time>
      </trkpt>
      <trkpt lat="42.28619" lon="-1.21936">
        <ele>572.01</ele>
        <time>2021-08-03T18:33:45Z</time>
      </trkpt>
      <trkpt lat="42.28645" lon="-1.21974">
        <ele>571.3</ele>
        <time>2021-08-03T18:33:49Z</time>
      </trkpt>
      <trkpt lat="42.28662" lon="-1.21987">
        <ele>570.93</ele>
        <time>2021-08-03T18:33:51Z</time>
      </trkpt>
      <trkpt lat="42.28737" lon="-1.21989">
        <ele>570.33</ele>
        <time>2021-08-03T18:33:59Z</time>
      </trkpt>
      <trkpt lat="42.2876" lon="-1.21983">
        <ele>570.54</ele>
        <time>2021-08-03T18:34:02Z</time>
      </trkpt>
      <trkpt lat="42.28772" lon="-1.21985">
        <ele>571.08</ele>
        <time>2021-08-03T18:34:06Z</time>
      </trkpt>
      <trkpt lat="42.28775" lon="-1.21987">
        <ele>572.26</ele>
        <time>2021-08-03T18:34:27Z</time>
      </trkpt>
      <trkpt lat="42.28778" lon="-1.21994">
        <ele>572.27</ele>
        <time>2021-08-03T18:37:11Z</time>
      </trkpt>
      <trkpt lat="42.28783" lon="-1.22006">
        <ele>572.27</ele>
        <time>2021-08-03T18:37:13Z</time>
      </trkpt>
      <trkpt lat="42.28791" lon="-1.22024">
        <ele>572.24</ele>
        <time>2021-08-03T18:37:15Z</time>
      </trkpt>
      <trkpt lat="42.28783" lon="-1.22086">
        <ele>571.1</ele>
        <time>2021-08-03T18:37:21Z</time>
      </trkpt>
      <trkpt lat="42.28791" lon="-1.2211">
        <ele>569.75</ele>
        <time>2021-08-03T18:37:26Z</time>
      </trkpt>
      <trkpt lat="42.28797" lon="-1.2211">
        <ele>569.45</ele>
        <time>2021-08-03T18:37:27Z</time>
      </trkpt>
      <trkpt lat="42.28815" lon="-1.22109">
        <ele>568.75</ele>
        <time>2021-08-03T18:37:30Z</time>
      </trkpt>
      <trkpt lat="42.28835" lon="-1.22116">
        <ele>568.24</ele>
        <time>2021-08-03T18:37:33Z</time>
      </trkpt>
      <trkpt lat="42.28882" lon="-1.22125">
        <ele>565.66</ele>
        <time>2021-08-03T18:37:41Z</time>
      </trkpt>
      <trkpt lat="42.28892" lon="-1.22126">
        <ele>563.47</ele>
        <time>2021-08-03T18:37:53Z</time>
      </trkpt>
      <trkpt lat="42.28926" lon="-1.22137">
        <ele>563.48</ele>
        <time>2021-08-03T18:37:57Z</time>
      </trkpt>
      <trkpt lat="42.2898" lon="-1.22191">
        <ele>563.19</ele>
        <time>2021-08-03T18:38:04Z</time>
      </trkpt>
      <trkpt lat="42.29014" lon="-1.22204">
        <ele>561.77</ele>
        <time>2021-08-03T18:38:10Z</time>
      </trkpt>
      <trkpt lat="42.29025" lon="-1.22222">
        <ele>559.48</ele>
        <time>2021-08-03T18:38:18Z</time>
      </trkpt>
      <trkpt lat="42.29032" lon="-1.22233">
        <ele>559.12</ele>
        <time>2021-08-03T18:38:20Z</time>
      </trkpt>
      <trkpt lat="42.29044" lon="-1.22262">
        <ele>558.45</ele>
        <time>2021-08-03T18:38:24Z</time>
      </trkpt>
      <trkpt lat="42.29051" lon="-1.223">
        <ele>556.58</ele>
        <time>2021-08-03T18:38:32Z</time>
      </trkpt>
      <trkpt lat="42.29068" lon="-1.2241">
        <ele>554.38</ele>
        <time>2021-08-03T18:38:43Z</time>
      </trkpt>
      <trkpt lat="42.29089" lon="-1.22553">
        <ele>552.54</ele>
        <time>2021-08-03T18:38:54Z</time>
      </trkpt>
      <trkpt lat="42.29105" lon="-1.22648">
        <ele>551.41</ele>
        <time>2021-08-03T18:39:01Z</time>
      </trkpt>
      <trkpt lat="42.29118" lon="-1.22687">
        <ele>548.35</ele>
        <time>2021-08-03T18:39:11Z</time>
      </trkpt>
      <trkpt lat="42.29148" lon="-1.22765">
        <ele>546.61</ele>
        <time>2021-08-03T18:39:25Z</time>
      </trkpt>
      <trkpt lat="42.29157" lon="-1.22791">
        <ele>546.34</ele>
        <time>2021-08-03T18:39:28Z</time>
      </trkpt>
      <trkpt lat="42.29162" lon="-1.22822">
        <ele>546.3</ele>
        <time>2021-08-03T18:39:31Z</time>
      </trkpt>
      <trkpt lat="42.29163" lon="-1.22898">
        <ele>545.59</ele>
        <time>2021-08-03T18:39:41Z</time>
      </trkpt>
      <trkpt lat="42.29167" lon="-1.23">
        <ele>545.46</ele>
        <time>2021-08-03T18:39:51Z</time>
      </trkpt>
      <trkpt lat="42.29167" lon="-1.23064">
        <ele>545.4</ele>
        <time>2021-08-03T18:39:57Z</time>
      </trkpt>
      <trkpt lat="42.29175" lon="-1.23142">
        <ele>545.15</ele>
        <time>2021-08-03T18:40:05Z</time>
      </trkpt>
      <trkpt lat="42.2919" lon="-1.23216">
        <ele>544.76</ele>
        <time>2021-08-03T18:40:13Z</time>
      </trkpt>
      <trkpt lat="42.29191" lon="-1.23274">
        <ele>544.68</ele>
        <time>2021-08-03T18:40:19Z</time>
      </trkpt>
      <trkpt lat="42.29216" lon="-1.23355">
        <ele>544.45</ele>
        <time>2021-08-03T18:40:29Z</time>
      </trkpt>
      <trkpt lat="42.29234" lon="-1.23423">
        <ele>544.33</ele>
        <time>2021-08-03T18:40:40Z</time>
      </trkpt>
      <trkpt lat="42.29243" lon="-1.2347">
        <ele>544.38</ele>
        <time>2021-08-03T18:40:50Z</time>
      </trkpt>
      <trkpt lat="42.2926" lon="-1.23544">
        <ele>545.24</ele>
        <time>2021-08-03T18:41:00Z</time>
      </trkpt>
      <trkpt lat="42.29273" lon="-1.236">
        <ele>545.78</ele>
        <time>2021-08-03T18:41:04Z</time>
      </trkpt>
      <trkpt lat="42.29311" lon="-1.23676">
        <ele>546.8</ele>
        <time>2021-08-03T18:41:09Z</time>
      </trkpt>
      <trkpt lat="42.29339" lon="-1.2372">
        <ele>547.19</ele>
        <time>2021-08-03T18:41:13Z</time>
      </trkpt>
      <trkpt lat="42.2934" lon="-1.23801">
        <ele>547.26</ele>
        <time>2021-08-03T18:41:19Z</time>
      </trkpt>
      <trkpt lat="42.29331" lon="-1.23839">
        <ele>547.24</ele>
        <time>2021-08-03T18:41:21Z</time>
      </trkpt>
      <trkpt lat="42.29334" lon="-1.23934">
        <ele>547.34</ele>
        <time>2021-08-03T18:41:26Z</time>
      </trkpt>
      <trkpt lat="42.2935" lon="-1.24047">
        <ele>547.03</ele>
        <time>2021-08-03T18:41:33Z</time>
      </trkpt>
      <trkpt lat="42.29354" lon="-1.24066">
        <ele>546.58</ele>
        <time>2021-08-03T18:41:35Z</time>
      </trkpt>
      <trkpt lat="42.29379" lon="-1.24147">
        <ele>543.04</ele>
        <time>2021-08-03T18:41:45Z</time>
      </trkpt>
      <trkpt lat="42.29382" lon="-1.24156">
        <ele>542.63</ele>
        <time>2021-08-03T18:41:46Z</time>
      </trkpt>
      <trkpt lat="42.29431" lon="-1.24228">
        <ele>540.3</ele>
        <time>2021-08-03T18:41:53Z</time>
      </trkpt>
      <trkpt lat="42.29441" lon="-1.24239">
        <ele>539.96</ele>
        <time>2021-08-03T18:41:54Z</time>
      </trkpt>
      <trkpt lat="42.29497" lon="-1.2433">
        <ele>538.56</ele>
        <time>2021-08-03T18:42:01Z</time>
      </trkpt>
      <trkpt lat="42.29524" lon="-1.24369">
        <ele>537.88</ele>
        <time>2021-08-03T18:42:06Z</time>
      </trkpt>
      <trkpt lat="42.29582" lon="-1.24412">
        <ele>536.86</ele>
        <time>2021-08-03T18:42:17Z</time>
      </trkpt>
      <trkpt lat="42.29589" lon="-1.24461">
        <ele>537.24</ele>
        <time>2021-08-03T18:42:24Z</time>
      </trkpt>
      <trkpt lat="42.29589" lon="-1.24474">
        <ele>537.31</ele>
        <time>2021-08-03T18:42:25Z</time>
      </trkpt>
      <trkpt lat="42.29594" lon="-1.24529">
        <ele>537.54</ele>
        <time>2021-08-03T18:42:29Z</time>
      </trkpt>
      <trkpt lat="42.29612" lon="-1.24608">
        <ele>536.16</ele>
        <time>2021-08-03T18:42:37Z</time>
      </trkpt>
      <trkpt lat="42.29615" lon="-1.24625">
        <ele>534.14</ele>
        <time>2021-08-03T18:42:44Z</time>
      </trkpt>
      <trkpt lat="42.29616" lon="-1.24658">
        <ele>533.32</ele>
        <time>2021-08-03T18:42:56Z</time>
      </trkpt>
      <trkpt lat="42.29632" lon="-1.24717">
        <ele>533.22</ele>
        <time>2021-08-03T18:43:02Z</time>
      </trkpt>
      <trkpt lat="42.29624" lon="-1.24791">
        <ele>532.35</ele>
        <time>2021-08-03T18:43:08Z</time>
      </trkpt>
      <trkpt lat="42.29598" lon="-1.24859">
        <ele>530.51</ele>
        <time>2021-08-03T18:43:14Z</time>
      </trkpt>
      <trkpt lat="42.29607" lon="-1.24922">
        <ele>528.18</ele>
        <time>2021-08-03T18:43:21Z</time>
      </trkpt>
      <trkpt lat="42.29614" lon="-1.24933">
        <ele>526.16</ele>
        <time>2021-08-03T18:43:28Z</time>
      </trkpt>
      <trkpt lat="42.29603" lon="-1.24957">
        <ele>525.44</ele>
        <time>2021-08-03T18:43:32Z</time>
      </trkpt>
      <trkpt lat="42.29532" lon="-1.25065">
        <ele>525.34</ele>
        <time>2021-08-03T18:43:40Z</time>
      </trkpt>
      <trkpt lat="42.29432" lon="-1.25213">
        <ele>525.66</ele>
        <time>2021-08-03T18:43:47Z</time>
      </trkpt>
      <trkpt lat="42.2924" lon="-1.25511">
        <ele>523.02</ele>
        <time>2021-08-03T18:43:58Z</time>
      </trkpt>
      <trkpt lat="42.29085" lon="-1.25837">
        <ele>522.53</ele>
        <time>2021-08-03T18:44:08Z</time>
      </trkpt>
      <trkpt lat="42.29" lon="-1.25986">
        <ele>519.9</ele>
        <time>2021-08-03T18:44:14Z</time>
      </trkpt>
      <trkpt lat="42.28874" lon="-1.26138">
        <ele>516.63</ele>
        <time>2021-08-03T18:44:22Z</time>
      </trkpt>
      <trkpt lat="42.2873" lon="-1.26312">
        <ele>513.53</ele>
        <time>2021-08-03T18:44:32Z</time>
      </trkpt>
      <trkpt lat="42.28628" lon="-1.26432">
        <ele>511.13</ele>
        <time>2021-08-03T18:44:40Z</time>
      </trkpt>
      <trkpt lat="42.28528" lon="-1.26552">
        <ele>508.66</ele>
        <time>2021-08-03T18:44:49Z</time>
      </trkpt>
      <trkpt lat="42.28433" lon="-1.26666">
        <ele>506.05</ele>
        <time>2021-08-03T18:45:00Z</time>
      </trkpt>
      <trkpt lat="42.28368" lon="-1.26766">
        <ele>504.09</ele>
        <time>2021-08-03T18:45:10Z</time>
      </trkpt>
      <trkpt lat="42.2832" lon="-1.26846">
        <ele>501.87</ele>
        <time>2021-08-03T18:45:21Z</time>
      </trkpt>
      <trkpt lat="42.28271" lon="-1.26917">
        <ele>500.52</ele>
        <time>2021-08-03T18:45:32Z</time>
      </trkpt>
      <trkpt lat="42.28226" lon="-1.26981">
        <ele>499.86</ele>
        <time>2021-08-03T18:45:42Z</time>
      </trkpt>
      <trkpt lat="42.2819" lon="-1.27031">
        <ele>499.47</ele>
        <time>2021-08-03T18:45:53Z</time>
      </trkpt>
      <trkpt lat="42.28184" lon="-1.27051">
        <ele>499.31</ele>
        <time>2021-08-03T18:46:00Z</time>
      </trkpt>
      <trkpt lat="42.28223" lon="-1.27103">
        <ele>499.76</ele>
        <time>2021-08-03T18:46:11Z</time>
      </trkpt>
      <trkpt lat="42.28258" lon="-1.27151">
        <ele>500.08</ele>
        <time>2021-08-03T18:46:22Z</time>
      </trkpt>
      <trkpt lat="42.28255" lon="-1.27169">
        <ele>500.47</ele>
        <time>2021-08-03T18:46:28Z</time>
      </trkpt>
      <trkpt lat="42.28236" lon="-1.27195">
        <ele>500.6</ele>
        <time>2021-08-03T18:46:39Z</time>
      </trkpt>
      <trkpt lat="42.28228" lon="-1.2721">
        <ele>500.51</ele>
        <time>2021-08-03T18:46:50Z</time>
      </trkpt>
      <trkpt lat="42.2822" lon="-1.27215">
        <ele>500.52</ele>
        <time>2021-08-03T18:46:54Z</time>
      </trkpt>
      <trkpt lat="42.28224" lon="-1.27266">
        <ele>500.31</ele>
        <time>2021-08-03T18:47:07Z</time>
      </trkpt>
      <trkpt lat="42.2823" lon="-1.27315">
        <ele>499.66</ele>
        <time>2021-08-03T18:47:22Z</time>
      </trkpt>
      <trkpt lat="42.28222" lon="-1.2735">
        <ele>499.31</ele>
        <time>2021-08-03T18:47:38Z</time>
      </trkpt>
      <trkpt lat="42.28218" lon="-1.2736">
        <ele>498.88</ele>
        <time>2021-08-03T18:47:51Z</time>
      </trkpt>
      <trkpt lat="42.28218" lon="-1.27353">
        <ele>498.69</ele>
        <time>2021-08-03T18:47:59Z</time>
      </trkpt>
      <trkpt lat="42.28227" lon="-1.27346">
        <ele>498.94</ele>
        <time>2021-08-03T18:48:10Z</time>
      </trkpt>
      <trkpt lat="42.28229" lon="-1.2734">
        <ele>499</ele>
        <time>2021-08-03T18:48:14Z</time>
      </trkpt>
      <trkpt lat="42.28236" lon="-1.27316">
        <ele>499.25</ele>
        <time>2021-08-03T18:48:30Z</time>
      </trkpt>
      <trkpt lat="42.28231" lon="-1.27309">
        <ele>499.37</ele>
        <time>2021-08-03T18:48:51Z</time>
      </trkpt>
      <trkpt lat="42.28229" lon="-1.27345">
        <ele>499.3</ele>
        <time>2021-08-03T18:49:02Z</time>
      </trkpt>
      <trkpt lat="42.28226" lon="-1.27356">
        <ele>498.83</ele>
        <time>2021-08-03T18:49:13Z</time>
      </trkpt>
      <trkpt lat="42.28224" lon="-1.27348">
        <ele>498.69</ele>
        <time>2021-08-03T18:49:23Z</time>
      </trkpt>
      <trkpt lat="42.28218" lon="-1.27351">
        <ele>498.67</ele>
        <time>2021-08-03T18:49:41Z</time>
      </trkpt>
      <trkpt lat="42.28221" lon="-1.2735">
        <ele>498.6</ele>
        <time>2021-08-03T18:49:55Z</time>
      </trkpt>
      <trkpt lat="42.28222" lon="-1.2735">
        <ele>498.58</ele>
        <time>2021-08-03T18:49:56Z</time>
      </trkpt>
      <trkpt lat="42.28225" lon="-1.2735">
        <ele>498.52</ele>
        <time>2021-08-03T18:50:01Z</time>
      </trkpt>
      <trkpt lat="42.28228" lon="-1.27351">
        <ele>499.11</ele>
        <time>2021-08-03T18:50:23Z</time>
      </trkpt>
      <trkpt lat="42.28229" lon="-1.27351">
        <ele>499.15</ele>
        <time>2021-08-03T18:50:29Z</time>
      </trkpt>
      <trkpt lat="42.28196" lon="-1.27289">
        <ele>500.75</ele>
        <time>2021-08-03T18:51:01Z</time>
      </trkpt>
      <trkpt lat="42.2822" lon="-1.27347">
        <ele>500.75</ele>
        <time>2021-08-03T18:51:18Z</time>
      </trkpt>
    </trkseg>
  </trk>
</gpx>